<?xml version="1.0" encoding="UTF-8"?>
<gpx version="1.1" creator="https://www.youtrack.es" xsi:schemaLocation="http://www.topografix.com/GPX/1/1 http://www.topografix.com/GPX/1/1/gpx.xsd http://www.garmin.com/xmlschemas/GpxExtensions/v3 http://www.garmin.com/xmlschemas/GpxExtensionsv3.xsd http://www.garmin.com/xmlschemas/TrackPointExtension/v1 http://www.garmin.com/xmlschemas/TrackPointExtensionv1.xsd" xmlns:gpxtpx="http://www.garmin.com/xmlschemas/TrackPointExtension/v1" xmlns:gpxx="http://www.garmin.com/xmlschemas/GpxExtensions/v3" xmlns:xsi="http://www.w3.org/2001/XMLSchema-instance">
  <metadata>
    <link href="https://www.youtrack.es">
      <text>YouTrack.es</text>
    </link>
    <time>2026-05-08T12:45:59Z</time>
  </metadata>
  <trk>
    <src>https://www.youtrack.es</src>
    <link href="https://www.youtrack.es/ruta/7147-valvanera">
      <text>YouTrack.es</text>
    </link>
    <trkseg>
      <trkpt lat="4.867239" lon="-74.075286">
        <ele>2575.8</ele>
        <time>2019-07-29T16:59:33.472Z</time>
      </trkpt>
      <trkpt lat="4.867248" lon="-74.075295">
        <ele>2576.2</ele>
        <time>2019-07-29T16:59:34.472Z</time>
      </trkpt>
      <trkpt lat="4.867248" lon="-74.07531">
        <ele>2576.2</ele>
        <time>2019-07-29T16:59:35.472Z</time>
      </trkpt>
      <trkpt lat="4.867279" lon="-74.075463">
        <ele>2575.2</ele>
        <time>2019-07-29T16:59:36.472Z</time>
      </trkpt>
      <trkpt lat="4.867341" lon="-74.075627">
        <ele>2575.2</ele>
        <time>2019-07-29T16:59:37.472Z</time>
      </trkpt>
      <trkpt lat="4.867372" lon="-74.075715">
        <ele>2575.6</ele>
        <time>2019-07-29T16:59:38.472Z</time>
      </trkpt>
      <trkpt lat="4.867404" lon="-74.075791">
        <ele>2576</ele>
        <time>2019-07-29T16:59:39.472Z</time>
      </trkpt>
      <trkpt lat="4.867422" lon="-74.075851">
        <ele>2576.6</ele>
        <time>2019-07-29T16:59:40.472Z</time>
      </trkpt>
      <trkpt lat="4.867433" lon="-74.075884">
        <ele>2576.8</ele>
        <time>2019-07-29T16:59:41.472Z</time>
      </trkpt>
      <trkpt lat="4.867456" lon="-74.075948">
        <ele>2577</ele>
        <time>2019-07-29T16:59:42.472Z</time>
      </trkpt>
      <trkpt lat="4.867479" lon="-74.076009">
        <ele>2577</ele>
        <time>2019-07-29T16:59:43.472Z</time>
      </trkpt>
      <trkpt lat="4.867502" lon="-74.076069">
        <ele>2577</ele>
        <time>2019-07-29T16:59:44.472Z</time>
      </trkpt>
      <trkpt lat="4.867525" lon="-74.076135">
        <ele>2578</ele>
        <time>2019-07-29T16:59:45.472Z</time>
      </trkpt>
      <trkpt lat="4.867537" lon="-74.076168">
        <ele>2578.2</ele>
        <time>2019-07-29T16:59:46.472Z</time>
      </trkpt>
      <trkpt lat="4.867581" lon="-74.0763">
        <ele>2579</ele>
        <time>2019-07-29T16:59:47.472Z</time>
      </trkpt>
      <trkpt lat="4.867589" lon="-74.076336">
        <ele>2579.4</ele>
        <time>2019-07-29T16:59:48.472Z</time>
      </trkpt>
      <trkpt lat="4.867608" lon="-74.076403">
        <ele>2580</ele>
        <time>2019-07-29T16:59:49.472Z</time>
      </trkpt>
      <trkpt lat="4.867621" lon="-74.076435">
        <ele>2580.4</ele>
        <time>2019-07-29T16:59:50.472Z</time>
      </trkpt>
      <trkpt lat="4.867709" lon="-74.076667">
        <ele>2580.8</ele>
        <time>2019-07-29T16:59:51.472Z</time>
      </trkpt>
      <trkpt lat="4.867771" lon="-74.076901">
        <ele>2581.6</ele>
        <time>2019-07-29T16:59:52.472Z</time>
      </trkpt>
      <trkpt lat="4.867874" lon="-74.077124">
        <ele>2582.8</ele>
        <time>2019-07-29T16:59:53.472Z</time>
      </trkpt>
      <trkpt lat="4.867894" lon="-74.077155">
        <ele>2582.8</ele>
        <time>2019-07-29T16:59:54.472Z</time>
      </trkpt>
      <trkpt lat="4.868026" lon="-74.077323">
        <ele>2583.2</ele>
        <time>2019-07-29T16:59:55.472Z</time>
      </trkpt>
      <trkpt lat="4.86805" lon="-74.077346">
        <ele>2583.8</ele>
        <time>2019-07-29T16:59:56.472Z</time>
      </trkpt>
      <trkpt lat="4.868079" lon="-74.077364">
        <ele>2584.4</ele>
        <time>2019-07-29T16:59:57.472Z</time>
      </trkpt>
      <trkpt lat="4.868133" lon="-74.0774">
        <ele>2585.6</ele>
        <time>2019-07-29T16:59:58.472Z</time>
      </trkpt>
      <trkpt lat="4.868211" lon="-74.077442">
        <ele>2586.4</ele>
        <time>2019-07-29T16:59:59.472Z</time>
      </trkpt>
      <trkpt lat="4.868236" lon="-74.07746">
        <ele>2586.6</ele>
        <time>2019-07-29T17:00:00.472Z</time>
      </trkpt>
      <trkpt lat="4.868385" lon="-74.077553">
        <ele>2587.2</ele>
        <time>2019-07-29T17:00:01.472Z</time>
      </trkpt>
      <trkpt lat="4.868426" lon="-74.077583">
        <ele>2587.6</ele>
        <time>2019-07-29T17:00:02.472Z</time>
      </trkpt>
      <trkpt lat="4.868513" lon="-74.077615">
        <ele>2588.6</ele>
        <time>2019-07-29T17:00:03.472Z</time>
      </trkpt>
      <trkpt lat="4.868546" lon="-74.077625">
        <ele>2588.8</ele>
        <time>2019-07-29T17:00:04.472Z</time>
      </trkpt>
      <trkpt lat="4.868698" lon="-74.077678">
        <ele>2589.8</ele>
        <time>2019-07-29T17:00:05.472Z</time>
      </trkpt>
      <trkpt lat="4.86877" lon="-74.077711">
        <ele>2590.2</ele>
        <time>2019-07-29T17:00:06.472Z</time>
      </trkpt>
      <trkpt lat="4.868904" lon="-74.077748">
        <ele>2591</ele>
        <time>2019-07-29T17:00:07.472Z</time>
      </trkpt>
      <trkpt lat="4.868968" lon="-74.077764">
        <ele>2591.2</ele>
        <time>2019-07-29T17:00:08.472Z</time>
      </trkpt>
      <trkpt lat="4.869128" lon="-74.077791">
        <ele>2591.8</ele>
        <time>2019-07-29T17:00:09.472Z</time>
      </trkpt>
      <trkpt lat="4.869302" lon="-74.077832">
        <ele>2592</ele>
        <time>2019-07-29T17:00:10.472Z</time>
      </trkpt>
      <trkpt lat="4.869341" lon="-74.077839">
        <ele>2592</ele>
        <time>2019-07-29T17:00:11.472Z</time>
      </trkpt>
      <trkpt lat="4.86945" lon="-74.077859">
        <ele>2593.2</ele>
        <time>2019-07-29T17:00:12.472Z</time>
      </trkpt>
      <trkpt lat="4.869517" lon="-74.077875">
        <ele>2594</ele>
        <time>2019-07-29T17:00:13.472Z</time>
      </trkpt>
      <trkpt lat="4.869585" lon="-74.077884">
        <ele>2594.4</ele>
        <time>2019-07-29T17:00:14.472Z</time>
      </trkpt>
      <trkpt lat="4.869693" lon="-74.077902">
        <ele>2594</ele>
        <time>2019-07-29T17:00:15.472Z</time>
      </trkpt>
      <trkpt lat="4.869918" lon="-74.077939">
        <ele>2595.4</ele>
        <time>2019-07-29T17:00:16.472Z</time>
      </trkpt>
      <trkpt lat="4.869958" lon="-74.077943">
        <ele>2595.8</ele>
        <time>2019-07-29T17:00:17.472Z</time>
      </trkpt>
      <trkpt lat="4.870079" lon="-74.077934">
        <ele>2597</ele>
        <time>2019-07-29T17:00:18.472Z</time>
      </trkpt>
      <trkpt lat="4.87012" lon="-74.077928">
        <ele>2597.4</ele>
        <time>2019-07-29T17:00:19.472Z</time>
      </trkpt>
      <trkpt lat="4.870385" lon="-74.07793">
        <ele>2597.8</ele>
        <time>2019-07-29T17:00:20.472Z</time>
      </trkpt>
      <trkpt lat="4.870483" lon="-74.077902">
        <ele>2598.2</ele>
        <time>2019-07-29T17:00:21.472Z</time>
      </trkpt>
      <trkpt lat="4.870655" lon="-74.077874">
        <ele>2599</ele>
        <time>2019-07-29T17:00:22.472Z</time>
      </trkpt>
      <trkpt lat="4.870739" lon="-74.077858">
        <ele>2599.2</ele>
        <time>2019-07-29T17:00:23.472Z</time>
      </trkpt>
      <trkpt lat="4.870886" lon="-74.07783">
        <ele>2599.6</ele>
        <time>2019-07-29T17:00:24.472Z</time>
      </trkpt>
      <trkpt lat="4.870947" lon="-74.077812">
        <ele>2600.4</ele>
        <time>2019-07-29T17:00:25.472Z</time>
      </trkpt>
      <trkpt lat="4.871074" lon="-74.077779">
        <ele>2601.6</ele>
        <time>2019-07-29T17:00:26.472Z</time>
      </trkpt>
      <trkpt lat="4.871218" lon="-74.077744">
        <ele>2602.4</ele>
        <time>2019-07-29T17:00:27.472Z</time>
      </trkpt>
      <trkpt lat="4.871258" lon="-74.07773">
        <ele>2602.8</ele>
        <time>2019-07-29T17:00:28.472Z</time>
      </trkpt>
      <trkpt lat="4.871442" lon="-74.07763">
        <ele>2603.8</ele>
        <time>2019-07-29T17:00:29.472Z</time>
      </trkpt>
      <trkpt lat="4.87148" lon="-74.077611">
        <ele>2604</ele>
        <time>2019-07-29T17:00:30.472Z</time>
      </trkpt>
      <trkpt lat="4.871637" lon="-74.07753">
        <ele>2604.8</ele>
        <time>2019-07-29T17:00:31.472Z</time>
      </trkpt>
      <trkpt lat="4.871715" lon="-74.077497">
        <ele>2605.8</ele>
        <time>2019-07-29T17:00:32.472Z</time>
      </trkpt>
      <trkpt lat="4.871785" lon="-74.077468">
        <ele>2606.2</ele>
        <time>2019-07-29T17:00:33.472Z</time>
      </trkpt>
      <trkpt lat="4.872001" lon="-74.077396">
        <ele>2607</ele>
        <time>2019-07-29T17:00:34.472Z</time>
      </trkpt>
      <trkpt lat="4.872097" lon="-74.077365">
        <ele>2608.4</ele>
        <time>2019-07-29T17:00:35.472Z</time>
      </trkpt>
      <trkpt lat="4.872186" lon="-74.077358">
        <ele>2609.2</ele>
        <time>2019-07-29T17:00:36.472Z</time>
      </trkpt>
      <trkpt lat="4.87222" lon="-74.077368">
        <ele>2609.4</ele>
        <time>2019-07-29T17:00:37.472Z</time>
      </trkpt>
      <trkpt lat="4.872411" lon="-74.07745">
        <ele>2610.4</ele>
        <time>2019-07-29T17:00:38.472Z</time>
      </trkpt>
      <trkpt lat="4.87256" lon="-74.077546">
        <ele>2611.8</ele>
        <time>2019-07-29T17:00:39.472Z</time>
      </trkpt>
      <trkpt lat="4.872633" lon="-74.077598">
        <ele>2612.4</ele>
        <time>2019-07-29T17:00:40.472Z</time>
      </trkpt>
      <trkpt lat="4.872748" lon="-74.077662">
        <ele>2612.8</ele>
        <time>2019-07-29T17:00:41.472Z</time>
      </trkpt>
      <trkpt lat="4.872788" lon="-74.077668">
        <ele>2613</ele>
        <time>2019-07-29T17:00:42.472Z</time>
      </trkpt>
      <trkpt lat="4.872832" lon="-74.077664">
        <ele>2613.2</ele>
        <time>2019-07-29T17:00:43.472Z</time>
      </trkpt>
      <trkpt lat="4.872891" lon="-74.077592">
        <ele>2613.4</ele>
        <time>2019-07-29T17:00:44.472Z</time>
      </trkpt>
      <trkpt lat="4.872912" lon="-74.077462">
        <ele>2613.6</ele>
        <time>2019-07-29T17:00:45.472Z</time>
      </trkpt>
      <trkpt lat="4.872858" lon="-74.077367">
        <ele>2614</ele>
        <time>2019-07-29T17:00:46.472Z</time>
      </trkpt>
      <trkpt lat="4.872814" lon="-74.077317">
        <ele>2614.6</ele>
        <time>2019-07-29T17:00:47.472Z</time>
      </trkpt>
      <trkpt lat="4.872665" lon="-74.077171">
        <ele>2615</ele>
        <time>2019-07-29T17:00:48.472Z</time>
      </trkpt>
      <trkpt lat="4.872571" lon="-74.077073">
        <ele>2615.2</ele>
        <time>2019-07-29T17:00:49.472Z</time>
      </trkpt>
      <trkpt lat="4.872494" lon="-74.076992">
        <ele>2616</ele>
        <time>2019-07-29T17:00:50.472Z</time>
      </trkpt>
      <trkpt lat="4.87248" lon="-74.076965">
        <ele>2616.2</ele>
        <time>2019-07-29T17:00:51.472Z</time>
      </trkpt>
      <trkpt lat="4.872466" lon="-74.076843">
        <ele>2616.8</ele>
        <time>2019-07-29T17:00:52.472Z</time>
      </trkpt>
      <trkpt lat="4.872476" lon="-74.076778">
        <ele>2617.4</ele>
        <time>2019-07-29T17:00:53.472Z</time>
      </trkpt>
      <trkpt lat="4.87254" lon="-74.076692">
        <ele>2618.4</ele>
        <time>2019-07-29T17:00:54.472Z</time>
      </trkpt>
      <trkpt lat="4.872565" lon="-74.076668">
        <ele>2618.6</ele>
        <time>2019-07-29T17:00:55.472Z</time>
      </trkpt>
      <trkpt lat="4.872712" lon="-74.076557">
        <ele>2619.6</ele>
        <time>2019-07-29T17:00:56.472Z</time>
      </trkpt>
      <trkpt lat="4.87276" lon="-74.076536">
        <ele>2619.6</ele>
        <time>2019-07-29T17:00:57.472Z</time>
      </trkpt>
      <trkpt lat="4.872896" lon="-74.076499">
        <ele>2620</ele>
        <time>2019-07-29T17:00:58.472Z</time>
      </trkpt>
      <trkpt lat="4.872957" lon="-74.076499">
        <ele>2620.6</ele>
        <time>2019-07-29T17:00:59.472Z</time>
      </trkpt>
      <trkpt lat="4.873086" lon="-74.076524">
        <ele>2621.6</ele>
        <time>2019-07-29T17:01:00.472Z</time>
      </trkpt>
      <trkpt lat="4.873118" lon="-74.076535">
        <ele>2622</ele>
        <time>2019-07-29T17:01:01.472Z</time>
      </trkpt>
      <trkpt lat="4.873236" lon="-74.07661">
        <ele>2623</ele>
        <time>2019-07-29T17:01:02.472Z</time>
      </trkpt>
      <trkpt lat="4.873347" lon="-74.076715">
        <ele>2623.8</ele>
        <time>2019-07-29T17:01:03.472Z</time>
      </trkpt>
      <trkpt lat="4.873381" lon="-74.076781">
        <ele>2624.2</ele>
        <time>2019-07-29T17:01:04.472Z</time>
      </trkpt>
      <trkpt lat="4.873427" lon="-74.07687">
        <ele>2624.8</ele>
        <time>2019-07-29T17:01:05.472Z</time>
      </trkpt>
      <trkpt lat="4.87349" lon="-74.07696">
        <ele>2625.4</ele>
        <time>2019-07-29T17:01:06.472Z</time>
      </trkpt>
      <trkpt lat="4.873561" lon="-74.077044">
        <ele>2625.8</ele>
        <time>2019-07-29T17:01:07.472Z</time>
      </trkpt>
      <trkpt lat="4.873608" lon="-74.077094">
        <ele>2626.4</ele>
        <time>2019-07-29T17:01:08.472Z</time>
      </trkpt>
      <trkpt lat="4.87368" lon="-74.077157">
        <ele>2626.4</ele>
        <time>2019-07-29T17:01:09.472Z</time>
      </trkpt>
      <trkpt lat="4.873774" lon="-74.077316">
        <ele>2627.4</ele>
        <time>2019-07-29T17:01:10.472Z</time>
      </trkpt>
      <trkpt lat="4.873787" lon="-74.077492">
        <ele>2628.4</ele>
        <time>2019-07-29T17:01:11.472Z</time>
      </trkpt>
      <trkpt lat="4.873783" lon="-74.077521">
        <ele>2628.6</ele>
        <time>2019-07-29T17:01:12.472Z</time>
      </trkpt>
      <trkpt lat="4.87374" lon="-74.077656">
        <ele>2629.6</ele>
        <time>2019-07-29T17:01:13.472Z</time>
      </trkpt>
      <trkpt lat="4.873648" lon="-74.077837">
        <ele>2630.8</ele>
        <time>2019-07-29T17:01:14.472Z</time>
      </trkpt>
      <trkpt lat="4.873632" lon="-74.077865">
        <ele>2631.2</ele>
        <time>2019-07-29T17:01:15.472Z</time>
      </trkpt>
      <trkpt lat="4.873587" lon="-74.07798">
        <ele>2631.8</ele>
        <time>2019-07-29T17:01:16.472Z</time>
      </trkpt>
      <trkpt lat="4.873521" lon="-74.078133">
        <ele>2632.8</ele>
        <time>2019-07-29T17:01:17.472Z</time>
      </trkpt>
      <trkpt lat="4.873508" lon="-74.078161">
        <ele>2633</ele>
        <time>2019-07-29T17:01:18.472Z</time>
      </trkpt>
      <trkpt lat="4.873403" lon="-74.078346">
        <ele>2634</ele>
        <time>2019-07-29T17:01:19.472Z</time>
      </trkpt>
      <trkpt lat="4.873226" lon="-74.078467">
        <ele>2634.6</ele>
        <time>2019-07-29T17:01:20.472Z</time>
      </trkpt>
      <trkpt lat="4.87311" lon="-74.078502">
        <ele>2635.2</ele>
        <time>2019-07-29T17:01:21.472Z</time>
      </trkpt>
      <trkpt lat="4.873018" lon="-74.078515">
        <ele>2635.4</ele>
        <time>2019-07-29T17:01:22.472Z</time>
      </trkpt>
      <trkpt lat="4.872888" lon="-74.07853">
        <ele>2636.2</ele>
        <time>2019-07-29T17:01:23.472Z</time>
      </trkpt>
      <trkpt lat="4.872791" lon="-74.078517">
        <ele>2636.8</ele>
        <time>2019-07-29T17:01:24.472Z</time>
      </trkpt>
      <trkpt lat="4.872729" lon="-74.078498">
        <ele>2637.2</ele>
        <time>2019-07-29T17:01:25.472Z</time>
      </trkpt>
      <trkpt lat="4.872573" lon="-74.078422">
        <ele>2638.2</ele>
        <time>2019-07-29T17:01:26.472Z</time>
      </trkpt>
      <trkpt lat="4.872545" lon="-74.078399">
        <ele>2638.2</ele>
        <time>2019-07-29T17:01:27.472Z</time>
      </trkpt>
      <trkpt lat="4.872352" lon="-74.078196">
        <ele>2639</ele>
        <time>2019-07-29T17:01:28.472Z</time>
      </trkpt>
      <trkpt lat="4.872287" lon="-74.078112">
        <ele>2639.2</ele>
        <time>2019-07-29T17:01:29.472Z</time>
      </trkpt>
      <trkpt lat="4.872203" lon="-74.078055">
        <ele>2640</ele>
        <time>2019-07-29T17:01:30.472Z</time>
      </trkpt>
      <trkpt lat="4.872015" lon="-74.078011">
        <ele>2640</ele>
        <time>2019-07-29T17:01:31.472Z</time>
      </trkpt>
      <trkpt lat="4.871818" lon="-74.078061">
        <ele>2640</ele>
        <time>2019-07-29T17:01:32.472Z</time>
      </trkpt>
      <trkpt lat="4.871767" lon="-74.078103">
        <ele>2640.4</ele>
        <time>2019-07-29T17:01:33.472Z</time>
      </trkpt>
      <trkpt lat="4.871696" lon="-74.078171">
        <ele>2641.6</ele>
        <time>2019-07-29T17:01:34.472Z</time>
      </trkpt>
      <trkpt lat="4.871641" lon="-74.078209">
        <ele>2641.8</ele>
        <time>2019-07-29T17:01:35.472Z</time>
      </trkpt>
      <trkpt lat="4.871396" lon="-74.07834">
        <ele>2642.2</ele>
        <time>2019-07-29T17:01:36.472Z</time>
      </trkpt>
      <trkpt lat="4.871057" lon="-74.078387">
        <ele>2642.4</ele>
        <time>2019-07-29T17:01:37.472Z</time>
      </trkpt>
      <trkpt lat="4.870936" lon="-74.078407">
        <ele>2642.8</ele>
        <time>2019-07-29T17:01:38.472Z</time>
      </trkpt>
      <trkpt lat="4.870722" lon="-74.078491">
        <ele>2643.8</ele>
        <time>2019-07-29T17:01:39.472Z</time>
      </trkpt>
      <trkpt lat="4.870687" lon="-74.07851">
        <ele>2644</ele>
        <time>2019-07-29T17:01:40.472Z</time>
      </trkpt>
      <trkpt lat="4.870652" lon="-74.078532">
        <ele>2644.2</ele>
        <time>2019-07-29T17:01:41.472Z</time>
      </trkpt>
      <trkpt lat="4.870476" lon="-74.07865">
        <ele>2644.4</ele>
        <time>2019-07-29T17:01:42.472Z</time>
      </trkpt>
      <trkpt lat="4.870297" lon="-74.078779">
        <ele>2644</ele>
        <time>2019-07-29T17:01:43.472Z</time>
      </trkpt>
      <trkpt lat="4.870271" lon="-74.078813">
        <ele>2644</ele>
        <time>2019-07-29T17:01:44.472Z</time>
      </trkpt>
      <trkpt lat="4.870249" lon="-74.078849">
        <ele>2644</ele>
        <time>2019-07-29T17:01:45.472Z</time>
      </trkpt>
      <trkpt lat="4.870171" lon="-74.079">
        <ele>2645.4</ele>
        <time>2019-07-29T17:01:46.472Z</time>
      </trkpt>
      <trkpt lat="4.870142" lon="-74.079079">
        <ele>2645.6</ele>
        <time>2019-07-29T17:01:47.472Z</time>
      </trkpt>
      <trkpt lat="4.870099" lon="-74.079194">
        <ele>2645.6</ele>
        <time>2019-07-29T17:01:48.472Z</time>
      </trkpt>
      <trkpt lat="4.870051" lon="-74.079259">
        <ele>2645.4</ele>
        <time>2019-07-29T17:01:49.472Z</time>
      </trkpt>
      <trkpt lat="4.869895" lon="-74.079344">
        <ele>2645.4</ele>
        <time>2019-07-29T17:01:50.472Z</time>
      </trkpt>
      <trkpt lat="4.869737" lon="-74.079347">
        <ele>2646.6</ele>
        <time>2019-07-29T17:01:51.472Z</time>
      </trkpt>
      <trkpt lat="4.869695" lon="-74.07934">
        <ele>2647</ele>
        <time>2019-07-29T17:01:52.472Z</time>
      </trkpt>
      <trkpt lat="4.869615" lon="-74.079323">
        <ele>2647.8</ele>
        <time>2019-07-29T17:01:53.472Z</time>
      </trkpt>
      <trkpt lat="4.869411" lon="-74.079281">
        <ele>2649</ele>
        <time>2019-07-29T17:01:54.472Z</time>
      </trkpt>
      <trkpt lat="4.869369" lon="-74.079275">
        <ele>2649.2</ele>
        <time>2019-07-29T17:01:55.472Z</time>
      </trkpt>
      <trkpt lat="4.869221" lon="-74.079277">
        <ele>2650</ele>
        <time>2019-07-29T17:01:56.472Z</time>
      </trkpt>
      <trkpt lat="4.869046" lon="-74.079284">
        <ele>2650.6</ele>
        <time>2019-07-29T17:01:57.472Z</time>
      </trkpt>
      <trkpt lat="4.868912" lon="-74.079303">
        <ele>2651.2</ele>
        <time>2019-07-29T17:01:58.472Z</time>
      </trkpt>
      <trkpt lat="4.868853" lon="-74.079324">
        <ele>2651.6</ele>
        <time>2019-07-29T17:01:59.472Z</time>
      </trkpt>
      <trkpt lat="4.868773" lon="-74.079355">
        <ele>2652.2</ele>
        <time>2019-07-29T17:02:00.472Z</time>
      </trkpt>
      <trkpt lat="4.868703" lon="-74.079419">
        <ele>2652.8</ele>
        <time>2019-07-29T17:02:01.472Z</time>
      </trkpt>
      <trkpt lat="4.868664" lon="-74.079461">
        <ele>2653.4</ele>
        <time>2019-07-29T17:02:02.472Z</time>
      </trkpt>
      <trkpt lat="4.868564" lon="-74.079558">
        <ele>2654</ele>
        <time>2019-07-29T17:02:03.472Z</time>
      </trkpt>
      <trkpt lat="4.868495" lon="-74.07961">
        <ele>2654.6</ele>
        <time>2019-07-29T17:02:04.472Z</time>
      </trkpt>
      <trkpt lat="4.868423" lon="-74.079671">
        <ele>2655.2</ele>
        <time>2019-07-29T17:02:05.472Z</time>
      </trkpt>
      <trkpt lat="4.868323" lon="-74.079736">
        <ele>2655.6</ele>
        <time>2019-07-29T17:02:06.472Z</time>
      </trkpt>
      <trkpt lat="4.868256" lon="-74.07978">
        <ele>2656.2</ele>
        <time>2019-07-29T17:02:07.472Z</time>
      </trkpt>
      <trkpt lat="4.868182" lon="-74.07982">
        <ele>2656.8</ele>
        <time>2019-07-29T17:02:08.472Z</time>
      </trkpt>
      <trkpt lat="4.868136" lon="-74.079835">
        <ele>2657</ele>
        <time>2019-07-29T17:02:09.472Z</time>
      </trkpt>
      <trkpt lat="4.867995" lon="-74.079877">
        <ele>2657.8</ele>
        <time>2019-07-29T17:02:10.472Z</time>
      </trkpt>
      <trkpt lat="4.867965" lon="-74.079884">
        <ele>2658.2</ele>
        <time>2019-07-29T17:02:11.472Z</time>
      </trkpt>
      <trkpt lat="4.867841" lon="-74.079895">
        <ele>2659</ele>
        <time>2019-07-29T17:02:12.472Z</time>
      </trkpt>
      <trkpt lat="4.867781" lon="-74.079904">
        <ele>2659.2</ele>
        <time>2019-07-29T17:02:13.472Z</time>
      </trkpt>
      <trkpt lat="4.867537" lon="-74.079923">
        <ele>2660</ele>
        <time>2019-07-29T17:02:14.472Z</time>
      </trkpt>
      <trkpt lat="4.867398" lon="-74.079952">
        <ele>2660.4</ele>
        <time>2019-07-29T17:02:15.472Z</time>
      </trkpt>
      <trkpt lat="4.86729" lon="-74.079976">
        <ele>2661</ele>
        <time>2019-07-29T17:02:16.472Z</time>
      </trkpt>
      <trkpt lat="4.867168" lon="-74.079984">
        <ele>2661.8</ele>
        <time>2019-07-29T17:02:17.472Z</time>
      </trkpt>
      <trkpt lat="4.866933" lon="-74.080024">
        <ele>2662.2</ele>
        <time>2019-07-29T17:02:18.472Z</time>
      </trkpt>
      <trkpt lat="4.866695" lon="-74.080063">
        <ele>2663.2</ele>
        <time>2019-07-29T17:02:19.472Z</time>
      </trkpt>
      <trkpt lat="4.86663" lon="-74.080079">
        <ele>2663.8</ele>
        <time>2019-07-29T17:02:20.472Z</time>
      </trkpt>
      <trkpt lat="4.866372" lon="-74.080159">
        <ele>2664.6</ele>
        <time>2019-07-29T17:02:21.472Z</time>
      </trkpt>
      <trkpt lat="4.86625" lon="-74.080201">
        <ele>2665.6</ele>
        <time>2019-07-29T17:02:22.472Z</time>
      </trkpt>
      <trkpt lat="4.866065" lon="-74.080261">
        <ele>2666.2</ele>
        <time>2019-07-29T17:02:23.472Z</time>
      </trkpt>
      <trkpt lat="4.866" lon="-74.080279">
        <ele>2666.6</ele>
        <time>2019-07-29T17:02:24.472Z</time>
      </trkpt>
      <trkpt lat="4.865771" lon="-74.080346">
        <ele>2667</ele>
        <time>2019-07-29T17:02:25.472Z</time>
      </trkpt>
      <trkpt lat="4.86562" lon="-74.080402">
        <ele>2667.8</ele>
        <time>2019-07-29T17:02:26.472Z</time>
      </trkpt>
      <trkpt lat="4.865504" lon="-74.080433">
        <ele>2668.6</ele>
        <time>2019-07-29T17:02:27.472Z</time>
      </trkpt>
      <trkpt lat="4.865479" lon="-74.080447">
        <ele>2669</ele>
        <time>2019-07-29T17:02:28.472Z</time>
      </trkpt>
      <trkpt lat="4.865383" lon="-74.080512">
        <ele>2670</ele>
        <time>2019-07-29T17:02:29.472Z</time>
      </trkpt>
      <trkpt lat="4.865358" lon="-74.080523">
        <ele>2670</ele>
        <time>2019-07-29T17:02:30.472Z</time>
      </trkpt>
      <trkpt lat="4.865217" lon="-74.080542">
        <ele>2671.4</ele>
        <time>2019-07-29T17:02:31.472Z</time>
      </trkpt>
      <trkpt lat="4.865013" lon="-74.080591">
        <ele>2672.4</ele>
        <time>2019-07-29T17:02:32.472Z</time>
      </trkpt>
      <trkpt lat="4.864984" lon="-74.080602">
        <ele>2672.6</ele>
        <time>2019-07-29T17:02:33.472Z</time>
      </trkpt>
      <trkpt lat="4.864868" lon="-74.080693">
        <ele>2673.4</ele>
        <time>2019-07-29T17:02:34.472Z</time>
      </trkpt>
      <trkpt lat="4.864705" lon="-74.080829">
        <ele>2674.2</ele>
        <time>2019-07-29T17:02:35.472Z</time>
      </trkpt>
      <trkpt lat="4.864481" lon="-74.08093">
        <ele>2674.4</ele>
        <time>2019-07-29T17:02:36.472Z</time>
      </trkpt>
      <trkpt lat="4.864448" lon="-74.080943">
        <ele>2674.6</ele>
        <time>2019-07-29T17:02:37.472Z</time>
      </trkpt>
      <trkpt lat="4.864225" lon="-74.081025">
        <ele>2675.4</ele>
        <time>2019-07-29T17:02:38.472Z</time>
      </trkpt>
      <trkpt lat="4.864134" lon="-74.081071">
        <ele>2675.8</ele>
        <time>2019-07-29T17:02:39.472Z</time>
      </trkpt>
      <trkpt lat="4.864057" lon="-74.081131">
        <ele>2676.2</ele>
        <time>2019-07-29T17:02:40.472Z</time>
      </trkpt>
      <trkpt lat="4.863972" lon="-74.081186">
        <ele>2677</ele>
        <time>2019-07-29T17:02:41.472Z</time>
      </trkpt>
      <trkpt lat="4.863898" lon="-74.081279">
        <ele>2676.8</ele>
        <time>2019-07-29T17:02:42.472Z</time>
      </trkpt>
      <trkpt lat="4.86381" lon="-74.081434">
        <ele>2678.2</ele>
        <time>2019-07-29T17:02:43.472Z</time>
      </trkpt>
      <trkpt lat="4.863797" lon="-74.08146">
        <ele>2678.4</ele>
        <time>2019-07-29T17:02:44.472Z</time>
      </trkpt>
      <trkpt lat="4.863762" lon="-74.081542">
        <ele>2679.2</ele>
        <time>2019-07-29T17:02:45.472Z</time>
      </trkpt>
      <trkpt lat="4.863744" lon="-74.081648">
        <ele>2679.6</ele>
        <time>2019-07-29T17:02:46.472Z</time>
      </trkpt>
      <trkpt lat="4.863747" lon="-74.081793">
        <ele>2680.2</ele>
        <time>2019-07-29T17:02:47.472Z</time>
      </trkpt>
      <trkpt lat="4.863746" lon="-74.081851">
        <ele>2681</ele>
        <time>2019-07-29T17:02:48.472Z</time>
      </trkpt>
      <trkpt lat="4.863748" lon="-74.081908">
        <ele>2681.4</ele>
        <time>2019-07-29T17:02:49.472Z</time>
      </trkpt>
      <trkpt lat="4.86374" lon="-74.082044">
        <ele>2682.2</ele>
        <time>2019-07-29T17:02:50.472Z</time>
      </trkpt>
      <trkpt lat="4.863738" lon="-74.082071">
        <ele>2682.4</ele>
        <time>2019-07-29T17:02:51.472Z</time>
      </trkpt>
      <trkpt lat="4.863679" lon="-74.082261">
        <ele>2683</ele>
        <time>2019-07-29T17:02:52.472Z</time>
      </trkpt>
      <trkpt lat="4.863607" lon="-74.082424">
        <ele>2683.2</ele>
        <time>2019-07-29T17:02:53.472Z</time>
      </trkpt>
      <trkpt lat="4.863591" lon="-74.082451">
        <ele>2683.4</ele>
        <time>2019-07-29T17:02:54.472Z</time>
      </trkpt>
      <trkpt lat="4.863481" lon="-74.082608">
        <ele>2684</ele>
        <time>2019-07-29T17:02:55.472Z</time>
      </trkpt>
      <trkpt lat="4.863419" lon="-74.082687">
        <ele>2684.2</ele>
        <time>2019-07-29T17:02:56.472Z</time>
      </trkpt>
      <trkpt lat="4.863339" lon="-74.082857">
        <ele>2684.6</ele>
        <time>2019-07-29T17:02:57.472Z</time>
      </trkpt>
      <trkpt lat="4.863326" lon="-74.082919">
        <ele>2685.8</ele>
        <time>2019-07-29T17:02:58.472Z</time>
      </trkpt>
      <trkpt lat="4.863305" lon="-74.083128">
        <ele>2685.6</ele>
        <time>2019-07-29T17:02:59.472Z</time>
      </trkpt>
      <trkpt lat="4.863326" lon="-74.083292">
        <ele>2687</ele>
        <time>2019-07-29T17:03:00.472Z</time>
      </trkpt>
      <trkpt lat="4.863331" lon="-74.083318">
        <ele>2687.2</ele>
        <time>2019-07-29T17:03:01.472Z</time>
      </trkpt>
      <trkpt lat="4.863334" lon="-74.083421">
        <ele>2688.4</ele>
        <time>2019-07-29T17:03:02.472Z</time>
      </trkpt>
      <trkpt lat="4.863329" lon="-74.083473">
        <ele>2688.8</ele>
        <time>2019-07-29T17:03:03.472Z</time>
      </trkpt>
      <trkpt lat="4.86325" lon="-74.0836">
        <ele>2689.2</ele>
        <time>2019-07-29T17:03:04.472Z</time>
      </trkpt>
      <trkpt lat="4.86322" lon="-74.083609">
        <ele>2689.4</ele>
        <time>2019-07-29T17:03:05.472Z</time>
      </trkpt>
      <trkpt lat="4.863096" lon="-74.083618">
        <ele>2690</ele>
        <time>2019-07-29T17:03:06.472Z</time>
      </trkpt>
      <trkpt lat="4.862864" lon="-74.083603">
        <ele>2690.6</ele>
        <time>2019-07-29T17:03:07.472Z</time>
      </trkpt>
      <trkpt lat="4.862726" lon="-74.083648">
        <ele>2691.6</ele>
        <time>2019-07-29T17:03:08.472Z</time>
      </trkpt>
      <trkpt lat="4.862703" lon="-74.083658">
        <ele>2692</ele>
        <time>2019-07-29T17:03:09.472Z</time>
      </trkpt>
      <trkpt lat="4.862659" lon="-74.083686">
        <ele>2692.8</ele>
        <time>2019-07-29T17:03:10.472Z</time>
      </trkpt>
      <trkpt lat="4.862586" lon="-74.083728">
        <ele>2693</ele>
        <time>2019-07-29T17:03:11.472Z</time>
      </trkpt>
      <trkpt lat="4.862426" lon="-74.083842">
        <ele>2693.2</ele>
        <time>2019-07-29T17:03:12.472Z</time>
      </trkpt>
      <trkpt lat="4.862229" lon="-74.083871">
        <ele>2693</ele>
        <time>2019-07-29T17:03:13.472Z</time>
      </trkpt>
      <trkpt lat="4.862093" lon="-74.083891">
        <ele>2693.8</ele>
        <time>2019-07-29T17:03:14.472Z</time>
      </trkpt>
      <trkpt lat="4.862065" lon="-74.083889">
        <ele>2694</ele>
        <time>2019-07-29T17:03:15.472Z</time>
      </trkpt>
      <trkpt lat="4.861915" lon="-74.083869">
        <ele>2695</ele>
        <time>2019-07-29T17:03:16.472Z</time>
      </trkpt>
      <trkpt lat="4.861887" lon="-74.083861">
        <ele>2695</ele>
        <time>2019-07-29T17:03:17.472Z</time>
      </trkpt>
      <trkpt lat="4.861705" lon="-74.083849">
        <ele>2695.4</ele>
        <time>2019-07-29T17:03:18.472Z</time>
      </trkpt>
      <trkpt lat="4.861471" lon="-74.083879">
        <ele>2695.8</ele>
        <time>2019-07-29T17:03:19.472Z</time>
      </trkpt>
      <trkpt lat="4.861446" lon="-74.083892">
        <ele>2696.2</ele>
        <time>2019-07-29T17:03:20.472Z</time>
      </trkpt>
      <trkpt lat="4.861286" lon="-74.083987">
        <ele>2696.8</ele>
        <time>2019-07-29T17:03:21.472Z</time>
      </trkpt>
      <trkpt lat="4.861202" lon="-74.084031">
        <ele>2697.6</ele>
        <time>2019-07-29T17:03:22.472Z</time>
      </trkpt>
      <trkpt lat="4.861083" lon="-74.08409">
        <ele>2698.6</ele>
        <time>2019-07-29T17:03:23.472Z</time>
      </trkpt>
      <trkpt lat="4.860997" lon="-74.084134">
        <ele>2699</ele>
        <time>2019-07-29T17:03:24.472Z</time>
      </trkpt>
      <trkpt lat="4.860886" lon="-74.084191">
        <ele>2699.6</ele>
        <time>2019-07-29T17:03:25.472Z</time>
      </trkpt>
      <trkpt lat="4.860784" lon="-74.084255">
        <ele>2699.8</ele>
        <time>2019-07-29T17:03:26.472Z</time>
      </trkpt>
      <trkpt lat="4.860688" lon="-74.084333">
        <ele>2700.6</ele>
        <time>2019-07-29T17:03:27.472Z</time>
      </trkpt>
      <trkpt lat="4.860619" lon="-74.084381">
        <ele>2701.8</ele>
        <time>2019-07-29T17:03:28.472Z</time>
      </trkpt>
      <trkpt lat="4.860596" lon="-74.084392">
        <ele>2702.2</ele>
        <time>2019-07-29T17:03:29.472Z</time>
      </trkpt>
      <trkpt lat="4.860515" lon="-74.084403">
        <ele>2703.2</ele>
        <time>2019-07-29T17:03:30.472Z</time>
      </trkpt>
      <trkpt lat="4.86046" lon="-74.084395">
        <ele>2703.4</ele>
        <time>2019-07-29T17:03:31.472Z</time>
      </trkpt>
      <trkpt lat="4.860322" lon="-74.084326">
        <ele>2704</ele>
        <time>2019-07-29T17:03:32.472Z</time>
      </trkpt>
      <trkpt lat="4.860264" lon="-74.084294">
        <ele>2704.2</ele>
        <time>2019-07-29T17:03:33.472Z</time>
      </trkpt>
      <trkpt lat="4.860115" lon="-74.084197">
        <ele>2704.8</ele>
        <time>2019-07-29T17:03:34.472Z</time>
      </trkpt>
      <trkpt lat="4.859939" lon="-74.084063">
        <ele>2704.6</ele>
        <time>2019-07-29T17:03:35.472Z</time>
      </trkpt>
      <trkpt lat="4.859815" lon="-74.083966">
        <ele>2705.2</ele>
        <time>2019-07-29T17:03:36.472Z</time>
      </trkpt>
      <trkpt lat="4.859769" lon="-74.083925">
        <ele>2706</ele>
        <time>2019-07-29T17:03:37.472Z</time>
      </trkpt>
      <trkpt lat="4.859735" lon="-74.08388">
        <ele>2706.4</ele>
        <time>2019-07-29T17:03:38.472Z</time>
      </trkpt>
      <trkpt lat="4.859711" lon="-74.08378">
        <ele>2706.4</ele>
        <time>2019-07-29T17:03:39.472Z</time>
      </trkpt>
      <trkpt lat="4.859753" lon="-74.083597">
        <ele>2707.2</ele>
        <time>2019-07-29T17:03:40.472Z</time>
      </trkpt>
      <trkpt lat="4.85976" lon="-74.083572">
        <ele>2707.8</ele>
        <time>2019-07-29T17:03:41.472Z</time>
      </trkpt>
      <trkpt lat="4.85978" lon="-74.083496">
        <ele>2708.8</ele>
        <time>2019-07-29T17:03:42.472Z</time>
      </trkpt>
      <trkpt lat="4.859771" lon="-74.083396">
        <ele>2709</ele>
        <time>2019-07-29T17:03:43.472Z</time>
      </trkpt>
      <trkpt lat="4.859734" lon="-74.083296">
        <ele>2710</ele>
        <time>2019-07-29T17:03:44.472Z</time>
      </trkpt>
      <trkpt lat="4.859669" lon="-74.083253">
        <ele>2711.2</ele>
        <time>2019-07-29T17:03:45.472Z</time>
      </trkpt>
      <trkpt lat="4.859561" lon="-74.08324">
        <ele>2712.2</ele>
        <time>2019-07-29T17:03:46.472Z</time>
      </trkpt>
      <trkpt lat="4.85948" lon="-74.083239">
        <ele>2712.8</ele>
        <time>2019-07-29T17:03:47.472Z</time>
      </trkpt>
      <trkpt lat="4.859352" lon="-74.083256">
        <ele>2713.2</ele>
        <time>2019-07-29T17:03:48.472Z</time>
      </trkpt>
      <trkpt lat="4.859328" lon="-74.083263">
        <ele>2713.6</ele>
        <time>2019-07-29T17:03:49.472Z</time>
      </trkpt>
      <trkpt lat="4.859259" lon="-74.083292">
        <ele>2714.4</ele>
        <time>2019-07-29T17:03:50.472Z</time>
      </trkpt>
      <trkpt lat="4.859206" lon="-74.083348">
        <ele>2715.2</ele>
        <time>2019-07-29T17:03:51.472Z</time>
      </trkpt>
      <trkpt lat="4.859175" lon="-74.083391">
        <ele>2715.6</ele>
        <time>2019-07-29T17:03:52.472Z</time>
      </trkpt>
      <trkpt lat="4.859135" lon="-74.083541">
        <ele>2716.2</ele>
        <time>2019-07-29T17:03:53.472Z</time>
      </trkpt>
      <trkpt lat="4.859158" lon="-74.083644">
        <ele>2716.6</ele>
        <time>2019-07-29T17:03:54.472Z</time>
      </trkpt>
      <trkpt lat="4.859186" lon="-74.083696">
        <ele>2716.6</ele>
        <time>2019-07-29T17:03:55.472Z</time>
      </trkpt>
      <trkpt lat="4.859337" lon="-74.083822">
        <ele>2717</ele>
        <time>2019-07-29T17:03:56.472Z</time>
      </trkpt>
      <trkpt lat="4.859465" lon="-74.083908">
        <ele>2717.8</ele>
        <time>2019-07-29T17:03:57.472Z</time>
      </trkpt>
      <trkpt lat="4.859507" lon="-74.083939">
        <ele>2718</ele>
        <time>2019-07-29T17:03:58.472Z</time>
      </trkpt>
      <trkpt lat="4.85963" lon="-74.084057">
        <ele>2718.4</ele>
        <time>2019-07-29T17:03:59.472Z</time>
      </trkpt>
      <trkpt lat="4.859703" lon="-74.084147">
        <ele>2719</ele>
        <time>2019-07-29T17:04:00.472Z</time>
      </trkpt>
      <trkpt lat="4.859818" lon="-74.084282">
        <ele>2719.6</ele>
        <time>2019-07-29T17:04:01.472Z</time>
      </trkpt>
      <trkpt lat="4.859893" lon="-74.084327">
        <ele>2720</ele>
        <time>2019-07-29T17:04:02.472Z</time>
      </trkpt>
      <trkpt lat="4.859947" lon="-74.084348">
        <ele>2720.6</ele>
        <time>2019-07-29T17:04:03.472Z</time>
      </trkpt>
      <trkpt lat="4.86007" lon="-74.084409">
        <ele>2721.2</ele>
        <time>2019-07-29T17:04:04.472Z</time>
      </trkpt>
      <trkpt lat="4.86013" lon="-74.08446">
        <ele>2722.4</ele>
        <time>2019-07-29T17:04:05.472Z</time>
      </trkpt>
      <trkpt lat="4.860144" lon="-74.08448">
        <ele>2722.8</ele>
        <time>2019-07-29T17:04:06.472Z</time>
      </trkpt>
      <trkpt lat="4.860185" lon="-74.08454">
        <ele>2723.4</ele>
        <time>2019-07-29T17:04:07.472Z</time>
      </trkpt>
      <trkpt lat="4.860225" lon="-74.084625">
        <ele>2724.2</ele>
        <time>2019-07-29T17:04:08.472Z</time>
      </trkpt>
      <trkpt lat="4.860265" lon="-74.084692">
        <ele>2724.6</ele>
        <time>2019-07-29T17:04:09.472Z</time>
      </trkpt>
      <trkpt lat="4.860295" lon="-74.084732">
        <ele>2725.6</ele>
        <time>2019-07-29T17:04:10.472Z</time>
      </trkpt>
      <trkpt lat="4.860326" lon="-74.084773">
        <ele>2726</ele>
        <time>2019-07-29T17:04:11.472Z</time>
      </trkpt>
      <trkpt lat="4.860441" lon="-74.084822">
        <ele>2725.8</ele>
        <time>2019-07-29T17:04:12.472Z</time>
      </trkpt>
      <trkpt lat="4.860515" lon="-74.084825">
        <ele>2727</ele>
        <time>2019-07-29T17:04:13.472Z</time>
      </trkpt>
      <trkpt lat="4.860589" lon="-74.084819">
        <ele>2727.4</ele>
        <time>2019-07-29T17:04:14.472Z</time>
      </trkpt>
      <trkpt lat="4.860674" lon="-74.084792">
        <ele>2728</ele>
        <time>2019-07-29T17:04:15.472Z</time>
      </trkpt>
      <trkpt lat="4.860744" lon="-74.084765">
        <ele>2728.6</ele>
        <time>2019-07-29T17:04:16.472Z</time>
      </trkpt>
      <trkpt lat="4.860808" lon="-74.08473">
        <ele>2729</ele>
        <time>2019-07-29T17:04:17.472Z</time>
      </trkpt>
      <trkpt lat="4.860871" lon="-74.084687">
        <ele>2729.2</ele>
        <time>2019-07-29T17:04:18.472Z</time>
      </trkpt>
      <trkpt lat="4.861058" lon="-74.084592">
        <ele>2730</ele>
        <time>2019-07-29T17:04:19.472Z</time>
      </trkpt>
      <trkpt lat="4.86109" lon="-74.084588">
        <ele>2730.2</ele>
        <time>2019-07-29T17:04:20.472Z</time>
      </trkpt>
      <trkpt lat="4.861263" lon="-74.084582">
        <ele>2730.6</ele>
        <time>2019-07-29T17:04:21.472Z</time>
      </trkpt>
      <trkpt lat="4.861385" lon="-74.084585">
        <ele>2729</ele>
        <time>2019-07-29T17:04:22.472Z</time>
      </trkpt>
      <trkpt lat="4.861703" lon="-74.084593">
        <ele>2730.4</ele>
        <time>2019-07-29T17:04:23.472Z</time>
      </trkpt>
      <trkpt lat="4.861741" lon="-74.084594">
        <ele>2731</ele>
        <time>2019-07-29T17:04:24.472Z</time>
      </trkpt>
      <trkpt lat="4.861856" lon="-74.084596">
        <ele>2731.4</ele>
        <time>2019-07-29T17:04:25.472Z</time>
      </trkpt>
      <trkpt lat="4.862087" lon="-74.084604">
        <ele>2731.4</ele>
        <time>2019-07-29T17:04:26.472Z</time>
      </trkpt>
      <trkpt lat="4.862196" lon="-74.084611">
        <ele>2732.6</ele>
        <time>2019-07-29T17:04:27.472Z</time>
      </trkpt>
      <trkpt lat="4.862419" lon="-74.084589">
        <ele>2733.6</ele>
        <time>2019-07-29T17:04:28.472Z</time>
      </trkpt>
      <trkpt lat="4.862628" lon="-74.084531">
        <ele>2735</ele>
        <time>2019-07-29T17:04:29.472Z</time>
      </trkpt>
      <trkpt lat="4.862662" lon="-74.084523">
        <ele>2735.4</ele>
        <time>2019-07-29T17:04:30.472Z</time>
      </trkpt>
      <trkpt lat="4.862731" lon="-74.084509">
        <ele>2736</ele>
        <time>2019-07-29T17:04:31.472Z</time>
      </trkpt>
      <trkpt lat="4.862935" lon="-74.084479">
        <ele>2737.4</ele>
        <time>2019-07-29T17:04:32.472Z</time>
      </trkpt>
      <trkpt lat="4.863004" lon="-74.08447">
        <ele>2738.2</ele>
        <time>2019-07-29T17:04:33.472Z</time>
      </trkpt>
      <trkpt lat="4.863039" lon="-74.084466">
        <ele>2738.6</ele>
        <time>2019-07-29T17:04:34.472Z</time>
      </trkpt>
      <trkpt lat="4.863212" lon="-74.084445">
        <ele>2739.8</ele>
        <time>2019-07-29T17:04:35.472Z</time>
      </trkpt>
      <trkpt lat="4.86328" lon="-74.084438">
        <ele>2740.6</ele>
        <time>2019-07-29T17:04:36.472Z</time>
      </trkpt>
      <trkpt lat="4.863315" lon="-74.084434">
        <ele>2741</ele>
        <time>2019-07-29T17:04:37.472Z</time>
      </trkpt>
      <trkpt lat="4.863485" lon="-74.084416">
        <ele>2742</ele>
        <time>2019-07-29T17:04:38.472Z</time>
      </trkpt>
      <trkpt lat="4.863618" lon="-74.084398">
        <ele>2742.4</ele>
        <time>2019-07-29T17:04:39.472Z</time>
      </trkpt>
      <trkpt lat="4.863808" lon="-74.084383">
        <ele>2743.2</ele>
        <time>2019-07-29T17:04:40.472Z</time>
      </trkpt>
      <trkpt lat="4.863892" lon="-74.084376">
        <ele>2744</ele>
        <time>2019-07-29T17:04:41.472Z</time>
      </trkpt>
      <trkpt lat="4.863921" lon="-74.084377">
        <ele>2744.2</ele>
        <time>2019-07-29T17:04:42.472Z</time>
      </trkpt>
      <trkpt lat="4.864045" lon="-74.08442">
        <ele>2745.2</ele>
        <time>2019-07-29T17:04:43.472Z</time>
      </trkpt>
      <trkpt lat="4.864068" lon="-74.084425">
        <ele>2745.6</ele>
        <time>2019-07-29T17:04:44.472Z</time>
      </trkpt>
      <trkpt lat="4.864158" lon="-74.084447">
        <ele>2746.2</ele>
        <time>2019-07-29T17:04:45.472Z</time>
      </trkpt>
      <trkpt lat="4.864174" lon="-74.084448">
        <ele>2746.4</ele>
        <time>2019-07-29T17:04:46.472Z</time>
      </trkpt>
      <trkpt lat="4.864174" lon="-74.084435">
        <ele>2746.4</ele>
        <time>2019-07-29T17:04:47.472Z</time>
      </trkpt>
      <trkpt lat="4.864163" lon="-74.084437">
        <ele>2746.6</ele>
        <time>2019-07-29T17:04:48.472Z</time>
      </trkpt>
      <trkpt lat="4.864091" lon="-74.084441">
        <ele>2745.8</ele>
        <time>2019-07-29T17:04:49.472Z</time>
      </trkpt>
      <trkpt lat="4.86406" lon="-74.084434">
        <ele>2745.4</ele>
        <time>2019-07-29T17:04:50.472Z</time>
      </trkpt>
      <trkpt lat="4.86394" lon="-74.084408">
        <ele>2744.8</ele>
        <time>2019-07-29T17:04:51.472Z</time>
      </trkpt>
      <trkpt lat="4.863894" lon="-74.084405">
        <ele>2744.2</ele>
        <time>2019-07-29T17:04:52.472Z</time>
      </trkpt>
      <trkpt lat="4.863847" lon="-74.084406">
        <ele>2743.8</ele>
        <time>2019-07-29T17:04:53.472Z</time>
      </trkpt>
      <trkpt lat="4.863798" lon="-74.084411">
        <ele>2743.2</ele>
        <time>2019-07-29T17:04:54.472Z</time>
      </trkpt>
      <trkpt lat="4.863695" lon="-74.084421">
        <ele>2742.2</ele>
        <time>2019-07-29T17:04:55.472Z</time>
      </trkpt>
      <trkpt lat="4.863582" lon="-74.084427">
        <ele>2741.4</ele>
        <time>2019-07-29T17:04:56.472Z</time>
      </trkpt>
      <trkpt lat="4.863524" lon="-74.084434">
        <ele>2741</ele>
        <time>2019-07-29T17:04:57.472Z</time>
      </trkpt>
      <trkpt lat="4.863338" lon="-74.084449">
        <ele>2740</ele>
        <time>2019-07-29T17:04:58.472Z</time>
      </trkpt>
      <trkpt lat="4.863205" lon="-74.084464">
        <ele>2739.4</ele>
        <time>2019-07-29T17:04:59.472Z</time>
      </trkpt>
      <trkpt lat="4.863134" lon="-74.084474">
        <ele>2738.8</ele>
        <time>2019-07-29T17:05:00.472Z</time>
      </trkpt>
      <trkpt lat="4.863064" lon="-74.084485">
        <ele>2737.6</ele>
        <time>2019-07-29T17:05:01.472Z</time>
      </trkpt>
      <trkpt lat="4.862751" lon="-74.084511">
        <ele>2736</ele>
        <time>2019-07-29T17:05:02.472Z</time>
      </trkpt>
      <trkpt lat="4.862439" lon="-74.084592">
        <ele>2734.6</ele>
        <time>2019-07-29T17:05:03.472Z</time>
      </trkpt>
      <trkpt lat="4.862353" lon="-74.084613">
        <ele>2733.6</ele>
        <time>2019-07-29T17:05:04.472Z</time>
      </trkpt>
      <trkpt lat="4.862268" lon="-74.084624">
        <ele>2732.6</ele>
        <time>2019-07-29T17:05:05.472Z</time>
      </trkpt>
      <trkpt lat="4.86218" lon="-74.084625">
        <ele>2731.8</ele>
        <time>2019-07-29T17:05:06.472Z</time>
      </trkpt>
      <trkpt lat="4.862089" lon="-74.084621">
        <ele>2731</ele>
        <time>2019-07-29T17:05:07.472Z</time>
      </trkpt>
      <trkpt lat="4.861995" lon="-74.084618">
        <ele>2730</ele>
        <time>2019-07-29T17:05:08.472Z</time>
      </trkpt>
      <trkpt lat="4.861899" lon="-74.084615">
        <ele>2729.4</ele>
        <time>2019-07-29T17:05:09.472Z</time>
      </trkpt>
      <trkpt lat="4.861802" lon="-74.084611">
        <ele>2729</ele>
        <time>2019-07-29T17:05:10.472Z</time>
      </trkpt>
      <trkpt lat="4.861504" lon="-74.084603">
        <ele>2727.8</ele>
        <time>2019-07-29T17:05:11.472Z</time>
      </trkpt>
      <trkpt lat="4.861306" lon="-74.084597">
        <ele>2726</ele>
        <time>2019-07-29T17:05:12.472Z</time>
      </trkpt>
      <trkpt lat="4.861121" lon="-74.084587">
        <ele>2724</ele>
        <time>2019-07-29T17:05:13.472Z</time>
      </trkpt>
      <trkpt lat="4.861034" lon="-74.084594">
        <ele>2723.2</ele>
        <time>2019-07-29T17:05:14.472Z</time>
      </trkpt>
      <trkpt lat="4.860953" lon="-74.084617">
        <ele>2722.8</ele>
        <time>2019-07-29T17:05:15.472Z</time>
      </trkpt>
      <trkpt lat="4.860731" lon="-74.084733">
        <ele>2722.2</ele>
        <time>2019-07-29T17:05:16.472Z</time>
      </trkpt>
      <trkpt lat="4.860654" lon="-74.084767">
        <ele>2722.2</ele>
        <time>2019-07-29T17:05:17.472Z</time>
      </trkpt>
      <trkpt lat="4.860499" lon="-74.084808">
        <ele>2722.6</ele>
        <time>2019-07-29T17:05:18.472Z</time>
      </trkpt>
      <trkpt lat="4.860362" lon="-74.084808">
        <ele>2722.2</ele>
        <time>2019-07-29T17:05:19.472Z</time>
      </trkpt>
      <trkpt lat="4.860253" lon="-74.084727">
        <ele>2721.2</ele>
        <time>2019-07-29T17:05:20.472Z</time>
      </trkpt>
      <trkpt lat="4.860208" lon="-74.084663">
        <ele>2720.2</ele>
        <time>2019-07-29T17:05:21.472Z</time>
      </trkpt>
      <trkpt lat="4.860163" lon="-74.084599">
        <ele>2719.6</ele>
        <time>2019-07-29T17:05:22.472Z</time>
      </trkpt>
      <trkpt lat="4.860081" lon="-74.084467">
        <ele>2717.2</ele>
        <time>2019-07-29T17:05:23.472Z</time>
      </trkpt>
      <trkpt lat="4.860031" lon="-74.084411">
        <ele>2716.2</ele>
        <time>2019-07-29T17:05:24.472Z</time>
      </trkpt>
      <trkpt lat="4.859969" lon="-74.084368">
        <ele>2715.4</ele>
        <time>2019-07-29T17:05:25.472Z</time>
      </trkpt>
      <trkpt lat="4.859896" lon="-74.084337">
        <ele>2715</ele>
        <time>2019-07-29T17:05:26.472Z</time>
      </trkpt>
      <trkpt lat="4.859754" lon="-74.084245">
        <ele>2714.2</ele>
        <time>2019-07-29T17:05:27.472Z</time>
      </trkpt>
      <trkpt lat="4.859695" lon="-74.08418">
        <ele>2713.8</ele>
        <time>2019-07-29T17:05:28.472Z</time>
      </trkpt>
      <trkpt lat="4.859513" lon="-74.083979">
        <ele>2712.6</ele>
        <time>2019-07-29T17:05:29.472Z</time>
      </trkpt>
      <trkpt lat="4.859369" lon="-74.083862">
        <ele>2711.6</ele>
        <time>2019-07-29T17:05:30.472Z</time>
      </trkpt>
      <trkpt lat="4.859298" lon="-74.083817">
        <ele>2711.4</ele>
        <time>2019-07-29T17:05:31.472Z</time>
      </trkpt>
      <trkpt lat="4.859237" lon="-74.083773">
        <ele>2711.2</ele>
        <time>2019-07-29T17:05:32.472Z</time>
      </trkpt>
      <trkpt lat="4.859147" lon="-74.083668">
        <ele>2710.4</ele>
        <time>2019-07-29T17:05:33.472Z</time>
      </trkpt>
      <trkpt lat="4.859122" lon="-74.083605">
        <ele>2710</ele>
        <time>2019-07-29T17:05:34.472Z</time>
      </trkpt>
      <trkpt lat="4.859112" lon="-74.083537">
        <ele>2710</ele>
        <time>2019-07-29T17:05:35.472Z</time>
      </trkpt>
      <trkpt lat="4.859145" lon="-74.083407">
        <ele>2709.4</ele>
        <time>2019-07-29T17:05:36.472Z</time>
      </trkpt>
      <trkpt lat="4.859229" lon="-74.08331">
        <ele>2707.6</ele>
        <time>2019-07-29T17:05:37.472Z</time>
      </trkpt>
      <trkpt lat="4.859273" lon="-74.08328">
        <ele>2707</ele>
        <time>2019-07-29T17:05:38.472Z</time>
      </trkpt>
      <trkpt lat="4.859322" lon="-74.083256">
        <ele>2706.2</ele>
        <time>2019-07-29T17:05:39.472Z</time>
      </trkpt>
      <trkpt lat="4.85942" lon="-74.083218">
        <ele>2705.6</ele>
        <time>2019-07-29T17:05:40.472Z</time>
      </trkpt>
      <trkpt lat="4.859478" lon="-74.083213">
        <ele>2704.8</ele>
        <time>2019-07-29T17:05:41.472Z</time>
      </trkpt>
      <trkpt lat="4.859612" lon="-74.083222">
        <ele>2703.4</ele>
        <time>2019-07-29T17:05:42.472Z</time>
      </trkpt>
      <trkpt lat="4.859672" lon="-74.083238">
        <ele>2702.8</ele>
        <time>2019-07-29T17:05:43.472Z</time>
      </trkpt>
      <trkpt lat="4.859726" lon="-74.083275">
        <ele>2702.4</ele>
        <time>2019-07-29T17:05:44.472Z</time>
      </trkpt>
      <trkpt lat="4.859764" lon="-74.083327">
        <ele>2702.2</ele>
        <time>2019-07-29T17:05:45.472Z</time>
      </trkpt>
      <trkpt lat="4.85979" lon="-74.083461">
        <ele>2701.6</ele>
        <time>2019-07-29T17:05:46.472Z</time>
      </trkpt>
      <trkpt lat="4.859782" lon="-74.083534">
        <ele>2701</ele>
        <time>2019-07-29T17:05:47.472Z</time>
      </trkpt>
      <trkpt lat="4.85976" lon="-74.083607">
        <ele>2700.4</ele>
        <time>2019-07-29T17:05:48.472Z</time>
      </trkpt>
      <trkpt lat="4.859738" lon="-74.083683">
        <ele>2699.4</ele>
        <time>2019-07-29T17:05:49.472Z</time>
      </trkpt>
      <trkpt lat="4.859734" lon="-74.083757">
        <ele>2698.8</ele>
        <time>2019-07-29T17:05:50.472Z</time>
      </trkpt>
      <trkpt lat="4.859752" lon="-74.083821">
        <ele>2697.8</ele>
        <time>2019-07-29T17:05:51.472Z</time>
      </trkpt>
      <trkpt lat="4.859793" lon="-74.083878">
        <ele>2696.8</ele>
        <time>2019-07-29T17:05:52.472Z</time>
      </trkpt>
      <trkpt lat="4.859848" lon="-74.083926">
        <ele>2695.6</ele>
        <time>2019-07-29T17:05:53.472Z</time>
      </trkpt>
      <trkpt lat="4.859907" lon="-74.083972">
        <ele>2695</ele>
        <time>2019-07-29T17:05:54.472Z</time>
      </trkpt>
      <trkpt lat="4.85997" lon="-74.084016">
        <ele>2694.6</ele>
        <time>2019-07-29T17:05:55.472Z</time>
      </trkpt>
      <trkpt lat="4.86016" lon="-74.08413">
        <ele>2692.6</ele>
        <time>2019-07-29T17:05:56.472Z</time>
      </trkpt>
      <trkpt lat="4.860222" lon="-74.084168">
        <ele>2691.8</ele>
        <time>2019-07-29T17:05:57.472Z</time>
      </trkpt>
      <trkpt lat="4.860283" lon="-74.084213">
        <ele>2691.6</ele>
        <time>2019-07-29T17:05:58.472Z</time>
      </trkpt>
      <trkpt lat="4.860405" lon="-74.08431">
        <ele>2691.6</ele>
        <time>2019-07-29T17:05:59.472Z</time>
      </trkpt>
      <trkpt lat="4.860481" lon="-74.084341">
        <ele>2691.4</ele>
        <time>2019-07-29T17:06:00.472Z</time>
      </trkpt>
      <trkpt lat="4.860571" lon="-74.084357">
        <ele>2691.4</ele>
        <time>2019-07-29T17:06:01.472Z</time>
      </trkpt>
      <trkpt lat="4.860731" lon="-74.084306">
        <ele>2691</ele>
        <time>2019-07-29T17:06:02.472Z</time>
      </trkpt>
      <trkpt lat="4.86079" lon="-74.084247">
        <ele>2690.2</ele>
        <time>2019-07-29T17:06:03.472Z</time>
      </trkpt>
      <trkpt lat="4.86093" lon="-74.084135">
        <ele>2688.8</ele>
        <time>2019-07-29T17:06:04.472Z</time>
      </trkpt>
      <trkpt lat="4.861017" lon="-74.084085">
        <ele>2688</ele>
        <time>2019-07-29T17:06:05.472Z</time>
      </trkpt>
      <trkpt lat="4.861108" lon="-74.084039">
        <ele>2686.8</ele>
        <time>2019-07-29T17:06:06.472Z</time>
      </trkpt>
      <trkpt lat="4.861202" lon="-74.083997">
        <ele>2685.4</ele>
        <time>2019-07-29T17:06:07.472Z</time>
      </trkpt>
      <trkpt lat="4.861385" lon="-74.083918">
        <ele>2684</ele>
        <time>2019-07-29T17:06:08.472Z</time>
      </trkpt>
      <trkpt lat="4.861469" lon="-74.083879">
        <ele>2683.8</ele>
        <time>2019-07-29T17:06:09.472Z</time>
      </trkpt>
      <trkpt lat="4.861557" lon="-74.083851">
        <ele>2683.6</ele>
        <time>2019-07-29T17:06:10.472Z</time>
      </trkpt>
      <trkpt lat="4.861739" lon="-74.083816">
        <ele>2683.4</ele>
        <time>2019-07-29T17:06:11.472Z</time>
      </trkpt>
      <trkpt lat="4.861923" lon="-74.083824">
        <ele>2683.2</ele>
        <time>2019-07-29T17:06:12.472Z</time>
      </trkpt>
      <trkpt lat="4.862009" lon="-74.08384">
        <ele>2682.4</ele>
        <time>2019-07-29T17:06:13.472Z</time>
      </trkpt>
      <trkpt lat="4.862172" lon="-74.08386">
        <ele>2680.6</ele>
        <time>2019-07-29T17:06:14.472Z</time>
      </trkpt>
      <trkpt lat="4.862328" lon="-74.083844">
        <ele>2680</ele>
        <time>2019-07-29T17:06:15.472Z</time>
      </trkpt>
      <trkpt lat="4.862403" lon="-74.08382">
        <ele>2679.8</ele>
        <time>2019-07-29T17:06:16.472Z</time>
      </trkpt>
      <trkpt lat="4.862461" lon="-74.083777">
        <ele>2679.4</ele>
        <time>2019-07-29T17:06:17.472Z</time>
      </trkpt>
      <trkpt lat="4.86252" lon="-74.083731">
        <ele>2679.6</ele>
        <time>2019-07-29T17:06:18.472Z</time>
      </trkpt>
      <trkpt lat="4.862719" lon="-74.083602">
        <ele>2679.2</ele>
        <time>2019-07-29T17:06:19.472Z</time>
      </trkpt>
      <trkpt lat="4.862795" lon="-74.083579">
        <ele>2678.8</ele>
        <time>2019-07-29T17:06:20.472Z</time>
      </trkpt>
      <trkpt lat="4.862875" lon="-74.083572">
        <ele>2678.6</ele>
        <time>2019-07-29T17:06:21.472Z</time>
      </trkpt>
      <trkpt lat="4.862956" lon="-74.083578">
        <ele>2678</ele>
        <time>2019-07-29T17:06:22.472Z</time>
      </trkpt>
      <trkpt lat="4.863042" lon="-74.083588">
        <ele>2677.4</ele>
        <time>2019-07-29T17:06:23.472Z</time>
      </trkpt>
      <trkpt lat="4.863128" lon="-74.083586">
        <ele>2677</ele>
        <time>2019-07-29T17:06:24.472Z</time>
      </trkpt>
      <trkpt lat="4.863194" lon="-74.083556">
        <ele>2676</ele>
        <time>2019-07-29T17:06:25.472Z</time>
      </trkpt>
      <trkpt lat="4.863242" lon="-74.083499">
        <ele>2675</ele>
        <time>2019-07-29T17:06:26.472Z</time>
      </trkpt>
      <trkpt lat="4.863272" lon="-74.083428">
        <ele>2674.2</ele>
        <time>2019-07-29T17:06:27.472Z</time>
      </trkpt>
      <trkpt lat="4.863287" lon="-74.08335">
        <ele>2673.6</ele>
        <time>2019-07-29T17:06:28.472Z</time>
      </trkpt>
      <trkpt lat="4.863254" lon="-74.083194">
        <ele>2673.4</ele>
        <time>2019-07-29T17:06:29.472Z</time>
      </trkpt>
      <trkpt lat="4.863246" lon="-74.083111">
        <ele>2673</ele>
        <time>2019-07-29T17:06:30.472Z</time>
      </trkpt>
      <trkpt lat="4.863262" lon="-74.082939">
        <ele>2672.4</ele>
        <time>2019-07-29T17:06:31.472Z</time>
      </trkpt>
      <trkpt lat="4.863279" lon="-74.082855">
        <ele>2670.8</ele>
        <time>2019-07-29T17:06:32.472Z</time>
      </trkpt>
      <trkpt lat="4.863302" lon="-74.082783">
        <ele>2669.8</ele>
        <time>2019-07-29T17:06:33.472Z</time>
      </trkpt>
      <trkpt lat="4.863331" lon="-74.082719">
        <ele>2668.8</ele>
        <time>2019-07-29T17:06:34.472Z</time>
      </trkpt>
      <trkpt lat="4.863365" lon="-74.082659">
        <ele>2668.2</ele>
        <time>2019-07-29T17:06:35.472Z</time>
      </trkpt>
      <trkpt lat="4.863504" lon="-74.082484">
        <ele>2667.4</ele>
        <time>2019-07-29T17:06:36.472Z</time>
      </trkpt>
      <trkpt lat="4.86355" lon="-74.082417">
        <ele>2667.4</ele>
        <time>2019-07-29T17:06:37.472Z</time>
      </trkpt>
      <trkpt lat="4.863633" lon="-74.082278">
        <ele>2666.2</ele>
        <time>2019-07-29T17:06:38.472Z</time>
      </trkpt>
      <trkpt lat="4.863664" lon="-74.082208">
        <ele>2665.2</ele>
        <time>2019-07-29T17:06:39.472Z</time>
      </trkpt>
      <trkpt lat="4.86369" lon="-74.082133">
        <ele>2664.2</ele>
        <time>2019-07-29T17:06:40.472Z</time>
      </trkpt>
      <trkpt lat="4.863706" lon="-74.082057">
        <ele>2663.6</ele>
        <time>2019-07-29T17:06:41.472Z</time>
      </trkpt>
      <trkpt lat="4.863716" lon="-74.08198">
        <ele>2662.8</ele>
        <time>2019-07-29T17:06:42.472Z</time>
      </trkpt>
      <trkpt lat="4.863716" lon="-74.081804">
        <ele>2661.6</ele>
        <time>2019-07-29T17:06:43.472Z</time>
      </trkpt>
      <trkpt lat="4.863716" lon="-74.081711">
        <ele>2661.4</ele>
        <time>2019-07-29T17:06:44.472Z</time>
      </trkpt>
      <trkpt lat="4.863723" lon="-74.081614">
        <ele>2661.4</ele>
        <time>2019-07-29T17:06:45.472Z</time>
      </trkpt>
      <trkpt lat="4.863777" lon="-74.081424">
        <ele>2660.6</ele>
        <time>2019-07-29T17:06:46.472Z</time>
      </trkpt>
      <trkpt lat="4.863825" lon="-74.081336">
        <ele>2659.6</ele>
        <time>2019-07-29T17:06:47.472Z</time>
      </trkpt>
      <trkpt lat="4.863943" lon="-74.081177">
        <ele>2658</ele>
        <time>2019-07-29T17:06:48.472Z</time>
      </trkpt>
      <trkpt lat="4.864091" lon="-74.081058">
        <ele>2657</ele>
        <time>2019-07-29T17:06:49.472Z</time>
      </trkpt>
      <trkpt lat="4.864172" lon="-74.081011">
        <ele>2656</ele>
        <time>2019-07-29T17:06:50.472Z</time>
      </trkpt>
      <trkpt lat="4.864253" lon="-74.080972">
        <ele>2655.2</ele>
        <time>2019-07-29T17:06:51.472Z</time>
      </trkpt>
      <trkpt lat="4.864422" lon="-74.080908">
        <ele>2654</ele>
        <time>2019-07-29T17:06:52.472Z</time>
      </trkpt>
      <trkpt lat="4.86459" lon="-74.080845">
        <ele>2653.4</ele>
        <time>2019-07-29T17:06:53.472Z</time>
      </trkpt>
      <trkpt lat="4.864864" lon="-74.080631">
        <ele>2653.4</ele>
        <time>2019-07-29T17:06:54.472Z</time>
      </trkpt>
      <trkpt lat="4.86492" lon="-74.08058">
        <ele>2653</ele>
        <time>2019-07-29T17:06:55.472Z</time>
      </trkpt>
      <trkpt lat="4.864976" lon="-74.080546">
        <ele>2652.8</ele>
        <time>2019-07-29T17:06:56.472Z</time>
      </trkpt>
      <trkpt lat="4.86504" lon="-74.080522">
        <ele>2652.4</ele>
        <time>2019-07-29T17:06:57.472Z</time>
      </trkpt>
      <trkpt lat="4.865233" lon="-74.080484">
        <ele>2651.8</ele>
        <time>2019-07-29T17:06:58.472Z</time>
      </trkpt>
      <trkpt lat="4.865284" lon="-74.080484">
        <ele>2651.6</ele>
        <time>2019-07-29T17:06:59.472Z</time>
      </trkpt>
      <trkpt lat="4.865374" lon="-74.08048">
        <ele>2651.4</ele>
        <time>2019-07-29T17:07:00.472Z</time>
      </trkpt>
      <trkpt lat="4.865468" lon="-74.08044">
        <ele>2651.2</ele>
        <time>2019-07-29T17:07:01.472Z</time>
      </trkpt>
      <trkpt lat="4.865523" lon="-74.080416">
        <ele>2651</ele>
        <time>2019-07-29T17:07:02.472Z</time>
      </trkpt>
      <trkpt lat="4.865586" lon="-74.080386">
        <ele>2650.2</ele>
        <time>2019-07-29T17:07:03.472Z</time>
      </trkpt>
      <trkpt lat="4.865731" lon="-74.080331">
        <ele>2648.6</ele>
        <time>2019-07-29T17:07:04.472Z</time>
      </trkpt>
      <trkpt lat="4.865894" lon="-74.080275">
        <ele>2646.8</ele>
        <time>2019-07-29T17:07:05.472Z</time>
      </trkpt>
      <trkpt lat="4.86598" lon="-74.080248">
        <ele>2645.4</ele>
        <time>2019-07-29T17:07:06.472Z</time>
      </trkpt>
      <trkpt lat="4.866155" lon="-74.080193">
        <ele>2643.8</ele>
        <time>2019-07-29T17:07:07.472Z</time>
      </trkpt>
      <trkpt lat="4.866243" lon="-74.080164">
        <ele>2643.2</ele>
        <time>2019-07-29T17:07:08.472Z</time>
      </trkpt>
      <trkpt lat="4.866333" lon="-74.080132">
        <ele>2642.8</ele>
        <time>2019-07-29T17:07:09.472Z</time>
      </trkpt>
      <trkpt lat="4.866611" lon="-74.080041">
        <ele>2641.6</ele>
        <time>2019-07-29T17:07:10.472Z</time>
      </trkpt>
      <trkpt lat="4.866901" lon="-74.079975">
        <ele>2640.2</ele>
        <time>2019-07-29T17:07:11.472Z</time>
      </trkpt>
      <trkpt lat="4.867094" lon="-74.079937">
        <ele>2639.2</ele>
        <time>2019-07-29T17:07:12.472Z</time>
      </trkpt>
      <trkpt lat="4.86737" lon="-74.079903">
        <ele>2638.4</ele>
        <time>2019-07-29T17:07:13.472Z</time>
      </trkpt>
      <trkpt lat="4.867462" lon="-74.079894">
        <ele>2638</ele>
        <time>2019-07-29T17:07:14.472Z</time>
      </trkpt>
      <trkpt lat="4.867646" lon="-74.079874">
        <ele>2636.8</ele>
        <time>2019-07-29T17:07:15.472Z</time>
      </trkpt>
      <trkpt lat="4.868018" lon="-74.079828">
        <ele>2636.2</ele>
        <time>2019-07-29T17:07:16.472Z</time>
      </trkpt>
      <trkpt lat="4.868198" lon="-74.079757">
        <ele>2635.2</ele>
        <time>2019-07-29T17:07:17.472Z</time>
      </trkpt>
      <trkpt lat="4.868285" lon="-74.079707">
        <ele>2633.8</ele>
        <time>2019-07-29T17:07:18.472Z</time>
      </trkpt>
      <trkpt lat="4.868355" lon="-74.079648">
        <ele>2632.8</ele>
        <time>2019-07-29T17:07:19.472Z</time>
      </trkpt>
      <trkpt lat="4.868437" lon="-74.079583">
        <ele>2631.2</ele>
        <time>2019-07-29T17:07:20.472Z</time>
      </trkpt>
      <trkpt lat="4.86852" lon="-74.079521">
        <ele>2630</ele>
        <time>2019-07-29T17:07:21.472Z</time>
      </trkpt>
      <trkpt lat="4.868604" lon="-74.079464">
        <ele>2629.2</ele>
        <time>2019-07-29T17:07:22.472Z</time>
      </trkpt>
      <trkpt lat="4.868687" lon="-74.079406">
        <ele>2628.8</ele>
        <time>2019-07-29T17:07:23.472Z</time>
      </trkpt>
      <trkpt lat="4.868766" lon="-74.079356">
        <ele>2627.8</ele>
        <time>2019-07-29T17:07:24.472Z</time>
      </trkpt>
      <trkpt lat="4.868851" lon="-74.079315">
        <ele>2627</ele>
        <time>2019-07-29T17:07:25.472Z</time>
      </trkpt>
      <trkpt lat="4.868944" lon="-74.079284">
        <ele>2626.2</ele>
        <time>2019-07-29T17:07:26.472Z</time>
      </trkpt>
      <trkpt lat="4.869351" lon="-74.079231">
        <ele>2626.4</ele>
        <time>2019-07-29T17:07:27.472Z</time>
      </trkpt>
      <trkpt lat="4.869561" lon="-74.079265">
        <ele>2625.8</ele>
        <time>2019-07-29T17:07:28.472Z</time>
      </trkpt>
      <trkpt lat="4.869667" lon="-74.079293">
        <ele>2625</ele>
        <time>2019-07-29T17:07:29.472Z</time>
      </trkpt>
      <trkpt lat="4.869767" lon="-74.079317">
        <ele>2623.6</ele>
        <time>2019-07-29T17:07:30.472Z</time>
      </trkpt>
      <trkpt lat="4.869861" lon="-74.07933">
        <ele>2622.2</ele>
        <time>2019-07-29T17:07:31.472Z</time>
      </trkpt>
      <trkpt lat="4.869953" lon="-74.079317">
        <ele>2621.2</ele>
        <time>2019-07-29T17:07:32.472Z</time>
      </trkpt>
      <trkpt lat="4.870021" lon="-74.079268">
        <ele>2620.4</ele>
        <time>2019-07-29T17:07:33.472Z</time>
      </trkpt>
      <trkpt lat="4.870082" lon="-74.079204">
        <ele>2619.8</ele>
        <time>2019-07-29T17:07:34.472Z</time>
      </trkpt>
      <trkpt lat="4.870128" lon="-74.079127">
        <ele>2619.2</ele>
        <time>2019-07-29T17:07:35.472Z</time>
      </trkpt>
      <trkpt lat="4.870181" lon="-74.078953">
        <ele>2618.6</ele>
        <time>2019-07-29T17:07:36.472Z</time>
      </trkpt>
      <trkpt lat="4.870211" lon="-74.078873">
        <ele>2618.4</ele>
        <time>2019-07-29T17:07:37.472Z</time>
      </trkpt>
      <trkpt lat="4.870248" lon="-74.0788">
        <ele>2618.2</ele>
        <time>2019-07-29T17:07:38.472Z</time>
      </trkpt>
      <trkpt lat="4.870294" lon="-74.078739">
        <ele>2618</ele>
        <time>2019-07-29T17:07:39.472Z</time>
      </trkpt>
      <trkpt lat="4.870352" lon="-74.078689">
        <ele>2618</ele>
        <time>2019-07-29T17:07:40.472Z</time>
      </trkpt>
      <trkpt lat="4.870695" lon="-74.078473">
        <ele>2616.8</ele>
        <time>2019-07-29T17:07:41.472Z</time>
      </trkpt>
      <trkpt lat="4.870768" lon="-74.078435">
        <ele>2616.4</ele>
        <time>2019-07-29T17:07:42.472Z</time>
      </trkpt>
      <trkpt lat="4.870921" lon="-74.078376">
        <ele>2615.6</ele>
        <time>2019-07-29T17:07:43.472Z</time>
      </trkpt>
      <trkpt lat="4.871001" lon="-74.078354">
        <ele>2615.8</ele>
        <time>2019-07-29T17:07:44.472Z</time>
      </trkpt>
      <trkpt lat="4.871082" lon="-74.07834">
        <ele>2615.6</ele>
        <time>2019-07-29T17:07:45.472Z</time>
      </trkpt>
      <trkpt lat="4.871327" lon="-74.078322">
        <ele>2615.2</ele>
        <time>2019-07-29T17:07:46.472Z</time>
      </trkpt>
      <trkpt lat="4.871561" lon="-74.078231">
        <ele>2614.8</ele>
        <time>2019-07-29T17:07:47.472Z</time>
      </trkpt>
      <trkpt lat="4.871632" lon="-74.078184">
        <ele>2614.8</ele>
        <time>2019-07-29T17:07:48.472Z</time>
      </trkpt>
      <trkpt lat="4.871699" lon="-74.078133">
        <ele>2614.6</ele>
        <time>2019-07-29T17:07:49.472Z</time>
      </trkpt>
      <trkpt lat="4.871835" lon="-74.078036">
        <ele>2614.4</ele>
        <time>2019-07-29T17:07:50.472Z</time>
      </trkpt>
      <trkpt lat="4.871912" lon="-74.078007">
        <ele>2614</ele>
        <time>2019-07-29T17:07:51.472Z</time>
      </trkpt>
      <trkpt lat="4.871992" lon="-74.07799">
        <ele>2613.2</ele>
        <time>2019-07-29T17:07:52.472Z</time>
      </trkpt>
      <trkpt lat="4.872072" lon="-74.077986">
        <ele>2612.6</ele>
        <time>2019-07-29T17:07:53.472Z</time>
      </trkpt>
      <trkpt lat="4.87215" lon="-74.078002">
        <ele>2612.4</ele>
        <time>2019-07-29T17:07:54.472Z</time>
      </trkpt>
      <trkpt lat="4.872223" lon="-74.078034">
        <ele>2612.2</ele>
        <time>2019-07-29T17:07:55.472Z</time>
      </trkpt>
      <trkpt lat="4.872343" lon="-74.078139">
        <ele>2611.6</ele>
        <time>2019-07-29T17:07:56.472Z</time>
      </trkpt>
      <trkpt lat="4.872456" lon="-74.078277">
        <ele>2610.8</ele>
        <time>2019-07-29T17:07:57.472Z</time>
      </trkpt>
      <trkpt lat="4.87252" lon="-74.078343">
        <ele>2610.6</ele>
        <time>2019-07-29T17:07:58.472Z</time>
      </trkpt>
      <trkpt lat="4.872592" lon="-74.0784">
        <ele>2610.4</ele>
        <time>2019-07-29T17:07:59.472Z</time>
      </trkpt>
      <trkpt lat="4.872673" lon="-74.078446">
        <ele>2610</ele>
        <time>2019-07-29T17:08:00.472Z</time>
      </trkpt>
      <trkpt lat="4.87276" lon="-74.078481">
        <ele>2609.6</ele>
        <time>2019-07-29T17:08:01.472Z</time>
      </trkpt>
      <trkpt lat="4.87285" lon="-74.078504">
        <ele>2609.2</ele>
        <time>2019-07-29T17:08:02.472Z</time>
      </trkpt>
      <trkpt lat="4.873038" lon="-74.078508">
        <ele>2608.4</ele>
        <time>2019-07-29T17:08:03.472Z</time>
      </trkpt>
      <trkpt lat="4.873132" lon="-74.0785">
        <ele>2607.8</ele>
        <time>2019-07-29T17:08:04.472Z</time>
      </trkpt>
      <trkpt lat="4.873223" lon="-74.078484">
        <ele>2607</ele>
        <time>2019-07-29T17:08:05.472Z</time>
      </trkpt>
      <trkpt lat="4.873386" lon="-74.078409">
        <ele>2606.4</ele>
        <time>2019-07-29T17:08:06.472Z</time>
      </trkpt>
      <trkpt lat="4.873502" lon="-74.078273">
        <ele>2606</ele>
        <time>2019-07-29T17:08:07.472Z</time>
      </trkpt>
      <trkpt lat="4.873545" lon="-74.078191">
        <ele>2605.6</ele>
        <time>2019-07-29T17:08:08.472Z</time>
      </trkpt>
      <trkpt lat="4.873624" lon="-74.07802">
        <ele>2604.6</ele>
        <time>2019-07-29T17:08:09.472Z</time>
      </trkpt>
      <trkpt lat="4.873705" lon="-74.077847">
        <ele>2603.8</ele>
        <time>2019-07-29T17:08:10.472Z</time>
      </trkpt>
      <trkpt lat="4.873749" lon="-74.077764">
        <ele>2603.4</ele>
        <time>2019-07-29T17:08:11.472Z</time>
      </trkpt>
      <trkpt lat="4.873793" lon="-74.077681">
        <ele>2602.8</ele>
        <time>2019-07-29T17:08:12.472Z</time>
      </trkpt>
      <trkpt lat="4.873825" lon="-74.077594">
        <ele>2602.2</ele>
        <time>2019-07-29T17:08:13.472Z</time>
      </trkpt>
      <trkpt lat="4.873843" lon="-74.077407">
        <ele>2601.6</ele>
        <time>2019-07-29T17:08:14.472Z</time>
      </trkpt>
      <trkpt lat="4.873831" lon="-74.077316">
        <ele>2601.2</ele>
        <time>2019-07-29T17:08:15.472Z</time>
      </trkpt>
      <trkpt lat="4.873794" lon="-74.077227">
        <ele>2600.4</ele>
        <time>2019-07-29T17:08:16.472Z</time>
      </trkpt>
      <trkpt lat="4.873741" lon="-74.077146">
        <ele>2599.4</ele>
        <time>2019-07-29T17:08:17.472Z</time>
      </trkpt>
      <trkpt lat="4.873677" lon="-74.077076">
        <ele>2598.2</ele>
        <time>2019-07-29T17:08:18.472Z</time>
      </trkpt>
      <trkpt lat="4.873607" lon="-74.077004">
        <ele>2597.2</ele>
        <time>2019-07-29T17:08:19.472Z</time>
      </trkpt>
      <trkpt lat="4.873457" lon="-74.076863">
        <ele>2595.6</ele>
        <time>2019-07-29T17:08:20.472Z</time>
      </trkpt>
      <trkpt lat="4.873398" lon="-74.076779">
        <ele>2595.2</ele>
        <time>2019-07-29T17:08:21.472Z</time>
      </trkpt>
      <trkpt lat="4.873281" lon="-74.076616">
        <ele>2594.2</ele>
        <time>2019-07-29T17:08:22.472Z</time>
      </trkpt>
      <trkpt lat="4.873138" lon="-74.076513">
        <ele>2592.8</ele>
        <time>2019-07-29T17:08:23.472Z</time>
      </trkpt>
      <trkpt lat="4.873049" lon="-74.076495">
        <ele>2592.2</ele>
        <time>2019-07-29T17:08:24.472Z</time>
      </trkpt>
      <trkpt lat="4.872952" lon="-74.076488">
        <ele>2591.6</ele>
        <time>2019-07-29T17:08:25.472Z</time>
      </trkpt>
      <trkpt lat="4.872773" lon="-74.076552">
        <ele>2591</ele>
        <time>2019-07-29T17:08:26.472Z</time>
      </trkpt>
      <trkpt lat="4.872605" lon="-74.076659">
        <ele>2591</ele>
        <time>2019-07-29T17:08:27.472Z</time>
      </trkpt>
      <trkpt lat="4.872543" lon="-74.076722">
        <ele>2590.8</ele>
        <time>2019-07-29T17:08:28.472Z</time>
      </trkpt>
      <trkpt lat="4.872502" lon="-74.076789">
        <ele>2590.4</ele>
        <time>2019-07-29T17:08:29.472Z</time>
      </trkpt>
      <trkpt lat="4.872466" lon="-74.076926">
        <ele>2588.6</ele>
        <time>2019-07-29T17:08:30.472Z</time>
      </trkpt>
      <trkpt lat="4.872527" lon="-74.077042">
        <ele>2587.4</ele>
        <time>2019-07-29T17:08:31.472Z</time>
      </trkpt>
      <trkpt lat="4.872688" lon="-74.077205">
        <ele>2586.4</ele>
        <time>2019-07-29T17:08:32.472Z</time>
      </trkpt>
      <trkpt lat="4.87285" lon="-74.077381">
        <ele>2586</ele>
        <time>2019-07-29T17:08:33.472Z</time>
      </trkpt>
      <trkpt lat="4.872896" lon="-74.077447">
        <ele>2585.8</ele>
        <time>2019-07-29T17:08:34.472Z</time>
      </trkpt>
      <trkpt lat="4.872935" lon="-74.077515">
        <ele>2585.2</ele>
        <time>2019-07-29T17:08:35.472Z</time>
      </trkpt>
      <trkpt lat="4.872958" lon="-74.077581">
        <ele>2584.6</ele>
        <time>2019-07-29T17:08:36.472Z</time>
      </trkpt>
      <trkpt lat="4.872953" lon="-74.077637">
        <ele>2583.8</ele>
        <time>2019-07-29T17:08:37.472Z</time>
      </trkpt>
      <trkpt lat="4.872923" lon="-74.077678">
        <ele>2583.6</ele>
        <time>2019-07-29T17:08:38.472Z</time>
      </trkpt>
      <trkpt lat="4.872829" lon="-74.07769">
        <ele>2583</ele>
        <time>2019-07-29T17:08:39.472Z</time>
      </trkpt>
      <trkpt lat="4.872786" lon="-74.077662">
        <ele>2583</ele>
        <time>2019-07-29T17:08:40.472Z</time>
      </trkpt>
      <trkpt lat="4.872554" lon="-74.077517">
        <ele>2582.6</ele>
        <time>2019-07-29T17:08:41.472Z</time>
      </trkpt>
      <trkpt lat="4.872401" lon="-74.077441">
        <ele>2581</ele>
        <time>2019-07-29T17:08:42.472Z</time>
      </trkpt>
      <trkpt lat="4.872311" lon="-74.077411">
        <ele>2580</ele>
        <time>2019-07-29T17:08:43.472Z</time>
      </trkpt>
      <trkpt lat="4.872216" lon="-74.07739">
        <ele>2579</ele>
        <time>2019-07-29T17:08:44.472Z</time>
      </trkpt>
      <trkpt lat="4.872119" lon="-74.077385">
        <ele>2577.8</ele>
        <time>2019-07-29T17:08:45.472Z</time>
      </trkpt>
      <trkpt lat="4.871914" lon="-74.077427">
        <ele>2576.2</ele>
        <time>2019-07-29T17:08:46.472Z</time>
      </trkpt>
      <trkpt lat="4.871716" lon="-74.077498">
        <ele>2575.2</ele>
        <time>2019-07-29T17:08:47.472Z</time>
      </trkpt>
      <trkpt lat="4.871518" lon="-74.077587">
        <ele>2573.4</ele>
        <time>2019-07-29T17:08:48.472Z</time>
      </trkpt>
      <trkpt lat="4.871338" lon="-74.077688">
        <ele>2572</ele>
        <time>2019-07-29T17:08:49.472Z</time>
      </trkpt>
      <trkpt lat="4.871148" lon="-74.077758">
        <ele>2570.6</ele>
        <time>2019-07-29T17:08:50.472Z</time>
      </trkpt>
      <trkpt lat="4.870631" lon="-74.07787">
        <ele>2569.2</ele>
        <time>2019-07-29T17:08:51.472Z</time>
      </trkpt>
      <trkpt lat="4.870518" lon="-74.077889">
        <ele>2568</ele>
        <time>2019-07-29T17:08:52.472Z</time>
      </trkpt>
      <trkpt lat="4.870407" lon="-74.077908">
        <ele>2566.6</ele>
        <time>2019-07-29T17:08:53.472Z</time>
      </trkpt>
      <trkpt lat="4.870194" lon="-74.077939">
        <ele>2565.6</ele>
        <time>2019-07-29T17:08:54.472Z</time>
      </trkpt>
      <trkpt lat="4.870094" lon="-74.077944">
        <ele>2565.2</ele>
        <time>2019-07-29T17:08:55.472Z</time>
      </trkpt>
      <trkpt lat="4.869994" lon="-74.07794">
        <ele>2565</ele>
        <time>2019-07-29T17:08:56.472Z</time>
      </trkpt>
      <trkpt lat="4.869899" lon="-74.077926">
        <ele>2564.6</ele>
        <time>2019-07-29T17:08:57.472Z</time>
      </trkpt>
      <trkpt lat="4.869806" lon="-74.077908">
        <ele>2564.4</ele>
        <time>2019-07-29T17:08:58.472Z</time>
      </trkpt>
      <trkpt lat="4.869624" lon="-74.077861">
        <ele>2563.4</ele>
        <time>2019-07-29T17:08:59.472Z</time>
      </trkpt>
      <trkpt lat="4.869437" lon="-74.077815">
        <ele>2562.4</ele>
        <time>2019-07-29T17:09:00.472Z</time>
      </trkpt>
      <trkpt lat="4.869171" lon="-74.077771">
        <ele>2561.6</ele>
        <time>2019-07-29T17:09:01.472Z</time>
      </trkpt>
      <trkpt lat="4.869089" lon="-74.077758">
        <ele>2561.4</ele>
        <time>2019-07-29T17:09:02.472Z</time>
      </trkpt>
      <trkpt lat="4.868909" lon="-74.077713">
        <ele>2560.2</ele>
        <time>2019-07-29T17:09:03.472Z</time>
      </trkpt>
      <trkpt lat="4.868658" lon="-74.077617">
        <ele>2559.2</ele>
        <time>2019-07-29T17:09:04.472Z</time>
      </trkpt>
      <trkpt lat="4.868348" lon="-74.077504">
        <ele>2558</ele>
        <time>2019-07-29T17:09:05.472Z</time>
      </trkpt>
      <trkpt lat="4.868165" lon="-74.077416">
        <ele>2556.8</ele>
        <time>2019-07-29T17:09:06.472Z</time>
      </trkpt>
      <trkpt lat="4.867992" lon="-74.077297">
        <ele>2555.6</ele>
        <time>2019-07-29T17:09:07.472Z</time>
      </trkpt>
      <trkpt lat="4.867938" lon="-74.077226">
        <ele>2555.2</ele>
        <time>2019-07-29T17:09:08.472Z</time>
      </trkpt>
      <trkpt lat="4.86789" lon="-74.077149">
        <ele>2555</ele>
        <time>2019-07-29T17:09:09.472Z</time>
      </trkpt>
      <trkpt lat="4.867844" lon="-74.077063">
        <ele>2554.6</ele>
        <time>2019-07-29T17:09:10.472Z</time>
      </trkpt>
      <trkpt lat="4.867769" lon="-74.07689">
        <ele>2553.2</ele>
        <time>2019-07-29T17:09:11.472Z</time>
      </trkpt>
      <trkpt lat="4.867648" lon="-74.076551">
        <ele>2551.6</ele>
        <time>2019-07-29T17:09:12.472Z</time>
      </trkpt>
      <trkpt lat="4.867562" lon="-74.076308">
        <ele>2552</ele>
        <time>2019-07-29T17:09:13.472Z</time>
      </trkpt>
      <trkpt lat="4.867436" lon="-74.07594">
        <ele>2551</ele>
        <time>2019-07-29T17:09:14.472Z</time>
      </trkpt>
      <trkpt lat="4.867418" lon="-74.075884">
        <ele>2550</ele>
        <time>2019-07-29T17:09:15.472Z</time>
      </trkpt>
      <trkpt lat="4.867239" lon="-74.075286">
        <ele>2575.8</ele>
        <time>2019-07-29T16:59:33.472Z</time>
      </trkpt>
      <trkpt lat="4.867248" lon="-74.075295">
        <ele>2576.2</ele>
        <time>2019-07-29T16:59:34.472Z</time>
      </trkpt>
      <trkpt lat="4.867248" lon="-74.07531">
        <ele>2576.2</ele>
        <time>2019-07-29T16:59:35.472Z</time>
      </trkpt>
      <trkpt lat="4.867279" lon="-74.075463">
        <ele>2575.2</ele>
        <time>2019-07-29T16:59:36.472Z</time>
      </trkpt>
      <trkpt lat="4.867341" lon="-74.075627">
        <ele>2575.2</ele>
        <time>2019-07-29T16:59:37.472Z</time>
      </trkpt>
      <trkpt lat="4.867372" lon="-74.075715">
        <ele>2575.6</ele>
        <time>2019-07-29T16:59:38.472Z</time>
      </trkpt>
      <trkpt lat="4.867404" lon="-74.075791">
        <ele>2576</ele>
        <time>2019-07-29T16:59:39.472Z</time>
      </trkpt>
      <trkpt lat="4.867422" lon="-74.075851">
        <ele>2576.6</ele>
        <time>2019-07-29T16:59:40.472Z</time>
      </trkpt>
      <trkpt lat="4.867433" lon="-74.075884">
        <ele>2576.8</ele>
        <time>2019-07-29T16:59:41.472Z</time>
      </trkpt>
      <trkpt lat="4.867456" lon="-74.075948">
        <ele>2577</ele>
        <time>2019-07-29T16:59:42.472Z</time>
      </trkpt>
      <trkpt lat="4.867479" lon="-74.076009">
        <ele>2577</ele>
        <time>2019-07-29T16:59:43.472Z</time>
      </trkpt>
      <trkpt lat="4.867502" lon="-74.076069">
        <ele>2577</ele>
        <time>2019-07-29T16:59:44.472Z</time>
      </trkpt>
      <trkpt lat="4.867525" lon="-74.076135">
        <ele>2578</ele>
        <time>2019-07-29T16:59:45.472Z</time>
      </trkpt>
      <trkpt lat="4.867537" lon="-74.076168">
        <ele>2578.2</ele>
        <time>2019-07-29T16:59:46.472Z</time>
      </trkpt>
      <trkpt lat="4.867581" lon="-74.0763">
        <ele>2579</ele>
        <time>2019-07-29T16:59:47.472Z</time>
      </trkpt>
      <trkpt lat="4.867589" lon="-74.076336">
        <ele>2579.4</ele>
        <time>2019-07-29T16:59:48.472Z</time>
      </trkpt>
      <trkpt lat="4.867608" lon="-74.076403">
        <ele>2580</ele>
        <time>2019-07-29T16:59:49.472Z</time>
      </trkpt>
      <trkpt lat="4.867621" lon="-74.076435">
        <ele>2580.4</ele>
        <time>2019-07-29T16:59:50.472Z</time>
      </trkpt>
      <trkpt lat="4.867709" lon="-74.076667">
        <ele>2580.8</ele>
        <time>2019-07-29T16:59:51.472Z</time>
      </trkpt>
      <trkpt lat="4.867771" lon="-74.076901">
        <ele>2581.6</ele>
        <time>2019-07-29T16:59:52.472Z</time>
      </trkpt>
      <trkpt lat="4.867874" lon="-74.077124">
        <ele>2582.8</ele>
        <time>2019-07-29T16:59:53.472Z</time>
      </trkpt>
      <trkpt lat="4.867894" lon="-74.077155">
        <ele>2582.8</ele>
        <time>2019-07-29T16:59:54.472Z</time>
      </trkpt>
      <trkpt lat="4.868026" lon="-74.077323">
        <ele>2583.2</ele>
        <time>2019-07-29T16:59:55.472Z</time>
      </trkpt>
      <trkpt lat="4.86805" lon="-74.077346">
        <ele>2583.8</ele>
        <time>2019-07-29T16:59:56.472Z</time>
      </trkpt>
      <trkpt lat="4.868079" lon="-74.077364">
        <ele>2584.4</ele>
        <time>2019-07-29T16:59:57.472Z</time>
      </trkpt>
      <trkpt lat="4.868133" lon="-74.0774">
        <ele>2585.6</ele>
        <time>2019-07-29T16:59:58.472Z</time>
      </trkpt>
      <trkpt lat="4.868211" lon="-74.077442">
        <ele>2586.4</ele>
        <time>2019-07-29T16:59:59.472Z</time>
      </trkpt>
      <trkpt lat="4.868236" lon="-74.07746">
        <ele>2586.6</ele>
        <time>2019-07-29T17:00:00.472Z</time>
      </trkpt>
      <trkpt lat="4.868385" lon="-74.077553">
        <ele>2587.2</ele>
        <time>2019-07-29T17:00:01.472Z</time>
      </trkpt>
      <trkpt lat="4.868426" lon="-74.077583">
        <ele>2587.6</ele>
        <time>2019-07-29T17:00:02.472Z</time>
      </trkpt>
      <trkpt lat="4.868513" lon="-74.077615">
        <ele>2588.6</ele>
        <time>2019-07-29T17:00:03.472Z</time>
      </trkpt>
      <trkpt lat="4.868546" lon="-74.077625">
        <ele>2588.8</ele>
        <time>2019-07-29T17:00:04.472Z</time>
      </trkpt>
      <trkpt lat="4.868698" lon="-74.077678">
        <ele>2589.8</ele>
        <time>2019-07-29T17:00:05.472Z</time>
      </trkpt>
      <trkpt lat="4.86877" lon="-74.077711">
        <ele>2590.2</ele>
        <time>2019-07-29T17:00:06.472Z</time>
      </trkpt>
      <trkpt lat="4.868904" lon="-74.077748">
        <ele>2591</ele>
        <time>2019-07-29T17:00:07.472Z</time>
      </trkpt>
      <trkpt lat="4.868968" lon="-74.077764">
        <ele>2591.2</ele>
        <time>2019-07-29T17:00:08.472Z</time>
      </trkpt>
      <trkpt lat="4.869128" lon="-74.077791">
        <ele>2591.8</ele>
        <time>2019-07-29T17:00:09.472Z</time>
      </trkpt>
      <trkpt lat="4.869302" lon="-74.077832">
        <ele>2592</ele>
        <time>2019-07-29T17:00:10.472Z</time>
      </trkpt>
      <trkpt lat="4.869341" lon="-74.077839">
        <ele>2592</ele>
        <time>2019-07-29T17:00:11.472Z</time>
      </trkpt>
      <trkpt lat="4.86945" lon="-74.077859">
        <ele>2593.2</ele>
        <time>2019-07-29T17:00:12.472Z</time>
      </trkpt>
      <trkpt lat="4.869517" lon="-74.077875">
        <ele>2594</ele>
        <time>2019-07-29T17:00:13.472Z</time>
      </trkpt>
      <trkpt lat="4.869585" lon="-74.077884">
        <ele>2594.4</ele>
        <time>2019-07-29T17:00:14.472Z</time>
      </trkpt>
      <trkpt lat="4.869693" lon="-74.077902">
        <ele>2594</ele>
        <time>2019-07-29T17:00:15.472Z</time>
      </trkpt>
      <trkpt lat="4.869918" lon="-74.077939">
        <ele>2595.4</ele>
        <time>2019-07-29T17:00:16.472Z</time>
      </trkpt>
      <trkpt lat="4.869958" lon="-74.077943">
        <ele>2595.8</ele>
        <time>2019-07-29T17:00:17.472Z</time>
      </trkpt>
      <trkpt lat="4.870079" lon="-74.077934">
        <ele>2597</ele>
        <time>2019-07-29T17:00:18.472Z</time>
      </trkpt>
      <trkpt lat="4.87012" lon="-74.077928">
        <ele>2597.4</ele>
        <time>2019-07-29T17:00:19.472Z</time>
      </trkpt>
      <trkpt lat="4.870385" lon="-74.07793">
        <ele>2597.8</ele>
        <time>2019-07-29T17:00:20.472Z</time>
      </trkpt>
      <trkpt lat="4.870483" lon="-74.077902">
        <ele>2598.2</ele>
        <time>2019-07-29T17:00:21.472Z</time>
      </trkpt>
      <trkpt lat="4.870655" lon="-74.077874">
        <ele>2599</ele>
        <time>2019-07-29T17:00:22.472Z</time>
      </trkpt>
      <trkpt lat="4.870739" lon="-74.077858">
        <ele>2599.2</ele>
        <time>2019-07-29T17:00:23.472Z</time>
      </trkpt>
      <trkpt lat="4.870886" lon="-74.07783">
        <ele>2599.6</ele>
        <time>2019-07-29T17:00:24.472Z</time>
      </trkpt>
      <trkpt lat="4.870947" lon="-74.077812">
        <ele>2600.4</ele>
        <time>2019-07-29T17:00:25.472Z</time>
      </trkpt>
      <trkpt lat="4.871074" lon="-74.077779">
        <ele>2601.6</ele>
        <time>2019-07-29T17:00:26.472Z</time>
      </trkpt>
      <trkpt lat="4.871218" lon="-74.077744">
        <ele>2602.4</ele>
        <time>2019-07-29T17:00:27.472Z</time>
      </trkpt>
      <trkpt lat="4.871258" lon="-74.07773">
        <ele>2602.8</ele>
        <time>2019-07-29T17:00:28.472Z</time>
      </trkpt>
      <trkpt lat="4.871442" lon="-74.07763">
        <ele>2603.8</ele>
        <time>2019-07-29T17:00:29.472Z</time>
      </trkpt>
      <trkpt lat="4.87148" lon="-74.077611">
        <ele>2604</ele>
        <time>2019-07-29T17:00:30.472Z</time>
      </trkpt>
      <trkpt lat="4.871637" lon="-74.07753">
        <ele>2604.8</ele>
        <time>2019-07-29T17:00:31.472Z</time>
      </trkpt>
      <trkpt lat="4.871715" lon="-74.077497">
        <ele>2605.8</ele>
        <time>2019-07-29T17:00:32.472Z</time>
      </trkpt>
      <trkpt lat="4.871785" lon="-74.077468">
        <ele>2606.2</ele>
        <time>2019-07-29T17:00:33.472Z</time>
      </trkpt>
      <trkpt lat="4.872001" lon="-74.077396">
        <ele>2607</ele>
        <time>2019-07-29T17:00:34.472Z</time>
      </trkpt>
      <trkpt lat="4.872097" lon="-74.077365">
        <ele>2608.4</ele>
        <time>2019-07-29T17:00:35.472Z</time>
      </trkpt>
      <trkpt lat="4.872186" lon="-74.077358">
        <ele>2609.2</ele>
        <time>2019-07-29T17:00:36.472Z</time>
      </trkpt>
      <trkpt lat="4.87222" lon="-74.077368">
        <ele>2609.4</ele>
        <time>2019-07-29T17:00:37.472Z</time>
      </trkpt>
      <trkpt lat="4.872411" lon="-74.07745">
        <ele>2610.4</ele>
        <time>2019-07-29T17:00:38.472Z</time>
      </trkpt>
      <trkpt lat="4.87256" lon="-74.077546">
        <ele>2611.8</ele>
        <time>2019-07-29T17:00:39.472Z</time>
      </trkpt>
      <trkpt lat="4.872633" lon="-74.077598">
        <ele>2612.4</ele>
        <time>2019-07-29T17:00:40.472Z</time>
      </trkpt>
      <trkpt lat="4.872748" lon="-74.077662">
        <ele>2612.8</ele>
        <time>2019-07-29T17:00:41.472Z</time>
      </trkpt>
      <trkpt lat="4.872788" lon="-74.077668">
        <ele>2613</ele>
        <time>2019-07-29T17:00:42.472Z</time>
      </trkpt>
      <trkpt lat="4.872832" lon="-74.077664">
        <ele>2613.2</ele>
        <time>2019-07-29T17:00:43.472Z</time>
      </trkpt>
      <trkpt lat="4.872891" lon="-74.077592">
        <ele>2613.4</ele>
        <time>2019-07-29T17:00:44.472Z</time>
      </trkpt>
      <trkpt lat="4.872912" lon="-74.077462">
        <ele>2613.6</ele>
        <time>2019-07-29T17:00:45.472Z</time>
      </trkpt>
      <trkpt lat="4.872858" lon="-74.077367">
        <ele>2614</ele>
        <time>2019-07-29T17:00:46.472Z</time>
      </trkpt>
      <trkpt lat="4.872814" lon="-74.077317">
        <ele>2614.6</ele>
        <time>2019-07-29T17:00:47.472Z</time>
      </trkpt>
      <trkpt lat="4.872665" lon="-74.077171">
        <ele>2615</ele>
        <time>2019-07-29T17:00:48.472Z</time>
      </trkpt>
      <trkpt lat="4.872571" lon="-74.077073">
        <ele>2615.2</ele>
        <time>2019-07-29T17:00:49.472Z</time>
      </trkpt>
      <trkpt lat="4.872494" lon="-74.076992">
        <ele>2616</ele>
        <time>2019-07-29T17:00:50.472Z</time>
      </trkpt>
      <trkpt lat="4.87248" lon="-74.076965">
        <ele>2616.2</ele>
        <time>2019-07-29T17:00:51.472Z</time>
      </trkpt>
      <trkpt lat="4.872466" lon="-74.076843">
        <ele>2616.8</ele>
        <time>2019-07-29T17:00:52.472Z</time>
      </trkpt>
      <trkpt lat="4.872476" lon="-74.076778">
        <ele>2617.4</ele>
        <time>2019-07-29T17:00:53.472Z</time>
      </trkpt>
      <trkpt lat="4.87254" lon="-74.076692">
        <ele>2618.4</ele>
        <time>2019-07-29T17:00:54.472Z</time>
      </trkpt>
      <trkpt lat="4.872565" lon="-74.076668">
        <ele>2618.6</ele>
        <time>2019-07-29T17:00:55.472Z</time>
      </trkpt>
      <trkpt lat="4.872712" lon="-74.076557">
        <ele>2619.6</ele>
        <time>2019-07-29T17:00:56.472Z</time>
      </trkpt>
      <trkpt lat="4.87276" lon="-74.076536">
        <ele>2619.6</ele>
        <time>2019-07-29T17:00:57.472Z</time>
      </trkpt>
      <trkpt lat="4.872896" lon="-74.076499">
        <ele>2620</ele>
        <time>2019-07-29T17:00:58.472Z</time>
      </trkpt>
      <trkpt lat="4.872957" lon="-74.076499">
        <ele>2620.6</ele>
        <time>2019-07-29T17:00:59.472Z</time>
      </trkpt>
      <trkpt lat="4.873086" lon="-74.076524">
        <ele>2621.6</ele>
        <time>2019-07-29T17:01:00.472Z</time>
      </trkpt>
      <trkpt lat="4.873118" lon="-74.076535">
        <ele>2622</ele>
        <time>2019-07-29T17:01:01.472Z</time>
      </trkpt>
      <trkpt lat="4.873236" lon="-74.07661">
        <ele>2623</ele>
        <time>2019-07-29T17:01:02.472Z</time>
      </trkpt>
      <trkpt lat="4.873347" lon="-74.076715">
        <ele>2623.8</ele>
        <time>2019-07-29T17:01:03.472Z</time>
      </trkpt>
      <trkpt lat="4.873381" lon="-74.076781">
        <ele>2624.2</ele>
        <time>2019-07-29T17:01:04.472Z</time>
      </trkpt>
      <trkpt lat="4.873427" lon="-74.07687">
        <ele>2624.8</ele>
        <time>2019-07-29T17:01:05.472Z</time>
      </trkpt>
      <trkpt lat="4.87349" lon="-74.07696">
        <ele>2625.4</ele>
        <time>2019-07-29T17:01:06.472Z</time>
      </trkpt>
      <trkpt lat="4.873561" lon="-74.077044">
        <ele>2625.8</ele>
        <time>2019-07-29T17:01:07.472Z</time>
      </trkpt>
      <trkpt lat="4.873608" lon="-74.077094">
        <ele>2626.4</ele>
        <time>2019-07-29T17:01:08.472Z</time>
      </trkpt>
      <trkpt lat="4.87368" lon="-74.077157">
        <ele>2626.4</ele>
        <time>2019-07-29T17:01:09.472Z</time>
      </trkpt>
      <trkpt lat="4.873774" lon="-74.077316">
        <ele>2627.4</ele>
        <time>2019-07-29T17:01:10.472Z</time>
      </trkpt>
      <trkpt lat="4.873787" lon="-74.077492">
        <ele>2628.4</ele>
        <time>2019-07-29T17:01:11.472Z</time>
      </trkpt>
      <trkpt lat="4.873783" lon="-74.077521">
        <ele>2628.6</ele>
        <time>2019-07-29T17:01:12.472Z</time>
      </trkpt>
      <trkpt lat="4.87374" lon="-74.077656">
        <ele>2629.6</ele>
        <time>2019-07-29T17:01:13.472Z</time>
      </trkpt>
      <trkpt lat="4.873648" lon="-74.077837">
        <ele>2630.8</ele>
        <time>2019-07-29T17:01:14.472Z</time>
      </trkpt>
      <trkpt lat="4.873632" lon="-74.077865">
        <ele>2631.2</ele>
        <time>2019-07-29T17:01:15.472Z</time>
      </trkpt>
      <trkpt lat="4.873587" lon="-74.07798">
        <ele>2631.8</ele>
        <time>2019-07-29T17:01:16.472Z</time>
      </trkpt>
      <trkpt lat="4.873521" lon="-74.078133">
        <ele>2632.8</ele>
        <time>2019-07-29T17:01:17.472Z</time>
      </trkpt>
      <trkpt lat="4.873508" lon="-74.078161">
        <ele>2633</ele>
        <time>2019-07-29T17:01:18.472Z</time>
      </trkpt>
      <trkpt lat="4.873403" lon="-74.078346">
        <ele>2634</ele>
        <time>2019-07-29T17:01:19.472Z</time>
      </trkpt>
      <trkpt lat="4.873226" lon="-74.078467">
        <ele>2634.6</ele>
        <time>2019-07-29T17:01:20.472Z</time>
      </trkpt>
      <trkpt lat="4.87311" lon="-74.078502">
        <ele>2635.2</ele>
        <time>2019-07-29T17:01:21.472Z</time>
      </trkpt>
      <trkpt lat="4.873018" lon="-74.078515">
        <ele>2635.4</ele>
        <time>2019-07-29T17:01:22.472Z</time>
      </trkpt>
      <trkpt lat="4.872888" lon="-74.07853">
        <ele>2636.2</ele>
        <time>2019-07-29T17:01:23.472Z</time>
      </trkpt>
      <trkpt lat="4.872791" lon="-74.078517">
        <ele>2636.8</ele>
        <time>2019-07-29T17:01:24.472Z</time>
      </trkpt>
      <trkpt lat="4.872729" lon="-74.078498">
        <ele>2637.2</ele>
        <time>2019-07-29T17:01:25.472Z</time>
      </trkpt>
      <trkpt lat="4.872573" lon="-74.078422">
        <ele>2638.2</ele>
        <time>2019-07-29T17:01:26.472Z</time>
      </trkpt>
      <trkpt lat="4.872545" lon="-74.078399">
        <ele>2638.2</ele>
        <time>2019-07-29T17:01:27.472Z</time>
      </trkpt>
      <trkpt lat="4.872352" lon="-74.078196">
        <ele>2639</ele>
        <time>2019-07-29T17:01:28.472Z</time>
      </trkpt>
      <trkpt lat="4.872287" lon="-74.078112">
        <ele>2639.2</ele>
        <time>2019-07-29T17:01:29.472Z</time>
      </trkpt>
      <trkpt lat="4.872203" lon="-74.078055">
        <ele>2640</ele>
        <time>2019-07-29T17:01:30.472Z</time>
      </trkpt>
      <trkpt lat="4.872015" lon="-74.078011">
        <ele>2640</ele>
        <time>2019-07-29T17:01:31.472Z</time>
      </trkpt>
      <trkpt lat="4.871818" lon="-74.078061">
        <ele>2640</ele>
        <time>2019-07-29T17:01:32.472Z</time>
      </trkpt>
      <trkpt lat="4.871767" lon="-74.078103">
        <ele>2640.4</ele>
        <time>2019-07-29T17:01:33.472Z</time>
      </trkpt>
      <trkpt lat="4.871696" lon="-74.078171">
        <ele>2641.6</ele>
        <time>2019-07-29T17:01:34.472Z</time>
      </trkpt>
      <trkpt lat="4.871641" lon="-74.078209">
        <ele>2641.8</ele>
        <time>2019-07-29T17:01:35.472Z</time>
      </trkpt>
      <trkpt lat="4.871396" lon="-74.07834">
        <ele>2642.2</ele>
        <time>2019-07-29T17:01:36.472Z</time>
      </trkpt>
      <trkpt lat="4.871057" lon="-74.078387">
        <ele>2642.4</ele>
        <time>2019-07-29T17:01:37.472Z</time>
      </trkpt>
      <trkpt lat="4.870936" lon="-74.078407">
        <ele>2642.8</ele>
        <time>2019-07-29T17:01:38.472Z</time>
      </trkpt>
      <trkpt lat="4.870722" lon="-74.078491">
        <ele>2643.8</ele>
        <time>2019-07-29T17:01:39.472Z</time>
      </trkpt>
      <trkpt lat="4.870687" lon="-74.07851">
        <ele>2644</ele>
        <time>2019-07-29T17:01:40.472Z</time>
      </trkpt>
      <trkpt lat="4.870652" lon="-74.078532">
        <ele>2644.2</ele>
        <time>2019-07-29T17:01:41.472Z</time>
      </trkpt>
      <trkpt lat="4.870476" lon="-74.07865">
        <ele>2644.4</ele>
        <time>2019-07-29T17:01:42.472Z</time>
      </trkpt>
      <trkpt lat="4.870297" lon="-74.078779">
        <ele>2644</ele>
        <time>2019-07-29T17:01:43.472Z</time>
      </trkpt>
      <trkpt lat="4.870271" lon="-74.078813">
        <ele>2644</ele>
        <time>2019-07-29T17:01:44.472Z</time>
      </trkpt>
      <trkpt lat="4.870249" lon="-74.078849">
        <ele>2644</ele>
        <time>2019-07-29T17:01:45.472Z</time>
      </trkpt>
      <trkpt lat="4.870171" lon="-74.079">
        <ele>2645.4</ele>
        <time>2019-07-29T17:01:46.472Z</time>
      </trkpt>
      <trkpt lat="4.870142" lon="-74.079079">
        <ele>2645.6</ele>
        <time>2019-07-29T17:01:47.472Z</time>
      </trkpt>
      <trkpt lat="4.870099" lon="-74.079194">
        <ele>2645.6</ele>
        <time>2019-07-29T17:01:48.472Z</time>
      </trkpt>
      <trkpt lat="4.870051" lon="-74.079259">
        <ele>2645.4</ele>
        <time>2019-07-29T17:01:49.472Z</time>
      </trkpt>
      <trkpt lat="4.869895" lon="-74.079344">
        <ele>2645.4</ele>
        <time>2019-07-29T17:01:50.472Z</time>
      </trkpt>
      <trkpt lat="4.869737" lon="-74.079347">
        <ele>2646.6</ele>
        <time>2019-07-29T17:01:51.472Z</time>
      </trkpt>
      <trkpt lat="4.869695" lon="-74.07934">
        <ele>2647</ele>
        <time>2019-07-29T17:01:52.472Z</time>
      </trkpt>
      <trkpt lat="4.869615" lon="-74.079323">
        <ele>2647.8</ele>
        <time>2019-07-29T17:01:53.472Z</time>
      </trkpt>
      <trkpt lat="4.869411" lon="-74.079281">
        <ele>2649</ele>
        <time>2019-07-29T17:01:54.472Z</time>
      </trkpt>
      <trkpt lat="4.869369" lon="-74.079275">
        <ele>2649.2</ele>
        <time>2019-07-29T17:01:55.472Z</time>
      </trkpt>
      <trkpt lat="4.869221" lon="-74.079277">
        <ele>2650</ele>
        <time>2019-07-29T17:01:56.472Z</time>
      </trkpt>
      <trkpt lat="4.869046" lon="-74.079284">
        <ele>2650.6</ele>
        <time>2019-07-29T17:01:57.472Z</time>
      </trkpt>
      <trkpt lat="4.868912" lon="-74.079303">
        <ele>2651.2</ele>
        <time>2019-07-29T17:01:58.472Z</time>
      </trkpt>
      <trkpt lat="4.868853" lon="-74.079324">
        <ele>2651.6</ele>
        <time>2019-07-29T17:01:59.472Z</time>
      </trkpt>
      <trkpt lat="4.868773" lon="-74.079355">
        <ele>2652.2</ele>
        <time>2019-07-29T17:02:00.472Z</time>
      </trkpt>
      <trkpt lat="4.868703" lon="-74.079419">
        <ele>2652.8</ele>
        <time>2019-07-29T17:02:01.472Z</time>
      </trkpt>
      <trkpt lat="4.868664" lon="-74.079461">
        <ele>2653.4</ele>
        <time>2019-07-29T17:02:02.472Z</time>
      </trkpt>
      <trkpt lat="4.868564" lon="-74.079558">
        <ele>2654</ele>
        <time>2019-07-29T17:02:03.472Z</time>
      </trkpt>
      <trkpt lat="4.868495" lon="-74.07961">
        <ele>2654.6</ele>
        <time>2019-07-29T17:02:04.472Z</time>
      </trkpt>
      <trkpt lat="4.868423" lon="-74.079671">
        <ele>2655.2</ele>
        <time>2019-07-29T17:02:05.472Z</time>
      </trkpt>
      <trkpt lat="4.868323" lon="-74.079736">
        <ele>2655.6</ele>
        <time>2019-07-29T17:02:06.472Z</time>
      </trkpt>
      <trkpt lat="4.868256" lon="-74.07978">
        <ele>2656.2</ele>
        <time>2019-07-29T17:02:07.472Z</time>
      </trkpt>
      <trkpt lat="4.868182" lon="-74.07982">
        <ele>2656.8</ele>
        <time>2019-07-29T17:02:08.472Z</time>
      </trkpt>
      <trkpt lat="4.868136" lon="-74.079835">
        <ele>2657</ele>
        <time>2019-07-29T17:02:09.472Z</time>
      </trkpt>
      <trkpt lat="4.867995" lon="-74.079877">
        <ele>2657.8</ele>
        <time>2019-07-29T17:02:10.472Z</time>
      </trkpt>
      <trkpt lat="4.867965" lon="-74.079884">
        <ele>2658.2</ele>
        <time>2019-07-29T17:02:11.472Z</time>
      </trkpt>
      <trkpt lat="4.867841" lon="-74.079895">
        <ele>2659</ele>
        <time>2019-07-29T17:02:12.472Z</time>
      </trkpt>
      <trkpt lat="4.867781" lon="-74.079904">
        <ele>2659.2</ele>
        <time>2019-07-29T17:02:13.472Z</time>
      </trkpt>
      <trkpt lat="4.867537" lon="-74.079923">
        <ele>2660</ele>
        <time>2019-07-29T17:02:14.472Z</time>
      </trkpt>
      <trkpt lat="4.867398" lon="-74.079952">
        <ele>2660.4</ele>
        <time>2019-07-29T17:02:15.472Z</time>
      </trkpt>
      <trkpt lat="4.86729" lon="-74.079976">
        <ele>2661</ele>
        <time>2019-07-29T17:02:16.472Z</time>
      </trkpt>
      <trkpt lat="4.867168" lon="-74.079984">
        <ele>2661.8</ele>
        <time>2019-07-29T17:02:17.472Z</time>
      </trkpt>
      <trkpt lat="4.866933" lon="-74.080024">
        <ele>2662.2</ele>
        <time>2019-07-29T17:02:18.472Z</time>
      </trkpt>
      <trkpt lat="4.866695" lon="-74.080063">
        <ele>2663.2</ele>
        <time>2019-07-29T17:02:19.472Z</time>
      </trkpt>
      <trkpt lat="4.86663" lon="-74.080079">
        <ele>2663.8</ele>
        <time>2019-07-29T17:02:20.472Z</time>
      </trkpt>
      <trkpt lat="4.866372" lon="-74.080159">
        <ele>2664.6</ele>
        <time>2019-07-29T17:02:21.472Z</time>
      </trkpt>
      <trkpt lat="4.86625" lon="-74.080201">
        <ele>2665.6</ele>
        <time>2019-07-29T17:02:22.472Z</time>
      </trkpt>
      <trkpt lat="4.866065" lon="-74.080261">
        <ele>2666.2</ele>
        <time>2019-07-29T17:02:23.472Z</time>
      </trkpt>
      <trkpt lat="4.866" lon="-74.080279">
        <ele>2666.6</ele>
        <time>2019-07-29T17:02:24.472Z</time>
      </trkpt>
      <trkpt lat="4.865771" lon="-74.080346">
        <ele>2667</ele>
        <time>2019-07-29T17:02:25.472Z</time>
      </trkpt>
      <trkpt lat="4.86562" lon="-74.080402">
        <ele>2667.8</ele>
        <time>2019-07-29T17:02:26.472Z</time>
      </trkpt>
      <trkpt lat="4.865504" lon="-74.080433">
        <ele>2668.6</ele>
        <time>2019-07-29T17:02:27.472Z</time>
      </trkpt>
      <trkpt lat="4.865479" lon="-74.080447">
        <ele>2669</ele>
        <time>2019-07-29T17:02:28.472Z</time>
      </trkpt>
      <trkpt lat="4.865383" lon="-74.080512">
        <ele>2670</ele>
        <time>2019-07-29T17:02:29.472Z</time>
      </trkpt>
      <trkpt lat="4.865358" lon="-74.080523">
        <ele>2670</ele>
        <time>2019-07-29T17:02:30.472Z</time>
      </trkpt>
      <trkpt lat="4.865217" lon="-74.080542">
        <ele>2671.4</ele>
        <time>2019-07-29T17:02:31.472Z</time>
      </trkpt>
      <trkpt lat="4.865013" lon="-74.080591">
        <ele>2672.4</ele>
        <time>2019-07-29T17:02:32.472Z</time>
      </trkpt>
      <trkpt lat="4.864984" lon="-74.080602">
        <ele>2672.6</ele>
        <time>2019-07-29T17:02:33.472Z</time>
      </trkpt>
      <trkpt lat="4.864868" lon="-74.080693">
        <ele>2673.4</ele>
        <time>2019-07-29T17:02:34.472Z</time>
      </trkpt>
      <trkpt lat="4.864705" lon="-74.080829">
        <ele>2674.2</ele>
        <time>2019-07-29T17:02:35.472Z</time>
      </trkpt>
      <trkpt lat="4.864481" lon="-74.08093">
        <ele>2674.4</ele>
        <time>2019-07-29T17:02:36.472Z</time>
      </trkpt>
      <trkpt lat="4.864448" lon="-74.080943">
        <ele>2674.6</ele>
        <time>2019-07-29T17:02:37.472Z</time>
      </trkpt>
      <trkpt lat="4.864225" lon="-74.081025">
        <ele>2675.4</ele>
        <time>2019-07-29T17:02:38.472Z</time>
      </trkpt>
      <trkpt lat="4.864134" lon="-74.081071">
        <ele>2675.8</ele>
        <time>2019-07-29T17:02:39.472Z</time>
      </trkpt>
      <trkpt lat="4.864057" lon="-74.081131">
        <ele>2676.2</ele>
        <time>2019-07-29T17:02:40.472Z</time>
      </trkpt>
      <trkpt lat="4.863972" lon="-74.081186">
        <ele>2677</ele>
        <time>2019-07-29T17:02:41.472Z</time>
      </trkpt>
      <trkpt lat="4.863898" lon="-74.081279">
        <ele>2676.8</ele>
        <time>2019-07-29T17:02:42.472Z</time>
      </trkpt>
      <trkpt lat="4.86381" lon="-74.081434">
        <ele>2678.2</ele>
        <time>2019-07-29T17:02:43.472Z</time>
      </trkpt>
      <trkpt lat="4.863797" lon="-74.08146">
        <ele>2678.4</ele>
        <time>2019-07-29T17:02:44.472Z</time>
      </trkpt>
      <trkpt lat="4.863762" lon="-74.081542">
        <ele>2679.2</ele>
        <time>2019-07-29T17:02:45.472Z</time>
      </trkpt>
      <trkpt lat="4.863744" lon="-74.081648">
        <ele>2679.6</ele>
        <time>2019-07-29T17:02:46.472Z</time>
      </trkpt>
      <trkpt lat="4.863747" lon="-74.081793">
        <ele>2680.2</ele>
        <time>2019-07-29T17:02:47.472Z</time>
      </trkpt>
      <trkpt lat="4.863746" lon="-74.081851">
        <ele>2681</ele>
        <time>2019-07-29T17:02:48.472Z</time>
      </trkpt>
      <trkpt lat="4.863748" lon="-74.081908">
        <ele>2681.4</ele>
        <time>2019-07-29T17:02:49.472Z</time>
      </trkpt>
      <trkpt lat="4.86374" lon="-74.082044">
        <ele>2682.2</ele>
        <time>2019-07-29T17:02:50.472Z</time>
      </trkpt>
      <trkpt lat="4.863738" lon="-74.082071">
        <ele>2682.4</ele>
        <time>2019-07-29T17:02:51.472Z</time>
      </trkpt>
      <trkpt lat="4.863679" lon="-74.082261">
        <ele>2683</ele>
        <time>2019-07-29T17:02:52.472Z</time>
      </trkpt>
      <trkpt lat="4.863607" lon="-74.082424">
        <ele>2683.2</ele>
        <time>2019-07-29T17:02:53.472Z</time>
      </trkpt>
      <trkpt lat="4.863591" lon="-74.082451">
        <ele>2683.4</ele>
        <time>2019-07-29T17:02:54.472Z</time>
      </trkpt>
      <trkpt lat="4.863481" lon="-74.082608">
        <ele>2684</ele>
        <time>2019-07-29T17:02:55.472Z</time>
      </trkpt>
      <trkpt lat="4.863419" lon="-74.082687">
        <ele>2684.2</ele>
        <time>2019-07-29T17:02:56.472Z</time>
      </trkpt>
      <trkpt lat="4.863339" lon="-74.082857">
        <ele>2684.6</ele>
        <time>2019-07-29T17:02:57.472Z</time>
      </trkpt>
      <trkpt lat="4.863326" lon="-74.082919">
        <ele>2685.8</ele>
        <time>2019-07-29T17:02:58.472Z</time>
      </trkpt>
      <trkpt lat="4.863305" lon="-74.083128">
        <ele>2685.6</ele>
        <time>2019-07-29T17:02:59.472Z</time>
      </trkpt>
      <trkpt lat="4.863326" lon="-74.083292">
        <ele>2687</ele>
        <time>2019-07-29T17:03:00.472Z</time>
      </trkpt>
      <trkpt lat="4.863331" lon="-74.083318">
        <ele>2687.2</ele>
        <time>2019-07-29T17:03:01.472Z</time>
      </trkpt>
      <trkpt lat="4.863334" lon="-74.083421">
        <ele>2688.4</ele>
        <time>2019-07-29T17:03:02.472Z</time>
      </trkpt>
      <trkpt lat="4.863329" lon="-74.083473">
        <ele>2688.8</ele>
        <time>2019-07-29T17:03:03.472Z</time>
      </trkpt>
      <trkpt lat="4.86325" lon="-74.0836">
        <ele>2689.2</ele>
        <time>2019-07-29T17:03:04.472Z</time>
      </trkpt>
      <trkpt lat="4.86322" lon="-74.083609">
        <ele>2689.4</ele>
        <time>2019-07-29T17:03:05.472Z</time>
      </trkpt>
      <trkpt lat="4.863096" lon="-74.083618">
        <ele>2690</ele>
        <time>2019-07-29T17:03:06.472Z</time>
      </trkpt>
      <trkpt lat="4.862864" lon="-74.083603">
        <ele>2690.6</ele>
        <time>2019-07-29T17:03:07.472Z</time>
      </trkpt>
      <trkpt lat="4.862726" lon="-74.083648">
        <ele>2691.6</ele>
        <time>2019-07-29T17:03:08.472Z</time>
      </trkpt>
      <trkpt lat="4.862703" lon="-74.083658">
        <ele>2692</ele>
        <time>2019-07-29T17:03:09.472Z</time>
      </trkpt>
      <trkpt lat="4.862659" lon="-74.083686">
        <ele>2692.8</ele>
        <time>2019-07-29T17:03:10.472Z</time>
      </trkpt>
      <trkpt lat="4.862586" lon="-74.083728">
        <ele>2693</ele>
        <time>2019-07-29T17:03:11.472Z</time>
      </trkpt>
      <trkpt lat="4.862426" lon="-74.083842">
        <ele>2693.2</ele>
        <time>2019-07-29T17:03:12.472Z</time>
      </trkpt>
      <trkpt lat="4.862229" lon="-74.083871">
        <ele>2693</ele>
        <time>2019-07-29T17:03:13.472Z</time>
      </trkpt>
      <trkpt lat="4.862093" lon="-74.083891">
        <ele>2693.8</ele>
        <time>2019-07-29T17:03:14.472Z</time>
      </trkpt>
      <trkpt lat="4.862065" lon="-74.083889">
        <ele>2694</ele>
        <time>2019-07-29T17:03:15.472Z</time>
      </trkpt>
      <trkpt lat="4.861915" lon="-74.083869">
        <ele>2695</ele>
        <time>2019-07-29T17:03:16.472Z</time>
      </trkpt>
      <trkpt lat="4.861887" lon="-74.083861">
        <ele>2695</ele>
        <time>2019-07-29T17:03:17.472Z</time>
      </trkpt>
      <trkpt lat="4.861705" lon="-74.083849">
        <ele>2695.4</ele>
        <time>2019-07-29T17:03:18.472Z</time>
      </trkpt>
      <trkpt lat="4.861471" lon="-74.083879">
        <ele>2695.8</ele>
        <time>2019-07-29T17:03:19.472Z</time>
      </trkpt>
      <trkpt lat="4.861446" lon="-74.083892">
        <ele>2696.2</ele>
        <time>2019-07-29T17:03:20.472Z</time>
      </trkpt>
      <trkpt lat="4.861286" lon="-74.083987">
        <ele>2696.8</ele>
        <time>2019-07-29T17:03:21.472Z</time>
      </trkpt>
      <trkpt lat="4.861202" lon="-74.084031">
        <ele>2697.6</ele>
        <time>2019-07-29T17:03:22.472Z</time>
      </trkpt>
      <trkpt lat="4.861083" lon="-74.08409">
        <ele>2698.6</ele>
        <time>2019-07-29T17:03:23.472Z</time>
      </trkpt>
      <trkpt lat="4.860997" lon="-74.084134">
        <ele>2699</ele>
        <time>2019-07-29T17:03:24.472Z</time>
      </trkpt>
      <trkpt lat="4.860886" lon="-74.084191">
        <ele>2699.6</ele>
        <time>2019-07-29T17:03:25.472Z</time>
      </trkpt>
      <trkpt lat="4.860784" lon="-74.084255">
        <ele>2699.8</ele>
        <time>2019-07-29T17:03:26.472Z</time>
      </trkpt>
      <trkpt lat="4.860688" lon="-74.084333">
        <ele>2700.6</ele>
        <time>2019-07-29T17:03:27.472Z</time>
      </trkpt>
      <trkpt lat="4.860619" lon="-74.084381">
        <ele>2701.8</ele>
        <time>2019-07-29T17:03:28.472Z</time>
      </trkpt>
      <trkpt lat="4.860596" lon="-74.084392">
        <ele>2702.2</ele>
        <time>2019-07-29T17:03:29.472Z</time>
      </trkpt>
      <trkpt lat="4.860515" lon="-74.084403">
        <ele>2703.2</ele>
        <time>2019-07-29T17:03:30.472Z</time>
      </trkpt>
      <trkpt lat="4.86046" lon="-74.084395">
        <ele>2703.4</ele>
        <time>2019-07-29T17:03:31.472Z</time>
      </trkpt>
      <trkpt lat="4.860322" lon="-74.084326">
        <ele>2704</ele>
        <time>2019-07-29T17:03:32.472Z</time>
      </trkpt>
      <trkpt lat="4.860264" lon="-74.084294">
        <ele>2704.2</ele>
        <time>2019-07-29T17:03:33.472Z</time>
      </trkpt>
      <trkpt lat="4.860115" lon="-74.084197">
        <ele>2704.8</ele>
        <time>2019-07-29T17:03:34.472Z</time>
      </trkpt>
      <trkpt lat="4.859939" lon="-74.084063">
        <ele>2704.6</ele>
        <time>2019-07-29T17:03:35.472Z</time>
      </trkpt>
      <trkpt lat="4.859815" lon="-74.083966">
        <ele>2705.2</ele>
        <time>2019-07-29T17:03:36.472Z</time>
      </trkpt>
      <trkpt lat="4.859769" lon="-74.083925">
        <ele>2706</ele>
        <time>2019-07-29T17:03:37.472Z</time>
      </trkpt>
      <trkpt lat="4.859735" lon="-74.08388">
        <ele>2706.4</ele>
        <time>2019-07-29T17:03:38.472Z</time>
      </trkpt>
      <trkpt lat="4.859711" lon="-74.08378">
        <ele>2706.4</ele>
        <time>2019-07-29T17:03:39.472Z</time>
      </trkpt>
      <trkpt lat="4.859753" lon="-74.083597">
        <ele>2707.2</ele>
        <time>2019-07-29T17:03:40.472Z</time>
      </trkpt>
      <trkpt lat="4.85976" lon="-74.083572">
        <ele>2707.8</ele>
        <time>2019-07-29T17:03:41.472Z</time>
      </trkpt>
      <trkpt lat="4.85978" lon="-74.083496">
        <ele>2708.8</ele>
        <time>2019-07-29T17:03:42.472Z</time>
      </trkpt>
      <trkpt lat="4.859771" lon="-74.083396">
        <ele>2709</ele>
        <time>2019-07-29T17:03:43.472Z</time>
      </trkpt>
      <trkpt lat="4.859734" lon="-74.083296">
        <ele>2710</ele>
        <time>2019-07-29T17:03:44.472Z</time>
      </trkpt>
      <trkpt lat="4.859669" lon="-74.083253">
        <ele>2711.2</ele>
        <time>2019-07-29T17:03:45.472Z</time>
      </trkpt>
      <trkpt lat="4.859561" lon="-74.08324">
        <ele>2712.2</ele>
        <time>2019-07-29T17:03:46.472Z</time>
      </trkpt>
      <trkpt lat="4.85948" lon="-74.083239">
        <ele>2712.8</ele>
        <time>2019-07-29T17:03:47.472Z</time>
      </trkpt>
      <trkpt lat="4.859352" lon="-74.083256">
        <ele>2713.2</ele>
        <time>2019-07-29T17:03:48.472Z</time>
      </trkpt>
      <trkpt lat="4.859328" lon="-74.083263">
        <ele>2713.6</ele>
        <time>2019-07-29T17:03:49.472Z</time>
      </trkpt>
      <trkpt lat="4.859259" lon="-74.083292">
        <ele>2714.4</ele>
        <time>2019-07-29T17:03:50.472Z</time>
      </trkpt>
      <trkpt lat="4.859206" lon="-74.083348">
        <ele>2715.2</ele>
        <time>2019-07-29T17:03:51.472Z</time>
      </trkpt>
      <trkpt lat="4.859175" lon="-74.083391">
        <ele>2715.6</ele>
        <time>2019-07-29T17:03:52.472Z</time>
      </trkpt>
      <trkpt lat="4.859135" lon="-74.083541">
        <ele>2716.2</ele>
        <time>2019-07-29T17:03:53.472Z</time>
      </trkpt>
      <trkpt lat="4.859158" lon="-74.083644">
        <ele>2716.6</ele>
        <time>2019-07-29T17:03:54.472Z</time>
      </trkpt>
      <trkpt lat="4.859186" lon="-74.083696">
        <ele>2716.6</ele>
        <time>2019-07-29T17:03:55.472Z</time>
      </trkpt>
      <trkpt lat="4.859337" lon="-74.083822">
        <ele>2717</ele>
        <time>2019-07-29T17:03:56.472Z</time>
      </trkpt>
      <trkpt lat="4.859465" lon="-74.083908">
        <ele>2717.8</ele>
        <time>2019-07-29T17:03:57.472Z</time>
      </trkpt>
      <trkpt lat="4.859507" lon="-74.083939">
        <ele>2718</ele>
        <time>2019-07-29T17:03:58.472Z</time>
      </trkpt>
      <trkpt lat="4.85963" lon="-74.084057">
        <ele>2718.4</ele>
        <time>2019-07-29T17:03:59.472Z</time>
      </trkpt>
      <trkpt lat="4.859703" lon="-74.084147">
        <ele>2719</ele>
        <time>2019-07-29T17:04:00.472Z</time>
      </trkpt>
      <trkpt lat="4.859818" lon="-74.084282">
        <ele>2719.6</ele>
        <time>2019-07-29T17:04:01.472Z</time>
      </trkpt>
      <trkpt lat="4.859893" lon="-74.084327">
        <ele>2720</ele>
        <time>2019-07-29T17:04:02.472Z</time>
      </trkpt>
      <trkpt lat="4.859947" lon="-74.084348">
        <ele>2720.6</ele>
        <time>2019-07-29T17:04:03.472Z</time>
      </trkpt>
      <trkpt lat="4.86007" lon="-74.084409">
        <ele>2721.2</ele>
        <time>2019-07-29T17:04:04.472Z</time>
      </trkpt>
      <trkpt lat="4.86013" lon="-74.08446">
        <ele>2722.4</ele>
        <time>2019-07-29T17:04:05.472Z</time>
      </trkpt>
      <trkpt lat="4.860144" lon="-74.08448">
        <ele>2722.8</ele>
        <time>2019-07-29T17:04:06.472Z</time>
      </trkpt>
      <trkpt lat="4.860185" lon="-74.08454">
        <ele>2723.4</ele>
        <time>2019-07-29T17:04:07.472Z</time>
      </trkpt>
      <trkpt lat="4.860225" lon="-74.084625">
        <ele>2724.2</ele>
        <time>2019-07-29T17:04:08.472Z</time>
      </trkpt>
      <trkpt lat="4.860265" lon="-74.084692">
        <ele>2724.6</ele>
        <time>2019-07-29T17:04:09.472Z</time>
      </trkpt>
      <trkpt lat="4.860295" lon="-74.084732">
        <ele>2725.6</ele>
        <time>2019-07-29T17:04:10.472Z</time>
      </trkpt>
      <trkpt lat="4.860326" lon="-74.084773">
        <ele>2726</ele>
        <time>2019-07-29T17:04:11.472Z</time>
      </trkpt>
      <trkpt lat="4.860441" lon="-74.084822">
        <ele>2725.8</ele>
        <time>2019-07-29T17:04:12.472Z</time>
      </trkpt>
      <trkpt lat="4.860515" lon="-74.084825">
        <ele>2727</ele>
        <time>2019-07-29T17:04:13.472Z</time>
      </trkpt>
      <trkpt lat="4.860589" lon="-74.084819">
        <ele>2727.4</ele>
        <time>2019-07-29T17:04:14.472Z</time>
      </trkpt>
      <trkpt lat="4.860674" lon="-74.084792">
        <ele>2728</ele>
        <time>2019-07-29T17:04:15.472Z</time>
      </trkpt>
      <trkpt lat="4.860744" lon="-74.084765">
        <ele>2728.6</ele>
        <time>2019-07-29T17:04:16.472Z</time>
      </trkpt>
      <trkpt lat="4.860808" lon="-74.08473">
        <ele>2729</ele>
        <time>2019-07-29T17:04:17.472Z</time>
      </trkpt>
      <trkpt lat="4.860871" lon="-74.084687">
        <ele>2729.2</ele>
        <time>2019-07-29T17:04:18.472Z</time>
      </trkpt>
      <trkpt lat="4.861058" lon="-74.084592">
        <ele>2730</ele>
        <time>2019-07-29T17:04:19.472Z</time>
      </trkpt>
      <trkpt lat="4.86109" lon="-74.084588">
        <ele>2730.2</ele>
        <time>2019-07-29T17:04:20.472Z</time>
      </trkpt>
      <trkpt lat="4.861263" lon="-74.084582">
        <ele>2730.6</ele>
        <time>2019-07-29T17:04:21.472Z</time>
      </trkpt>
      <trkpt lat="4.861385" lon="-74.084585">
        <ele>2729</ele>
        <time>2019-07-29T17:04:22.472Z</time>
      </trkpt>
      <trkpt lat="4.861703" lon="-74.084593">
        <ele>2730.4</ele>
        <time>2019-07-29T17:04:23.472Z</time>
      </trkpt>
      <trkpt lat="4.861741" lon="-74.084594">
        <ele>2731</ele>
        <time>2019-07-29T17:04:24.472Z</time>
      </trkpt>
      <trkpt lat="4.861856" lon="-74.084596">
        <ele>2731.4</ele>
        <time>2019-07-29T17:04:25.472Z</time>
      </trkpt>
      <trkpt lat="4.862087" lon="-74.084604">
        <ele>2731.4</ele>
        <time>2019-07-29T17:04:26.472Z</time>
      </trkpt>
      <trkpt lat="4.862196" lon="-74.084611">
        <ele>2732.6</ele>
        <time>2019-07-29T17:04:27.472Z</time>
      </trkpt>
      <trkpt lat="4.862419" lon="-74.084589">
        <ele>2733.6</ele>
        <time>2019-07-29T17:04:28.472Z</time>
      </trkpt>
      <trkpt lat="4.862628" lon="-74.084531">
        <ele>2735</ele>
        <time>2019-07-29T17:04:29.472Z</time>
      </trkpt>
      <trkpt lat="4.862662" lon="-74.084523">
        <ele>2735.4</ele>
        <time>2019-07-29T17:04:30.472Z</time>
      </trkpt>
      <trkpt lat="4.862731" lon="-74.084509">
        <ele>2736</ele>
        <time>2019-07-29T17:04:31.472Z</time>
      </trkpt>
      <trkpt lat="4.862935" lon="-74.084479">
        <ele>2737.4</ele>
        <time>2019-07-29T17:04:32.472Z</time>
      </trkpt>
      <trkpt lat="4.863004" lon="-74.08447">
        <ele>2738.2</ele>
        <time>2019-07-29T17:04:33.472Z</time>
      </trkpt>
      <trkpt lat="4.863039" lon="-74.084466">
        <ele>2738.6</ele>
        <time>2019-07-29T17:04:34.472Z</time>
      </trkpt>
      <trkpt lat="4.863212" lon="-74.084445">
        <ele>2739.8</ele>
        <time>2019-07-29T17:04:35.472Z</time>
      </trkpt>
      <trkpt lat="4.86328" lon="-74.084438">
        <ele>2740.6</ele>
        <time>2019-07-29T17:04:36.472Z</time>
      </trkpt>
      <trkpt lat="4.863315" lon="-74.084434">
        <ele>2741</ele>
        <time>2019-07-29T17:04:37.472Z</time>
      </trkpt>
      <trkpt lat="4.863485" lon="-74.084416">
        <ele>2742</ele>
        <time>2019-07-29T17:04:38.472Z</time>
      </trkpt>
      <trkpt lat="4.863618" lon="-74.084398">
        <ele>2742.4</ele>
        <time>2019-07-29T17:04:39.472Z</time>
      </trkpt>
      <trkpt lat="4.863808" lon="-74.084383">
        <ele>2743.2</ele>
        <time>2019-07-29T17:04:40.472Z</time>
      </trkpt>
      <trkpt lat="4.863892" lon="-74.084376">
        <ele>2744</ele>
        <time>2019-07-29T17:04:41.472Z</time>
      </trkpt>
      <trkpt lat="4.863921" lon="-74.084377">
        <ele>2744.2</ele>
        <time>2019-07-29T17:04:42.472Z</time>
      </trkpt>
      <trkpt lat="4.864045" lon="-74.08442">
        <ele>2745.2</ele>
        <time>2019-07-29T17:04:43.472Z</time>
      </trkpt>
      <trkpt lat="4.864068" lon="-74.084425">
        <ele>2745.6</ele>
        <time>2019-07-29T17:04:44.472Z</time>
      </trkpt>
      <trkpt lat="4.864158" lon="-74.084447">
        <ele>2746.2</ele>
        <time>2019-07-29T17:04:45.472Z</time>
      </trkpt>
      <trkpt lat="4.864174" lon="-74.084448">
        <ele>2746.4</ele>
        <time>2019-07-29T17:04:46.472Z</time>
      </trkpt>
      <trkpt lat="4.864174" lon="-74.084435">
        <ele>2746.4</ele>
        <time>2019-07-29T17:04:47.472Z</time>
      </trkpt>
      <trkpt lat="4.864163" lon="-74.084437">
        <ele>2746.6</ele>
        <time>2019-07-29T17:04:48.472Z</time>
      </trkpt>
      <trkpt lat="4.864091" lon="-74.084441">
        <ele>2745.8</ele>
        <time>2019-07-29T17:04:49.472Z</time>
      </trkpt>
      <trkpt lat="4.86406" lon="-74.084434">
        <ele>2745.4</ele>
        <time>2019-07-29T17:04:50.472Z</time>
      </trkpt>
      <trkpt lat="4.86394" lon="-74.084408">
        <ele>2744.8</ele>
        <time>2019-07-29T17:04:51.472Z</time>
      </trkpt>
      <trkpt lat="4.863894" lon="-74.084405">
        <ele>2744.2</ele>
        <time>2019-07-29T17:04:52.472Z</time>
      </trkpt>
      <trkpt lat="4.863847" lon="-74.084406">
        <ele>2743.8</ele>
        <time>2019-07-29T17:04:53.472Z</time>
      </trkpt>
      <trkpt lat="4.863798" lon="-74.084411">
        <ele>2743.2</ele>
        <time>2019-07-29T17:04:54.472Z</time>
      </trkpt>
      <trkpt lat="4.863695" lon="-74.084421">
        <ele>2742.2</ele>
        <time>2019-07-29T17:04:55.472Z</time>
      </trkpt>
      <trkpt lat="4.863582" lon="-74.084427">
        <ele>2741.4</ele>
        <time>2019-07-29T17:04:56.472Z</time>
      </trkpt>
      <trkpt lat="4.863524" lon="-74.084434">
        <ele>2741</ele>
        <time>2019-07-29T17:04:57.472Z</time>
      </trkpt>
      <trkpt lat="4.863338" lon="-74.084449">
        <ele>2740</ele>
        <time>2019-07-29T17:04:58.472Z</time>
      </trkpt>
      <trkpt lat="4.863205" lon="-74.084464">
        <ele>2739.4</ele>
        <time>2019-07-29T17:04:59.472Z</time>
      </trkpt>
      <trkpt lat="4.863134" lon="-74.084474">
        <ele>2738.8</ele>
        <time>2019-07-29T17:05:00.472Z</time>
      </trkpt>
      <trkpt lat="4.863064" lon="-74.084485">
        <ele>2737.6</ele>
        <time>2019-07-29T17:05:01.472Z</time>
      </trkpt>
      <trkpt lat="4.862751" lon="-74.084511">
        <ele>2736</ele>
        <time>2019-07-29T17:05:02.472Z</time>
      </trkpt>
      <trkpt lat="4.862439" lon="-74.084592">
        <ele>2734.6</ele>
        <time>2019-07-29T17:05:03.472Z</time>
      </trkpt>
      <trkpt lat="4.862353" lon="-74.084613">
        <ele>2733.6</ele>
        <time>2019-07-29T17:05:04.472Z</time>
      </trkpt>
      <trkpt lat="4.862268" lon="-74.084624">
        <ele>2732.6</ele>
        <time>2019-07-29T17:05:05.472Z</time>
      </trkpt>
      <trkpt lat="4.86218" lon="-74.084625">
        <ele>2731.8</ele>
        <time>2019-07-29T17:05:06.472Z</time>
      </trkpt>
      <trkpt lat="4.862089" lon="-74.084621">
        <ele>2731</ele>
        <time>2019-07-29T17:05:07.472Z</time>
      </trkpt>
      <trkpt lat="4.861995" lon="-74.084618">
        <ele>2730</ele>
        <time>2019-07-29T17:05:08.472Z</time>
      </trkpt>
      <trkpt lat="4.861899" lon="-74.084615">
        <ele>2729.4</ele>
        <time>2019-07-29T17:05:09.472Z</time>
      </trkpt>
      <trkpt lat="4.861802" lon="-74.084611">
        <ele>2729</ele>
        <time>2019-07-29T17:05:10.472Z</time>
      </trkpt>
      <trkpt lat="4.861504" lon="-74.084603">
        <ele>2727.8</ele>
        <time>2019-07-29T17:05:11.472Z</time>
      </trkpt>
      <trkpt lat="4.861306" lon="-74.084597">
        <ele>2726</ele>
        <time>2019-07-29T17:05:12.472Z</time>
      </trkpt>
      <trkpt lat="4.861121" lon="-74.084587">
        <ele>2724</ele>
        <time>2019-07-29T17:05:13.472Z</time>
      </trkpt>
      <trkpt lat="4.861034" lon="-74.084594">
        <ele>2723.2</ele>
        <time>2019-07-29T17:05:14.472Z</time>
      </trkpt>
      <trkpt lat="4.860953" lon="-74.084617">
        <ele>2722.8</ele>
        <time>2019-07-29T17:05:15.472Z</time>
      </trkpt>
      <trkpt lat="4.860731" lon="-74.084733">
        <ele>2722.2</ele>
        <time>2019-07-29T17:05:16.472Z</time>
      </trkpt>
      <trkpt lat="4.860654" lon="-74.084767">
        <ele>2722.2</ele>
        <time>2019-07-29T17:05:17.472Z</time>
      </trkpt>
      <trkpt lat="4.860499" lon="-74.084808">
        <ele>2722.6</ele>
        <time>2019-07-29T17:05:18.472Z</time>
      </trkpt>
      <trkpt lat="4.860362" lon="-74.084808">
        <ele>2722.2</ele>
        <time>2019-07-29T17:05:19.472Z</time>
      </trkpt>
      <trkpt lat="4.860253" lon="-74.084727">
        <ele>2721.2</ele>
        <time>2019-07-29T17:05:20.472Z</time>
      </trkpt>
      <trkpt lat="4.860208" lon="-74.084663">
        <ele>2720.2</ele>
        <time>2019-07-29T17:05:21.472Z</time>
      </trkpt>
      <trkpt lat="4.860163" lon="-74.084599">
        <ele>2719.6</ele>
        <time>2019-07-29T17:05:22.472Z</time>
      </trkpt>
      <trkpt lat="4.860081" lon="-74.084467">
        <ele>2717.2</ele>
        <time>2019-07-29T17:05:23.472Z</time>
      </trkpt>
      <trkpt lat="4.860031" lon="-74.084411">
        <ele>2716.2</ele>
        <time>2019-07-29T17:05:24.472Z</time>
      </trkpt>
      <trkpt lat="4.859969" lon="-74.084368">
        <ele>2715.4</ele>
        <time>2019-07-29T17:05:25.472Z</time>
      </trkpt>
      <trkpt lat="4.859896" lon="-74.084337">
        <ele>2715</ele>
        <time>2019-07-29T17:05:26.472Z</time>
      </trkpt>
      <trkpt lat="4.859754" lon="-74.084245">
        <ele>2714.2</ele>
        <time>2019-07-29T17:05:27.472Z</time>
      </trkpt>
      <trkpt lat="4.859695" lon="-74.08418">
        <ele>2713.8</ele>
        <time>2019-07-29T17:05:28.472Z</time>
      </trkpt>
      <trkpt lat="4.859513" lon="-74.083979">
        <ele>2712.6</ele>
        <time>2019-07-29T17:05:29.472Z</time>
      </trkpt>
      <trkpt lat="4.859369" lon="-74.083862">
        <ele>2711.6</ele>
        <time>2019-07-29T17:05:30.472Z</time>
      </trkpt>
      <trkpt lat="4.859298" lon="-74.083817">
        <ele>2711.4</ele>
        <time>2019-07-29T17:05:31.472Z</time>
      </trkpt>
      <trkpt lat="4.859237" lon="-74.083773">
        <ele>2711.2</ele>
        <time>2019-07-29T17:05:32.472Z</time>
      </trkpt>
      <trkpt lat="4.859147" lon="-74.083668">
        <ele>2710.4</ele>
        <time>2019-07-29T17:05:33.472Z</time>
      </trkpt>
      <trkpt lat="4.859122" lon="-74.083605">
        <ele>2710</ele>
        <time>2019-07-29T17:05:34.472Z</time>
      </trkpt>
      <trkpt lat="4.859112" lon="-74.083537">
        <ele>2710</ele>
        <time>2019-07-29T17:05:35.472Z</time>
      </trkpt>
      <trkpt lat="4.859145" lon="-74.083407">
        <ele>2709.4</ele>
        <time>2019-07-29T17:05:36.472Z</time>
      </trkpt>
      <trkpt lat="4.859229" lon="-74.08331">
        <ele>2707.6</ele>
        <time>2019-07-29T17:05:37.472Z</time>
      </trkpt>
      <trkpt lat="4.859273" lon="-74.08328">
        <ele>2707</ele>
        <time>2019-07-29T17:05:38.472Z</time>
      </trkpt>
      <trkpt lat="4.859322" lon="-74.083256">
        <ele>2706.2</ele>
        <time>2019-07-29T17:05:39.472Z</time>
      </trkpt>
      <trkpt lat="4.85942" lon="-74.083218">
        <ele>2705.6</ele>
        <time>2019-07-29T17:05:40.472Z</time>
      </trkpt>
      <trkpt lat="4.859478" lon="-74.083213">
        <ele>2704.8</ele>
        <time>2019-07-29T17:05:41.472Z</time>
      </trkpt>
      <trkpt lat="4.859612" lon="-74.083222">
        <ele>2703.4</ele>
        <time>2019-07-29T17:05:42.472Z</time>
      </trkpt>
      <trkpt lat="4.859672" lon="-74.083238">
        <ele>2702.8</ele>
        <time>2019-07-29T17:05:43.472Z</time>
      </trkpt>
      <trkpt lat="4.859726" lon="-74.083275">
        <ele>2702.4</ele>
        <time>2019-07-29T17:05:44.472Z</time>
      </trkpt>
      <trkpt lat="4.859764" lon="-74.083327">
        <ele>2702.2</ele>
        <time>2019-07-29T17:05:45.472Z</time>
      </trkpt>
      <trkpt lat="4.85979" lon="-74.083461">
        <ele>2701.6</ele>
        <time>2019-07-29T17:05:46.472Z</time>
      </trkpt>
      <trkpt lat="4.859782" lon="-74.083534">
        <ele>2701</ele>
        <time>2019-07-29T17:05:47.472Z</time>
      </trkpt>
      <trkpt lat="4.85976" lon="-74.083607">
        <ele>2700.4</ele>
        <time>2019-07-29T17:05:48.472Z</time>
      </trkpt>
      <trkpt lat="4.859738" lon="-74.083683">
        <ele>2699.4</ele>
        <time>2019-07-29T17:05:49.472Z</time>
      </trkpt>
      <trkpt lat="4.859734" lon="-74.083757">
        <ele>2698.8</ele>
        <time>2019-07-29T17:05:50.472Z</time>
      </trkpt>
      <trkpt lat="4.859752" lon="-74.083821">
        <ele>2697.8</ele>
        <time>2019-07-29T17:05:51.472Z</time>
      </trkpt>
      <trkpt lat="4.859793" lon="-74.083878">
        <ele>2696.8</ele>
        <time>2019-07-29T17:05:52.472Z</time>
      </trkpt>
      <trkpt lat="4.859848" lon="-74.083926">
        <ele>2695.6</ele>
        <time>2019-07-29T17:05:53.472Z</time>
      </trkpt>
      <trkpt lat="4.859907" lon="-74.083972">
        <ele>2695</ele>
        <time>2019-07-29T17:05:54.472Z</time>
      </trkpt>
      <trkpt lat="4.85997" lon="-74.084016">
        <ele>2694.6</ele>
        <time>2019-07-29T17:05:55.472Z</time>
      </trkpt>
      <trkpt lat="4.86016" lon="-74.08413">
        <ele>2692.6</ele>
        <time>2019-07-29T17:05:56.472Z</time>
      </trkpt>
      <trkpt lat="4.860222" lon="-74.084168">
        <ele>2691.8</ele>
        <time>2019-07-29T17:05:57.472Z</time>
      </trkpt>
      <trkpt lat="4.860283" lon="-74.084213">
        <ele>2691.6</ele>
        <time>2019-07-29T17:05:58.472Z</time>
      </trkpt>
      <trkpt lat="4.860405" lon="-74.08431">
        <ele>2691.6</ele>
        <time>2019-07-29T17:05:59.472Z</time>
      </trkpt>
      <trkpt lat="4.860481" lon="-74.084341">
        <ele>2691.4</ele>
        <time>2019-07-29T17:06:00.472Z</time>
      </trkpt>
      <trkpt lat="4.860571" lon="-74.084357">
        <ele>2691.4</ele>
        <time>2019-07-29T17:06:01.472Z</time>
      </trkpt>
      <trkpt lat="4.860731" lon="-74.084306">
        <ele>2691</ele>
        <time>2019-07-29T17:06:02.472Z</time>
      </trkpt>
      <trkpt lat="4.86079" lon="-74.084247">
        <ele>2690.2</ele>
        <time>2019-07-29T17:06:03.472Z</time>
      </trkpt>
      <trkpt lat="4.86093" lon="-74.084135">
        <ele>2688.8</ele>
        <time>2019-07-29T17:06:04.472Z</time>
      </trkpt>
      <trkpt lat="4.861017" lon="-74.084085">
        <ele>2688</ele>
        <time>2019-07-29T17:06:05.472Z</time>
      </trkpt>
      <trkpt lat="4.861108" lon="-74.084039">
        <ele>2686.8</ele>
        <time>2019-07-29T17:06:06.472Z</time>
      </trkpt>
      <trkpt lat="4.861202" lon="-74.083997">
        <ele>2685.4</ele>
        <time>2019-07-29T17:06:07.472Z</time>
      </trkpt>
      <trkpt lat="4.861385" lon="-74.083918">
        <ele>2684</ele>
        <time>2019-07-29T17:06:08.472Z</time>
      </trkpt>
      <trkpt lat="4.861469" lon="-74.083879">
        <ele>2683.8</ele>
        <time>2019-07-29T17:06:09.472Z</time>
      </trkpt>
      <trkpt lat="4.861557" lon="-74.083851">
        <ele>2683.6</ele>
        <time>2019-07-29T17:06:10.472Z</time>
      </trkpt>
      <trkpt lat="4.861739" lon="-74.083816">
        <ele>2683.4</ele>
        <time>2019-07-29T17:06:11.472Z</time>
      </trkpt>
      <trkpt lat="4.861923" lon="-74.083824">
        <ele>2683.2</ele>
        <time>2019-07-29T17:06:12.472Z</time>
      </trkpt>
      <trkpt lat="4.862009" lon="-74.08384">
        <ele>2682.4</ele>
        <time>2019-07-29T17:06:13.472Z</time>
      </trkpt>
      <trkpt lat="4.862172" lon="-74.08386">
        <ele>2680.6</ele>
        <time>2019-07-29T17:06:14.472Z</time>
      </trkpt>
      <trkpt lat="4.862328" lon="-74.083844">
        <ele>2680</ele>
        <time>2019-07-29T17:06:15.472Z</time>
      </trkpt>
      <trkpt lat="4.862403" lon="-74.08382">
        <ele>2679.8</ele>
        <time>2019-07-29T17:06:16.472Z</time>
      </trkpt>
      <trkpt lat="4.862461" lon="-74.083777">
        <ele>2679.4</ele>
        <time>2019-07-29T17:06:17.472Z</time>
      </trkpt>
      <trkpt lat="4.86252" lon="-74.083731">
        <ele>2679.6</ele>
        <time>2019-07-29T17:06:18.472Z</time>
      </trkpt>
      <trkpt lat="4.862719" lon="-74.083602">
        <ele>2679.2</ele>
        <time>2019-07-29T17:06:19.472Z</time>
      </trkpt>
      <trkpt lat="4.862795" lon="-74.083579">
        <ele>2678.8</ele>
        <time>2019-07-29T17:06:20.472Z</time>
      </trkpt>
      <trkpt lat="4.862875" lon="-74.083572">
        <ele>2678.6</ele>
        <time>2019-07-29T17:06:21.472Z</time>
      </trkpt>
      <trkpt lat="4.862956" lon="-74.083578">
        <ele>2678</ele>
        <time>2019-07-29T17:06:22.472Z</time>
      </trkpt>
      <trkpt lat="4.863042" lon="-74.083588">
        <ele>2677.4</ele>
        <time>2019-07-29T17:06:23.472Z</time>
      </trkpt>
      <trkpt lat="4.863128" lon="-74.083586">
        <ele>2677</ele>
        <time>2019-07-29T17:06:24.472Z</time>
      </trkpt>
      <trkpt lat="4.863194" lon="-74.083556">
        <ele>2676</ele>
        <time>2019-07-29T17:06:25.472Z</time>
      </trkpt>
      <trkpt lat="4.863242" lon="-74.083499">
        <ele>2675</ele>
        <time>2019-07-29T17:06:26.472Z</time>
      </trkpt>
      <trkpt lat="4.863272" lon="-74.083428">
        <ele>2674.2</ele>
        <time>2019-07-29T17:06:27.472Z</time>
      </trkpt>
      <trkpt lat="4.863287" lon="-74.08335">
        <ele>2673.6</ele>
        <time>2019-07-29T17:06:28.472Z</time>
      </trkpt>
      <trkpt lat="4.863254" lon="-74.083194">
        <ele>2673.4</ele>
        <time>2019-07-29T17:06:29.472Z</time>
      </trkpt>
      <trkpt lat="4.863246" lon="-74.083111">
        <ele>2673</ele>
        <time>2019-07-29T17:06:30.472Z</time>
      </trkpt>
      <trkpt lat="4.863262" lon="-74.082939">
        <ele>2672.4</ele>
        <time>2019-07-29T17:06:31.472Z</time>
      </trkpt>
      <trkpt lat="4.863279" lon="-74.082855">
        <ele>2670.8</ele>
        <time>2019-07-29T17:06:32.472Z</time>
      </trkpt>
      <trkpt lat="4.863302" lon="-74.082783">
        <ele>2669.8</ele>
        <time>2019-07-29T17:06:33.472Z</time>
      </trkpt>
      <trkpt lat="4.863331" lon="-74.082719">
        <ele>2668.8</ele>
        <time>2019-07-29T17:06:34.472Z</time>
      </trkpt>
      <trkpt lat="4.863365" lon="-74.082659">
        <ele>2668.2</ele>
        <time>2019-07-29T17:06:35.472Z</time>
      </trkpt>
      <trkpt lat="4.863504" lon="-74.082484">
        <ele>2667.4</ele>
        <time>2019-07-29T17:06:36.472Z</time>
      </trkpt>
      <trkpt lat="4.86355" lon="-74.082417">
        <ele>2667.4</ele>
        <time>2019-07-29T17:06:37.472Z</time>
      </trkpt>
      <trkpt lat="4.863633" lon="-74.082278">
        <ele>2666.2</ele>
        <time>2019-07-29T17:06:38.472Z</time>
      </trkpt>
      <trkpt lat="4.863664" lon="-74.082208">
        <ele>2665.2</ele>
        <time>2019-07-29T17:06:39.472Z</time>
      </trkpt>
      <trkpt lat="4.86369" lon="-74.082133">
        <ele>2664.2</ele>
        <time>2019-07-29T17:06:40.472Z</time>
      </trkpt>
      <trkpt lat="4.863706" lon="-74.082057">
        <ele>2663.6</ele>
        <time>2019-07-29T17:06:41.472Z</time>
      </trkpt>
      <trkpt lat="4.863716" lon="-74.08198">
        <ele>2662.8</ele>
        <time>2019-07-29T17:06:42.472Z</time>
      </trkpt>
      <trkpt lat="4.863716" lon="-74.081804">
        <ele>2661.6</ele>
        <time>2019-07-29T17:06:43.472Z</time>
      </trkpt>
      <trkpt lat="4.863716" lon="-74.081711">
        <ele>2661.4</ele>
        <time>2019-07-29T17:06:44.472Z</time>
      </trkpt>
      <trkpt lat="4.863723" lon="-74.081614">
        <ele>2661.4</ele>
        <time>2019-07-29T17:06:45.472Z</time>
      </trkpt>
      <trkpt lat="4.863777" lon="-74.081424">
        <ele>2660.6</ele>
        <time>2019-07-29T17:06:46.472Z</time>
      </trkpt>
      <trkpt lat="4.863825" lon="-74.081336">
        <ele>2659.6</ele>
        <time>2019-07-29T17:06:47.472Z</time>
      </trkpt>
      <trkpt lat="4.863943" lon="-74.081177">
        <ele>2658</ele>
        <time>2019-07-29T17:06:48.472Z</time>
      </trkpt>
      <trkpt lat="4.864091" lon="-74.081058">
        <ele>2657</ele>
        <time>2019-07-29T17:06:49.472Z</time>
      </trkpt>
      <trkpt lat="4.864172" lon="-74.081011">
        <ele>2656</ele>
        <time>2019-07-29T17:06:50.472Z</time>
      </trkpt>
      <trkpt lat="4.864253" lon="-74.080972">
        <ele>2655.2</ele>
        <time>2019-07-29T17:06:51.472Z</time>
      </trkpt>
      <trkpt lat="4.864422" lon="-74.080908">
        <ele>2654</ele>
        <time>2019-07-29T17:06:52.472Z</time>
      </trkpt>
      <trkpt lat="4.86459" lon="-74.080845">
        <ele>2653.4</ele>
        <time>2019-07-29T17:06:53.472Z</time>
      </trkpt>
      <trkpt lat="4.864864" lon="-74.080631">
        <ele>2653.4</ele>
        <time>2019-07-29T17:06:54.472Z</time>
      </trkpt>
      <trkpt lat="4.86492" lon="-74.08058">
        <ele>2653</ele>
        <time>2019-07-29T17:06:55.472Z</time>
      </trkpt>
      <trkpt lat="4.864976" lon="-74.080546">
        <ele>2652.8</ele>
        <time>2019-07-29T17:06:56.472Z</time>
      </trkpt>
      <trkpt lat="4.86504" lon="-74.080522">
        <ele>2652.4</ele>
        <time>2019-07-29T17:06:57.472Z</time>
      </trkpt>
      <trkpt lat="4.865233" lon="-74.080484">
        <ele>2651.8</ele>
        <time>2019-07-29T17:06:58.472Z</time>
      </trkpt>
      <trkpt lat="4.865284" lon="-74.080484">
        <ele>2651.6</ele>
        <time>2019-07-29T17:06:59.472Z</time>
      </trkpt>
      <trkpt lat="4.865374" lon="-74.08048">
        <ele>2651.4</ele>
        <time>2019-07-29T17:07:00.472Z</time>
      </trkpt>
      <trkpt lat="4.865468" lon="-74.08044">
        <ele>2651.2</ele>
        <time>2019-07-29T17:07:01.472Z</time>
      </trkpt>
      <trkpt lat="4.865523" lon="-74.080416">
        <ele>2651</ele>
        <time>2019-07-29T17:07:02.472Z</time>
      </trkpt>
      <trkpt lat="4.865586" lon="-74.080386">
        <ele>2650.2</ele>
        <time>2019-07-29T17:07:03.472Z</time>
      </trkpt>
      <trkpt lat="4.865731" lon="-74.080331">
        <ele>2648.6</ele>
        <time>2019-07-29T17:07:04.472Z</time>
      </trkpt>
      <trkpt lat="4.865894" lon="-74.080275">
        <ele>2646.8</ele>
        <time>2019-07-29T17:07:05.472Z</time>
      </trkpt>
      <trkpt lat="4.86598" lon="-74.080248">
        <ele>2645.4</ele>
        <time>2019-07-29T17:07:06.472Z</time>
      </trkpt>
      <trkpt lat="4.866155" lon="-74.080193">
        <ele>2643.8</ele>
        <time>2019-07-29T17:07:07.472Z</time>
      </trkpt>
      <trkpt lat="4.866243" lon="-74.080164">
        <ele>2643.2</ele>
        <time>2019-07-29T17:07:08.472Z</time>
      </trkpt>
      <trkpt lat="4.866333" lon="-74.080132">
        <ele>2642.8</ele>
        <time>2019-07-29T17:07:09.472Z</time>
      </trkpt>
      <trkpt lat="4.866611" lon="-74.080041">
        <ele>2641.6</ele>
        <time>2019-07-29T17:07:10.472Z</time>
      </trkpt>
      <trkpt lat="4.866901" lon="-74.079975">
        <ele>2640.2</ele>
        <time>2019-07-29T17:07:11.472Z</time>
      </trkpt>
      <trkpt lat="4.867094" lon="-74.079937">
        <ele>2639.2</ele>
        <time>2019-07-29T17:07:12.472Z</time>
      </trkpt>
      <trkpt lat="4.86737" lon="-74.079903">
        <ele>2638.4</ele>
        <time>2019-07-29T17:07:13.472Z</time>
      </trkpt>
      <trkpt lat="4.867462" lon="-74.079894">
        <ele>2638</ele>
        <time>2019-07-29T17:07:14.472Z</time>
      </trkpt>
      <trkpt lat="4.867646" lon="-74.079874">
        <ele>2636.8</ele>
        <time>2019-07-29T17:07:15.472Z</time>
      </trkpt>
      <trkpt lat="4.868018" lon="-74.079828">
        <ele>2636.2</ele>
        <time>2019-07-29T17:07:16.472Z</time>
      </trkpt>
      <trkpt lat="4.868198" lon="-74.079757">
        <ele>2635.2</ele>
        <time>2019-07-29T17:07:17.472Z</time>
      </trkpt>
      <trkpt lat="4.868285" lon="-74.079707">
        <ele>2633.8</ele>
        <time>2019-07-29T17:07:18.472Z</time>
      </trkpt>
      <trkpt lat="4.868355" lon="-74.079648">
        <ele>2632.8</ele>
        <time>2019-07-29T17:07:19.472Z</time>
      </trkpt>
      <trkpt lat="4.868437" lon="-74.079583">
        <ele>2631.2</ele>
        <time>2019-07-29T17:07:20.472Z</time>
      </trkpt>
      <trkpt lat="4.86852" lon="-74.079521">
        <ele>2630</ele>
        <time>2019-07-29T17:07:21.472Z</time>
      </trkpt>
      <trkpt lat="4.868604" lon="-74.079464">
        <ele>2629.2</ele>
        <time>2019-07-29T17:07:22.472Z</time>
      </trkpt>
      <trkpt lat="4.868687" lon="-74.079406">
        <ele>2628.8</ele>
        <time>2019-07-29T17:07:23.472Z</time>
      </trkpt>
      <trkpt lat="4.868766" lon="-74.079356">
        <ele>2627.8</ele>
        <time>2019-07-29T17:07:24.472Z</time>
      </trkpt>
      <trkpt lat="4.868851" lon="-74.079315">
        <ele>2627</ele>
        <time>2019-07-29T17:07:25.472Z</time>
      </trkpt>
      <trkpt lat="4.868944" lon="-74.079284">
        <ele>2626.2</ele>
        <time>2019-07-29T17:07:26.472Z</time>
      </trkpt>
      <trkpt lat="4.869351" lon="-74.079231">
        <ele>2626.4</ele>
        <time>2019-07-29T17:07:27.472Z</time>
      </trkpt>
      <trkpt lat="4.869561" lon="-74.079265">
        <ele>2625.8</ele>
        <time>2019-07-29T17:07:28.472Z</time>
      </trkpt>
      <trkpt lat="4.869667" lon="-74.079293">
        <ele>2625</ele>
        <time>2019-07-29T17:07:29.472Z</time>
      </trkpt>
      <trkpt lat="4.869767" lon="-74.079317">
        <ele>2623.6</ele>
        <time>2019-07-29T17:07:30.472Z</time>
      </trkpt>
      <trkpt lat="4.869861" lon="-74.07933">
        <ele>2622.2</ele>
        <time>2019-07-29T17:07:31.472Z</time>
      </trkpt>
      <trkpt lat="4.869953" lon="-74.079317">
        <ele>2621.2</ele>
        <time>2019-07-29T17:07:32.472Z</time>
      </trkpt>
      <trkpt lat="4.870021" lon="-74.079268">
        <ele>2620.4</ele>
        <time>2019-07-29T17:07:33.472Z</time>
      </trkpt>
      <trkpt lat="4.870082" lon="-74.079204">
        <ele>2619.8</ele>
        <time>2019-07-29T17:07:34.472Z</time>
      </trkpt>
      <trkpt lat="4.870128" lon="-74.079127">
        <ele>2619.2</ele>
        <time>2019-07-29T17:07:35.472Z</time>
      </trkpt>
      <trkpt lat="4.870181" lon="-74.078953">
        <ele>2618.6</ele>
        <time>2019-07-29T17:07:36.472Z</time>
      </trkpt>
      <trkpt lat="4.870211" lon="-74.078873">
        <ele>2618.4</ele>
        <time>2019-07-29T17:07:37.472Z</time>
      </trkpt>
      <trkpt lat="4.870248" lon="-74.0788">
        <ele>2618.2</ele>
        <time>2019-07-29T17:07:38.472Z</time>
      </trkpt>
      <trkpt lat="4.870294" lon="-74.078739">
        <ele>2618</ele>
        <time>2019-07-29T17:07:39.472Z</time>
      </trkpt>
      <trkpt lat="4.870352" lon="-74.078689">
        <ele>2618</ele>
        <time>2019-07-29T17:07:40.472Z</time>
      </trkpt>
      <trkpt lat="4.870695" lon="-74.078473">
        <ele>2616.8</ele>
        <time>2019-07-29T17:07:41.472Z</time>
      </trkpt>
      <trkpt lat="4.870768" lon="-74.078435">
        <ele>2616.4</ele>
        <time>2019-07-29T17:07:42.472Z</time>
      </trkpt>
      <trkpt lat="4.870921" lon="-74.078376">
        <ele>2615.6</ele>
        <time>2019-07-29T17:07:43.472Z</time>
      </trkpt>
      <trkpt lat="4.871001" lon="-74.078354">
        <ele>2615.8</ele>
        <time>2019-07-29T17:07:44.472Z</time>
      </trkpt>
      <trkpt lat="4.871082" lon="-74.07834">
        <ele>2615.6</ele>
        <time>2019-07-29T17:07:45.472Z</time>
      </trkpt>
      <trkpt lat="4.871327" lon="-74.078322">
        <ele>2615.2</ele>
        <time>2019-07-29T17:07:46.472Z</time>
      </trkpt>
      <trkpt lat="4.871561" lon="-74.078231">
        <ele>2614.8</ele>
        <time>2019-07-29T17:07:47.472Z</time>
      </trkpt>
      <trkpt lat="4.871632" lon="-74.078184">
        <ele>2614.8</ele>
        <time>2019-07-29T17:07:48.472Z</time>
      </trkpt>
      <trkpt lat="4.871699" lon="-74.078133">
        <ele>2614.6</ele>
        <time>2019-07-29T17:07:49.472Z</time>
      </trkpt>
      <trkpt lat="4.871835" lon="-74.078036">
        <ele>2614.4</ele>
        <time>2019-07-29T17:07:50.472Z</time>
      </trkpt>
      <trkpt lat="4.871912" lon="-74.078007">
        <ele>2614</ele>
        <time>2019-07-29T17:07:51.472Z</time>
      </trkpt>
      <trkpt lat="4.871992" lon="-74.07799">
        <ele>2613.2</ele>
        <time>2019-07-29T17:07:52.472Z</time>
      </trkpt>
      <trkpt lat="4.872072" lon="-74.077986">
        <ele>2612.6</ele>
        <time>2019-07-29T17:07:53.472Z</time>
      </trkpt>
      <trkpt lat="4.87215" lon="-74.078002">
        <ele>2612.4</ele>
        <time>2019-07-29T17:07:54.472Z</time>
      </trkpt>
      <trkpt lat="4.872223" lon="-74.078034">
        <ele>2612.2</ele>
        <time>2019-07-29T17:07:55.472Z</time>
      </trkpt>
      <trkpt lat="4.872343" lon="-74.078139">
        <ele>2611.6</ele>
        <time>2019-07-29T17:07:56.472Z</time>
      </trkpt>
      <trkpt lat="4.872456" lon="-74.078277">
        <ele>2610.8</ele>
        <time>2019-07-29T17:07:57.472Z</time>
      </trkpt>
      <trkpt lat="4.87252" lon="-74.078343">
        <ele>2610.6</ele>
        <time>2019-07-29T17:07:58.472Z</time>
      </trkpt>
      <trkpt lat="4.872592" lon="-74.0784">
        <ele>2610.4</ele>
        <time>2019-07-29T17:07:59.472Z</time>
      </trkpt>
      <trkpt lat="4.872673" lon="-74.078446">
        <ele>2610</ele>
        <time>2019-07-29T17:08:00.472Z</time>
      </trkpt>
      <trkpt lat="4.87276" lon="-74.078481">
        <ele>2609.6</ele>
        <time>2019-07-29T17:08:01.472Z</time>
      </trkpt>
      <trkpt lat="4.87285" lon="-74.078504">
        <ele>2609.2</ele>
        <time>2019-07-29T17:08:02.472Z</time>
      </trkpt>
      <trkpt lat="4.873038" lon="-74.078508">
        <ele>2608.4</ele>
        <time>2019-07-29T17:08:03.472Z</time>
      </trkpt>
      <trkpt lat="4.873132" lon="-74.0785">
        <ele>2607.8</ele>
        <time>2019-07-29T17:08:04.472Z</time>
      </trkpt>
      <trkpt lat="4.873223" lon="-74.078484">
        <ele>2607</ele>
        <time>2019-07-29T17:08:05.472Z</time>
      </trkpt>
      <trkpt lat="4.873386" lon="-74.078409">
        <ele>2606.4</ele>
        <time>2019-07-29T17:08:06.472Z</time>
      </trkpt>
      <trkpt lat="4.873502" lon="-74.078273">
        <ele>2606</ele>
        <time>2019-07-29T17:08:07.472Z</time>
      </trkpt>
      <trkpt lat="4.873545" lon="-74.078191">
        <ele>2605.6</ele>
        <time>2019-07-29T17:08:08.472Z</time>
      </trkpt>
      <trkpt lat="4.873624" lon="-74.07802">
        <ele>2604.6</ele>
        <time>2019-07-29T17:08:09.472Z</time>
      </trkpt>
      <trkpt lat="4.873705" lon="-74.077847">
        <ele>2603.8</ele>
        <time>2019-07-29T17:08:10.472Z</time>
      </trkpt>
      <trkpt lat="4.873749" lon="-74.077764">
        <ele>2603.4</ele>
        <time>2019-07-29T17:08:11.472Z</time>
      </trkpt>
      <trkpt lat="4.873793" lon="-74.077681">
        <ele>2602.8</ele>
        <time>2019-07-29T17:08:12.472Z</time>
      </trkpt>
      <trkpt lat="4.873825" lon="-74.077594">
        <ele>2602.2</ele>
        <time>2019-07-29T17:08:13.472Z</time>
      </trkpt>
      <trkpt lat="4.873843" lon="-74.077407">
        <ele>2601.6</ele>
        <time>2019-07-29T17:08:14.472Z</time>
      </trkpt>
      <trkpt lat="4.873831" lon="-74.077316">
        <ele>2601.2</ele>
        <time>2019-07-29T17:08:15.472Z</time>
      </trkpt>
      <trkpt lat="4.873794" lon="-74.077227">
        <ele>2600.4</ele>
        <time>2019-07-29T17:08:16.472Z</time>
      </trkpt>
      <trkpt lat="4.873741" lon="-74.077146">
        <ele>2599.4</ele>
        <time>2019-07-29T17:08:17.472Z</time>
      </trkpt>
      <trkpt lat="4.873677" lon="-74.077076">
        <ele>2598.2</ele>
        <time>2019-07-29T17:08:18.472Z</time>
      </trkpt>
      <trkpt lat="4.873607" lon="-74.077004">
        <ele>2597.2</ele>
        <time>2019-07-29T17:08:19.472Z</time>
      </trkpt>
      <trkpt lat="4.873457" lon="-74.076863">
        <ele>2595.6</ele>
        <time>2019-07-29T17:08:20.472Z</time>
      </trkpt>
      <trkpt lat="4.873398" lon="-74.076779">
        <ele>2595.2</ele>
        <time>2019-07-29T17:08:21.472Z</time>
      </trkpt>
      <trkpt lat="4.873281" lon="-74.076616">
        <ele>2594.2</ele>
        <time>2019-07-29T17:08:22.472Z</time>
      </trkpt>
      <trkpt lat="4.873138" lon="-74.076513">
        <ele>2592.8</ele>
        <time>2019-07-29T17:08:23.472Z</time>
      </trkpt>
      <trkpt lat="4.873049" lon="-74.076495">
        <ele>2592.2</ele>
        <time>2019-07-29T17:08:24.472Z</time>
      </trkpt>
      <trkpt lat="4.872952" lon="-74.076488">
        <ele>2591.6</ele>
        <time>2019-07-29T17:08:25.472Z</time>
      </trkpt>
      <trkpt lat="4.872773" lon="-74.076552">
        <ele>2591</ele>
        <time>2019-07-29T17:08:26.472Z</time>
      </trkpt>
      <trkpt lat="4.872605" lon="-74.076659">
        <ele>2591</ele>
        <time>2019-07-29T17:08:27.472Z</time>
      </trkpt>
      <trkpt lat="4.872543" lon="-74.076722">
        <ele>2590.8</ele>
        <time>2019-07-29T17:08:28.472Z</time>
      </trkpt>
      <trkpt lat="4.872502" lon="-74.076789">
        <ele>2590.4</ele>
        <time>2019-07-29T17:08:29.472Z</time>
      </trkpt>
      <trkpt lat="4.872466" lon="-74.076926">
        <ele>2588.6</ele>
        <time>2019-07-29T17:08:30.472Z</time>
      </trkpt>
      <trkpt lat="4.872527" lon="-74.077042">
        <ele>2587.4</ele>
        <time>2019-07-29T17:08:31.472Z</time>
      </trkpt>
      <trkpt lat="4.872688" lon="-74.077205">
        <ele>2586.4</ele>
        <time>2019-07-29T17:08:32.472Z</time>
      </trkpt>
      <trkpt lat="4.87285" lon="-74.077381">
        <ele>2586</ele>
        <time>2019-07-29T17:08:33.472Z</time>
      </trkpt>
      <trkpt lat="4.872896" lon="-74.077447">
        <ele>2585.8</ele>
        <time>2019-07-29T17:08:34.472Z</time>
      </trkpt>
      <trkpt lat="4.872935" lon="-74.077515">
        <ele>2585.2</ele>
        <time>2019-07-29T17:08:35.472Z</time>
      </trkpt>
      <trkpt lat="4.872958" lon="-74.077581">
        <ele>2584.6</ele>
        <time>2019-07-29T17:08:36.472Z</time>
      </trkpt>
      <trkpt lat="4.872953" lon="-74.077637">
        <ele>2583.8</ele>
        <time>2019-07-29T17:08:37.472Z</time>
      </trkpt>
      <trkpt lat="4.872923" lon="-74.077678">
        <ele>2583.6</ele>
        <time>2019-07-29T17:08:38.472Z</time>
      </trkpt>
      <trkpt lat="4.872829" lon="-74.07769">
        <ele>2583</ele>
        <time>2019-07-29T17:08:39.472Z</time>
      </trkpt>
      <trkpt lat="4.872786" lon="-74.077662">
        <ele>2583</ele>
        <time>2019-07-29T17:08:40.472Z</time>
      </trkpt>
      <trkpt lat="4.872554" lon="-74.077517">
        <ele>2582.6</ele>
        <time>2019-07-29T17:08:41.472Z</time>
      </trkpt>
      <trkpt lat="4.872401" lon="-74.077441">
        <ele>2581</ele>
        <time>2019-07-29T17:08:42.472Z</time>
      </trkpt>
      <trkpt lat="4.872311" lon="-74.077411">
        <ele>2580</ele>
        <time>2019-07-29T17:08:43.472Z</time>
      </trkpt>
      <trkpt lat="4.872216" lon="-74.07739">
        <ele>2579</ele>
        <time>2019-07-29T17:08:44.472Z</time>
      </trkpt>
      <trkpt lat="4.872119" lon="-74.077385">
        <ele>2577.8</ele>
        <time>2019-07-29T17:08:45.472Z</time>
      </trkpt>
      <trkpt lat="4.871914" lon="-74.077427">
        <ele>2576.2</ele>
        <time>2019-07-29T17:08:46.472Z</time>
      </trkpt>
      <trkpt lat="4.871716" lon="-74.077498">
        <ele>2575.2</ele>
        <time>2019-07-29T17:08:47.472Z</time>
      </trkpt>
      <trkpt lat="4.871518" lon="-74.077587">
        <ele>2573.4</ele>
        <time>2019-07-29T17:08:48.472Z</time>
      </trkpt>
      <trkpt lat="4.871338" lon="-74.077688">
        <ele>2572</ele>
        <time>2019-07-29T17:08:49.472Z</time>
      </trkpt>
      <trkpt lat="4.871148" lon="-74.077758">
        <ele>2570.6</ele>
        <time>2019-07-29T17:08:50.472Z</time>
      </trkpt>
      <trkpt lat="4.870631" lon="-74.07787">
        <ele>2569.2</ele>
        <time>2019-07-29T17:08:51.472Z</time>
      </trkpt>
      <trkpt lat="4.870518" lon="-74.077889">
        <ele>2568</ele>
        <time>2019-07-29T17:08:52.472Z</time>
      </trkpt>
      <trkpt lat="4.870407" lon="-74.077908">
        <ele>2566.6</ele>
        <time>2019-07-29T17:08:53.472Z</time>
      </trkpt>
      <trkpt lat="4.870194" lon="-74.077939">
        <ele>2565.6</ele>
        <time>2019-07-29T17:08:54.472Z</time>
      </trkpt>
      <trkpt lat="4.870094" lon="-74.077944">
        <ele>2565.2</ele>
        <time>2019-07-29T17:08:55.472Z</time>
      </trkpt>
      <trkpt lat="4.869994" lon="-74.07794">
        <ele>2565</ele>
        <time>2019-07-29T17:08:56.472Z</time>
      </trkpt>
      <trkpt lat="4.869899" lon="-74.077926">
        <ele>2564.6</ele>
        <time>2019-07-29T17:08:57.472Z</time>
      </trkpt>
      <trkpt lat="4.869806" lon="-74.077908">
        <ele>2564.4</ele>
        <time>2019-07-29T17:08:58.472Z</time>
      </trkpt>
      <trkpt lat="4.869624" lon="-74.077861">
        <ele>2563.4</ele>
        <time>2019-07-29T17:08:59.472Z</time>
      </trkpt>
      <trkpt lat="4.869437" lon="-74.077815">
        <ele>2562.4</ele>
        <time>2019-07-29T17:09:00.472Z</time>
      </trkpt>
      <trkpt lat="4.869171" lon="-74.077771">
        <ele>2561.6</ele>
        <time>2019-07-29T17:09:01.472Z</time>
      </trkpt>
      <trkpt lat="4.869089" lon="-74.077758">
        <ele>2561.4</ele>
        <time>2019-07-29T17:09:02.472Z</time>
      </trkpt>
      <trkpt lat="4.868909" lon="-74.077713">
        <ele>2560.2</ele>
        <time>2019-07-29T17:09:03.472Z</time>
      </trkpt>
      <trkpt lat="4.868658" lon="-74.077617">
        <ele>2559.2</ele>
        <time>2019-07-29T17:09:04.472Z</time>
      </trkpt>
      <trkpt lat="4.868348" lon="-74.077504">
        <ele>2558</ele>
        <time>2019-07-29T17:09:05.472Z</time>
      </trkpt>
      <trkpt lat="4.868165" lon="-74.077416">
        <ele>2556.8</ele>
        <time>2019-07-29T17:09:06.472Z</time>
      </trkpt>
      <trkpt lat="4.867992" lon="-74.077297">
        <ele>2555.6</ele>
        <time>2019-07-29T17:09:07.472Z</time>
      </trkpt>
      <trkpt lat="4.867938" lon="-74.077226">
        <ele>2555.2</ele>
        <time>2019-07-29T17:09:08.472Z</time>
      </trkpt>
      <trkpt lat="4.86789" lon="-74.077149">
        <ele>2555</ele>
        <time>2019-07-29T17:09:09.472Z</time>
      </trkpt>
      <trkpt lat="4.867844" lon="-74.077063">
        <ele>2554.6</ele>
        <time>2019-07-29T17:09:10.472Z</time>
      </trkpt>
      <trkpt lat="4.867769" lon="-74.07689">
        <ele>2553.2</ele>
        <time>2019-07-29T17:09:11.472Z</time>
      </trkpt>
      <trkpt lat="4.867648" lon="-74.076551">
        <ele>2551.6</ele>
        <time>2019-07-29T17:09:12.472Z</time>
      </trkpt>
      <trkpt lat="4.867562" lon="-74.076308">
        <ele>2552</ele>
        <time>2019-07-29T17:09:13.472Z</time>
      </trkpt>
      <trkpt lat="4.867436" lon="-74.07594">
        <ele>2551</ele>
        <time>2019-07-29T17:09:14.472Z</time>
      </trkpt>
      <trkpt lat="4.867418" lon="-74.075884">
        <ele>2550</ele>
        <time>2019-07-29T17:09:15.472Z</time>
      </trkpt>
      <trkpt lat="4.867239" lon="-74.075286">
        <ele>2575.8</ele>
        <time>2019-07-29T16:59:33.472Z</time>
      </trkpt>
      <trkpt lat="4.867248" lon="-74.075295">
        <ele>2576.2</ele>
        <time>2019-07-29T16:59:34.472Z</time>
      </trkpt>
      <trkpt lat="4.867248" lon="-74.07531">
        <ele>2576.2</ele>
        <time>2019-07-29T16:59:35.472Z</time>
      </trkpt>
      <trkpt lat="4.867279" lon="-74.075463">
        <ele>2575.2</ele>
        <time>2019-07-29T16:59:36.472Z</time>
      </trkpt>
      <trkpt lat="4.867341" lon="-74.075627">
        <ele>2575.2</ele>
        <time>2019-07-29T16:59:37.472Z</time>
      </trkpt>
      <trkpt lat="4.867372" lon="-74.075715">
        <ele>2575.6</ele>
        <time>2019-07-29T16:59:38.472Z</time>
      </trkpt>
      <trkpt lat="4.867404" lon="-74.075791">
        <ele>2576</ele>
        <time>2019-07-29T16:59:39.472Z</time>
      </trkpt>
      <trkpt lat="4.867422" lon="-74.075851">
        <ele>2576.6</ele>
        <time>2019-07-29T16:59:40.472Z</time>
      </trkpt>
      <trkpt lat="4.867433" lon="-74.075884">
        <ele>2576.8</ele>
        <time>2019-07-29T16:59:41.472Z</time>
      </trkpt>
      <trkpt lat="4.867456" lon="-74.075948">
        <ele>2577</ele>
        <time>2019-07-29T16:59:42.472Z</time>
      </trkpt>
      <trkpt lat="4.867479" lon="-74.076009">
        <ele>2577</ele>
        <time>2019-07-29T16:59:43.472Z</time>
      </trkpt>
      <trkpt lat="4.867502" lon="-74.076069">
        <ele>2577</ele>
        <time>2019-07-29T16:59:44.472Z</time>
      </trkpt>
      <trkpt lat="4.867525" lon="-74.076135">
        <ele>2578</ele>
        <time>2019-07-29T16:59:45.472Z</time>
      </trkpt>
      <trkpt lat="4.867537" lon="-74.076168">
        <ele>2578.2</ele>
        <time>2019-07-29T16:59:46.472Z</time>
      </trkpt>
      <trkpt lat="4.867581" lon="-74.0763">
        <ele>2579</ele>
        <time>2019-07-29T16:59:47.472Z</time>
      </trkpt>
      <trkpt lat="4.867589" lon="-74.076336">
        <ele>2579.4</ele>
        <time>2019-07-29T16:59:48.472Z</time>
      </trkpt>
      <trkpt lat="4.867608" lon="-74.076403">
        <ele>2580</ele>
        <time>2019-07-29T16:59:49.472Z</time>
      </trkpt>
      <trkpt lat="4.867621" lon="-74.076435">
        <ele>2580.4</ele>
        <time>2019-07-29T16:59:50.472Z</time>
      </trkpt>
      <trkpt lat="4.867709" lon="-74.076667">
        <ele>2580.8</ele>
        <time>2019-07-29T16:59:51.472Z</time>
      </trkpt>
      <trkpt lat="4.867771" lon="-74.076901">
        <ele>2581.6</ele>
        <time>2019-07-29T16:59:52.472Z</time>
      </trkpt>
      <trkpt lat="4.867874" lon="-74.077124">
        <ele>2582.8</ele>
        <time>2019-07-29T16:59:53.472Z</time>
      </trkpt>
      <trkpt lat="4.867894" lon="-74.077155">
        <ele>2582.8</ele>
        <time>2019-07-29T16:59:54.472Z</time>
      </trkpt>
      <trkpt lat="4.868026" lon="-74.077323">
        <ele>2583.2</ele>
        <time>2019-07-29T16:59:55.472Z</time>
      </trkpt>
      <trkpt lat="4.86805" lon="-74.077346">
        <ele>2583.8</ele>
        <time>2019-07-29T16:59:56.472Z</time>
      </trkpt>
      <trkpt lat="4.868079" lon="-74.077364">
        <ele>2584.4</ele>
        <time>2019-07-29T16:59:57.472Z</time>
      </trkpt>
      <trkpt lat="4.868133" lon="-74.0774">
        <ele>2585.6</ele>
        <time>2019-07-29T16:59:58.472Z</time>
      </trkpt>
      <trkpt lat="4.868211" lon="-74.077442">
        <ele>2586.4</ele>
        <time>2019-07-29T16:59:59.472Z</time>
      </trkpt>
      <trkpt lat="4.868236" lon="-74.07746">
        <ele>2586.6</ele>
        <time>2019-07-29T17:00:00.472Z</time>
      </trkpt>
      <trkpt lat="4.868385" lon="-74.077553">
        <ele>2587.2</ele>
        <time>2019-07-29T17:00:01.472Z</time>
      </trkpt>
      <trkpt lat="4.868426" lon="-74.077583">
        <ele>2587.6</ele>
        <time>2019-07-29T17:00:02.472Z</time>
      </trkpt>
      <trkpt lat="4.868513" lon="-74.077615">
        <ele>2588.6</ele>
        <time>2019-07-29T17:00:03.472Z</time>
      </trkpt>
      <trkpt lat="4.868546" lon="-74.077625">
        <ele>2588.8</ele>
        <time>2019-07-29T17:00:04.472Z</time>
      </trkpt>
      <trkpt lat="4.868698" lon="-74.077678">
        <ele>2589.8</ele>
        <time>2019-07-29T17:00:05.472Z</time>
      </trkpt>
      <trkpt lat="4.86877" lon="-74.077711">
        <ele>2590.2</ele>
        <time>2019-07-29T17:00:06.472Z</time>
      </trkpt>
      <trkpt lat="4.868904" lon="-74.077748">
        <ele>2591</ele>
        <time>2019-07-29T17:00:07.472Z</time>
      </trkpt>
      <trkpt lat="4.868968" lon="-74.077764">
        <ele>2591.2</ele>
        <time>2019-07-29T17:00:08.472Z</time>
      </trkpt>
      <trkpt lat="4.869128" lon="-74.077791">
        <ele>2591.8</ele>
        <time>2019-07-29T17:00:09.472Z</time>
      </trkpt>
      <trkpt lat="4.869302" lon="-74.077832">
        <ele>2592</ele>
        <time>2019-07-29T17:00:10.472Z</time>
      </trkpt>
      <trkpt lat="4.869341" lon="-74.077839">
        <ele>2592</ele>
        <time>2019-07-29T17:00:11.472Z</time>
      </trkpt>
      <trkpt lat="4.86945" lon="-74.077859">
        <ele>2593.2</ele>
        <time>2019-07-29T17:00:12.472Z</time>
      </trkpt>
      <trkpt lat="4.869517" lon="-74.077875">
        <ele>2594</ele>
        <time>2019-07-29T17:00:13.472Z</time>
      </trkpt>
      <trkpt lat="4.869585" lon="-74.077884">
        <ele>2594.4</ele>
        <time>2019-07-29T17:00:14.472Z</time>
      </trkpt>
      <trkpt lat="4.869693" lon="-74.077902">
        <ele>2594</ele>
        <time>2019-07-29T17:00:15.472Z</time>
      </trkpt>
      <trkpt lat="4.869918" lon="-74.077939">
        <ele>2595.4</ele>
        <time>2019-07-29T17:00:16.472Z</time>
      </trkpt>
      <trkpt lat="4.869958" lon="-74.077943">
        <ele>2595.8</ele>
        <time>2019-07-29T17:00:17.472Z</time>
      </trkpt>
      <trkpt lat="4.870079" lon="-74.077934">
        <ele>2597</ele>
        <time>2019-07-29T17:00:18.472Z</time>
      </trkpt>
      <trkpt lat="4.87012" lon="-74.077928">
        <ele>2597.4</ele>
        <time>2019-07-29T17:00:19.472Z</time>
      </trkpt>
      <trkpt lat="4.870385" lon="-74.07793">
        <ele>2597.8</ele>
        <time>2019-07-29T17:00:20.472Z</time>
      </trkpt>
      <trkpt lat="4.870483" lon="-74.077902">
        <ele>2598.2</ele>
        <time>2019-07-29T17:00:21.472Z</time>
      </trkpt>
      <trkpt lat="4.870655" lon="-74.077874">
        <ele>2599</ele>
        <time>2019-07-29T17:00:22.472Z</time>
      </trkpt>
      <trkpt lat="4.870739" lon="-74.077858">
        <ele>2599.2</ele>
        <time>2019-07-29T17:00:23.472Z</time>
      </trkpt>
      <trkpt lat="4.870886" lon="-74.07783">
        <ele>2599.6</ele>
        <time>2019-07-29T17:00:24.472Z</time>
      </trkpt>
      <trkpt lat="4.870947" lon="-74.077812">
        <ele>2600.4</ele>
        <time>2019-07-29T17:00:25.472Z</time>
      </trkpt>
      <trkpt lat="4.871074" lon="-74.077779">
        <ele>2601.6</ele>
        <time>2019-07-29T17:00:26.472Z</time>
      </trkpt>
      <trkpt lat="4.871218" lon="-74.077744">
        <ele>2602.4</ele>
        <time>2019-07-29T17:00:27.472Z</time>
      </trkpt>
      <trkpt lat="4.871258" lon="-74.07773">
        <ele>2602.8</ele>
        <time>2019-07-29T17:00:28.472Z</time>
      </trkpt>
      <trkpt lat="4.871442" lon="-74.07763">
        <ele>2603.8</ele>
        <time>2019-07-29T17:00:29.472Z</time>
      </trkpt>
      <trkpt lat="4.87148" lon="-74.077611">
        <ele>2604</ele>
        <time>2019-07-29T17:00:30.472Z</time>
      </trkpt>
      <trkpt lat="4.871637" lon="-74.07753">
        <ele>2604.8</ele>
        <time>2019-07-29T17:00:31.472Z</time>
      </trkpt>
      <trkpt lat="4.871715" lon="-74.077497">
        <ele>2605.8</ele>
        <time>2019-07-29T17:00:32.472Z</time>
      </trkpt>
      <trkpt lat="4.871785" lon="-74.077468">
        <ele>2606.2</ele>
        <time>2019-07-29T17:00:33.472Z</time>
      </trkpt>
      <trkpt lat="4.872001" lon="-74.077396">
        <ele>2607</ele>
        <time>2019-07-29T17:00:34.472Z</time>
      </trkpt>
      <trkpt lat="4.872097" lon="-74.077365">
        <ele>2608.4</ele>
        <time>2019-07-29T17:00:35.472Z</time>
      </trkpt>
      <trkpt lat="4.872186" lon="-74.077358">
        <ele>2609.2</ele>
        <time>2019-07-29T17:00:36.472Z</time>
      </trkpt>
      <trkpt lat="4.87222" lon="-74.077368">
        <ele>2609.4</ele>
        <time>2019-07-29T17:00:37.472Z</time>
      </trkpt>
      <trkpt lat="4.872411" lon="-74.07745">
        <ele>2610.4</ele>
        <time>2019-07-29T17:00:38.472Z</time>
      </trkpt>
      <trkpt lat="4.87256" lon="-74.077546">
        <ele>2611.8</ele>
        <time>2019-07-29T17:00:39.472Z</time>
      </trkpt>
      <trkpt lat="4.872633" lon="-74.077598">
        <ele>2612.4</ele>
        <time>2019-07-29T17:00:40.472Z</time>
      </trkpt>
      <trkpt lat="4.872748" lon="-74.077662">
        <ele>2612.8</ele>
        <time>2019-07-29T17:00:41.472Z</time>
      </trkpt>
      <trkpt lat="4.872788" lon="-74.077668">
        <ele>2613</ele>
        <time>2019-07-29T17:00:42.472Z</time>
      </trkpt>
      <trkpt lat="4.872832" lon="-74.077664">
        <ele>2613.2</ele>
        <time>2019-07-29T17:00:43.472Z</time>
      </trkpt>
      <trkpt lat="4.872891" lon="-74.077592">
        <ele>2613.4</ele>
        <time>2019-07-29T17:00:44.472Z</time>
      </trkpt>
      <trkpt lat="4.872912" lon="-74.077462">
        <ele>2613.6</ele>
        <time>2019-07-29T17:00:45.472Z</time>
      </trkpt>
      <trkpt lat="4.872858" lon="-74.077367">
        <ele>2614</ele>
        <time>2019-07-29T17:00:46.472Z</time>
      </trkpt>
      <trkpt lat="4.872814" lon="-74.077317">
        <ele>2614.6</ele>
        <time>2019-07-29T17:00:47.472Z</time>
      </trkpt>
      <trkpt lat="4.872665" lon="-74.077171">
        <ele>2615</ele>
        <time>2019-07-29T17:00:48.472Z</time>
      </trkpt>
      <trkpt lat="4.872571" lon="-74.077073">
        <ele>2615.2</ele>
        <time>2019-07-29T17:00:49.472Z</time>
      </trkpt>
      <trkpt lat="4.872494" lon="-74.076992">
        <ele>2616</ele>
        <time>2019-07-29T17:00:50.472Z</time>
      </trkpt>
      <trkpt lat="4.87248" lon="-74.076965">
        <ele>2616.2</ele>
        <time>2019-07-29T17:00:51.472Z</time>
      </trkpt>
      <trkpt lat="4.872466" lon="-74.076843">
        <ele>2616.8</ele>
        <time>2019-07-29T17:00:52.472Z</time>
      </trkpt>
      <trkpt lat="4.872476" lon="-74.076778">
        <ele>2617.4</ele>
        <time>2019-07-29T17:00:53.472Z</time>
      </trkpt>
      <trkpt lat="4.87254" lon="-74.076692">
        <ele>2618.4</ele>
        <time>2019-07-29T17:00:54.472Z</time>
      </trkpt>
      <trkpt lat="4.872565" lon="-74.076668">
        <ele>2618.6</ele>
        <time>2019-07-29T17:00:55.472Z</time>
      </trkpt>
      <trkpt lat="4.872712" lon="-74.076557">
        <ele>2619.6</ele>
        <time>2019-07-29T17:00:56.472Z</time>
      </trkpt>
      <trkpt lat="4.87276" lon="-74.076536">
        <ele>2619.6</ele>
        <time>2019-07-29T17:00:57.472Z</time>
      </trkpt>
      <trkpt lat="4.872896" lon="-74.076499">
        <ele>2620</ele>
        <time>2019-07-29T17:00:58.472Z</time>
      </trkpt>
      <trkpt lat="4.872957" lon="-74.076499">
        <ele>2620.6</ele>
        <time>2019-07-29T17:00:59.472Z</time>
      </trkpt>
      <trkpt lat="4.873086" lon="-74.076524">
        <ele>2621.6</ele>
        <time>2019-07-29T17:01:00.472Z</time>
      </trkpt>
      <trkpt lat="4.873118" lon="-74.076535">
        <ele>2622</ele>
        <time>2019-07-29T17:01:01.472Z</time>
      </trkpt>
      <trkpt lat="4.873236" lon="-74.07661">
        <ele>2623</ele>
        <time>2019-07-29T17:01:02.472Z</time>
      </trkpt>
      <trkpt lat="4.873347" lon="-74.076715">
        <ele>2623.8</ele>
        <time>2019-07-29T17:01:03.472Z</time>
      </trkpt>
      <trkpt lat="4.873381" lon="-74.076781">
        <ele>2624.2</ele>
        <time>2019-07-29T17:01:04.472Z</time>
      </trkpt>
      <trkpt lat="4.873427" lon="-74.07687">
        <ele>2624.8</ele>
        <time>2019-07-29T17:01:05.472Z</time>
      </trkpt>
      <trkpt lat="4.87349" lon="-74.07696">
        <ele>2625.4</ele>
        <time>2019-07-29T17:01:06.472Z</time>
      </trkpt>
      <trkpt lat="4.873561" lon="-74.077044">
        <ele>2625.8</ele>
        <time>2019-07-29T17:01:07.472Z</time>
      </trkpt>
      <trkpt lat="4.873608" lon="-74.077094">
        <ele>2626.4</ele>
        <time>2019-07-29T17:01:08.472Z</time>
      </trkpt>
      <trkpt lat="4.87368" lon="-74.077157">
        <ele>2626.4</ele>
        <time>2019-07-29T17:01:09.472Z</time>
      </trkpt>
      <trkpt lat="4.873774" lon="-74.077316">
        <ele>2627.4</ele>
        <time>2019-07-29T17:01:10.472Z</time>
      </trkpt>
      <trkpt lat="4.873787" lon="-74.077492">
        <ele>2628.4</ele>
        <time>2019-07-29T17:01:11.472Z</time>
      </trkpt>
      <trkpt lat="4.873783" lon="-74.077521">
        <ele>2628.6</ele>
        <time>2019-07-29T17:01:12.472Z</time>
      </trkpt>
      <trkpt lat="4.87374" lon="-74.077656">
        <ele>2629.6</ele>
        <time>2019-07-29T17:01:13.472Z</time>
      </trkpt>
      <trkpt lat="4.873648" lon="-74.077837">
        <ele>2630.8</ele>
        <time>2019-07-29T17:01:14.472Z</time>
      </trkpt>
      <trkpt lat="4.873632" lon="-74.077865">
        <ele>2631.2</ele>
        <time>2019-07-29T17:01:15.472Z</time>
      </trkpt>
      <trkpt lat="4.873587" lon="-74.07798">
        <ele>2631.8</ele>
        <time>2019-07-29T17:01:16.472Z</time>
      </trkpt>
      <trkpt lat="4.873521" lon="-74.078133">
        <ele>2632.8</ele>
        <time>2019-07-29T17:01:17.472Z</time>
      </trkpt>
      <trkpt lat="4.873508" lon="-74.078161">
        <ele>2633</ele>
        <time>2019-07-29T17:01:18.472Z</time>
      </trkpt>
      <trkpt lat="4.873403" lon="-74.078346">
        <ele>2634</ele>
        <time>2019-07-29T17:01:19.472Z</time>
      </trkpt>
      <trkpt lat="4.873226" lon="-74.078467">
        <ele>2634.6</ele>
        <time>2019-07-29T17:01:20.472Z</time>
      </trkpt>
      <trkpt lat="4.87311" lon="-74.078502">
        <ele>2635.2</ele>
        <time>2019-07-29T17:01:21.472Z</time>
      </trkpt>
      <trkpt lat="4.873018" lon="-74.078515">
        <ele>2635.4</ele>
        <time>2019-07-29T17:01:22.472Z</time>
      </trkpt>
      <trkpt lat="4.872888" lon="-74.07853">
        <ele>2636.2</ele>
        <time>2019-07-29T17:01:23.472Z</time>
      </trkpt>
      <trkpt lat="4.872791" lon="-74.078517">
        <ele>2636.8</ele>
        <time>2019-07-29T17:01:24.472Z</time>
      </trkpt>
      <trkpt lat="4.872729" lon="-74.078498">
        <ele>2637.2</ele>
        <time>2019-07-29T17:01:25.472Z</time>
      </trkpt>
      <trkpt lat="4.872573" lon="-74.078422">
        <ele>2638.2</ele>
        <time>2019-07-29T17:01:26.472Z</time>
      </trkpt>
      <trkpt lat="4.872545" lon="-74.078399">
        <ele>2638.2</ele>
        <time>2019-07-29T17:01:27.472Z</time>
      </trkpt>
      <trkpt lat="4.872352" lon="-74.078196">
        <ele>2639</ele>
        <time>2019-07-29T17:01:28.472Z</time>
      </trkpt>
      <trkpt lat="4.872287" lon="-74.078112">
        <ele>2639.2</ele>
        <time>2019-07-29T17:01:29.472Z</time>
      </trkpt>
      <trkpt lat="4.872203" lon="-74.078055">
        <ele>2640</ele>
        <time>2019-07-29T17:01:30.472Z</time>
      </trkpt>
      <trkpt lat="4.872015" lon="-74.078011">
        <ele>2640</ele>
        <time>2019-07-29T17:01:31.472Z</time>
      </trkpt>
      <trkpt lat="4.871818" lon="-74.078061">
        <ele>2640</ele>
        <time>2019-07-29T17:01:32.472Z</time>
      </trkpt>
      <trkpt lat="4.871767" lon="-74.078103">
        <ele>2640.4</ele>
        <time>2019-07-29T17:01:33.472Z</time>
      </trkpt>
      <trkpt lat="4.871696" lon="-74.078171">
        <ele>2641.6</ele>
        <time>2019-07-29T17:01:34.472Z</time>
      </trkpt>
      <trkpt lat="4.871641" lon="-74.078209">
        <ele>2641.8</ele>
        <time>2019-07-29T17:01:35.472Z</time>
      </trkpt>
      <trkpt lat="4.871396" lon="-74.07834">
        <ele>2642.2</ele>
        <time>2019-07-29T17:01:36.472Z</time>
      </trkpt>
      <trkpt lat="4.871057" lon="-74.078387">
        <ele>2642.4</ele>
        <time>2019-07-29T17:01:37.472Z</time>
      </trkpt>
      <trkpt lat="4.870936" lon="-74.078407">
        <ele>2642.8</ele>
        <time>2019-07-29T17:01:38.472Z</time>
      </trkpt>
      <trkpt lat="4.870722" lon="-74.078491">
        <ele>2643.8</ele>
        <time>2019-07-29T17:01:39.472Z</time>
      </trkpt>
      <trkpt lat="4.870687" lon="-74.07851">
        <ele>2644</ele>
        <time>2019-07-29T17:01:40.472Z</time>
      </trkpt>
      <trkpt lat="4.870652" lon="-74.078532">
        <ele>2644.2</ele>
        <time>2019-07-29T17:01:41.472Z</time>
      </trkpt>
      <trkpt lat="4.870476" lon="-74.07865">
        <ele>2644.4</ele>
        <time>2019-07-29T17:01:42.472Z</time>
      </trkpt>
      <trkpt lat="4.870297" lon="-74.078779">
        <ele>2644</ele>
        <time>2019-07-29T17:01:43.472Z</time>
      </trkpt>
      <trkpt lat="4.870271" lon="-74.078813">
        <ele>2644</ele>
        <time>2019-07-29T17:01:44.472Z</time>
      </trkpt>
      <trkpt lat="4.870249" lon="-74.078849">
        <ele>2644</ele>
        <time>2019-07-29T17:01:45.472Z</time>
      </trkpt>
      <trkpt lat="4.870171" lon="-74.079">
        <ele>2645.4</ele>
        <time>2019-07-29T17:01:46.472Z</time>
      </trkpt>
      <trkpt lat="4.870142" lon="-74.079079">
        <ele>2645.6</ele>
        <time>2019-07-29T17:01:47.472Z</time>
      </trkpt>
      <trkpt lat="4.870099" lon="-74.079194">
        <ele>2645.6</ele>
        <time>2019-07-29T17:01:48.472Z</time>
      </trkpt>
      <trkpt lat="4.870051" lon="-74.079259">
        <ele>2645.4</ele>
        <time>2019-07-29T17:01:49.472Z</time>
      </trkpt>
      <trkpt lat="4.869895" lon="-74.079344">
        <ele>2645.4</ele>
        <time>2019-07-29T17:01:50.472Z</time>
      </trkpt>
      <trkpt lat="4.869737" lon="-74.079347">
        <ele>2646.6</ele>
        <time>2019-07-29T17:01:51.472Z</time>
      </trkpt>
      <trkpt lat="4.869695" lon="-74.07934">
        <ele>2647</ele>
        <time>2019-07-29T17:01:52.472Z</time>
      </trkpt>
      <trkpt lat="4.869615" lon="-74.079323">
        <ele>2647.8</ele>
        <time>2019-07-29T17:01:53.472Z</time>
      </trkpt>
      <trkpt lat="4.869411" lon="-74.079281">
        <ele>2649</ele>
        <time>2019-07-29T17:01:54.472Z</time>
      </trkpt>
      <trkpt lat="4.869369" lon="-74.079275">
        <ele>2649.2</ele>
        <time>2019-07-29T17:01:55.472Z</time>
      </trkpt>
      <trkpt lat="4.869221" lon="-74.079277">
        <ele>2650</ele>
        <time>2019-07-29T17:01:56.472Z</time>
      </trkpt>
      <trkpt lat="4.869046" lon="-74.079284">
        <ele>2650.6</ele>
        <time>2019-07-29T17:01:57.472Z</time>
      </trkpt>
      <trkpt lat="4.868912" lon="-74.079303">
        <ele>2651.2</ele>
        <time>2019-07-29T17:01:58.472Z</time>
      </trkpt>
      <trkpt lat="4.868853" lon="-74.079324">
        <ele>2651.6</ele>
        <time>2019-07-29T17:01:59.472Z</time>
      </trkpt>
      <trkpt lat="4.868773" lon="-74.079355">
        <ele>2652.2</ele>
        <time>2019-07-29T17:02:00.472Z</time>
      </trkpt>
      <trkpt lat="4.868703" lon="-74.079419">
        <ele>2652.8</ele>
        <time>2019-07-29T17:02:01.472Z</time>
      </trkpt>
      <trkpt lat="4.868664" lon="-74.079461">
        <ele>2653.4</ele>
        <time>2019-07-29T17:02:02.472Z</time>
      </trkpt>
      <trkpt lat="4.868564" lon="-74.079558">
        <ele>2654</ele>
        <time>2019-07-29T17:02:03.472Z</time>
      </trkpt>
      <trkpt lat="4.868495" lon="-74.07961">
        <ele>2654.6</ele>
        <time>2019-07-29T17:02:04.472Z</time>
      </trkpt>
      <trkpt lat="4.868423" lon="-74.079671">
        <ele>2655.2</ele>
        <time>2019-07-29T17:02:05.472Z</time>
      </trkpt>
      <trkpt lat="4.868323" lon="-74.079736">
        <ele>2655.6</ele>
        <time>2019-07-29T17:02:06.472Z</time>
      </trkpt>
      <trkpt lat="4.868256" lon="-74.07978">
        <ele>2656.2</ele>
        <time>2019-07-29T17:02:07.472Z</time>
      </trkpt>
      <trkpt lat="4.868182" lon="-74.07982">
        <ele>2656.8</ele>
        <time>2019-07-29T17:02:08.472Z</time>
      </trkpt>
      <trkpt lat="4.868136" lon="-74.079835">
        <ele>2657</ele>
        <time>2019-07-29T17:02:09.472Z</time>
      </trkpt>
      <trkpt lat="4.867995" lon="-74.079877">
        <ele>2657.8</ele>
        <time>2019-07-29T17:02:10.472Z</time>
      </trkpt>
      <trkpt lat="4.867965" lon="-74.079884">
        <ele>2658.2</ele>
        <time>2019-07-29T17:02:11.472Z</time>
      </trkpt>
      <trkpt lat="4.867841" lon="-74.079895">
        <ele>2659</ele>
        <time>2019-07-29T17:02:12.472Z</time>
      </trkpt>
      <trkpt lat="4.867781" lon="-74.079904">
        <ele>2659.2</ele>
        <time>2019-07-29T17:02:13.472Z</time>
      </trkpt>
      <trkpt lat="4.867537" lon="-74.079923">
        <ele>2660</ele>
        <time>2019-07-29T17:02:14.472Z</time>
      </trkpt>
      <trkpt lat="4.867398" lon="-74.079952">
        <ele>2660.4</ele>
        <time>2019-07-29T17:02:15.472Z</time>
      </trkpt>
      <trkpt lat="4.86729" lon="-74.079976">
        <ele>2661</ele>
        <time>2019-07-29T17:02:16.472Z</time>
      </trkpt>
      <trkpt lat="4.867168" lon="-74.079984">
        <ele>2661.8</ele>
        <time>2019-07-29T17:02:17.472Z</time>
      </trkpt>
      <trkpt lat="4.866933" lon="-74.080024">
        <ele>2662.2</ele>
        <time>2019-07-29T17:02:18.472Z</time>
      </trkpt>
      <trkpt lat="4.866695" lon="-74.080063">
        <ele>2663.2</ele>
        <time>2019-07-29T17:02:19.472Z</time>
      </trkpt>
      <trkpt lat="4.86663" lon="-74.080079">
        <ele>2663.8</ele>
        <time>2019-07-29T17:02:20.472Z</time>
      </trkpt>
      <trkpt lat="4.866372" lon="-74.080159">
        <ele>2664.6</ele>
        <time>2019-07-29T17:02:21.472Z</time>
      </trkpt>
      <trkpt lat="4.86625" lon="-74.080201">
        <ele>2665.6</ele>
        <time>2019-07-29T17:02:22.472Z</time>
      </trkpt>
      <trkpt lat="4.866065" lon="-74.080261">
        <ele>2666.2</ele>
        <time>2019-07-29T17:02:23.472Z</time>
      </trkpt>
      <trkpt lat="4.866" lon="-74.080279">
        <ele>2666.6</ele>
        <time>2019-07-29T17:02:24.472Z</time>
      </trkpt>
      <trkpt lat="4.865771" lon="-74.080346">
        <ele>2667</ele>
        <time>2019-07-29T17:02:25.472Z</time>
      </trkpt>
      <trkpt lat="4.86562" lon="-74.080402">
        <ele>2667.8</ele>
        <time>2019-07-29T17:02:26.472Z</time>
      </trkpt>
      <trkpt lat="4.865504" lon="-74.080433">
        <ele>2668.6</ele>
        <time>2019-07-29T17:02:27.472Z</time>
      </trkpt>
      <trkpt lat="4.865479" lon="-74.080447">
        <ele>2669</ele>
        <time>2019-07-29T17:02:28.472Z</time>
      </trkpt>
      <trkpt lat="4.865383" lon="-74.080512">
        <ele>2670</ele>
        <time>2019-07-29T17:02:29.472Z</time>
      </trkpt>
      <trkpt lat="4.865358" lon="-74.080523">
        <ele>2670</ele>
        <time>2019-07-29T17:02:30.472Z</time>
      </trkpt>
      <trkpt lat="4.865217" lon="-74.080542">
        <ele>2671.4</ele>
        <time>2019-07-29T17:02:31.472Z</time>
      </trkpt>
      <trkpt lat="4.865013" lon="-74.080591">
        <ele>2672.4</ele>
        <time>2019-07-29T17:02:32.472Z</time>
      </trkpt>
      <trkpt lat="4.864984" lon="-74.080602">
        <ele>2672.6</ele>
        <time>2019-07-29T17:02:33.472Z</time>
      </trkpt>
      <trkpt lat="4.864868" lon="-74.080693">
        <ele>2673.4</ele>
        <time>2019-07-29T17:02:34.472Z</time>
      </trkpt>
      <trkpt lat="4.864705" lon="-74.080829">
        <ele>2674.2</ele>
        <time>2019-07-29T17:02:35.472Z</time>
      </trkpt>
      <trkpt lat="4.864481" lon="-74.08093">
        <ele>2674.4</ele>
        <time>2019-07-29T17:02:36.472Z</time>
      </trkpt>
      <trkpt lat="4.864448" lon="-74.080943">
        <ele>2674.6</ele>
        <time>2019-07-29T17:02:37.472Z</time>
      </trkpt>
      <trkpt lat="4.864225" lon="-74.081025">
        <ele>2675.4</ele>
        <time>2019-07-29T17:02:38.472Z</time>
      </trkpt>
      <trkpt lat="4.864134" lon="-74.081071">
        <ele>2675.8</ele>
        <time>2019-07-29T17:02:39.472Z</time>
      </trkpt>
      <trkpt lat="4.864057" lon="-74.081131">
        <ele>2676.2</ele>
        <time>2019-07-29T17:02:40.472Z</time>
      </trkpt>
      <trkpt lat="4.863972" lon="-74.081186">
        <ele>2677</ele>
        <time>2019-07-29T17:02:41.472Z</time>
      </trkpt>
      <trkpt lat="4.863898" lon="-74.081279">
        <ele>2676.8</ele>
        <time>2019-07-29T17:02:42.472Z</time>
      </trkpt>
      <trkpt lat="4.86381" lon="-74.081434">
        <ele>2678.2</ele>
        <time>2019-07-29T17:02:43.472Z</time>
      </trkpt>
      <trkpt lat="4.863797" lon="-74.08146">
        <ele>2678.4</ele>
        <time>2019-07-29T17:02:44.472Z</time>
      </trkpt>
      <trkpt lat="4.863762" lon="-74.081542">
        <ele>2679.2</ele>
        <time>2019-07-29T17:02:45.472Z</time>
      </trkpt>
      <trkpt lat="4.863744" lon="-74.081648">
        <ele>2679.6</ele>
        <time>2019-07-29T17:02:46.472Z</time>
      </trkpt>
      <trkpt lat="4.863747" lon="-74.081793">
        <ele>2680.2</ele>
        <time>2019-07-29T17:02:47.472Z</time>
      </trkpt>
      <trkpt lat="4.863746" lon="-74.081851">
        <ele>2681</ele>
        <time>2019-07-29T17:02:48.472Z</time>
      </trkpt>
      <trkpt lat="4.863748" lon="-74.081908">
        <ele>2681.4</ele>
        <time>2019-07-29T17:02:49.472Z</time>
      </trkpt>
      <trkpt lat="4.86374" lon="-74.082044">
        <ele>2682.2</ele>
        <time>2019-07-29T17:02:50.472Z</time>
      </trkpt>
      <trkpt lat="4.863738" lon="-74.082071">
        <ele>2682.4</ele>
        <time>2019-07-29T17:02:51.472Z</time>
      </trkpt>
      <trkpt lat="4.863679" lon="-74.082261">
        <ele>2683</ele>
        <time>2019-07-29T17:02:52.472Z</time>
      </trkpt>
      <trkpt lat="4.863607" lon="-74.082424">
        <ele>2683.2</ele>
        <time>2019-07-29T17:02:53.472Z</time>
      </trkpt>
      <trkpt lat="4.863591" lon="-74.082451">
        <ele>2683.4</ele>
        <time>2019-07-29T17:02:54.472Z</time>
      </trkpt>
      <trkpt lat="4.863481" lon="-74.082608">
        <ele>2684</ele>
        <time>2019-07-29T17:02:55.472Z</time>
      </trkpt>
      <trkpt lat="4.863419" lon="-74.082687">
        <ele>2684.2</ele>
        <time>2019-07-29T17:02:56.472Z</time>
      </trkpt>
      <trkpt lat="4.863339" lon="-74.082857">
        <ele>2684.6</ele>
        <time>2019-07-29T17:02:57.472Z</time>
      </trkpt>
      <trkpt lat="4.863326" lon="-74.082919">
        <ele>2685.8</ele>
        <time>2019-07-29T17:02:58.472Z</time>
      </trkpt>
      <trkpt lat="4.863305" lon="-74.083128">
        <ele>2685.6</ele>
        <time>2019-07-29T17:02:59.472Z</time>
      </trkpt>
      <trkpt lat="4.863326" lon="-74.083292">
        <ele>2687</ele>
        <time>2019-07-29T17:03:00.472Z</time>
      </trkpt>
      <trkpt lat="4.863331" lon="-74.083318">
        <ele>2687.2</ele>
        <time>2019-07-29T17:03:01.472Z</time>
      </trkpt>
      <trkpt lat="4.863334" lon="-74.083421">
        <ele>2688.4</ele>
        <time>2019-07-29T17:03:02.472Z</time>
      </trkpt>
      <trkpt lat="4.863329" lon="-74.083473">
        <ele>2688.8</ele>
        <time>2019-07-29T17:03:03.472Z</time>
      </trkpt>
      <trkpt lat="4.86325" lon="-74.0836">
        <ele>2689.2</ele>
        <time>2019-07-29T17:03:04.472Z</time>
      </trkpt>
      <trkpt lat="4.86322" lon="-74.083609">
        <ele>2689.4</ele>
        <time>2019-07-29T17:03:05.472Z</time>
      </trkpt>
      <trkpt lat="4.863096" lon="-74.083618">
        <ele>2690</ele>
        <time>2019-07-29T17:03:06.472Z</time>
      </trkpt>
      <trkpt lat="4.862864" lon="-74.083603">
        <ele>2690.6</ele>
        <time>2019-07-29T17:03:07.472Z</time>
      </trkpt>
      <trkpt lat="4.862726" lon="-74.083648">
        <ele>2691.6</ele>
        <time>2019-07-29T17:03:08.472Z</time>
      </trkpt>
      <trkpt lat="4.862703" lon="-74.083658">
        <ele>2692</ele>
        <time>2019-07-29T17:03:09.472Z</time>
      </trkpt>
      <trkpt lat="4.862659" lon="-74.083686">
        <ele>2692.8</ele>
        <time>2019-07-29T17:03:10.472Z</time>
      </trkpt>
      <trkpt lat="4.862586" lon="-74.083728">
        <ele>2693</ele>
        <time>2019-07-29T17:03:11.472Z</time>
      </trkpt>
      <trkpt lat="4.862426" lon="-74.083842">
        <ele>2693.2</ele>
        <time>2019-07-29T17:03:12.472Z</time>
      </trkpt>
      <trkpt lat="4.862229" lon="-74.083871">
        <ele>2693</ele>
        <time>2019-07-29T17:03:13.472Z</time>
      </trkpt>
      <trkpt lat="4.862093" lon="-74.083891">
        <ele>2693.8</ele>
        <time>2019-07-29T17:03:14.472Z</time>
      </trkpt>
      <trkpt lat="4.862065" lon="-74.083889">
        <ele>2694</ele>
        <time>2019-07-29T17:03:15.472Z</time>
      </trkpt>
      <trkpt lat="4.861915" lon="-74.083869">
        <ele>2695</ele>
        <time>2019-07-29T17:03:16.472Z</time>
      </trkpt>
      <trkpt lat="4.861887" lon="-74.083861">
        <ele>2695</ele>
        <time>2019-07-29T17:03:17.472Z</time>
      </trkpt>
      <trkpt lat="4.861705" lon="-74.083849">
        <ele>2695.4</ele>
        <time>2019-07-29T17:03:18.472Z</time>
      </trkpt>
      <trkpt lat="4.861471" lon="-74.083879">
        <ele>2695.8</ele>
        <time>2019-07-29T17:03:19.472Z</time>
      </trkpt>
      <trkpt lat="4.861446" lon="-74.083892">
        <ele>2696.2</ele>
        <time>2019-07-29T17:03:20.472Z</time>
      </trkpt>
      <trkpt lat="4.861286" lon="-74.083987">
        <ele>2696.8</ele>
        <time>2019-07-29T17:03:21.472Z</time>
      </trkpt>
      <trkpt lat="4.861202" lon="-74.084031">
        <ele>2697.6</ele>
        <time>2019-07-29T17:03:22.472Z</time>
      </trkpt>
      <trkpt lat="4.861083" lon="-74.08409">
        <ele>2698.6</ele>
        <time>2019-07-29T17:03:23.472Z</time>
      </trkpt>
      <trkpt lat="4.860997" lon="-74.084134">
        <ele>2699</ele>
        <time>2019-07-29T17:03:24.472Z</time>
      </trkpt>
      <trkpt lat="4.860886" lon="-74.084191">
        <ele>2699.6</ele>
        <time>2019-07-29T17:03:25.472Z</time>
      </trkpt>
      <trkpt lat="4.860784" lon="-74.084255">
        <ele>2699.8</ele>
        <time>2019-07-29T17:03:26.472Z</time>
      </trkpt>
      <trkpt lat="4.860688" lon="-74.084333">
        <ele>2700.6</ele>
        <time>2019-07-29T17:03:27.472Z</time>
      </trkpt>
      <trkpt lat="4.860619" lon="-74.084381">
        <ele>2701.8</ele>
        <time>2019-07-29T17:03:28.472Z</time>
      </trkpt>
      <trkpt lat="4.860596" lon="-74.084392">
        <ele>2702.2</ele>
        <time>2019-07-29T17:03:29.472Z</time>
      </trkpt>
      <trkpt lat="4.860515" lon="-74.084403">
        <ele>2703.2</ele>
        <time>2019-07-29T17:03:30.472Z</time>
      </trkpt>
      <trkpt lat="4.86046" lon="-74.084395">
        <ele>2703.4</ele>
        <time>2019-07-29T17:03:31.472Z</time>
      </trkpt>
      <trkpt lat="4.860322" lon="-74.084326">
        <ele>2704</ele>
        <time>2019-07-29T17:03:32.472Z</time>
      </trkpt>
      <trkpt lat="4.860264" lon="-74.084294">
        <ele>2704.2</ele>
        <time>2019-07-29T17:03:33.472Z</time>
      </trkpt>
      <trkpt lat="4.860115" lon="-74.084197">
        <ele>2704.8</ele>
        <time>2019-07-29T17:03:34.472Z</time>
      </trkpt>
      <trkpt lat="4.859939" lon="-74.084063">
        <ele>2704.6</ele>
        <time>2019-07-29T17:03:35.472Z</time>
      </trkpt>
      <trkpt lat="4.859815" lon="-74.083966">
        <ele>2705.2</ele>
        <time>2019-07-29T17:03:36.472Z</time>
      </trkpt>
      <trkpt lat="4.859769" lon="-74.083925">
        <ele>2706</ele>
        <time>2019-07-29T17:03:37.472Z</time>
      </trkpt>
      <trkpt lat="4.859735" lon="-74.08388">
        <ele>2706.4</ele>
        <time>2019-07-29T17:03:38.472Z</time>
      </trkpt>
      <trkpt lat="4.859711" lon="-74.08378">
        <ele>2706.4</ele>
        <time>2019-07-29T17:03:39.472Z</time>
      </trkpt>
      <trkpt lat="4.859753" lon="-74.083597">
        <ele>2707.2</ele>
        <time>2019-07-29T17:03:40.472Z</time>
      </trkpt>
      <trkpt lat="4.85976" lon="-74.083572">
        <ele>2707.8</ele>
        <time>2019-07-29T17:03:41.472Z</time>
      </trkpt>
      <trkpt lat="4.85978" lon="-74.083496">
        <ele>2708.8</ele>
        <time>2019-07-29T17:03:42.472Z</time>
      </trkpt>
      <trkpt lat="4.859771" lon="-74.083396">
        <ele>2709</ele>
        <time>2019-07-29T17:03:43.472Z</time>
      </trkpt>
      <trkpt lat="4.859734" lon="-74.083296">
        <ele>2710</ele>
        <time>2019-07-29T17:03:44.472Z</time>
      </trkpt>
      <trkpt lat="4.859669" lon="-74.083253">
        <ele>2711.2</ele>
        <time>2019-07-29T17:03:45.472Z</time>
      </trkpt>
      <trkpt lat="4.859561" lon="-74.08324">
        <ele>2712.2</ele>
        <time>2019-07-29T17:03:46.472Z</time>
      </trkpt>
      <trkpt lat="4.85948" lon="-74.083239">
        <ele>2712.8</ele>
        <time>2019-07-29T17:03:47.472Z</time>
      </trkpt>
      <trkpt lat="4.859352" lon="-74.083256">
        <ele>2713.2</ele>
        <time>2019-07-29T17:03:48.472Z</time>
      </trkpt>
      <trkpt lat="4.859328" lon="-74.083263">
        <ele>2713.6</ele>
        <time>2019-07-29T17:03:49.472Z</time>
      </trkpt>
      <trkpt lat="4.859259" lon="-74.083292">
        <ele>2714.4</ele>
        <time>2019-07-29T17:03:50.472Z</time>
      </trkpt>
      <trkpt lat="4.859206" lon="-74.083348">
        <ele>2715.2</ele>
        <time>2019-07-29T17:03:51.472Z</time>
      </trkpt>
      <trkpt lat="4.859175" lon="-74.083391">
        <ele>2715.6</ele>
        <time>2019-07-29T17:03:52.472Z</time>
      </trkpt>
      <trkpt lat="4.859135" lon="-74.083541">
        <ele>2716.2</ele>
        <time>2019-07-29T17:03:53.472Z</time>
      </trkpt>
      <trkpt lat="4.859158" lon="-74.083644">
        <ele>2716.6</ele>
        <time>2019-07-29T17:03:54.472Z</time>
      </trkpt>
      <trkpt lat="4.859186" lon="-74.083696">
        <ele>2716.6</ele>
        <time>2019-07-29T17:03:55.472Z</time>
      </trkpt>
      <trkpt lat="4.859337" lon="-74.083822">
        <ele>2717</ele>
        <time>2019-07-29T17:03:56.472Z</time>
      </trkpt>
      <trkpt lat="4.859465" lon="-74.083908">
        <ele>2717.8</ele>
        <time>2019-07-29T17:03:57.472Z</time>
      </trkpt>
      <trkpt lat="4.859507" lon="-74.083939">
        <ele>2718</ele>
        <time>2019-07-29T17:03:58.472Z</time>
      </trkpt>
      <trkpt lat="4.85963" lon="-74.084057">
        <ele>2718.4</ele>
        <time>2019-07-29T17:03:59.472Z</time>
      </trkpt>
      <trkpt lat="4.859703" lon="-74.084147">
        <ele>2719</ele>
        <time>2019-07-29T17:04:00.472Z</time>
      </trkpt>
      <trkpt lat="4.859818" lon="-74.084282">
        <ele>2719.6</ele>
        <time>2019-07-29T17:04:01.472Z</time>
      </trkpt>
      <trkpt lat="4.859893" lon="-74.084327">
        <ele>2720</ele>
        <time>2019-07-29T17:04:02.472Z</time>
      </trkpt>
      <trkpt lat="4.859947" lon="-74.084348">
        <ele>2720.6</ele>
        <time>2019-07-29T17:04:03.472Z</time>
      </trkpt>
      <trkpt lat="4.86007" lon="-74.084409">
        <ele>2721.2</ele>
        <time>2019-07-29T17:04:04.472Z</time>
      </trkpt>
      <trkpt lat="4.86013" lon="-74.08446">
        <ele>2722.4</ele>
        <time>2019-07-29T17:04:05.472Z</time>
      </trkpt>
      <trkpt lat="4.860144" lon="-74.08448">
        <ele>2722.8</ele>
        <time>2019-07-29T17:04:06.472Z</time>
      </trkpt>
      <trkpt lat="4.860185" lon="-74.08454">
        <ele>2723.4</ele>
        <time>2019-07-29T17:04:07.472Z</time>
      </trkpt>
      <trkpt lat="4.860225" lon="-74.084625">
        <ele>2724.2</ele>
        <time>2019-07-29T17:04:08.472Z</time>
      </trkpt>
      <trkpt lat="4.860265" lon="-74.084692">
        <ele>2724.6</ele>
        <time>2019-07-29T17:04:09.472Z</time>
      </trkpt>
      <trkpt lat="4.860295" lon="-74.084732">
        <ele>2725.6</ele>
        <time>2019-07-29T17:04:10.472Z</time>
      </trkpt>
      <trkpt lat="4.860326" lon="-74.084773">
        <ele>2726</ele>
        <time>2019-07-29T17:04:11.472Z</time>
      </trkpt>
      <trkpt lat="4.860441" lon="-74.084822">
        <ele>2725.8</ele>
        <time>2019-07-29T17:04:12.472Z</time>
      </trkpt>
      <trkpt lat="4.860515" lon="-74.084825">
        <ele>2727</ele>
        <time>2019-07-29T17:04:13.472Z</time>
      </trkpt>
      <trkpt lat="4.860589" lon="-74.084819">
        <ele>2727.4</ele>
        <time>2019-07-29T17:04:14.472Z</time>
      </trkpt>
      <trkpt lat="4.860674" lon="-74.084792">
        <ele>2728</ele>
        <time>2019-07-29T17:04:15.472Z</time>
      </trkpt>
      <trkpt lat="4.860744" lon="-74.084765">
        <ele>2728.6</ele>
        <time>2019-07-29T17:04:16.472Z</time>
      </trkpt>
      <trkpt lat="4.860808" lon="-74.08473">
        <ele>2729</ele>
        <time>2019-07-29T17:04:17.472Z</time>
      </trkpt>
      <trkpt lat="4.860871" lon="-74.084687">
        <ele>2729.2</ele>
        <time>2019-07-29T17:04:18.472Z</time>
      </trkpt>
      <trkpt lat="4.861058" lon="-74.084592">
        <ele>2730</ele>
        <time>2019-07-29T17:04:19.472Z</time>
      </trkpt>
      <trkpt lat="4.86109" lon="-74.084588">
        <ele>2730.2</ele>
        <time>2019-07-29T17:04:20.472Z</time>
      </trkpt>
      <trkpt lat="4.861263" lon="-74.084582">
        <ele>2730.6</ele>
        <time>2019-07-29T17:04:21.472Z</time>
      </trkpt>
      <trkpt lat="4.861385" lon="-74.084585">
        <ele>2729</ele>
        <time>2019-07-29T17:04:22.472Z</time>
      </trkpt>
      <trkpt lat="4.861703" lon="-74.084593">
        <ele>2730.4</ele>
        <time>2019-07-29T17:04:23.472Z</time>
      </trkpt>
      <trkpt lat="4.861741" lon="-74.084594">
        <ele>2731</ele>
        <time>2019-07-29T17:04:24.472Z</time>
      </trkpt>
      <trkpt lat="4.861856" lon="-74.084596">
        <ele>2731.4</ele>
        <time>2019-07-29T17:04:25.472Z</time>
      </trkpt>
      <trkpt lat="4.862087" lon="-74.084604">
        <ele>2731.4</ele>
        <time>2019-07-29T17:04:26.472Z</time>
      </trkpt>
      <trkpt lat="4.862196" lon="-74.084611">
        <ele>2732.6</ele>
        <time>2019-07-29T17:04:27.472Z</time>
      </trkpt>
      <trkpt lat="4.862419" lon="-74.084589">
        <ele>2733.6</ele>
        <time>2019-07-29T17:04:28.472Z</time>
      </trkpt>
      <trkpt lat="4.862628" lon="-74.084531">
        <ele>2735</ele>
        <time>2019-07-29T17:04:29.472Z</time>
      </trkpt>
      <trkpt lat="4.862662" lon="-74.084523">
        <ele>2735.4</ele>
        <time>2019-07-29T17:04:30.472Z</time>
      </trkpt>
      <trkpt lat="4.862731" lon="-74.084509">
        <ele>2736</ele>
        <time>2019-07-29T17:04:31.472Z</time>
      </trkpt>
      <trkpt lat="4.862935" lon="-74.084479">
        <ele>2737.4</ele>
        <time>2019-07-29T17:04:32.472Z</time>
      </trkpt>
      <trkpt lat="4.863004" lon="-74.08447">
        <ele>2738.2</ele>
        <time>2019-07-29T17:04:33.472Z</time>
      </trkpt>
      <trkpt lat="4.863039" lon="-74.084466">
        <ele>2738.6</ele>
        <time>2019-07-29T17:04:34.472Z</time>
      </trkpt>
      <trkpt lat="4.863212" lon="-74.084445">
        <ele>2739.8</ele>
        <time>2019-07-29T17:04:35.472Z</time>
      </trkpt>
      <trkpt lat="4.86328" lon="-74.084438">
        <ele>2740.6</ele>
        <time>2019-07-29T17:04:36.472Z</time>
      </trkpt>
      <trkpt lat="4.863315" lon="-74.084434">
        <ele>2741</ele>
        <time>2019-07-29T17:04:37.472Z</time>
      </trkpt>
      <trkpt lat="4.863485" lon="-74.084416">
        <ele>2742</ele>
        <time>2019-07-29T17:04:38.472Z</time>
      </trkpt>
      <trkpt lat="4.863618" lon="-74.084398">
        <ele>2742.4</ele>
        <time>2019-07-29T17:04:39.472Z</time>
      </trkpt>
      <trkpt lat="4.863808" lon="-74.084383">
        <ele>2743.2</ele>
        <time>2019-07-29T17:04:40.472Z</time>
      </trkpt>
      <trkpt lat="4.863892" lon="-74.084376">
        <ele>2744</ele>
        <time>2019-07-29T17:04:41.472Z</time>
      </trkpt>
      <trkpt lat="4.863921" lon="-74.084377">
        <ele>2744.2</ele>
        <time>2019-07-29T17:04:42.472Z</time>
      </trkpt>
      <trkpt lat="4.864045" lon="-74.08442">
        <ele>2745.2</ele>
        <time>2019-07-29T17:04:43.472Z</time>
      </trkpt>
      <trkpt lat="4.864068" lon="-74.084425">
        <ele>2745.6</ele>
        <time>2019-07-29T17:04:44.472Z</time>
      </trkpt>
      <trkpt lat="4.864158" lon="-74.084447">
        <ele>2746.2</ele>
        <time>2019-07-29T17:04:45.472Z</time>
      </trkpt>
      <trkpt lat="4.864174" lon="-74.084448">
        <ele>2746.4</ele>
        <time>2019-07-29T17:04:46.472Z</time>
      </trkpt>
      <trkpt lat="4.864174" lon="-74.084435">
        <ele>2746.4</ele>
        <time>2019-07-29T17:04:47.472Z</time>
      </trkpt>
      <trkpt lat="4.864163" lon="-74.084437">
        <ele>2746.6</ele>
        <time>2019-07-29T17:04:48.472Z</time>
      </trkpt>
      <trkpt lat="4.864091" lon="-74.084441">
        <ele>2745.8</ele>
        <time>2019-07-29T17:04:49.472Z</time>
      </trkpt>
      <trkpt lat="4.86406" lon="-74.084434">
        <ele>2745.4</ele>
        <time>2019-07-29T17:04:50.472Z</time>
      </trkpt>
      <trkpt lat="4.86394" lon="-74.084408">
        <ele>2744.8</ele>
        <time>2019-07-29T17:04:51.472Z</time>
      </trkpt>
      <trkpt lat="4.863894" lon="-74.084405">
        <ele>2744.2</ele>
        <time>2019-07-29T17:04:52.472Z</time>
      </trkpt>
      <trkpt lat="4.863847" lon="-74.084406">
        <ele>2743.8</ele>
        <time>2019-07-29T17:04:53.472Z</time>
      </trkpt>
      <trkpt lat="4.863798" lon="-74.084411">
        <ele>2743.2</ele>
        <time>2019-07-29T17:04:54.472Z</time>
      </trkpt>
      <trkpt lat="4.863695" lon="-74.084421">
        <ele>2742.2</ele>
        <time>2019-07-29T17:04:55.472Z</time>
      </trkpt>
      <trkpt lat="4.863582" lon="-74.084427">
        <ele>2741.4</ele>
        <time>2019-07-29T17:04:56.472Z</time>
      </trkpt>
      <trkpt lat="4.863524" lon="-74.084434">
        <ele>2741</ele>
        <time>2019-07-29T17:04:57.472Z</time>
      </trkpt>
      <trkpt lat="4.863338" lon="-74.084449">
        <ele>2740</ele>
        <time>2019-07-29T17:04:58.472Z</time>
      </trkpt>
      <trkpt lat="4.863205" lon="-74.084464">
        <ele>2739.4</ele>
        <time>2019-07-29T17:04:59.472Z</time>
      </trkpt>
      <trkpt lat="4.863134" lon="-74.084474">
        <ele>2738.8</ele>
        <time>2019-07-29T17:05:00.472Z</time>
      </trkpt>
      <trkpt lat="4.863064" lon="-74.084485">
        <ele>2737.6</ele>
        <time>2019-07-29T17:05:01.472Z</time>
      </trkpt>
      <trkpt lat="4.862751" lon="-74.084511">
        <ele>2736</ele>
        <time>2019-07-29T17:05:02.472Z</time>
      </trkpt>
      <trkpt lat="4.862439" lon="-74.084592">
        <ele>2734.6</ele>
        <time>2019-07-29T17:05:03.472Z</time>
      </trkpt>
      <trkpt lat="4.862353" lon="-74.084613">
        <ele>2733.6</ele>
        <time>2019-07-29T17:05:04.472Z</time>
      </trkpt>
      <trkpt lat="4.862268" lon="-74.084624">
        <ele>2732.6</ele>
        <time>2019-07-29T17:05:05.472Z</time>
      </trkpt>
      <trkpt lat="4.86218" lon="-74.084625">
        <ele>2731.8</ele>
        <time>2019-07-29T17:05:06.472Z</time>
      </trkpt>
      <trkpt lat="4.862089" lon="-74.084621">
        <ele>2731</ele>
        <time>2019-07-29T17:05:07.472Z</time>
      </trkpt>
      <trkpt lat="4.861995" lon="-74.084618">
        <ele>2730</ele>
        <time>2019-07-29T17:05:08.472Z</time>
      </trkpt>
      <trkpt lat="4.861899" lon="-74.084615">
        <ele>2729.4</ele>
        <time>2019-07-29T17:05:09.472Z</time>
      </trkpt>
      <trkpt lat="4.861802" lon="-74.084611">
        <ele>2729</ele>
        <time>2019-07-29T17:05:10.472Z</time>
      </trkpt>
      <trkpt lat="4.861504" lon="-74.084603">
        <ele>2727.8</ele>
        <time>2019-07-29T17:05:11.472Z</time>
      </trkpt>
      <trkpt lat="4.861306" lon="-74.084597">
        <ele>2726</ele>
        <time>2019-07-29T17:05:12.472Z</time>
      </trkpt>
      <trkpt lat="4.861121" lon="-74.084587">
        <ele>2724</ele>
        <time>2019-07-29T17:05:13.472Z</time>
      </trkpt>
      <trkpt lat="4.861034" lon="-74.084594">
        <ele>2723.2</ele>
        <time>2019-07-29T17:05:14.472Z</time>
      </trkpt>
      <trkpt lat="4.860953" lon="-74.084617">
        <ele>2722.8</ele>
        <time>2019-07-29T17:05:15.472Z</time>
      </trkpt>
      <trkpt lat="4.860731" lon="-74.084733">
        <ele>2722.2</ele>
        <time>2019-07-29T17:05:16.472Z</time>
      </trkpt>
      <trkpt lat="4.860654" lon="-74.084767">
        <ele>2722.2</ele>
        <time>2019-07-29T17:05:17.472Z</time>
      </trkpt>
      <trkpt lat="4.860499" lon="-74.084808">
        <ele>2722.6</ele>
        <time>2019-07-29T17:05:18.472Z</time>
      </trkpt>
      <trkpt lat="4.860362" lon="-74.084808">
        <ele>2722.2</ele>
        <time>2019-07-29T17:05:19.472Z</time>
      </trkpt>
      <trkpt lat="4.860253" lon="-74.084727">
        <ele>2721.2</ele>
        <time>2019-07-29T17:05:20.472Z</time>
      </trkpt>
      <trkpt lat="4.860208" lon="-74.084663">
        <ele>2720.2</ele>
        <time>2019-07-29T17:05:21.472Z</time>
      </trkpt>
      <trkpt lat="4.860163" lon="-74.084599">
        <ele>2719.6</ele>
        <time>2019-07-29T17:05:22.472Z</time>
      </trkpt>
      <trkpt lat="4.860081" lon="-74.084467">
        <ele>2717.2</ele>
        <time>2019-07-29T17:05:23.472Z</time>
      </trkpt>
      <trkpt lat="4.860031" lon="-74.084411">
        <ele>2716.2</ele>
        <time>2019-07-29T17:05:24.472Z</time>
      </trkpt>
      <trkpt lat="4.859969" lon="-74.084368">
        <ele>2715.4</ele>
        <time>2019-07-29T17:05:25.472Z</time>
      </trkpt>
      <trkpt lat="4.859896" lon="-74.084337">
        <ele>2715</ele>
        <time>2019-07-29T17:05:26.472Z</time>
      </trkpt>
      <trkpt lat="4.859754" lon="-74.084245">
        <ele>2714.2</ele>
        <time>2019-07-29T17:05:27.472Z</time>
      </trkpt>
      <trkpt lat="4.859695" lon="-74.08418">
        <ele>2713.8</ele>
        <time>2019-07-29T17:05:28.472Z</time>
      </trkpt>
      <trkpt lat="4.859513" lon="-74.083979">
        <ele>2712.6</ele>
        <time>2019-07-29T17:05:29.472Z</time>
      </trkpt>
      <trkpt lat="4.859369" lon="-74.083862">
        <ele>2711.6</ele>
        <time>2019-07-29T17:05:30.472Z</time>
      </trkpt>
      <trkpt lat="4.859298" lon="-74.083817">
        <ele>2711.4</ele>
        <time>2019-07-29T17:05:31.472Z</time>
      </trkpt>
      <trkpt lat="4.859237" lon="-74.083773">
        <ele>2711.2</ele>
        <time>2019-07-29T17:05:32.472Z</time>
      </trkpt>
      <trkpt lat="4.859147" lon="-74.083668">
        <ele>2710.4</ele>
        <time>2019-07-29T17:05:33.472Z</time>
      </trkpt>
      <trkpt lat="4.859122" lon="-74.083605">
        <ele>2710</ele>
        <time>2019-07-29T17:05:34.472Z</time>
      </trkpt>
      <trkpt lat="4.859112" lon="-74.083537">
        <ele>2710</ele>
        <time>2019-07-29T17:05:35.472Z</time>
      </trkpt>
      <trkpt lat="4.859145" lon="-74.083407">
        <ele>2709.4</ele>
        <time>2019-07-29T17:05:36.472Z</time>
      </trkpt>
      <trkpt lat="4.859229" lon="-74.08331">
        <ele>2707.6</ele>
        <time>2019-07-29T17:05:37.472Z</time>
      </trkpt>
      <trkpt lat="4.859273" lon="-74.08328">
        <ele>2707</ele>
        <time>2019-07-29T17:05:38.472Z</time>
      </trkpt>
      <trkpt lat="4.859322" lon="-74.083256">
        <ele>2706.2</ele>
        <time>2019-07-29T17:05:39.472Z</time>
      </trkpt>
      <trkpt lat="4.85942" lon="-74.083218">
        <ele>2705.6</ele>
        <time>2019-07-29T17:05:40.472Z</time>
      </trkpt>
      <trkpt lat="4.859478" lon="-74.083213">
        <ele>2704.8</ele>
        <time>2019-07-29T17:05:41.472Z</time>
      </trkpt>
      <trkpt lat="4.859612" lon="-74.083222">
        <ele>2703.4</ele>
        <time>2019-07-29T17:05:42.472Z</time>
      </trkpt>
      <trkpt lat="4.859672" lon="-74.083238">
        <ele>2702.8</ele>
        <time>2019-07-29T17:05:43.472Z</time>
      </trkpt>
      <trkpt lat="4.859726" lon="-74.083275">
        <ele>2702.4</ele>
        <time>2019-07-29T17:05:44.472Z</time>
      </trkpt>
      <trkpt lat="4.859764" lon="-74.083327">
        <ele>2702.2</ele>
        <time>2019-07-29T17:05:45.472Z</time>
      </trkpt>
      <trkpt lat="4.85979" lon="-74.083461">
        <ele>2701.6</ele>
        <time>2019-07-29T17:05:46.472Z</time>
      </trkpt>
      <trkpt lat="4.859782" lon="-74.083534">
        <ele>2701</ele>
        <time>2019-07-29T17:05:47.472Z</time>
      </trkpt>
      <trkpt lat="4.85976" lon="-74.083607">
        <ele>2700.4</ele>
        <time>2019-07-29T17:05:48.472Z</time>
      </trkpt>
      <trkpt lat="4.859738" lon="-74.083683">
        <ele>2699.4</ele>
        <time>2019-07-29T17:05:49.472Z</time>
      </trkpt>
      <trkpt lat="4.859734" lon="-74.083757">
        <ele>2698.8</ele>
        <time>2019-07-29T17:05:50.472Z</time>
      </trkpt>
      <trkpt lat="4.859752" lon="-74.083821">
        <ele>2697.8</ele>
        <time>2019-07-29T17:05:51.472Z</time>
      </trkpt>
      <trkpt lat="4.859793" lon="-74.083878">
        <ele>2696.8</ele>
        <time>2019-07-29T17:05:52.472Z</time>
      </trkpt>
      <trkpt lat="4.859848" lon="-74.083926">
        <ele>2695.6</ele>
        <time>2019-07-29T17:05:53.472Z</time>
      </trkpt>
      <trkpt lat="4.859907" lon="-74.083972">
        <ele>2695</ele>
        <time>2019-07-29T17:05:54.472Z</time>
      </trkpt>
      <trkpt lat="4.85997" lon="-74.084016">
        <ele>2694.6</ele>
        <time>2019-07-29T17:05:55.472Z</time>
      </trkpt>
      <trkpt lat="4.86016" lon="-74.08413">
        <ele>2692.6</ele>
        <time>2019-07-29T17:05:56.472Z</time>
      </trkpt>
      <trkpt lat="4.860222" lon="-74.084168">
        <ele>2691.8</ele>
        <time>2019-07-29T17:05:57.472Z</time>
      </trkpt>
      <trkpt lat="4.860283" lon="-74.084213">
        <ele>2691.6</ele>
        <time>2019-07-29T17:05:58.472Z</time>
      </trkpt>
      <trkpt lat="4.860405" lon="-74.08431">
        <ele>2691.6</ele>
        <time>2019-07-29T17:05:59.472Z</time>
      </trkpt>
      <trkpt lat="4.860481" lon="-74.084341">
        <ele>2691.4</ele>
        <time>2019-07-29T17:06:00.472Z</time>
      </trkpt>
      <trkpt lat="4.860571" lon="-74.084357">
        <ele>2691.4</ele>
        <time>2019-07-29T17:06:01.472Z</time>
      </trkpt>
      <trkpt lat="4.860731" lon="-74.084306">
        <ele>2691</ele>
        <time>2019-07-29T17:06:02.472Z</time>
      </trkpt>
      <trkpt lat="4.86079" lon="-74.084247">
        <ele>2690.2</ele>
        <time>2019-07-29T17:06:03.472Z</time>
      </trkpt>
      <trkpt lat="4.86093" lon="-74.084135">
        <ele>2688.8</ele>
        <time>2019-07-29T17:06:04.472Z</time>
      </trkpt>
      <trkpt lat="4.861017" lon="-74.084085">
        <ele>2688</ele>
        <time>2019-07-29T17:06:05.472Z</time>
      </trkpt>
      <trkpt lat="4.861108" lon="-74.084039">
        <ele>2686.8</ele>
        <time>2019-07-29T17:06:06.472Z</time>
      </trkpt>
      <trkpt lat="4.861202" lon="-74.083997">
        <ele>2685.4</ele>
        <time>2019-07-29T17:06:07.472Z</time>
      </trkpt>
      <trkpt lat="4.861385" lon="-74.083918">
        <ele>2684</ele>
        <time>2019-07-29T17:06:08.472Z</time>
      </trkpt>
      <trkpt lat="4.861469" lon="-74.083879">
        <ele>2683.8</ele>
        <time>2019-07-29T17:06:09.472Z</time>
      </trkpt>
      <trkpt lat="4.861557" lon="-74.083851">
        <ele>2683.6</ele>
        <time>2019-07-29T17:06:10.472Z</time>
      </trkpt>
      <trkpt lat="4.861739" lon="-74.083816">
        <ele>2683.4</ele>
        <time>2019-07-29T17:06:11.472Z</time>
      </trkpt>
      <trkpt lat="4.861923" lon="-74.083824">
        <ele>2683.2</ele>
        <time>2019-07-29T17:06:12.472Z</time>
      </trkpt>
      <trkpt lat="4.862009" lon="-74.08384">
        <ele>2682.4</ele>
        <time>2019-07-29T17:06:13.472Z</time>
      </trkpt>
      <trkpt lat="4.862172" lon="-74.08386">
        <ele>2680.6</ele>
        <time>2019-07-29T17:06:14.472Z</time>
      </trkpt>
      <trkpt lat="4.862328" lon="-74.083844">
        <ele>2680</ele>
        <time>2019-07-29T17:06:15.472Z</time>
      </trkpt>
      <trkpt lat="4.862403" lon="-74.08382">
        <ele>2679.8</ele>
        <time>2019-07-29T17:06:16.472Z</time>
      </trkpt>
      <trkpt lat="4.862461" lon="-74.083777">
        <ele>2679.4</ele>
        <time>2019-07-29T17:06:17.472Z</time>
      </trkpt>
      <trkpt lat="4.86252" lon="-74.083731">
        <ele>2679.6</ele>
        <time>2019-07-29T17:06:18.472Z</time>
      </trkpt>
      <trkpt lat="4.862719" lon="-74.083602">
        <ele>2679.2</ele>
        <time>2019-07-29T17:06:19.472Z</time>
      </trkpt>
      <trkpt lat="4.862795" lon="-74.083579">
        <ele>2678.8</ele>
        <time>2019-07-29T17:06:20.472Z</time>
      </trkpt>
      <trkpt lat="4.862875" lon="-74.083572">
        <ele>2678.6</ele>
        <time>2019-07-29T17:06:21.472Z</time>
      </trkpt>
      <trkpt lat="4.862956" lon="-74.083578">
        <ele>2678</ele>
        <time>2019-07-29T17:06:22.472Z</time>
      </trkpt>
      <trkpt lat="4.863042" lon="-74.083588">
        <ele>2677.4</ele>
        <time>2019-07-29T17:06:23.472Z</time>
      </trkpt>
      <trkpt lat="4.863128" lon="-74.083586">
        <ele>2677</ele>
        <time>2019-07-29T17:06:24.472Z</time>
      </trkpt>
      <trkpt lat="4.863194" lon="-74.083556">
        <ele>2676</ele>
        <time>2019-07-29T17:06:25.472Z</time>
      </trkpt>
      <trkpt lat="4.863242" lon="-74.083499">
        <ele>2675</ele>
        <time>2019-07-29T17:06:26.472Z</time>
      </trkpt>
      <trkpt lat="4.863272" lon="-74.083428">
        <ele>2674.2</ele>
        <time>2019-07-29T17:06:27.472Z</time>
      </trkpt>
      <trkpt lat="4.863287" lon="-74.08335">
        <ele>2673.6</ele>
        <time>2019-07-29T17:06:28.472Z</time>
      </trkpt>
      <trkpt lat="4.863254" lon="-74.083194">
        <ele>2673.4</ele>
        <time>2019-07-29T17:06:29.472Z</time>
      </trkpt>
      <trkpt lat="4.863246" lon="-74.083111">
        <ele>2673</ele>
        <time>2019-07-29T17:06:30.472Z</time>
      </trkpt>
      <trkpt lat="4.863262" lon="-74.082939">
        <ele>2672.4</ele>
        <time>2019-07-29T17:06:31.472Z</time>
      </trkpt>
      <trkpt lat="4.863279" lon="-74.082855">
        <ele>2670.8</ele>
        <time>2019-07-29T17:06:32.472Z</time>
      </trkpt>
      <trkpt lat="4.863302" lon="-74.082783">
        <ele>2669.8</ele>
        <time>2019-07-29T17:06:33.472Z</time>
      </trkpt>
      <trkpt lat="4.863331" lon="-74.082719">
        <ele>2668.8</ele>
        <time>2019-07-29T17:06:34.472Z</time>
      </trkpt>
      <trkpt lat="4.863365" lon="-74.082659">
        <ele>2668.2</ele>
        <time>2019-07-29T17:06:35.472Z</time>
      </trkpt>
      <trkpt lat="4.863504" lon="-74.082484">
        <ele>2667.4</ele>
        <time>2019-07-29T17:06:36.472Z</time>
      </trkpt>
      <trkpt lat="4.86355" lon="-74.082417">
        <ele>2667.4</ele>
        <time>2019-07-29T17:06:37.472Z</time>
      </trkpt>
      <trkpt lat="4.863633" lon="-74.082278">
        <ele>2666.2</ele>
        <time>2019-07-29T17:06:38.472Z</time>
      </trkpt>
      <trkpt lat="4.863664" lon="-74.082208">
        <ele>2665.2</ele>
        <time>2019-07-29T17:06:39.472Z</time>
      </trkpt>
      <trkpt lat="4.86369" lon="-74.082133">
        <ele>2664.2</ele>
        <time>2019-07-29T17:06:40.472Z</time>
      </trkpt>
      <trkpt lat="4.863706" lon="-74.082057">
        <ele>2663.6</ele>
        <time>2019-07-29T17:06:41.472Z</time>
      </trkpt>
      <trkpt lat="4.863716" lon="-74.08198">
        <ele>2662.8</ele>
        <time>2019-07-29T17:06:42.472Z</time>
      </trkpt>
      <trkpt lat="4.863716" lon="-74.081804">
        <ele>2661.6</ele>
        <time>2019-07-29T17:06:43.472Z</time>
      </trkpt>
      <trkpt lat="4.863716" lon="-74.081711">
        <ele>2661.4</ele>
        <time>2019-07-29T17:06:44.472Z</time>
      </trkpt>
      <trkpt lat="4.863723" lon="-74.081614">
        <ele>2661.4</ele>
        <time>2019-07-29T17:06:45.472Z</time>
      </trkpt>
      <trkpt lat="4.863777" lon="-74.081424">
        <ele>2660.6</ele>
        <time>2019-07-29T17:06:46.472Z</time>
      </trkpt>
      <trkpt lat="4.863825" lon="-74.081336">
        <ele>2659.6</ele>
        <time>2019-07-29T17:06:47.472Z</time>
      </trkpt>
      <trkpt lat="4.863943" lon="-74.081177">
        <ele>2658</ele>
        <time>2019-07-29T17:06:48.472Z</time>
      </trkpt>
      <trkpt lat="4.864091" lon="-74.081058">
        <ele>2657</ele>
        <time>2019-07-29T17:06:49.472Z</time>
      </trkpt>
      <trkpt lat="4.864172" lon="-74.081011">
        <ele>2656</ele>
        <time>2019-07-29T17:06:50.472Z</time>
      </trkpt>
      <trkpt lat="4.864253" lon="-74.080972">
        <ele>2655.2</ele>
        <time>2019-07-29T17:06:51.472Z</time>
      </trkpt>
      <trkpt lat="4.864422" lon="-74.080908">
        <ele>2654</ele>
        <time>2019-07-29T17:06:52.472Z</time>
      </trkpt>
      <trkpt lat="4.86459" lon="-74.080845">
        <ele>2653.4</ele>
        <time>2019-07-29T17:06:53.472Z</time>
      </trkpt>
      <trkpt lat="4.864864" lon="-74.080631">
        <ele>2653.4</ele>
        <time>2019-07-29T17:06:54.472Z</time>
      </trkpt>
      <trkpt lat="4.86492" lon="-74.08058">
        <ele>2653</ele>
        <time>2019-07-29T17:06:55.472Z</time>
      </trkpt>
      <trkpt lat="4.864976" lon="-74.080546">
        <ele>2652.8</ele>
        <time>2019-07-29T17:06:56.472Z</time>
      </trkpt>
      <trkpt lat="4.86504" lon="-74.080522">
        <ele>2652.4</ele>
        <time>2019-07-29T17:06:57.472Z</time>
      </trkpt>
      <trkpt lat="4.865233" lon="-74.080484">
        <ele>2651.8</ele>
        <time>2019-07-29T17:06:58.472Z</time>
      </trkpt>
      <trkpt lat="4.865284" lon="-74.080484">
        <ele>2651.6</ele>
        <time>2019-07-29T17:06:59.472Z</time>
      </trkpt>
      <trkpt lat="4.865374" lon="-74.08048">
        <ele>2651.4</ele>
        <time>2019-07-29T17:07:00.472Z</time>
      </trkpt>
      <trkpt lat="4.865468" lon="-74.08044">
        <ele>2651.2</ele>
        <time>2019-07-29T17:07:01.472Z</time>
      </trkpt>
      <trkpt lat="4.865523" lon="-74.080416">
        <ele>2651</ele>
        <time>2019-07-29T17:07:02.472Z</time>
      </trkpt>
      <trkpt lat="4.865586" lon="-74.080386">
        <ele>2650.2</ele>
        <time>2019-07-29T17:07:03.472Z</time>
      </trkpt>
      <trkpt lat="4.865731" lon="-74.080331">
        <ele>2648.6</ele>
        <time>2019-07-29T17:07:04.472Z</time>
      </trkpt>
      <trkpt lat="4.865894" lon="-74.080275">
        <ele>2646.8</ele>
        <time>2019-07-29T17:07:05.472Z</time>
      </trkpt>
      <trkpt lat="4.86598" lon="-74.080248">
        <ele>2645.4</ele>
        <time>2019-07-29T17:07:06.472Z</time>
      </trkpt>
      <trkpt lat="4.866155" lon="-74.080193">
        <ele>2643.8</ele>
        <time>2019-07-29T17:07:07.472Z</time>
      </trkpt>
      <trkpt lat="4.866243" lon="-74.080164">
        <ele>2643.2</ele>
        <time>2019-07-29T17:07:08.472Z</time>
      </trkpt>
      <trkpt lat="4.866333" lon="-74.080132">
        <ele>2642.8</ele>
        <time>2019-07-29T17:07:09.472Z</time>
      </trkpt>
      <trkpt lat="4.866611" lon="-74.080041">
        <ele>2641.6</ele>
        <time>2019-07-29T17:07:10.472Z</time>
      </trkpt>
      <trkpt lat="4.866901" lon="-74.079975">
        <ele>2640.2</ele>
        <time>2019-07-29T17:07:11.472Z</time>
      </trkpt>
      <trkpt lat="4.867094" lon="-74.079937">
        <ele>2639.2</ele>
        <time>2019-07-29T17:07:12.472Z</time>
      </trkpt>
      <trkpt lat="4.86737" lon="-74.079903">
        <ele>2638.4</ele>
        <time>2019-07-29T17:07:13.472Z</time>
      </trkpt>
      <trkpt lat="4.867462" lon="-74.079894">
        <ele>2638</ele>
        <time>2019-07-29T17:07:14.472Z</time>
      </trkpt>
      <trkpt lat="4.867646" lon="-74.079874">
        <ele>2636.8</ele>
        <time>2019-07-29T17:07:15.472Z</time>
      </trkpt>
      <trkpt lat="4.868018" lon="-74.079828">
        <ele>2636.2</ele>
        <time>2019-07-29T17:07:16.472Z</time>
      </trkpt>
      <trkpt lat="4.868198" lon="-74.079757">
        <ele>2635.2</ele>
        <time>2019-07-29T17:07:17.472Z</time>
      </trkpt>
      <trkpt lat="4.868285" lon="-74.079707">
        <ele>2633.8</ele>
        <time>2019-07-29T17:07:18.472Z</time>
      </trkpt>
      <trkpt lat="4.868355" lon="-74.079648">
        <ele>2632.8</ele>
        <time>2019-07-29T17:07:19.472Z</time>
      </trkpt>
      <trkpt lat="4.868437" lon="-74.079583">
        <ele>2631.2</ele>
        <time>2019-07-29T17:07:20.472Z</time>
      </trkpt>
      <trkpt lat="4.86852" lon="-74.079521">
        <ele>2630</ele>
        <time>2019-07-29T17:07:21.472Z</time>
      </trkpt>
      <trkpt lat="4.868604" lon="-74.079464">
        <ele>2629.2</ele>
        <time>2019-07-29T17:07:22.472Z</time>
      </trkpt>
      <trkpt lat="4.868687" lon="-74.079406">
        <ele>2628.8</ele>
        <time>2019-07-29T17:07:23.472Z</time>
      </trkpt>
      <trkpt lat="4.868766" lon="-74.079356">
        <ele>2627.8</ele>
        <time>2019-07-29T17:07:24.472Z</time>
      </trkpt>
      <trkpt lat="4.868851" lon="-74.079315">
        <ele>2627</ele>
        <time>2019-07-29T17:07:25.472Z</time>
      </trkpt>
      <trkpt lat="4.868944" lon="-74.079284">
        <ele>2626.2</ele>
        <time>2019-07-29T17:07:26.472Z</time>
      </trkpt>
      <trkpt lat="4.869351" lon="-74.079231">
        <ele>2626.4</ele>
        <time>2019-07-29T17:07:27.472Z</time>
      </trkpt>
      <trkpt lat="4.869561" lon="-74.079265">
        <ele>2625.8</ele>
        <time>2019-07-29T17:07:28.472Z</time>
      </trkpt>
      <trkpt lat="4.869667" lon="-74.079293">
        <ele>2625</ele>
        <time>2019-07-29T17:07:29.472Z</time>
      </trkpt>
      <trkpt lat="4.869767" lon="-74.079317">
        <ele>2623.6</ele>
        <time>2019-07-29T17:07:30.472Z</time>
      </trkpt>
      <trkpt lat="4.869861" lon="-74.07933">
        <ele>2622.2</ele>
        <time>2019-07-29T17:07:31.472Z</time>
      </trkpt>
      <trkpt lat="4.869953" lon="-74.079317">
        <ele>2621.2</ele>
        <time>2019-07-29T17:07:32.472Z</time>
      </trkpt>
      <trkpt lat="4.870021" lon="-74.079268">
        <ele>2620.4</ele>
        <time>2019-07-29T17:07:33.472Z</time>
      </trkpt>
      <trkpt lat="4.870082" lon="-74.079204">
        <ele>2619.8</ele>
        <time>2019-07-29T17:07:34.472Z</time>
      </trkpt>
      <trkpt lat="4.870128" lon="-74.079127">
        <ele>2619.2</ele>
        <time>2019-07-29T17:07:35.472Z</time>
      </trkpt>
      <trkpt lat="4.870181" lon="-74.078953">
        <ele>2618.6</ele>
        <time>2019-07-29T17:07:36.472Z</time>
      </trkpt>
      <trkpt lat="4.870211" lon="-74.078873">
        <ele>2618.4</ele>
        <time>2019-07-29T17:07:37.472Z</time>
      </trkpt>
      <trkpt lat="4.870248" lon="-74.0788">
        <ele>2618.2</ele>
        <time>2019-07-29T17:07:38.472Z</time>
      </trkpt>
      <trkpt lat="4.870294" lon="-74.078739">
        <ele>2618</ele>
        <time>2019-07-29T17:07:39.472Z</time>
      </trkpt>
      <trkpt lat="4.870352" lon="-74.078689">
        <ele>2618</ele>
        <time>2019-07-29T17:07:40.472Z</time>
      </trkpt>
      <trkpt lat="4.870695" lon="-74.078473">
        <ele>2616.8</ele>
        <time>2019-07-29T17:07:41.472Z</time>
      </trkpt>
      <trkpt lat="4.870768" lon="-74.078435">
        <ele>2616.4</ele>
        <time>2019-07-29T17:07:42.472Z</time>
      </trkpt>
      <trkpt lat="4.870921" lon="-74.078376">
        <ele>2615.6</ele>
        <time>2019-07-29T17:07:43.472Z</time>
      </trkpt>
      <trkpt lat="4.871001" lon="-74.078354">
        <ele>2615.8</ele>
        <time>2019-07-29T17:07:44.472Z</time>
      </trkpt>
      <trkpt lat="4.871082" lon="-74.07834">
        <ele>2615.6</ele>
        <time>2019-07-29T17:07:45.472Z</time>
      </trkpt>
      <trkpt lat="4.871327" lon="-74.078322">
        <ele>2615.2</ele>
        <time>2019-07-29T17:07:46.472Z</time>
      </trkpt>
      <trkpt lat="4.871561" lon="-74.078231">
        <ele>2614.8</ele>
        <time>2019-07-29T17:07:47.472Z</time>
      </trkpt>
      <trkpt lat="4.871632" lon="-74.078184">
        <ele>2614.8</ele>
        <time>2019-07-29T17:07:48.472Z</time>
      </trkpt>
      <trkpt lat="4.871699" lon="-74.078133">
        <ele>2614.6</ele>
        <time>2019-07-29T17:07:49.472Z</time>
      </trkpt>
      <trkpt lat="4.871835" lon="-74.078036">
        <ele>2614.4</ele>
        <time>2019-07-29T17:07:50.472Z</time>
      </trkpt>
      <trkpt lat="4.871912" lon="-74.078007">
        <ele>2614</ele>
        <time>2019-07-29T17:07:51.472Z</time>
      </trkpt>
      <trkpt lat="4.871992" lon="-74.07799">
        <ele>2613.2</ele>
        <time>2019-07-29T17:07:52.472Z</time>
      </trkpt>
      <trkpt lat="4.872072" lon="-74.077986">
        <ele>2612.6</ele>
        <time>2019-07-29T17:07:53.472Z</time>
      </trkpt>
      <trkpt lat="4.87215" lon="-74.078002">
        <ele>2612.4</ele>
        <time>2019-07-29T17:07:54.472Z</time>
      </trkpt>
      <trkpt lat="4.872223" lon="-74.078034">
        <ele>2612.2</ele>
        <time>2019-07-29T17:07:55.472Z</time>
      </trkpt>
      <trkpt lat="4.872343" lon="-74.078139">
        <ele>2611.6</ele>
        <time>2019-07-29T17:07:56.472Z</time>
      </trkpt>
      <trkpt lat="4.872456" lon="-74.078277">
        <ele>2610.8</ele>
        <time>2019-07-29T17:07:57.472Z</time>
      </trkpt>
      <trkpt lat="4.87252" lon="-74.078343">
        <ele>2610.6</ele>
        <time>2019-07-29T17:07:58.472Z</time>
      </trkpt>
      <trkpt lat="4.872592" lon="-74.0784">
        <ele>2610.4</ele>
        <time>2019-07-29T17:07:59.472Z</time>
      </trkpt>
      <trkpt lat="4.872673" lon="-74.078446">
        <ele>2610</ele>
        <time>2019-07-29T17:08:00.472Z</time>
      </trkpt>
      <trkpt lat="4.87276" lon="-74.078481">
        <ele>2609.6</ele>
        <time>2019-07-29T17:08:01.472Z</time>
      </trkpt>
      <trkpt lat="4.87285" lon="-74.078504">
        <ele>2609.2</ele>
        <time>2019-07-29T17:08:02.472Z</time>
      </trkpt>
      <trkpt lat="4.873038" lon="-74.078508">
        <ele>2608.4</ele>
        <time>2019-07-29T17:08:03.472Z</time>
      </trkpt>
      <trkpt lat="4.873132" lon="-74.0785">
        <ele>2607.8</ele>
        <time>2019-07-29T17:08:04.472Z</time>
      </trkpt>
      <trkpt lat="4.873223" lon="-74.078484">
        <ele>2607</ele>
        <time>2019-07-29T17:08:05.472Z</time>
      </trkpt>
      <trkpt lat="4.873386" lon="-74.078409">
        <ele>2606.4</ele>
        <time>2019-07-29T17:08:06.472Z</time>
      </trkpt>
      <trkpt lat="4.873502" lon="-74.078273">
        <ele>2606</ele>
        <time>2019-07-29T17:08:07.472Z</time>
      </trkpt>
      <trkpt lat="4.873545" lon="-74.078191">
        <ele>2605.6</ele>
        <time>2019-07-29T17:08:08.472Z</time>
      </trkpt>
      <trkpt lat="4.873624" lon="-74.07802">
        <ele>2604.6</ele>
        <time>2019-07-29T17:08:09.472Z</time>
      </trkpt>
      <trkpt lat="4.873705" lon="-74.077847">
        <ele>2603.8</ele>
        <time>2019-07-29T17:08:10.472Z</time>
      </trkpt>
      <trkpt lat="4.873749" lon="-74.077764">
        <ele>2603.4</ele>
        <time>2019-07-29T17:08:11.472Z</time>
      </trkpt>
      <trkpt lat="4.873793" lon="-74.077681">
        <ele>2602.8</ele>
        <time>2019-07-29T17:08:12.472Z</time>
      </trkpt>
      <trkpt lat="4.873825" lon="-74.077594">
        <ele>2602.2</ele>
        <time>2019-07-29T17:08:13.472Z</time>
      </trkpt>
      <trkpt lat="4.873843" lon="-74.077407">
        <ele>2601.6</ele>
        <time>2019-07-29T17:08:14.472Z</time>
      </trkpt>
      <trkpt lat="4.873831" lon="-74.077316">
        <ele>2601.2</ele>
        <time>2019-07-29T17:08:15.472Z</time>
      </trkpt>
      <trkpt lat="4.873794" lon="-74.077227">
        <ele>2600.4</ele>
        <time>2019-07-29T17:08:16.472Z</time>
      </trkpt>
      <trkpt lat="4.873741" lon="-74.077146">
        <ele>2599.4</ele>
        <time>2019-07-29T17:08:17.472Z</time>
      </trkpt>
      <trkpt lat="4.873677" lon="-74.077076">
        <ele>2598.2</ele>
        <time>2019-07-29T17:08:18.472Z</time>
      </trkpt>
      <trkpt lat="4.873607" lon="-74.077004">
        <ele>2597.2</ele>
        <time>2019-07-29T17:08:19.472Z</time>
      </trkpt>
      <trkpt lat="4.873457" lon="-74.076863">
        <ele>2595.6</ele>
        <time>2019-07-29T17:08:20.472Z</time>
      </trkpt>
      <trkpt lat="4.873398" lon="-74.076779">
        <ele>2595.2</ele>
        <time>2019-07-29T17:08:21.472Z</time>
      </trkpt>
      <trkpt lat="4.873281" lon="-74.076616">
        <ele>2594.2</ele>
        <time>2019-07-29T17:08:22.472Z</time>
      </trkpt>
      <trkpt lat="4.873138" lon="-74.076513">
        <ele>2592.8</ele>
        <time>2019-07-29T17:08:23.472Z</time>
      </trkpt>
      <trkpt lat="4.873049" lon="-74.076495">
        <ele>2592.2</ele>
        <time>2019-07-29T17:08:24.472Z</time>
      </trkpt>
      <trkpt lat="4.872952" lon="-74.076488">
        <ele>2591.6</ele>
        <time>2019-07-29T17:08:25.472Z</time>
      </trkpt>
      <trkpt lat="4.872773" lon="-74.076552">
        <ele>2591</ele>
        <time>2019-07-29T17:08:26.472Z</time>
      </trkpt>
      <trkpt lat="4.872605" lon="-74.076659">
        <ele>2591</ele>
        <time>2019-07-29T17:08:27.472Z</time>
      </trkpt>
      <trkpt lat="4.872543" lon="-74.076722">
        <ele>2590.8</ele>
        <time>2019-07-29T17:08:28.472Z</time>
      </trkpt>
      <trkpt lat="4.872502" lon="-74.076789">
        <ele>2590.4</ele>
        <time>2019-07-29T17:08:29.472Z</time>
      </trkpt>
      <trkpt lat="4.872466" lon="-74.076926">
        <ele>2588.6</ele>
        <time>2019-07-29T17:08:30.472Z</time>
      </trkpt>
      <trkpt lat="4.872527" lon="-74.077042">
        <ele>2587.4</ele>
        <time>2019-07-29T17:08:31.472Z</time>
      </trkpt>
      <trkpt lat="4.872688" lon="-74.077205">
        <ele>2586.4</ele>
        <time>2019-07-29T17:08:32.472Z</time>
      </trkpt>
      <trkpt lat="4.87285" lon="-74.077381">
        <ele>2586</ele>
        <time>2019-07-29T17:08:33.472Z</time>
      </trkpt>
      <trkpt lat="4.872896" lon="-74.077447">
        <ele>2585.8</ele>
        <time>2019-07-29T17:08:34.472Z</time>
      </trkpt>
      <trkpt lat="4.872935" lon="-74.077515">
        <ele>2585.2</ele>
        <time>2019-07-29T17:08:35.472Z</time>
      </trkpt>
      <trkpt lat="4.872958" lon="-74.077581">
        <ele>2584.6</ele>
        <time>2019-07-29T17:08:36.472Z</time>
      </trkpt>
      <trkpt lat="4.872953" lon="-74.077637">
        <ele>2583.8</ele>
        <time>2019-07-29T17:08:37.472Z</time>
      </trkpt>
      <trkpt lat="4.872923" lon="-74.077678">
        <ele>2583.6</ele>
        <time>2019-07-29T17:08:38.472Z</time>
      </trkpt>
      <trkpt lat="4.872829" lon="-74.07769">
        <ele>2583</ele>
        <time>2019-07-29T17:08:39.472Z</time>
      </trkpt>
      <trkpt lat="4.872786" lon="-74.077662">
        <ele>2583</ele>
        <time>2019-07-29T17:08:40.472Z</time>
      </trkpt>
      <trkpt lat="4.872554" lon="-74.077517">
        <ele>2582.6</ele>
        <time>2019-07-29T17:08:41.472Z</time>
      </trkpt>
      <trkpt lat="4.872401" lon="-74.077441">
        <ele>2581</ele>
        <time>2019-07-29T17:08:42.472Z</time>
      </trkpt>
      <trkpt lat="4.872311" lon="-74.077411">
        <ele>2580</ele>
        <time>2019-07-29T17:08:43.472Z</time>
      </trkpt>
      <trkpt lat="4.872216" lon="-74.07739">
        <ele>2579</ele>
        <time>2019-07-29T17:08:44.472Z</time>
      </trkpt>
      <trkpt lat="4.872119" lon="-74.077385">
        <ele>2577.8</ele>
        <time>2019-07-29T17:08:45.472Z</time>
      </trkpt>
      <trkpt lat="4.871914" lon="-74.077427">
        <ele>2576.2</ele>
        <time>2019-07-29T17:08:46.472Z</time>
      </trkpt>
      <trkpt lat="4.871716" lon="-74.077498">
        <ele>2575.2</ele>
        <time>2019-07-29T17:08:47.472Z</time>
      </trkpt>
      <trkpt lat="4.871518" lon="-74.077587">
        <ele>2573.4</ele>
        <time>2019-07-29T17:08:48.472Z</time>
      </trkpt>
      <trkpt lat="4.871338" lon="-74.077688">
        <ele>2572</ele>
        <time>2019-07-29T17:08:49.472Z</time>
      </trkpt>
      <trkpt lat="4.871148" lon="-74.077758">
        <ele>2570.6</ele>
        <time>2019-07-29T17:08:50.472Z</time>
      </trkpt>
      <trkpt lat="4.870631" lon="-74.07787">
        <ele>2569.2</ele>
        <time>2019-07-29T17:08:51.472Z</time>
      </trkpt>
      <trkpt lat="4.870518" lon="-74.077889">
        <ele>2568</ele>
        <time>2019-07-29T17:08:52.472Z</time>
      </trkpt>
      <trkpt lat="4.870407" lon="-74.077908">
        <ele>2566.6</ele>
        <time>2019-07-29T17:08:53.472Z</time>
      </trkpt>
      <trkpt lat="4.870194" lon="-74.077939">
        <ele>2565.6</ele>
        <time>2019-07-29T17:08:54.472Z</time>
      </trkpt>
      <trkpt lat="4.870094" lon="-74.077944">
        <ele>2565.2</ele>
        <time>2019-07-29T17:08:55.472Z</time>
      </trkpt>
      <trkpt lat="4.869994" lon="-74.07794">
        <ele>2565</ele>
        <time>2019-07-29T17:08:56.472Z</time>
      </trkpt>
      <trkpt lat="4.869899" lon="-74.077926">
        <ele>2564.6</ele>
        <time>2019-07-29T17:08:57.472Z</time>
      </trkpt>
      <trkpt lat="4.869806" lon="-74.077908">
        <ele>2564.4</ele>
        <time>2019-07-29T17:08:58.472Z</time>
      </trkpt>
      <trkpt lat="4.869624" lon="-74.077861">
        <ele>2563.4</ele>
        <time>2019-07-29T17:08:59.472Z</time>
      </trkpt>
      <trkpt lat="4.869437" lon="-74.077815">
        <ele>2562.4</ele>
        <time>2019-07-29T17:09:00.472Z</time>
      </trkpt>
      <trkpt lat="4.869171" lon="-74.077771">
        <ele>2561.6</ele>
        <time>2019-07-29T17:09:01.472Z</time>
      </trkpt>
      <trkpt lat="4.869089" lon="-74.077758">
        <ele>2561.4</ele>
        <time>2019-07-29T17:09:02.472Z</time>
      </trkpt>
      <trkpt lat="4.868909" lon="-74.077713">
        <ele>2560.2</ele>
        <time>2019-07-29T17:09:03.472Z</time>
      </trkpt>
      <trkpt lat="4.868658" lon="-74.077617">
        <ele>2559.2</ele>
        <time>2019-07-29T17:09:04.472Z</time>
      </trkpt>
      <trkpt lat="4.868348" lon="-74.077504">
        <ele>2558</ele>
        <time>2019-07-29T17:09:05.472Z</time>
      </trkpt>
      <trkpt lat="4.868165" lon="-74.077416">
        <ele>2556.8</ele>
        <time>2019-07-29T17:09:06.472Z</time>
      </trkpt>
      <trkpt lat="4.867992" lon="-74.077297">
        <ele>2555.6</ele>
        <time>2019-07-29T17:09:07.472Z</time>
      </trkpt>
      <trkpt lat="4.867938" lon="-74.077226">
        <ele>2555.2</ele>
        <time>2019-07-29T17:09:08.472Z</time>
      </trkpt>
      <trkpt lat="4.86789" lon="-74.077149">
        <ele>2555</ele>
        <time>2019-07-29T17:09:09.472Z</time>
      </trkpt>
      <trkpt lat="4.867844" lon="-74.077063">
        <ele>2554.6</ele>
        <time>2019-07-29T17:09:10.472Z</time>
      </trkpt>
      <trkpt lat="4.867769" lon="-74.07689">
        <ele>2553.2</ele>
        <time>2019-07-29T17:09:11.472Z</time>
      </trkpt>
      <trkpt lat="4.867648" lon="-74.076551">
        <ele>2551.6</ele>
        <time>2019-07-29T17:09:12.472Z</time>
      </trkpt>
      <trkpt lat="4.867562" lon="-74.076308">
        <ele>2552</ele>
        <time>2019-07-29T17:09:13.472Z</time>
      </trkpt>
      <trkpt lat="4.867436" lon="-74.07594">
        <ele>2551</ele>
        <time>2019-07-29T17:09:14.472Z</time>
      </trkpt>
      <trkpt lat="4.867418" lon="-74.075884">
        <ele>2550</ele>
        <time>2019-07-29T17:09:15.472Z</time>
      </trkpt>
      <trkpt lat="4.867239" lon="-74.075286">
        <ele>2575.8</ele>
        <time>2019-07-29T16:59:33.472Z</time>
      </trkpt>
      <trkpt lat="4.867248" lon="-74.075295">
        <ele>2576.2</ele>
        <time>2019-07-29T16:59:34.472Z</time>
      </trkpt>
      <trkpt lat="4.867248" lon="-74.07531">
        <ele>2576.2</ele>
        <time>2019-07-29T16:59:35.472Z</time>
      </trkpt>
      <trkpt lat="4.867279" lon="-74.075463">
        <ele>2575.2</ele>
        <time>2019-07-29T16:59:36.472Z</time>
      </trkpt>
      <trkpt lat="4.867341" lon="-74.075627">
        <ele>2575.2</ele>
        <time>2019-07-29T16:59:37.472Z</time>
      </trkpt>
      <trkpt lat="4.867372" lon="-74.075715">
        <ele>2575.6</ele>
        <time>2019-07-29T16:59:38.472Z</time>
      </trkpt>
      <trkpt lat="4.867404" lon="-74.075791">
        <ele>2576</ele>
        <time>2019-07-29T16:59:39.472Z</time>
      </trkpt>
      <trkpt lat="4.867422" lon="-74.075851">
        <ele>2576.6</ele>
        <time>2019-07-29T16:59:40.472Z</time>
      </trkpt>
      <trkpt lat="4.867433" lon="-74.075884">
        <ele>2576.8</ele>
        <time>2019-07-29T16:59:41.472Z</time>
      </trkpt>
      <trkpt lat="4.867456" lon="-74.075948">
        <ele>2577</ele>
        <time>2019-07-29T16:59:42.472Z</time>
      </trkpt>
      <trkpt lat="4.867479" lon="-74.076009">
        <ele>2577</ele>
        <time>2019-07-29T16:59:43.472Z</time>
      </trkpt>
      <trkpt lat="4.867502" lon="-74.076069">
        <ele>2577</ele>
        <time>2019-07-29T16:59:44.472Z</time>
      </trkpt>
      <trkpt lat="4.867525" lon="-74.076135">
        <ele>2578</ele>
        <time>2019-07-29T16:59:45.472Z</time>
      </trkpt>
      <trkpt lat="4.867537" lon="-74.076168">
        <ele>2578.2</ele>
        <time>2019-07-29T16:59:46.472Z</time>
      </trkpt>
      <trkpt lat="4.867581" lon="-74.0763">
        <ele>2579</ele>
        <time>2019-07-29T16:59:47.472Z</time>
      </trkpt>
      <trkpt lat="4.867589" lon="-74.076336">
        <ele>2579.4</ele>
        <time>2019-07-29T16:59:48.472Z</time>
      </trkpt>
      <trkpt lat="4.867608" lon="-74.076403">
        <ele>2580</ele>
        <time>2019-07-29T16:59:49.472Z</time>
      </trkpt>
      <trkpt lat="4.867621" lon="-74.076435">
        <ele>2580.4</ele>
        <time>2019-07-29T16:59:50.472Z</time>
      </trkpt>
      <trkpt lat="4.867709" lon="-74.076667">
        <ele>2580.8</ele>
        <time>2019-07-29T16:59:51.472Z</time>
      </trkpt>
      <trkpt lat="4.867771" lon="-74.076901">
        <ele>2581.6</ele>
        <time>2019-07-29T16:59:52.472Z</time>
      </trkpt>
      <trkpt lat="4.867874" lon="-74.077124">
        <ele>2582.8</ele>
        <time>2019-07-29T16:59:53.472Z</time>
      </trkpt>
      <trkpt lat="4.867894" lon="-74.077155">
        <ele>2582.8</ele>
        <time>2019-07-29T16:59:54.472Z</time>
      </trkpt>
      <trkpt lat="4.868026" lon="-74.077323">
        <ele>2583.2</ele>
        <time>2019-07-29T16:59:55.472Z</time>
      </trkpt>
      <trkpt lat="4.86805" lon="-74.077346">
        <ele>2583.8</ele>
        <time>2019-07-29T16:59:56.472Z</time>
      </trkpt>
      <trkpt lat="4.868079" lon="-74.077364">
        <ele>2584.4</ele>
        <time>2019-07-29T16:59:57.472Z</time>
      </trkpt>
      <trkpt lat="4.868133" lon="-74.0774">
        <ele>2585.6</ele>
        <time>2019-07-29T16:59:58.472Z</time>
      </trkpt>
      <trkpt lat="4.868211" lon="-74.077442">
        <ele>2586.4</ele>
        <time>2019-07-29T16:59:59.472Z</time>
      </trkpt>
      <trkpt lat="4.868236" lon="-74.07746">
        <ele>2586.6</ele>
        <time>2019-07-29T17:00:00.472Z</time>
      </trkpt>
      <trkpt lat="4.868385" lon="-74.077553">
        <ele>2587.2</ele>
        <time>2019-07-29T17:00:01.472Z</time>
      </trkpt>
      <trkpt lat="4.868426" lon="-74.077583">
        <ele>2587.6</ele>
        <time>2019-07-29T17:00:02.472Z</time>
      </trkpt>
      <trkpt lat="4.868513" lon="-74.077615">
        <ele>2588.6</ele>
        <time>2019-07-29T17:00:03.472Z</time>
      </trkpt>
      <trkpt lat="4.868546" lon="-74.077625">
        <ele>2588.8</ele>
        <time>2019-07-29T17:00:04.472Z</time>
      </trkpt>
      <trkpt lat="4.868698" lon="-74.077678">
        <ele>2589.8</ele>
        <time>2019-07-29T17:00:05.472Z</time>
      </trkpt>
      <trkpt lat="4.86877" lon="-74.077711">
        <ele>2590.2</ele>
        <time>2019-07-29T17:00:06.472Z</time>
      </trkpt>
      <trkpt lat="4.868904" lon="-74.077748">
        <ele>2591</ele>
        <time>2019-07-29T17:00:07.472Z</time>
      </trkpt>
      <trkpt lat="4.868968" lon="-74.077764">
        <ele>2591.2</ele>
        <time>2019-07-29T17:00:08.472Z</time>
      </trkpt>
      <trkpt lat="4.869128" lon="-74.077791">
        <ele>2591.8</ele>
        <time>2019-07-29T17:00:09.472Z</time>
      </trkpt>
      <trkpt lat="4.869302" lon="-74.077832">
        <ele>2592</ele>
        <time>2019-07-29T17:00:10.472Z</time>
      </trkpt>
      <trkpt lat="4.869341" lon="-74.077839">
        <ele>2592</ele>
        <time>2019-07-29T17:00:11.472Z</time>
      </trkpt>
      <trkpt lat="4.86945" lon="-74.077859">
        <ele>2593.2</ele>
        <time>2019-07-29T17:00:12.472Z</time>
      </trkpt>
      <trkpt lat="4.869517" lon="-74.077875">
        <ele>2594</ele>
        <time>2019-07-29T17:00:13.472Z</time>
      </trkpt>
      <trkpt lat="4.869585" lon="-74.077884">
        <ele>2594.4</ele>
        <time>2019-07-29T17:00:14.472Z</time>
      </trkpt>
      <trkpt lat="4.869693" lon="-74.077902">
        <ele>2594</ele>
        <time>2019-07-29T17:00:15.472Z</time>
      </trkpt>
      <trkpt lat="4.869918" lon="-74.077939">
        <ele>2595.4</ele>
        <time>2019-07-29T17:00:16.472Z</time>
      </trkpt>
      <trkpt lat="4.869958" lon="-74.077943">
        <ele>2595.8</ele>
        <time>2019-07-29T17:00:17.472Z</time>
      </trkpt>
      <trkpt lat="4.870079" lon="-74.077934">
        <ele>2597</ele>
        <time>2019-07-29T17:00:18.472Z</time>
      </trkpt>
      <trkpt lat="4.87012" lon="-74.077928">
        <ele>2597.4</ele>
        <time>2019-07-29T17:00:19.472Z</time>
      </trkpt>
      <trkpt lat="4.870385" lon="-74.07793">
        <ele>2597.8</ele>
        <time>2019-07-29T17:00:20.472Z</time>
      </trkpt>
      <trkpt lat="4.870483" lon="-74.077902">
        <ele>2598.2</ele>
        <time>2019-07-29T17:00:21.472Z</time>
      </trkpt>
      <trkpt lat="4.870655" lon="-74.077874">
        <ele>2599</ele>
        <time>2019-07-29T17:00:22.472Z</time>
      </trkpt>
      <trkpt lat="4.870739" lon="-74.077858">
        <ele>2599.2</ele>
        <time>2019-07-29T17:00:23.472Z</time>
      </trkpt>
      <trkpt lat="4.870886" lon="-74.07783">
        <ele>2599.6</ele>
        <time>2019-07-29T17:00:24.472Z</time>
      </trkpt>
      <trkpt lat="4.870947" lon="-74.077812">
        <ele>2600.4</ele>
        <time>2019-07-29T17:00:25.472Z</time>
      </trkpt>
      <trkpt lat="4.871074" lon="-74.077779">
        <ele>2601.6</ele>
        <time>2019-07-29T17:00:26.472Z</time>
      </trkpt>
      <trkpt lat="4.871218" lon="-74.077744">
        <ele>2602.4</ele>
        <time>2019-07-29T17:00:27.472Z</time>
      </trkpt>
      <trkpt lat="4.871258" lon="-74.07773">
        <ele>2602.8</ele>
        <time>2019-07-29T17:00:28.472Z</time>
      </trkpt>
      <trkpt lat="4.871442" lon="-74.07763">
        <ele>2603.8</ele>
        <time>2019-07-29T17:00:29.472Z</time>
      </trkpt>
      <trkpt lat="4.87148" lon="-74.077611">
        <ele>2604</ele>
        <time>2019-07-29T17:00:30.472Z</time>
      </trkpt>
      <trkpt lat="4.871637" lon="-74.07753">
        <ele>2604.8</ele>
        <time>2019-07-29T17:00:31.472Z</time>
      </trkpt>
      <trkpt lat="4.871715" lon="-74.077497">
        <ele>2605.8</ele>
        <time>2019-07-29T17:00:32.472Z</time>
      </trkpt>
      <trkpt lat="4.871785" lon="-74.077468">
        <ele>2606.2</ele>
        <time>2019-07-29T17:00:33.472Z</time>
      </trkpt>
      <trkpt lat="4.872001" lon="-74.077396">
        <ele>2607</ele>
        <time>2019-07-29T17:00:34.472Z</time>
      </trkpt>
      <trkpt lat="4.872097" lon="-74.077365">
        <ele>2608.4</ele>
        <time>2019-07-29T17:00:35.472Z</time>
      </trkpt>
      <trkpt lat="4.872186" lon="-74.077358">
        <ele>2609.2</ele>
        <time>2019-07-29T17:00:36.472Z</time>
      </trkpt>
      <trkpt lat="4.87222" lon="-74.077368">
        <ele>2609.4</ele>
        <time>2019-07-29T17:00:37.472Z</time>
      </trkpt>
      <trkpt lat="4.872411" lon="-74.07745">
        <ele>2610.4</ele>
        <time>2019-07-29T17:00:38.472Z</time>
      </trkpt>
      <trkpt lat="4.87256" lon="-74.077546">
        <ele>2611.8</ele>
        <time>2019-07-29T17:00:39.472Z</time>
      </trkpt>
      <trkpt lat="4.872633" lon="-74.077598">
        <ele>2612.4</ele>
        <time>2019-07-29T17:00:40.472Z</time>
      </trkpt>
      <trkpt lat="4.872748" lon="-74.077662">
        <ele>2612.8</ele>
        <time>2019-07-29T17:00:41.472Z</time>
      </trkpt>
      <trkpt lat="4.872788" lon="-74.077668">
        <ele>2613</ele>
        <time>2019-07-29T17:00:42.472Z</time>
      </trkpt>
      <trkpt lat="4.872832" lon="-74.077664">
        <ele>2613.2</ele>
        <time>2019-07-29T17:00:43.472Z</time>
      </trkpt>
      <trkpt lat="4.872891" lon="-74.077592">
        <ele>2613.4</ele>
        <time>2019-07-29T17:00:44.472Z</time>
      </trkpt>
      <trkpt lat="4.872912" lon="-74.077462">
        <ele>2613.6</ele>
        <time>2019-07-29T17:00:45.472Z</time>
      </trkpt>
      <trkpt lat="4.872858" lon="-74.077367">
        <ele>2614</ele>
        <time>2019-07-29T17:00:46.472Z</time>
      </trkpt>
      <trkpt lat="4.872814" lon="-74.077317">
        <ele>2614.6</ele>
        <time>2019-07-29T17:00:47.472Z</time>
      </trkpt>
      <trkpt lat="4.872665" lon="-74.077171">
        <ele>2615</ele>
        <time>2019-07-29T17:00:48.472Z</time>
      </trkpt>
      <trkpt lat="4.872571" lon="-74.077073">
        <ele>2615.2</ele>
        <time>2019-07-29T17:00:49.472Z</time>
      </trkpt>
      <trkpt lat="4.872494" lon="-74.076992">
        <ele>2616</ele>
        <time>2019-07-29T17:00:50.472Z</time>
      </trkpt>
      <trkpt lat="4.87248" lon="-74.076965">
        <ele>2616.2</ele>
        <time>2019-07-29T17:00:51.472Z</time>
      </trkpt>
      <trkpt lat="4.872466" lon="-74.076843">
        <ele>2616.8</ele>
        <time>2019-07-29T17:00:52.472Z</time>
      </trkpt>
      <trkpt lat="4.872476" lon="-74.076778">
        <ele>2617.4</ele>
        <time>2019-07-29T17:00:53.472Z</time>
      </trkpt>
      <trkpt lat="4.87254" lon="-74.076692">
        <ele>2618.4</ele>
        <time>2019-07-29T17:00:54.472Z</time>
      </trkpt>
      <trkpt lat="4.872565" lon="-74.076668">
        <ele>2618.6</ele>
        <time>2019-07-29T17:00:55.472Z</time>
      </trkpt>
      <trkpt lat="4.872712" lon="-74.076557">
        <ele>2619.6</ele>
        <time>2019-07-29T17:00:56.472Z</time>
      </trkpt>
      <trkpt lat="4.87276" lon="-74.076536">
        <ele>2619.6</ele>
        <time>2019-07-29T17:00:57.472Z</time>
      </trkpt>
      <trkpt lat="4.872896" lon="-74.076499">
        <ele>2620</ele>
        <time>2019-07-29T17:00:58.472Z</time>
      </trkpt>
      <trkpt lat="4.872957" lon="-74.076499">
        <ele>2620.6</ele>
        <time>2019-07-29T17:00:59.472Z</time>
      </trkpt>
      <trkpt lat="4.873086" lon="-74.076524">
        <ele>2621.6</ele>
        <time>2019-07-29T17:01:00.472Z</time>
      </trkpt>
      <trkpt lat="4.873118" lon="-74.076535">
        <ele>2622</ele>
        <time>2019-07-29T17:01:01.472Z</time>
      </trkpt>
      <trkpt lat="4.873236" lon="-74.07661">
        <ele>2623</ele>
        <time>2019-07-29T17:01:02.472Z</time>
      </trkpt>
      <trkpt lat="4.873347" lon="-74.076715">
        <ele>2623.8</ele>
        <time>2019-07-29T17:01:03.472Z</time>
      </trkpt>
      <trkpt lat="4.873381" lon="-74.076781">
        <ele>2624.2</ele>
        <time>2019-07-29T17:01:04.472Z</time>
      </trkpt>
      <trkpt lat="4.873427" lon="-74.07687">
        <ele>2624.8</ele>
        <time>2019-07-29T17:01:05.472Z</time>
      </trkpt>
      <trkpt lat="4.87349" lon="-74.07696">
        <ele>2625.4</ele>
        <time>2019-07-29T17:01:06.472Z</time>
      </trkpt>
      <trkpt lat="4.873561" lon="-74.077044">
        <ele>2625.8</ele>
        <time>2019-07-29T17:01:07.472Z</time>
      </trkpt>
      <trkpt lat="4.873608" lon="-74.077094">
        <ele>2626.4</ele>
        <time>2019-07-29T17:01:08.472Z</time>
      </trkpt>
      <trkpt lat="4.87368" lon="-74.077157">
        <ele>2626.4</ele>
        <time>2019-07-29T17:01:09.472Z</time>
      </trkpt>
      <trkpt lat="4.873774" lon="-74.077316">
        <ele>2627.4</ele>
        <time>2019-07-29T17:01:10.472Z</time>
      </trkpt>
      <trkpt lat="4.873787" lon="-74.077492">
        <ele>2628.4</ele>
        <time>2019-07-29T17:01:11.472Z</time>
      </trkpt>
      <trkpt lat="4.873783" lon="-74.077521">
        <ele>2628.6</ele>
        <time>2019-07-29T17:01:12.472Z</time>
      </trkpt>
      <trkpt lat="4.87374" lon="-74.077656">
        <ele>2629.6</ele>
        <time>2019-07-29T17:01:13.472Z</time>
      </trkpt>
      <trkpt lat="4.873648" lon="-74.077837">
        <ele>2630.8</ele>
        <time>2019-07-29T17:01:14.472Z</time>
      </trkpt>
      <trkpt lat="4.873632" lon="-74.077865">
        <ele>2631.2</ele>
        <time>2019-07-29T17:01:15.472Z</time>
      </trkpt>
      <trkpt lat="4.873587" lon="-74.07798">
        <ele>2631.8</ele>
        <time>2019-07-29T17:01:16.472Z</time>
      </trkpt>
      <trkpt lat="4.873521" lon="-74.078133">
        <ele>2632.8</ele>
        <time>2019-07-29T17:01:17.472Z</time>
      </trkpt>
      <trkpt lat="4.873508" lon="-74.078161">
        <ele>2633</ele>
        <time>2019-07-29T17:01:18.472Z</time>
      </trkpt>
      <trkpt lat="4.873403" lon="-74.078346">
        <ele>2634</ele>
        <time>2019-07-29T17:01:19.472Z</time>
      </trkpt>
      <trkpt lat="4.873226" lon="-74.078467">
        <ele>2634.6</ele>
        <time>2019-07-29T17:01:20.472Z</time>
      </trkpt>
      <trkpt lat="4.87311" lon="-74.078502">
        <ele>2635.2</ele>
        <time>2019-07-29T17:01:21.472Z</time>
      </trkpt>
      <trkpt lat="4.873018" lon="-74.078515">
        <ele>2635.4</ele>
        <time>2019-07-29T17:01:22.472Z</time>
      </trkpt>
      <trkpt lat="4.872888" lon="-74.07853">
        <ele>2636.2</ele>
        <time>2019-07-29T17:01:23.472Z</time>
      </trkpt>
      <trkpt lat="4.872791" lon="-74.078517">
        <ele>2636.8</ele>
        <time>2019-07-29T17:01:24.472Z</time>
      </trkpt>
      <trkpt lat="4.872729" lon="-74.078498">
        <ele>2637.2</ele>
        <time>2019-07-29T17:01:25.472Z</time>
      </trkpt>
      <trkpt lat="4.872573" lon="-74.078422">
        <ele>2638.2</ele>
        <time>2019-07-29T17:01:26.472Z</time>
      </trkpt>
      <trkpt lat="4.872545" lon="-74.078399">
        <ele>2638.2</ele>
        <time>2019-07-29T17:01:27.472Z</time>
      </trkpt>
      <trkpt lat="4.872352" lon="-74.078196">
        <ele>2639</ele>
        <time>2019-07-29T17:01:28.472Z</time>
      </trkpt>
      <trkpt lat="4.872287" lon="-74.078112">
        <ele>2639.2</ele>
        <time>2019-07-29T17:01:29.472Z</time>
      </trkpt>
      <trkpt lat="4.872203" lon="-74.078055">
        <ele>2640</ele>
        <time>2019-07-29T17:01:30.472Z</time>
      </trkpt>
      <trkpt lat="4.872015" lon="-74.078011">
        <ele>2640</ele>
        <time>2019-07-29T17:01:31.472Z</time>
      </trkpt>
      <trkpt lat="4.871818" lon="-74.078061">
        <ele>2640</ele>
        <time>2019-07-29T17:01:32.472Z</time>
      </trkpt>
      <trkpt lat="4.871767" lon="-74.078103">
        <ele>2640.4</ele>
        <time>2019-07-29T17:01:33.472Z</time>
      </trkpt>
      <trkpt lat="4.871696" lon="-74.078171">
        <ele>2641.6</ele>
        <time>2019-07-29T17:01:34.472Z</time>
      </trkpt>
      <trkpt lat="4.871641" lon="-74.078209">
        <ele>2641.8</ele>
        <time>2019-07-29T17:01:35.472Z</time>
      </trkpt>
      <trkpt lat="4.871396" lon="-74.07834">
        <ele>2642.2</ele>
        <time>2019-07-29T17:01:36.472Z</time>
      </trkpt>
      <trkpt lat="4.871057" lon="-74.078387">
        <ele>2642.4</ele>
        <time>2019-07-29T17:01:37.472Z</time>
      </trkpt>
      <trkpt lat="4.870936" lon="-74.078407">
        <ele>2642.8</ele>
        <time>2019-07-29T17:01:38.472Z</time>
      </trkpt>
      <trkpt lat="4.870722" lon="-74.078491">
        <ele>2643.8</ele>
        <time>2019-07-29T17:01:39.472Z</time>
      </trkpt>
      <trkpt lat="4.870687" lon="-74.07851">
        <ele>2644</ele>
        <time>2019-07-29T17:01:40.472Z</time>
      </trkpt>
      <trkpt lat="4.870652" lon="-74.078532">
        <ele>2644.2</ele>
        <time>2019-07-29T17:01:41.472Z</time>
      </trkpt>
      <trkpt lat="4.870476" lon="-74.07865">
        <ele>2644.4</ele>
        <time>2019-07-29T17:01:42.472Z</time>
      </trkpt>
      <trkpt lat="4.870297" lon="-74.078779">
        <ele>2644</ele>
        <time>2019-07-29T17:01:43.472Z</time>
      </trkpt>
      <trkpt lat="4.870271" lon="-74.078813">
        <ele>2644</ele>
        <time>2019-07-29T17:01:44.472Z</time>
      </trkpt>
      <trkpt lat="4.870249" lon="-74.078849">
        <ele>2644</ele>
        <time>2019-07-29T17:01:45.472Z</time>
      </trkpt>
      <trkpt lat="4.870171" lon="-74.079">
        <ele>2645.4</ele>
        <time>2019-07-29T17:01:46.472Z</time>
      </trkpt>
      <trkpt lat="4.870142" lon="-74.079079">
        <ele>2645.6</ele>
        <time>2019-07-29T17:01:47.472Z</time>
      </trkpt>
      <trkpt lat="4.870099" lon="-74.079194">
        <ele>2645.6</ele>
        <time>2019-07-29T17:01:48.472Z</time>
      </trkpt>
      <trkpt lat="4.870051" lon="-74.079259">
        <ele>2645.4</ele>
        <time>2019-07-29T17:01:49.472Z</time>
      </trkpt>
      <trkpt lat="4.869895" lon="-74.079344">
        <ele>2645.4</ele>
        <time>2019-07-29T17:01:50.472Z</time>
      </trkpt>
      <trkpt lat="4.869737" lon="-74.079347">
        <ele>2646.6</ele>
        <time>2019-07-29T17:01:51.472Z</time>
      </trkpt>
      <trkpt lat="4.869695" lon="-74.07934">
        <ele>2647</ele>
        <time>2019-07-29T17:01:52.472Z</time>
      </trkpt>
      <trkpt lat="4.869615" lon="-74.079323">
        <ele>2647.8</ele>
        <time>2019-07-29T17:01:53.472Z</time>
      </trkpt>
      <trkpt lat="4.869411" lon="-74.079281">
        <ele>2649</ele>
        <time>2019-07-29T17:01:54.472Z</time>
      </trkpt>
      <trkpt lat="4.869369" lon="-74.079275">
        <ele>2649.2</ele>
        <time>2019-07-29T17:01:55.472Z</time>
      </trkpt>
      <trkpt lat="4.869221" lon="-74.079277">
        <ele>2650</ele>
        <time>2019-07-29T17:01:56.472Z</time>
      </trkpt>
      <trkpt lat="4.869046" lon="-74.079284">
        <ele>2650.6</ele>
        <time>2019-07-29T17:01:57.472Z</time>
      </trkpt>
      <trkpt lat="4.868912" lon="-74.079303">
        <ele>2651.2</ele>
        <time>2019-07-29T17:01:58.472Z</time>
      </trkpt>
      <trkpt lat="4.868853" lon="-74.079324">
        <ele>2651.6</ele>
        <time>2019-07-29T17:01:59.472Z</time>
      </trkpt>
      <trkpt lat="4.868773" lon="-74.079355">
        <ele>2652.2</ele>
        <time>2019-07-29T17:02:00.472Z</time>
      </trkpt>
      <trkpt lat="4.868703" lon="-74.079419">
        <ele>2652.8</ele>
        <time>2019-07-29T17:02:01.472Z</time>
      </trkpt>
      <trkpt lat="4.868664" lon="-74.079461">
        <ele>2653.4</ele>
        <time>2019-07-29T17:02:02.472Z</time>
      </trkpt>
      <trkpt lat="4.868564" lon="-74.079558">
        <ele>2654</ele>
        <time>2019-07-29T17:02:03.472Z</time>
      </trkpt>
      <trkpt lat="4.868495" lon="-74.07961">
        <ele>2654.6</ele>
        <time>2019-07-29T17:02:04.472Z</time>
      </trkpt>
      <trkpt lat="4.868423" lon="-74.079671">
        <ele>2655.2</ele>
        <time>2019-07-29T17:02:05.472Z</time>
      </trkpt>
      <trkpt lat="4.868323" lon="-74.079736">
        <ele>2655.6</ele>
        <time>2019-07-29T17:02:06.472Z</time>
      </trkpt>
      <trkpt lat="4.868256" lon="-74.07978">
        <ele>2656.2</ele>
        <time>2019-07-29T17:02:07.472Z</time>
      </trkpt>
      <trkpt lat="4.868182" lon="-74.07982">
        <ele>2656.8</ele>
        <time>2019-07-29T17:02:08.472Z</time>
      </trkpt>
      <trkpt lat="4.868136" lon="-74.079835">
        <ele>2657</ele>
        <time>2019-07-29T17:02:09.472Z</time>
      </trkpt>
      <trkpt lat="4.867995" lon="-74.079877">
        <ele>2657.8</ele>
        <time>2019-07-29T17:02:10.472Z</time>
      </trkpt>
      <trkpt lat="4.867965" lon="-74.079884">
        <ele>2658.2</ele>
        <time>2019-07-29T17:02:11.472Z</time>
      </trkpt>
      <trkpt lat="4.867841" lon="-74.079895">
        <ele>2659</ele>
        <time>2019-07-29T17:02:12.472Z</time>
      </trkpt>
      <trkpt lat="4.867781" lon="-74.079904">
        <ele>2659.2</ele>
        <time>2019-07-29T17:02:13.472Z</time>
      </trkpt>
      <trkpt lat="4.867537" lon="-74.079923">
        <ele>2660</ele>
        <time>2019-07-29T17:02:14.472Z</time>
      </trkpt>
      <trkpt lat="4.867398" lon="-74.079952">
        <ele>2660.4</ele>
        <time>2019-07-29T17:02:15.472Z</time>
      </trkpt>
      <trkpt lat="4.86729" lon="-74.079976">
        <ele>2661</ele>
        <time>2019-07-29T17:02:16.472Z</time>
      </trkpt>
      <trkpt lat="4.867168" lon="-74.079984">
        <ele>2661.8</ele>
        <time>2019-07-29T17:02:17.472Z</time>
      </trkpt>
      <trkpt lat="4.866933" lon="-74.080024">
        <ele>2662.2</ele>
        <time>2019-07-29T17:02:18.472Z</time>
      </trkpt>
      <trkpt lat="4.866695" lon="-74.080063">
        <ele>2663.2</ele>
        <time>2019-07-29T17:02:19.472Z</time>
      </trkpt>
      <trkpt lat="4.86663" lon="-74.080079">
        <ele>2663.8</ele>
        <time>2019-07-29T17:02:20.472Z</time>
      </trkpt>
      <trkpt lat="4.866372" lon="-74.080159">
        <ele>2664.6</ele>
        <time>2019-07-29T17:02:21.472Z</time>
      </trkpt>
      <trkpt lat="4.86625" lon="-74.080201">
        <ele>2665.6</ele>
        <time>2019-07-29T17:02:22.472Z</time>
      </trkpt>
      <trkpt lat="4.866065" lon="-74.080261">
        <ele>2666.2</ele>
        <time>2019-07-29T17:02:23.472Z</time>
      </trkpt>
      <trkpt lat="4.866" lon="-74.080279">
        <ele>2666.6</ele>
        <time>2019-07-29T17:02:24.472Z</time>
      </trkpt>
      <trkpt lat="4.865771" lon="-74.080346">
        <ele>2667</ele>
        <time>2019-07-29T17:02:25.472Z</time>
      </trkpt>
      <trkpt lat="4.86562" lon="-74.080402">
        <ele>2667.8</ele>
        <time>2019-07-29T17:02:26.472Z</time>
      </trkpt>
      <trkpt lat="4.865504" lon="-74.080433">
        <ele>2668.6</ele>
        <time>2019-07-29T17:02:27.472Z</time>
      </trkpt>
      <trkpt lat="4.865479" lon="-74.080447">
        <ele>2669</ele>
        <time>2019-07-29T17:02:28.472Z</time>
      </trkpt>
      <trkpt lat="4.865383" lon="-74.080512">
        <ele>2670</ele>
        <time>2019-07-29T17:02:29.472Z</time>
      </trkpt>
      <trkpt lat="4.865358" lon="-74.080523">
        <ele>2670</ele>
        <time>2019-07-29T17:02:30.472Z</time>
      </trkpt>
      <trkpt lat="4.865217" lon="-74.080542">
        <ele>2671.4</ele>
        <time>2019-07-29T17:02:31.472Z</time>
      </trkpt>
      <trkpt lat="4.865013" lon="-74.080591">
        <ele>2672.4</ele>
        <time>2019-07-29T17:02:32.472Z</time>
      </trkpt>
      <trkpt lat="4.864984" lon="-74.080602">
        <ele>2672.6</ele>
        <time>2019-07-29T17:02:33.472Z</time>
      </trkpt>
      <trkpt lat="4.864868" lon="-74.080693">
        <ele>2673.4</ele>
        <time>2019-07-29T17:02:34.472Z</time>
      </trkpt>
      <trkpt lat="4.864705" lon="-74.080829">
        <ele>2674.2</ele>
        <time>2019-07-29T17:02:35.472Z</time>
      </trkpt>
      <trkpt lat="4.864481" lon="-74.08093">
        <ele>2674.4</ele>
        <time>2019-07-29T17:02:36.472Z</time>
      </trkpt>
      <trkpt lat="4.864448" lon="-74.080943">
        <ele>2674.6</ele>
        <time>2019-07-29T17:02:37.472Z</time>
      </trkpt>
      <trkpt lat="4.864225" lon="-74.081025">
        <ele>2675.4</ele>
        <time>2019-07-29T17:02:38.472Z</time>
      </trkpt>
      <trkpt lat="4.864134" lon="-74.081071">
        <ele>2675.8</ele>
        <time>2019-07-29T17:02:39.472Z</time>
      </trkpt>
      <trkpt lat="4.864057" lon="-74.081131">
        <ele>2676.2</ele>
        <time>2019-07-29T17:02:40.472Z</time>
      </trkpt>
      <trkpt lat="4.863972" lon="-74.081186">
        <ele>2677</ele>
        <time>2019-07-29T17:02:41.472Z</time>
      </trkpt>
      <trkpt lat="4.863898" lon="-74.081279">
        <ele>2676.8</ele>
        <time>2019-07-29T17:02:42.472Z</time>
      </trkpt>
      <trkpt lat="4.86381" lon="-74.081434">
        <ele>2678.2</ele>
        <time>2019-07-29T17:02:43.472Z</time>
      </trkpt>
      <trkpt lat="4.863797" lon="-74.08146">
        <ele>2678.4</ele>
        <time>2019-07-29T17:02:44.472Z</time>
      </trkpt>
      <trkpt lat="4.863762" lon="-74.081542">
        <ele>2679.2</ele>
        <time>2019-07-29T17:02:45.472Z</time>
      </trkpt>
      <trkpt lat="4.863744" lon="-74.081648">
        <ele>2679.6</ele>
        <time>2019-07-29T17:02:46.472Z</time>
      </trkpt>
      <trkpt lat="4.863747" lon="-74.081793">
        <ele>2680.2</ele>
        <time>2019-07-29T17:02:47.472Z</time>
      </trkpt>
      <trkpt lat="4.863746" lon="-74.081851">
        <ele>2681</ele>
        <time>2019-07-29T17:02:48.472Z</time>
      </trkpt>
      <trkpt lat="4.863748" lon="-74.081908">
        <ele>2681.4</ele>
        <time>2019-07-29T17:02:49.472Z</time>
      </trkpt>
      <trkpt lat="4.86374" lon="-74.082044">
        <ele>2682.2</ele>
        <time>2019-07-29T17:02:50.472Z</time>
      </trkpt>
      <trkpt lat="4.863738" lon="-74.082071">
        <ele>2682.4</ele>
        <time>2019-07-29T17:02:51.472Z</time>
      </trkpt>
      <trkpt lat="4.863679" lon="-74.082261">
        <ele>2683</ele>
        <time>2019-07-29T17:02:52.472Z</time>
      </trkpt>
      <trkpt lat="4.863607" lon="-74.082424">
        <ele>2683.2</ele>
        <time>2019-07-29T17:02:53.472Z</time>
      </trkpt>
      <trkpt lat="4.863591" lon="-74.082451">
        <ele>2683.4</ele>
        <time>2019-07-29T17:02:54.472Z</time>
      </trkpt>
      <trkpt lat="4.863481" lon="-74.082608">
        <ele>2684</ele>
        <time>2019-07-29T17:02:55.472Z</time>
      </trkpt>
      <trkpt lat="4.863419" lon="-74.082687">
        <ele>2684.2</ele>
        <time>2019-07-29T17:02:56.472Z</time>
      </trkpt>
      <trkpt lat="4.863339" lon="-74.082857">
        <ele>2684.6</ele>
        <time>2019-07-29T17:02:57.472Z</time>
      </trkpt>
      <trkpt lat="4.863326" lon="-74.082919">
        <ele>2685.8</ele>
        <time>2019-07-29T17:02:58.472Z</time>
      </trkpt>
      <trkpt lat="4.863305" lon="-74.083128">
        <ele>2685.6</ele>
        <time>2019-07-29T17:02:59.472Z</time>
      </trkpt>
      <trkpt lat="4.863326" lon="-74.083292">
        <ele>2687</ele>
        <time>2019-07-29T17:03:00.472Z</time>
      </trkpt>
      <trkpt lat="4.863331" lon="-74.083318">
        <ele>2687.2</ele>
        <time>2019-07-29T17:03:01.472Z</time>
      </trkpt>
      <trkpt lat="4.863334" lon="-74.083421">
        <ele>2688.4</ele>
        <time>2019-07-29T17:03:02.472Z</time>
      </trkpt>
      <trkpt lat="4.863329" lon="-74.083473">
        <ele>2688.8</ele>
        <time>2019-07-29T17:03:03.472Z</time>
      </trkpt>
      <trkpt lat="4.86325" lon="-74.0836">
        <ele>2689.2</ele>
        <time>2019-07-29T17:03:04.472Z</time>
      </trkpt>
      <trkpt lat="4.86322" lon="-74.083609">
        <ele>2689.4</ele>
        <time>2019-07-29T17:03:05.472Z</time>
      </trkpt>
      <trkpt lat="4.863096" lon="-74.083618">
        <ele>2690</ele>
        <time>2019-07-29T17:03:06.472Z</time>
      </trkpt>
      <trkpt lat="4.862864" lon="-74.083603">
        <ele>2690.6</ele>
        <time>2019-07-29T17:03:07.472Z</time>
      </trkpt>
      <trkpt lat="4.862726" lon="-74.083648">
        <ele>2691.6</ele>
        <time>2019-07-29T17:03:08.472Z</time>
      </trkpt>
      <trkpt lat="4.862703" lon="-74.083658">
        <ele>2692</ele>
        <time>2019-07-29T17:03:09.472Z</time>
      </trkpt>
      <trkpt lat="4.862659" lon="-74.083686">
        <ele>2692.8</ele>
        <time>2019-07-29T17:03:10.472Z</time>
      </trkpt>
      <trkpt lat="4.862586" lon="-74.083728">
        <ele>2693</ele>
        <time>2019-07-29T17:03:11.472Z</time>
      </trkpt>
      <trkpt lat="4.862426" lon="-74.083842">
        <ele>2693.2</ele>
        <time>2019-07-29T17:03:12.472Z</time>
      </trkpt>
      <trkpt lat="4.862229" lon="-74.083871">
        <ele>2693</ele>
        <time>2019-07-29T17:03:13.472Z</time>
      </trkpt>
      <trkpt lat="4.862093" lon="-74.083891">
        <ele>2693.8</ele>
        <time>2019-07-29T17:03:14.472Z</time>
      </trkpt>
      <trkpt lat="4.862065" lon="-74.083889">
        <ele>2694</ele>
        <time>2019-07-29T17:03:15.472Z</time>
      </trkpt>
      <trkpt lat="4.861915" lon="-74.083869">
        <ele>2695</ele>
        <time>2019-07-29T17:03:16.472Z</time>
      </trkpt>
      <trkpt lat="4.861887" lon="-74.083861">
        <ele>2695</ele>
        <time>2019-07-29T17:03:17.472Z</time>
      </trkpt>
      <trkpt lat="4.861705" lon="-74.083849">
        <ele>2695.4</ele>
        <time>2019-07-29T17:03:18.472Z</time>
      </trkpt>
      <trkpt lat="4.861471" lon="-74.083879">
        <ele>2695.8</ele>
        <time>2019-07-29T17:03:19.472Z</time>
      </trkpt>
      <trkpt lat="4.861446" lon="-74.083892">
        <ele>2696.2</ele>
        <time>2019-07-29T17:03:20.472Z</time>
      </trkpt>
      <trkpt lat="4.861286" lon="-74.083987">
        <ele>2696.8</ele>
        <time>2019-07-29T17:03:21.472Z</time>
      </trkpt>
      <trkpt lat="4.861202" lon="-74.084031">
        <ele>2697.6</ele>
        <time>2019-07-29T17:03:22.472Z</time>
      </trkpt>
      <trkpt lat="4.861083" lon="-74.08409">
        <ele>2698.6</ele>
        <time>2019-07-29T17:03:23.472Z</time>
      </trkpt>
      <trkpt lat="4.860997" lon="-74.084134">
        <ele>2699</ele>
        <time>2019-07-29T17:03:24.472Z</time>
      </trkpt>
      <trkpt lat="4.860886" lon="-74.084191">
        <ele>2699.6</ele>
        <time>2019-07-29T17:03:25.472Z</time>
      </trkpt>
      <trkpt lat="4.860784" lon="-74.084255">
        <ele>2699.8</ele>
        <time>2019-07-29T17:03:26.472Z</time>
      </trkpt>
      <trkpt lat="4.860688" lon="-74.084333">
        <ele>2700.6</ele>
        <time>2019-07-29T17:03:27.472Z</time>
      </trkpt>
      <trkpt lat="4.860619" lon="-74.084381">
        <ele>2701.8</ele>
        <time>2019-07-29T17:03:28.472Z</time>
      </trkpt>
      <trkpt lat="4.860596" lon="-74.084392">
        <ele>2702.2</ele>
        <time>2019-07-29T17:03:29.472Z</time>
      </trkpt>
      <trkpt lat="4.860515" lon="-74.084403">
        <ele>2703.2</ele>
        <time>2019-07-29T17:03:30.472Z</time>
      </trkpt>
      <trkpt lat="4.86046" lon="-74.084395">
        <ele>2703.4</ele>
        <time>2019-07-29T17:03:31.472Z</time>
      </trkpt>
      <trkpt lat="4.860322" lon="-74.084326">
        <ele>2704</ele>
        <time>2019-07-29T17:03:32.472Z</time>
      </trkpt>
      <trkpt lat="4.860264" lon="-74.084294">
        <ele>2704.2</ele>
        <time>2019-07-29T17:03:33.472Z</time>
      </trkpt>
      <trkpt lat="4.860115" lon="-74.084197">
        <ele>2704.8</ele>
        <time>2019-07-29T17:03:34.472Z</time>
      </trkpt>
      <trkpt lat="4.859939" lon="-74.084063">
        <ele>2704.6</ele>
        <time>2019-07-29T17:03:35.472Z</time>
      </trkpt>
      <trkpt lat="4.859815" lon="-74.083966">
        <ele>2705.2</ele>
        <time>2019-07-29T17:03:36.472Z</time>
      </trkpt>
      <trkpt lat="4.859769" lon="-74.083925">
        <ele>2706</ele>
        <time>2019-07-29T17:03:37.472Z</time>
      </trkpt>
      <trkpt lat="4.859735" lon="-74.08388">
        <ele>2706.4</ele>
        <time>2019-07-29T17:03:38.472Z</time>
      </trkpt>
      <trkpt lat="4.859711" lon="-74.08378">
        <ele>2706.4</ele>
        <time>2019-07-29T17:03:39.472Z</time>
      </trkpt>
      <trkpt lat="4.859753" lon="-74.083597">
        <ele>2707.2</ele>
        <time>2019-07-29T17:03:40.472Z</time>
      </trkpt>
      <trkpt lat="4.85976" lon="-74.083572">
        <ele>2707.8</ele>
        <time>2019-07-29T17:03:41.472Z</time>
      </trkpt>
      <trkpt lat="4.85978" lon="-74.083496">
        <ele>2708.8</ele>
        <time>2019-07-29T17:03:42.472Z</time>
      </trkpt>
      <trkpt lat="4.859771" lon="-74.083396">
        <ele>2709</ele>
        <time>2019-07-29T17:03:43.472Z</time>
      </trkpt>
      <trkpt lat="4.859734" lon="-74.083296">
        <ele>2710</ele>
        <time>2019-07-29T17:03:44.472Z</time>
      </trkpt>
      <trkpt lat="4.859669" lon="-74.083253">
        <ele>2711.2</ele>
        <time>2019-07-29T17:03:45.472Z</time>
      </trkpt>
      <trkpt lat="4.859561" lon="-74.08324">
        <ele>2712.2</ele>
        <time>2019-07-29T17:03:46.472Z</time>
      </trkpt>
      <trkpt lat="4.85948" lon="-74.083239">
        <ele>2712.8</ele>
        <time>2019-07-29T17:03:47.472Z</time>
      </trkpt>
      <trkpt lat="4.859352" lon="-74.083256">
        <ele>2713.2</ele>
        <time>2019-07-29T17:03:48.472Z</time>
      </trkpt>
      <trkpt lat="4.859328" lon="-74.083263">
        <ele>2713.6</ele>
        <time>2019-07-29T17:03:49.472Z</time>
      </trkpt>
      <trkpt lat="4.859259" lon="-74.083292">
        <ele>2714.4</ele>
        <time>2019-07-29T17:03:50.472Z</time>
      </trkpt>
      <trkpt lat="4.859206" lon="-74.083348">
        <ele>2715.2</ele>
        <time>2019-07-29T17:03:51.472Z</time>
      </trkpt>
      <trkpt lat="4.859175" lon="-74.083391">
        <ele>2715.6</ele>
        <time>2019-07-29T17:03:52.472Z</time>
      </trkpt>
      <trkpt lat="4.859135" lon="-74.083541">
        <ele>2716.2</ele>
        <time>2019-07-29T17:03:53.472Z</time>
      </trkpt>
      <trkpt lat="4.859158" lon="-74.083644">
        <ele>2716.6</ele>
        <time>2019-07-29T17:03:54.472Z</time>
      </trkpt>
      <trkpt lat="4.859186" lon="-74.083696">
        <ele>2716.6</ele>
        <time>2019-07-29T17:03:55.472Z</time>
      </trkpt>
      <trkpt lat="4.859337" lon="-74.083822">
        <ele>2717</ele>
        <time>2019-07-29T17:03:56.472Z</time>
      </trkpt>
      <trkpt lat="4.859465" lon="-74.083908">
        <ele>2717.8</ele>
        <time>2019-07-29T17:03:57.472Z</time>
      </trkpt>
      <trkpt lat="4.859507" lon="-74.083939">
        <ele>2718</ele>
        <time>2019-07-29T17:03:58.472Z</time>
      </trkpt>
      <trkpt lat="4.85963" lon="-74.084057">
        <ele>2718.4</ele>
        <time>2019-07-29T17:03:59.472Z</time>
      </trkpt>
      <trkpt lat="4.859703" lon="-74.084147">
        <ele>2719</ele>
        <time>2019-07-29T17:04:00.472Z</time>
      </trkpt>
      <trkpt lat="4.859818" lon="-74.084282">
        <ele>2719.6</ele>
        <time>2019-07-29T17:04:01.472Z</time>
      </trkpt>
      <trkpt lat="4.859893" lon="-74.084327">
        <ele>2720</ele>
        <time>2019-07-29T17:04:02.472Z</time>
      </trkpt>
      <trkpt lat="4.859947" lon="-74.084348">
        <ele>2720.6</ele>
        <time>2019-07-29T17:04:03.472Z</time>
      </trkpt>
      <trkpt lat="4.86007" lon="-74.084409">
        <ele>2721.2</ele>
        <time>2019-07-29T17:04:04.472Z</time>
      </trkpt>
      <trkpt lat="4.86013" lon="-74.08446">
        <ele>2722.4</ele>
        <time>2019-07-29T17:04:05.472Z</time>
      </trkpt>
      <trkpt lat="4.860144" lon="-74.08448">
        <ele>2722.8</ele>
        <time>2019-07-29T17:04:06.472Z</time>
      </trkpt>
      <trkpt lat="4.860185" lon="-74.08454">
        <ele>2723.4</ele>
        <time>2019-07-29T17:04:07.472Z</time>
      </trkpt>
      <trkpt lat="4.860225" lon="-74.084625">
        <ele>2724.2</ele>
        <time>2019-07-29T17:04:08.472Z</time>
      </trkpt>
      <trkpt lat="4.860265" lon="-74.084692">
        <ele>2724.6</ele>
        <time>2019-07-29T17:04:09.472Z</time>
      </trkpt>
      <trkpt lat="4.860295" lon="-74.084732">
        <ele>2725.6</ele>
        <time>2019-07-29T17:04:10.472Z</time>
      </trkpt>
      <trkpt lat="4.860326" lon="-74.084773">
        <ele>2726</ele>
        <time>2019-07-29T17:04:11.472Z</time>
      </trkpt>
      <trkpt lat="4.860441" lon="-74.084822">
        <ele>2725.8</ele>
        <time>2019-07-29T17:04:12.472Z</time>
      </trkpt>
      <trkpt lat="4.860515" lon="-74.084825">
        <ele>2727</ele>
        <time>2019-07-29T17:04:13.472Z</time>
      </trkpt>
      <trkpt lat="4.860589" lon="-74.084819">
        <ele>2727.4</ele>
        <time>2019-07-29T17:04:14.472Z</time>
      </trkpt>
      <trkpt lat="4.860674" lon="-74.084792">
        <ele>2728</ele>
        <time>2019-07-29T17:04:15.472Z</time>
      </trkpt>
      <trkpt lat="4.860744" lon="-74.084765">
        <ele>2728.6</ele>
        <time>2019-07-29T17:04:16.472Z</time>
      </trkpt>
      <trkpt lat="4.860808" lon="-74.08473">
        <ele>2729</ele>
        <time>2019-07-29T17:04:17.472Z</time>
      </trkpt>
      <trkpt lat="4.860871" lon="-74.084687">
        <ele>2729.2</ele>
        <time>2019-07-29T17:04:18.472Z</time>
      </trkpt>
      <trkpt lat="4.861058" lon="-74.084592">
        <ele>2730</ele>
        <time>2019-07-29T17:04:19.472Z</time>
      </trkpt>
      <trkpt lat="4.86109" lon="-74.084588">
        <ele>2730.2</ele>
        <time>2019-07-29T17:04:20.472Z</time>
      </trkpt>
      <trkpt lat="4.861263" lon="-74.084582">
        <ele>2730.6</ele>
        <time>2019-07-29T17:04:21.472Z</time>
      </trkpt>
      <trkpt lat="4.861385" lon="-74.084585">
        <ele>2729</ele>
        <time>2019-07-29T17:04:22.472Z</time>
      </trkpt>
      <trkpt lat="4.861703" lon="-74.084593">
        <ele>2730.4</ele>
        <time>2019-07-29T17:04:23.472Z</time>
      </trkpt>
      <trkpt lat="4.861741" lon="-74.084594">
        <ele>2731</ele>
        <time>2019-07-29T17:04:24.472Z</time>
      </trkpt>
      <trkpt lat="4.861856" lon="-74.084596">
        <ele>2731.4</ele>
        <time>2019-07-29T17:04:25.472Z</time>
      </trkpt>
      <trkpt lat="4.862087" lon="-74.084604">
        <ele>2731.4</ele>
        <time>2019-07-29T17:04:26.472Z</time>
      </trkpt>
      <trkpt lat="4.862196" lon="-74.084611">
        <ele>2732.6</ele>
        <time>2019-07-29T17:04:27.472Z</time>
      </trkpt>
      <trkpt lat="4.862419" lon="-74.084589">
        <ele>2733.6</ele>
        <time>2019-07-29T17:04:28.472Z</time>
      </trkpt>
      <trkpt lat="4.862628" lon="-74.084531">
        <ele>2735</ele>
        <time>2019-07-29T17:04:29.472Z</time>
      </trkpt>
      <trkpt lat="4.862662" lon="-74.084523">
        <ele>2735.4</ele>
        <time>2019-07-29T17:04:30.472Z</time>
      </trkpt>
      <trkpt lat="4.862731" lon="-74.084509">
        <ele>2736</ele>
        <time>2019-07-29T17:04:31.472Z</time>
      </trkpt>
      <trkpt lat="4.862935" lon="-74.084479">
        <ele>2737.4</ele>
        <time>2019-07-29T17:04:32.472Z</time>
      </trkpt>
      <trkpt lat="4.863004" lon="-74.08447">
        <ele>2738.2</ele>
        <time>2019-07-29T17:04:33.472Z</time>
      </trkpt>
      <trkpt lat="4.863039" lon="-74.084466">
        <ele>2738.6</ele>
        <time>2019-07-29T17:04:34.472Z</time>
      </trkpt>
      <trkpt lat="4.863212" lon="-74.084445">
        <ele>2739.8</ele>
        <time>2019-07-29T17:04:35.472Z</time>
      </trkpt>
      <trkpt lat="4.86328" lon="-74.084438">
        <ele>2740.6</ele>
        <time>2019-07-29T17:04:36.472Z</time>
      </trkpt>
      <trkpt lat="4.863315" lon="-74.084434">
        <ele>2741</ele>
        <time>2019-07-29T17:04:37.472Z</time>
      </trkpt>
      <trkpt lat="4.863485" lon="-74.084416">
        <ele>2742</ele>
        <time>2019-07-29T17:04:38.472Z</time>
      </trkpt>
      <trkpt lat="4.863618" lon="-74.084398">
        <ele>2742.4</ele>
        <time>2019-07-29T17:04:39.472Z</time>
      </trkpt>
      <trkpt lat="4.863808" lon="-74.084383">
        <ele>2743.2</ele>
        <time>2019-07-29T17:04:40.472Z</time>
      </trkpt>
      <trkpt lat="4.863892" lon="-74.084376">
        <ele>2744</ele>
        <time>2019-07-29T17:04:41.472Z</time>
      </trkpt>
      <trkpt lat="4.863921" lon="-74.084377">
        <ele>2744.2</ele>
        <time>2019-07-29T17:04:42.472Z</time>
      </trkpt>
      <trkpt lat="4.864045" lon="-74.08442">
        <ele>2745.2</ele>
        <time>2019-07-29T17:04:43.472Z</time>
      </trkpt>
      <trkpt lat="4.864068" lon="-74.084425">
        <ele>2745.6</ele>
        <time>2019-07-29T17:04:44.472Z</time>
      </trkpt>
      <trkpt lat="4.864158" lon="-74.084447">
        <ele>2746.2</ele>
        <time>2019-07-29T17:04:45.472Z</time>
      </trkpt>
      <trkpt lat="4.864174" lon="-74.084448">
        <ele>2746.4</ele>
        <time>2019-07-29T17:04:46.472Z</time>
      </trkpt>
      <trkpt lat="4.864174" lon="-74.084435">
        <ele>2746.4</ele>
        <time>2019-07-29T17:04:47.472Z</time>
      </trkpt>
      <trkpt lat="4.864163" lon="-74.084437">
        <ele>2746.6</ele>
        <time>2019-07-29T17:04:48.472Z</time>
      </trkpt>
      <trkpt lat="4.864091" lon="-74.084441">
        <ele>2745.8</ele>
        <time>2019-07-29T17:04:49.472Z</time>
      </trkpt>
      <trkpt lat="4.86406" lon="-74.084434">
        <ele>2745.4</ele>
        <time>2019-07-29T17:04:50.472Z</time>
      </trkpt>
      <trkpt lat="4.86394" lon="-74.084408">
        <ele>2744.8</ele>
        <time>2019-07-29T17:04:51.472Z</time>
      </trkpt>
      <trkpt lat="4.863894" lon="-74.084405">
        <ele>2744.2</ele>
        <time>2019-07-29T17:04:52.472Z</time>
      </trkpt>
      <trkpt lat="4.863847" lon="-74.084406">
        <ele>2743.8</ele>
        <time>2019-07-29T17:04:53.472Z</time>
      </trkpt>
      <trkpt lat="4.863798" lon="-74.084411">
        <ele>2743.2</ele>
        <time>2019-07-29T17:04:54.472Z</time>
      </trkpt>
      <trkpt lat="4.863695" lon="-74.084421">
        <ele>2742.2</ele>
        <time>2019-07-29T17:04:55.472Z</time>
      </trkpt>
      <trkpt lat="4.863582" lon="-74.084427">
        <ele>2741.4</ele>
        <time>2019-07-29T17:04:56.472Z</time>
      </trkpt>
      <trkpt lat="4.863524" lon="-74.084434">
        <ele>2741</ele>
        <time>2019-07-29T17:04:57.472Z</time>
      </trkpt>
      <trkpt lat="4.863338" lon="-74.084449">
        <ele>2740</ele>
        <time>2019-07-29T17:04:58.472Z</time>
      </trkpt>
      <trkpt lat="4.863205" lon="-74.084464">
        <ele>2739.4</ele>
        <time>2019-07-29T17:04:59.472Z</time>
      </trkpt>
      <trkpt lat="4.863134" lon="-74.084474">
        <ele>2738.8</ele>
        <time>2019-07-29T17:05:00.472Z</time>
      </trkpt>
      <trkpt lat="4.863064" lon="-74.084485">
        <ele>2737.6</ele>
        <time>2019-07-29T17:05:01.472Z</time>
      </trkpt>
      <trkpt lat="4.862751" lon="-74.084511">
        <ele>2736</ele>
        <time>2019-07-29T17:05:02.472Z</time>
      </trkpt>
      <trkpt lat="4.862439" lon="-74.084592">
        <ele>2734.6</ele>
        <time>2019-07-29T17:05:03.472Z</time>
      </trkpt>
      <trkpt lat="4.862353" lon="-74.084613">
        <ele>2733.6</ele>
        <time>2019-07-29T17:05:04.472Z</time>
      </trkpt>
      <trkpt lat="4.862268" lon="-74.084624">
        <ele>2732.6</ele>
        <time>2019-07-29T17:05:05.472Z</time>
      </trkpt>
      <trkpt lat="4.86218" lon="-74.084625">
        <ele>2731.8</ele>
        <time>2019-07-29T17:05:06.472Z</time>
      </trkpt>
      <trkpt lat="4.862089" lon="-74.084621">
        <ele>2731</ele>
        <time>2019-07-29T17:05:07.472Z</time>
      </trkpt>
      <trkpt lat="4.861995" lon="-74.084618">
        <ele>2730</ele>
        <time>2019-07-29T17:05:08.472Z</time>
      </trkpt>
      <trkpt lat="4.861899" lon="-74.084615">
        <ele>2729.4</ele>
        <time>2019-07-29T17:05:09.472Z</time>
      </trkpt>
      <trkpt lat="4.861802" lon="-74.084611">
        <ele>2729</ele>
        <time>2019-07-29T17:05:10.472Z</time>
      </trkpt>
      <trkpt lat="4.861504" lon="-74.084603">
        <ele>2727.8</ele>
        <time>2019-07-29T17:05:11.472Z</time>
      </trkpt>
      <trkpt lat="4.861306" lon="-74.084597">
        <ele>2726</ele>
        <time>2019-07-29T17:05:12.472Z</time>
      </trkpt>
      <trkpt lat="4.861121" lon="-74.084587">
        <ele>2724</ele>
        <time>2019-07-29T17:05:13.472Z</time>
      </trkpt>
      <trkpt lat="4.861034" lon="-74.084594">
        <ele>2723.2</ele>
        <time>2019-07-29T17:05:14.472Z</time>
      </trkpt>
      <trkpt lat="4.860953" lon="-74.084617">
        <ele>2722.8</ele>
        <time>2019-07-29T17:05:15.472Z</time>
      </trkpt>
      <trkpt lat="4.860731" lon="-74.084733">
        <ele>2722.2</ele>
        <time>2019-07-29T17:05:16.472Z</time>
      </trkpt>
      <trkpt lat="4.860654" lon="-74.084767">
        <ele>2722.2</ele>
        <time>2019-07-29T17:05:17.472Z</time>
      </trkpt>
      <trkpt lat="4.860499" lon="-74.084808">
        <ele>2722.6</ele>
        <time>2019-07-29T17:05:18.472Z</time>
      </trkpt>
      <trkpt lat="4.860362" lon="-74.084808">
        <ele>2722.2</ele>
        <time>2019-07-29T17:05:19.472Z</time>
      </trkpt>
      <trkpt lat="4.860253" lon="-74.084727">
        <ele>2721.2</ele>
        <time>2019-07-29T17:05:20.472Z</time>
      </trkpt>
      <trkpt lat="4.860208" lon="-74.084663">
        <ele>2720.2</ele>
        <time>2019-07-29T17:05:21.472Z</time>
      </trkpt>
      <trkpt lat="4.860163" lon="-74.084599">
        <ele>2719.6</ele>
        <time>2019-07-29T17:05:22.472Z</time>
      </trkpt>
      <trkpt lat="4.860081" lon="-74.084467">
        <ele>2717.2</ele>
        <time>2019-07-29T17:05:23.472Z</time>
      </trkpt>
      <trkpt lat="4.860031" lon="-74.084411">
        <ele>2716.2</ele>
        <time>2019-07-29T17:05:24.472Z</time>
      </trkpt>
      <trkpt lat="4.859969" lon="-74.084368">
        <ele>2715.4</ele>
        <time>2019-07-29T17:05:25.472Z</time>
      </trkpt>
      <trkpt lat="4.859896" lon="-74.084337">
        <ele>2715</ele>
        <time>2019-07-29T17:05:26.472Z</time>
      </trkpt>
      <trkpt lat="4.859754" lon="-74.084245">
        <ele>2714.2</ele>
        <time>2019-07-29T17:05:27.472Z</time>
      </trkpt>
      <trkpt lat="4.859695" lon="-74.08418">
        <ele>2713.8</ele>
        <time>2019-07-29T17:05:28.472Z</time>
      </trkpt>
      <trkpt lat="4.859513" lon="-74.083979">
        <ele>2712.6</ele>
        <time>2019-07-29T17:05:29.472Z</time>
      </trkpt>
      <trkpt lat="4.859369" lon="-74.083862">
        <ele>2711.6</ele>
        <time>2019-07-29T17:05:30.472Z</time>
      </trkpt>
      <trkpt lat="4.859298" lon="-74.083817">
        <ele>2711.4</ele>
        <time>2019-07-29T17:05:31.472Z</time>
      </trkpt>
      <trkpt lat="4.859237" lon="-74.083773">
        <ele>2711.2</ele>
        <time>2019-07-29T17:05:32.472Z</time>
      </trkpt>
      <trkpt lat="4.859147" lon="-74.083668">
        <ele>2710.4</ele>
        <time>2019-07-29T17:05:33.472Z</time>
      </trkpt>
      <trkpt lat="4.859122" lon="-74.083605">
        <ele>2710</ele>
        <time>2019-07-29T17:05:34.472Z</time>
      </trkpt>
      <trkpt lat="4.859112" lon="-74.083537">
        <ele>2710</ele>
        <time>2019-07-29T17:05:35.472Z</time>
      </trkpt>
      <trkpt lat="4.859145" lon="-74.083407">
        <ele>2709.4</ele>
        <time>2019-07-29T17:05:36.472Z</time>
      </trkpt>
      <trkpt lat="4.859229" lon="-74.08331">
        <ele>2707.6</ele>
        <time>2019-07-29T17:05:37.472Z</time>
      </trkpt>
      <trkpt lat="4.859273" lon="-74.08328">
        <ele>2707</ele>
        <time>2019-07-29T17:05:38.472Z</time>
      </trkpt>
      <trkpt lat="4.859322" lon="-74.083256">
        <ele>2706.2</ele>
        <time>2019-07-29T17:05:39.472Z</time>
      </trkpt>
      <trkpt lat="4.85942" lon="-74.083218">
        <ele>2705.6</ele>
        <time>2019-07-29T17:05:40.472Z</time>
      </trkpt>
      <trkpt lat="4.859478" lon="-74.083213">
        <ele>2704.8</ele>
        <time>2019-07-29T17:05:41.472Z</time>
      </trkpt>
      <trkpt lat="4.859612" lon="-74.083222">
        <ele>2703.4</ele>
        <time>2019-07-29T17:05:42.472Z</time>
      </trkpt>
      <trkpt lat="4.859672" lon="-74.083238">
        <ele>2702.8</ele>
        <time>2019-07-29T17:05:43.472Z</time>
      </trkpt>
      <trkpt lat="4.859726" lon="-74.083275">
        <ele>2702.4</ele>
        <time>2019-07-29T17:05:44.472Z</time>
      </trkpt>
      <trkpt lat="4.859764" lon="-74.083327">
        <ele>2702.2</ele>
        <time>2019-07-29T17:05:45.472Z</time>
      </trkpt>
      <trkpt lat="4.85979" lon="-74.083461">
        <ele>2701.6</ele>
        <time>2019-07-29T17:05:46.472Z</time>
      </trkpt>
      <trkpt lat="4.859782" lon="-74.083534">
        <ele>2701</ele>
        <time>2019-07-29T17:05:47.472Z</time>
      </trkpt>
      <trkpt lat="4.85976" lon="-74.083607">
        <ele>2700.4</ele>
        <time>2019-07-29T17:05:48.472Z</time>
      </trkpt>
      <trkpt lat="4.859738" lon="-74.083683">
        <ele>2699.4</ele>
        <time>2019-07-29T17:05:49.472Z</time>
      </trkpt>
      <trkpt lat="4.859734" lon="-74.083757">
        <ele>2698.8</ele>
        <time>2019-07-29T17:05:50.472Z</time>
      </trkpt>
      <trkpt lat="4.859752" lon="-74.083821">
        <ele>2697.8</ele>
        <time>2019-07-29T17:05:51.472Z</time>
      </trkpt>
      <trkpt lat="4.859793" lon="-74.083878">
        <ele>2696.8</ele>
        <time>2019-07-29T17:05:52.472Z</time>
      </trkpt>
      <trkpt lat="4.859848" lon="-74.083926">
        <ele>2695.6</ele>
        <time>2019-07-29T17:05:53.472Z</time>
      </trkpt>
      <trkpt lat="4.859907" lon="-74.083972">
        <ele>2695</ele>
        <time>2019-07-29T17:05:54.472Z</time>
      </trkpt>
      <trkpt lat="4.85997" lon="-74.084016">
        <ele>2694.6</ele>
        <time>2019-07-29T17:05:55.472Z</time>
      </trkpt>
      <trkpt lat="4.86016" lon="-74.08413">
        <ele>2692.6</ele>
        <time>2019-07-29T17:05:56.472Z</time>
      </trkpt>
      <trkpt lat="4.860222" lon="-74.084168">
        <ele>2691.8</ele>
        <time>2019-07-29T17:05:57.472Z</time>
      </trkpt>
      <trkpt lat="4.860283" lon="-74.084213">
        <ele>2691.6</ele>
        <time>2019-07-29T17:05:58.472Z</time>
      </trkpt>
      <trkpt lat="4.860405" lon="-74.08431">
        <ele>2691.6</ele>
        <time>2019-07-29T17:05:59.472Z</time>
      </trkpt>
      <trkpt lat="4.860481" lon="-74.084341">
        <ele>2691.4</ele>
        <time>2019-07-29T17:06:00.472Z</time>
      </trkpt>
      <trkpt lat="4.860571" lon="-74.084357">
        <ele>2691.4</ele>
        <time>2019-07-29T17:06:01.472Z</time>
      </trkpt>
      <trkpt lat="4.860731" lon="-74.084306">
        <ele>2691</ele>
        <time>2019-07-29T17:06:02.472Z</time>
      </trkpt>
      <trkpt lat="4.86079" lon="-74.084247">
        <ele>2690.2</ele>
        <time>2019-07-29T17:06:03.472Z</time>
      </trkpt>
      <trkpt lat="4.86093" lon="-74.084135">
        <ele>2688.8</ele>
        <time>2019-07-29T17:06:04.472Z</time>
      </trkpt>
      <trkpt lat="4.861017" lon="-74.084085">
        <ele>2688</ele>
        <time>2019-07-29T17:06:05.472Z</time>
      </trkpt>
      <trkpt lat="4.861108" lon="-74.084039">
        <ele>2686.8</ele>
        <time>2019-07-29T17:06:06.472Z</time>
      </trkpt>
      <trkpt lat="4.861202" lon="-74.083997">
        <ele>2685.4</ele>
        <time>2019-07-29T17:06:07.472Z</time>
      </trkpt>
      <trkpt lat="4.861385" lon="-74.083918">
        <ele>2684</ele>
        <time>2019-07-29T17:06:08.472Z</time>
      </trkpt>
      <trkpt lat="4.861469" lon="-74.083879">
        <ele>2683.8</ele>
        <time>2019-07-29T17:06:09.472Z</time>
      </trkpt>
      <trkpt lat="4.861557" lon="-74.083851">
        <ele>2683.6</ele>
        <time>2019-07-29T17:06:10.472Z</time>
      </trkpt>
      <trkpt lat="4.861739" lon="-74.083816">
        <ele>2683.4</ele>
        <time>2019-07-29T17:06:11.472Z</time>
      </trkpt>
      <trkpt lat="4.861923" lon="-74.083824">
        <ele>2683.2</ele>
        <time>2019-07-29T17:06:12.472Z</time>
      </trkpt>
      <trkpt lat="4.862009" lon="-74.08384">
        <ele>2682.4</ele>
        <time>2019-07-29T17:06:13.472Z</time>
      </trkpt>
      <trkpt lat="4.862172" lon="-74.08386">
        <ele>2680.6</ele>
        <time>2019-07-29T17:06:14.472Z</time>
      </trkpt>
      <trkpt lat="4.862328" lon="-74.083844">
        <ele>2680</ele>
        <time>2019-07-29T17:06:15.472Z</time>
      </trkpt>
      <trkpt lat="4.862403" lon="-74.08382">
        <ele>2679.8</ele>
        <time>2019-07-29T17:06:16.472Z</time>
      </trkpt>
      <trkpt lat="4.862461" lon="-74.083777">
        <ele>2679.4</ele>
        <time>2019-07-29T17:06:17.472Z</time>
      </trkpt>
      <trkpt lat="4.86252" lon="-74.083731">
        <ele>2679.6</ele>
        <time>2019-07-29T17:06:18.472Z</time>
      </trkpt>
      <trkpt lat="4.862719" lon="-74.083602">
        <ele>2679.2</ele>
        <time>2019-07-29T17:06:19.472Z</time>
      </trkpt>
      <trkpt lat="4.862795" lon="-74.083579">
        <ele>2678.8</ele>
        <time>2019-07-29T17:06:20.472Z</time>
      </trkpt>
      <trkpt lat="4.862875" lon="-74.083572">
        <ele>2678.6</ele>
        <time>2019-07-29T17:06:21.472Z</time>
      </trkpt>
      <trkpt lat="4.862956" lon="-74.083578">
        <ele>2678</ele>
        <time>2019-07-29T17:06:22.472Z</time>
      </trkpt>
      <trkpt lat="4.863042" lon="-74.083588">
        <ele>2677.4</ele>
        <time>2019-07-29T17:06:23.472Z</time>
      </trkpt>
      <trkpt lat="4.863128" lon="-74.083586">
        <ele>2677</ele>
        <time>2019-07-29T17:06:24.472Z</time>
      </trkpt>
      <trkpt lat="4.863194" lon="-74.083556">
        <ele>2676</ele>
        <time>2019-07-29T17:06:25.472Z</time>
      </trkpt>
      <trkpt lat="4.863242" lon="-74.083499">
        <ele>2675</ele>
        <time>2019-07-29T17:06:26.472Z</time>
      </trkpt>
      <trkpt lat="4.863272" lon="-74.083428">
        <ele>2674.2</ele>
        <time>2019-07-29T17:06:27.472Z</time>
      </trkpt>
      <trkpt lat="4.863287" lon="-74.08335">
        <ele>2673.6</ele>
        <time>2019-07-29T17:06:28.472Z</time>
      </trkpt>
      <trkpt lat="4.863254" lon="-74.083194">
        <ele>2673.4</ele>
        <time>2019-07-29T17:06:29.472Z</time>
      </trkpt>
      <trkpt lat="4.863246" lon="-74.083111">
        <ele>2673</ele>
        <time>2019-07-29T17:06:30.472Z</time>
      </trkpt>
      <trkpt lat="4.863262" lon="-74.082939">
        <ele>2672.4</ele>
        <time>2019-07-29T17:06:31.472Z</time>
      </trkpt>
      <trkpt lat="4.863279" lon="-74.082855">
        <ele>2670.8</ele>
        <time>2019-07-29T17:06:32.472Z</time>
      </trkpt>
      <trkpt lat="4.863302" lon="-74.082783">
        <ele>2669.8</ele>
        <time>2019-07-29T17:06:33.472Z</time>
      </trkpt>
      <trkpt lat="4.863331" lon="-74.082719">
        <ele>2668.8</ele>
        <time>2019-07-29T17:06:34.472Z</time>
      </trkpt>
      <trkpt lat="4.863365" lon="-74.082659">
        <ele>2668.2</ele>
        <time>2019-07-29T17:06:35.472Z</time>
      </trkpt>
      <trkpt lat="4.863504" lon="-74.082484">
        <ele>2667.4</ele>
        <time>2019-07-29T17:06:36.472Z</time>
      </trkpt>
      <trkpt lat="4.86355" lon="-74.082417">
        <ele>2667.4</ele>
        <time>2019-07-29T17:06:37.472Z</time>
      </trkpt>
      <trkpt lat="4.863633" lon="-74.082278">
        <ele>2666.2</ele>
        <time>2019-07-29T17:06:38.472Z</time>
      </trkpt>
      <trkpt lat="4.863664" lon="-74.082208">
        <ele>2665.2</ele>
        <time>2019-07-29T17:06:39.472Z</time>
      </trkpt>
      <trkpt lat="4.86369" lon="-74.082133">
        <ele>2664.2</ele>
        <time>2019-07-29T17:06:40.472Z</time>
      </trkpt>
      <trkpt lat="4.863706" lon="-74.082057">
        <ele>2663.6</ele>
        <time>2019-07-29T17:06:41.472Z</time>
      </trkpt>
      <trkpt lat="4.863716" lon="-74.08198">
        <ele>2662.8</ele>
        <time>2019-07-29T17:06:42.472Z</time>
      </trkpt>
      <trkpt lat="4.863716" lon="-74.081804">
        <ele>2661.6</ele>
        <time>2019-07-29T17:06:43.472Z</time>
      </trkpt>
      <trkpt lat="4.863716" lon="-74.081711">
        <ele>2661.4</ele>
        <time>2019-07-29T17:06:44.472Z</time>
      </trkpt>
      <trkpt lat="4.863723" lon="-74.081614">
        <ele>2661.4</ele>
        <time>2019-07-29T17:06:45.472Z</time>
      </trkpt>
      <trkpt lat="4.863777" lon="-74.081424">
        <ele>2660.6</ele>
        <time>2019-07-29T17:06:46.472Z</time>
      </trkpt>
      <trkpt lat="4.863825" lon="-74.081336">
        <ele>2659.6</ele>
        <time>2019-07-29T17:06:47.472Z</time>
      </trkpt>
      <trkpt lat="4.863943" lon="-74.081177">
        <ele>2658</ele>
        <time>2019-07-29T17:06:48.472Z</time>
      </trkpt>
      <trkpt lat="4.864091" lon="-74.081058">
        <ele>2657</ele>
        <time>2019-07-29T17:06:49.472Z</time>
      </trkpt>
      <trkpt lat="4.864172" lon="-74.081011">
        <ele>2656</ele>
        <time>2019-07-29T17:06:50.472Z</time>
      </trkpt>
      <trkpt lat="4.864253" lon="-74.080972">
        <ele>2655.2</ele>
        <time>2019-07-29T17:06:51.472Z</time>
      </trkpt>
      <trkpt lat="4.864422" lon="-74.080908">
        <ele>2654</ele>
        <time>2019-07-29T17:06:52.472Z</time>
      </trkpt>
      <trkpt lat="4.86459" lon="-74.080845">
        <ele>2653.4</ele>
        <time>2019-07-29T17:06:53.472Z</time>
      </trkpt>
      <trkpt lat="4.864864" lon="-74.080631">
        <ele>2653.4</ele>
        <time>2019-07-29T17:06:54.472Z</time>
      </trkpt>
      <trkpt lat="4.86492" lon="-74.08058">
        <ele>2653</ele>
        <time>2019-07-29T17:06:55.472Z</time>
      </trkpt>
      <trkpt lat="4.864976" lon="-74.080546">
        <ele>2652.8</ele>
        <time>2019-07-29T17:06:56.472Z</time>
      </trkpt>
      <trkpt lat="4.86504" lon="-74.080522">
        <ele>2652.4</ele>
        <time>2019-07-29T17:06:57.472Z</time>
      </trkpt>
      <trkpt lat="4.865233" lon="-74.080484">
        <ele>2651.8</ele>
        <time>2019-07-29T17:06:58.472Z</time>
      </trkpt>
      <trkpt lat="4.865284" lon="-74.080484">
        <ele>2651.6</ele>
        <time>2019-07-29T17:06:59.472Z</time>
      </trkpt>
      <trkpt lat="4.865374" lon="-74.08048">
        <ele>2651.4</ele>
        <time>2019-07-29T17:07:00.472Z</time>
      </trkpt>
      <trkpt lat="4.865468" lon="-74.08044">
        <ele>2651.2</ele>
        <time>2019-07-29T17:07:01.472Z</time>
      </trkpt>
      <trkpt lat="4.865523" lon="-74.080416">
        <ele>2651</ele>
        <time>2019-07-29T17:07:02.472Z</time>
      </trkpt>
      <trkpt lat="4.865586" lon="-74.080386">
        <ele>2650.2</ele>
        <time>2019-07-29T17:07:03.472Z</time>
      </trkpt>
      <trkpt lat="4.865731" lon="-74.080331">
        <ele>2648.6</ele>
        <time>2019-07-29T17:07:04.472Z</time>
      </trkpt>
      <trkpt lat="4.865894" lon="-74.080275">
        <ele>2646.8</ele>
        <time>2019-07-29T17:07:05.472Z</time>
      </trkpt>
      <trkpt lat="4.86598" lon="-74.080248">
        <ele>2645.4</ele>
        <time>2019-07-29T17:07:06.472Z</time>
      </trkpt>
      <trkpt lat="4.866155" lon="-74.080193">
        <ele>2643.8</ele>
        <time>2019-07-29T17:07:07.472Z</time>
      </trkpt>
      <trkpt lat="4.866243" lon="-74.080164">
        <ele>2643.2</ele>
        <time>2019-07-29T17:07:08.472Z</time>
      </trkpt>
      <trkpt lat="4.866333" lon="-74.080132">
        <ele>2642.8</ele>
        <time>2019-07-29T17:07:09.472Z</time>
      </trkpt>
      <trkpt lat="4.866611" lon="-74.080041">
        <ele>2641.6</ele>
        <time>2019-07-29T17:07:10.472Z</time>
      </trkpt>
      <trkpt lat="4.866901" lon="-74.079975">
        <ele>2640.2</ele>
        <time>2019-07-29T17:07:11.472Z</time>
      </trkpt>
      <trkpt lat="4.867094" lon="-74.079937">
        <ele>2639.2</ele>
        <time>2019-07-29T17:07:12.472Z</time>
      </trkpt>
      <trkpt lat="4.86737" lon="-74.079903">
        <ele>2638.4</ele>
        <time>2019-07-29T17:07:13.472Z</time>
      </trkpt>
      <trkpt lat="4.867462" lon="-74.079894">
        <ele>2638</ele>
        <time>2019-07-29T17:07:14.472Z</time>
      </trkpt>
      <trkpt lat="4.867646" lon="-74.079874">
        <ele>2636.8</ele>
        <time>2019-07-29T17:07:15.472Z</time>
      </trkpt>
      <trkpt lat="4.868018" lon="-74.079828">
        <ele>2636.2</ele>
        <time>2019-07-29T17:07:16.472Z</time>
      </trkpt>
      <trkpt lat="4.868198" lon="-74.079757">
        <ele>2635.2</ele>
        <time>2019-07-29T17:07:17.472Z</time>
      </trkpt>
      <trkpt lat="4.868285" lon="-74.079707">
        <ele>2633.8</ele>
        <time>2019-07-29T17:07:18.472Z</time>
      </trkpt>
      <trkpt lat="4.868355" lon="-74.079648">
        <ele>2632.8</ele>
        <time>2019-07-29T17:07:19.472Z</time>
      </trkpt>
      <trkpt lat="4.868437" lon="-74.079583">
        <ele>2631.2</ele>
        <time>2019-07-29T17:07:20.472Z</time>
      </trkpt>
      <trkpt lat="4.86852" lon="-74.079521">
        <ele>2630</ele>
        <time>2019-07-29T17:07:21.472Z</time>
      </trkpt>
      <trkpt lat="4.868604" lon="-74.079464">
        <ele>2629.2</ele>
        <time>2019-07-29T17:07:22.472Z</time>
      </trkpt>
      <trkpt lat="4.868687" lon="-74.079406">
        <ele>2628.8</ele>
        <time>2019-07-29T17:07:23.472Z</time>
      </trkpt>
      <trkpt lat="4.868766" lon="-74.079356">
        <ele>2627.8</ele>
        <time>2019-07-29T17:07:24.472Z</time>
      </trkpt>
      <trkpt lat="4.868851" lon="-74.079315">
        <ele>2627</ele>
        <time>2019-07-29T17:07:25.472Z</time>
      </trkpt>
      <trkpt lat="4.868944" lon="-74.079284">
        <ele>2626.2</ele>
        <time>2019-07-29T17:07:26.472Z</time>
      </trkpt>
      <trkpt lat="4.869351" lon="-74.079231">
        <ele>2626.4</ele>
        <time>2019-07-29T17:07:27.472Z</time>
      </trkpt>
      <trkpt lat="4.869561" lon="-74.079265">
        <ele>2625.8</ele>
        <time>2019-07-29T17:07:28.472Z</time>
      </trkpt>
      <trkpt lat="4.869667" lon="-74.079293">
        <ele>2625</ele>
        <time>2019-07-29T17:07:29.472Z</time>
      </trkpt>
      <trkpt lat="4.869767" lon="-74.079317">
        <ele>2623.6</ele>
        <time>2019-07-29T17:07:30.472Z</time>
      </trkpt>
      <trkpt lat="4.869861" lon="-74.07933">
        <ele>2622.2</ele>
        <time>2019-07-29T17:07:31.472Z</time>
      </trkpt>
      <trkpt lat="4.869953" lon="-74.079317">
        <ele>2621.2</ele>
        <time>2019-07-29T17:07:32.472Z</time>
      </trkpt>
      <trkpt lat="4.870021" lon="-74.079268">
        <ele>2620.4</ele>
        <time>2019-07-29T17:07:33.472Z</time>
      </trkpt>
      <trkpt lat="4.870082" lon="-74.079204">
        <ele>2619.8</ele>
        <time>2019-07-29T17:07:34.472Z</time>
      </trkpt>
      <trkpt lat="4.870128" lon="-74.079127">
        <ele>2619.2</ele>
        <time>2019-07-29T17:07:35.472Z</time>
      </trkpt>
      <trkpt lat="4.870181" lon="-74.078953">
        <ele>2618.6</ele>
        <time>2019-07-29T17:07:36.472Z</time>
      </trkpt>
      <trkpt lat="4.870211" lon="-74.078873">
        <ele>2618.4</ele>
        <time>2019-07-29T17:07:37.472Z</time>
      </trkpt>
      <trkpt lat="4.870248" lon="-74.0788">
        <ele>2618.2</ele>
        <time>2019-07-29T17:07:38.472Z</time>
      </trkpt>
      <trkpt lat="4.870294" lon="-74.078739">
        <ele>2618</ele>
        <time>2019-07-29T17:07:39.472Z</time>
      </trkpt>
      <trkpt lat="4.870352" lon="-74.078689">
        <ele>2618</ele>
        <time>2019-07-29T17:07:40.472Z</time>
      </trkpt>
      <trkpt lat="4.870695" lon="-74.078473">
        <ele>2616.8</ele>
        <time>2019-07-29T17:07:41.472Z</time>
      </trkpt>
      <trkpt lat="4.870768" lon="-74.078435">
        <ele>2616.4</ele>
        <time>2019-07-29T17:07:42.472Z</time>
      </trkpt>
      <trkpt lat="4.870921" lon="-74.078376">
        <ele>2615.6</ele>
        <time>2019-07-29T17:07:43.472Z</time>
      </trkpt>
      <trkpt lat="4.871001" lon="-74.078354">
        <ele>2615.8</ele>
        <time>2019-07-29T17:07:44.472Z</time>
      </trkpt>
      <trkpt lat="4.871082" lon="-74.07834">
        <ele>2615.6</ele>
        <time>2019-07-29T17:07:45.472Z</time>
      </trkpt>
      <trkpt lat="4.871327" lon="-74.078322">
        <ele>2615.2</ele>
        <time>2019-07-29T17:07:46.472Z</time>
      </trkpt>
      <trkpt lat="4.871561" lon="-74.078231">
        <ele>2614.8</ele>
        <time>2019-07-29T17:07:47.472Z</time>
      </trkpt>
      <trkpt lat="4.871632" lon="-74.078184">
        <ele>2614.8</ele>
        <time>2019-07-29T17:07:48.472Z</time>
      </trkpt>
      <trkpt lat="4.871699" lon="-74.078133">
        <ele>2614.6</ele>
        <time>2019-07-29T17:07:49.472Z</time>
      </trkpt>
      <trkpt lat="4.871835" lon="-74.078036">
        <ele>2614.4</ele>
        <time>2019-07-29T17:07:50.472Z</time>
      </trkpt>
      <trkpt lat="4.871912" lon="-74.078007">
        <ele>2614</ele>
        <time>2019-07-29T17:07:51.472Z</time>
      </trkpt>
      <trkpt lat="4.871992" lon="-74.07799">
        <ele>2613.2</ele>
        <time>2019-07-29T17:07:52.472Z</time>
      </trkpt>
      <trkpt lat="4.872072" lon="-74.077986">
        <ele>2612.6</ele>
        <time>2019-07-29T17:07:53.472Z</time>
      </trkpt>
      <trkpt lat="4.87215" lon="-74.078002">
        <ele>2612.4</ele>
        <time>2019-07-29T17:07:54.472Z</time>
      </trkpt>
      <trkpt lat="4.872223" lon="-74.078034">
        <ele>2612.2</ele>
        <time>2019-07-29T17:07:55.472Z</time>
      </trkpt>
      <trkpt lat="4.872343" lon="-74.078139">
        <ele>2611.6</ele>
        <time>2019-07-29T17:07:56.472Z</time>
      </trkpt>
      <trkpt lat="4.872456" lon="-74.078277">
        <ele>2610.8</ele>
        <time>2019-07-29T17:07:57.472Z</time>
      </trkpt>
      <trkpt lat="4.87252" lon="-74.078343">
        <ele>2610.6</ele>
        <time>2019-07-29T17:07:58.472Z</time>
      </trkpt>
      <trkpt lat="4.872592" lon="-74.0784">
        <ele>2610.4</ele>
        <time>2019-07-29T17:07:59.472Z</time>
      </trkpt>
      <trkpt lat="4.872673" lon="-74.078446">
        <ele>2610</ele>
        <time>2019-07-29T17:08:00.472Z</time>
      </trkpt>
      <trkpt lat="4.87276" lon="-74.078481">
        <ele>2609.6</ele>
        <time>2019-07-29T17:08:01.472Z</time>
      </trkpt>
      <trkpt lat="4.87285" lon="-74.078504">
        <ele>2609.2</ele>
        <time>2019-07-29T17:08:02.472Z</time>
      </trkpt>
      <trkpt lat="4.873038" lon="-74.078508">
        <ele>2608.4</ele>
        <time>2019-07-29T17:08:03.472Z</time>
      </trkpt>
      <trkpt lat="4.873132" lon="-74.0785">
        <ele>2607.8</ele>
        <time>2019-07-29T17:08:04.472Z</time>
      </trkpt>
      <trkpt lat="4.873223" lon="-74.078484">
        <ele>2607</ele>
        <time>2019-07-29T17:08:05.472Z</time>
      </trkpt>
      <trkpt lat="4.873386" lon="-74.078409">
        <ele>2606.4</ele>
        <time>2019-07-29T17:08:06.472Z</time>
      </trkpt>
      <trkpt lat="4.873502" lon="-74.078273">
        <ele>2606</ele>
        <time>2019-07-29T17:08:07.472Z</time>
      </trkpt>
      <trkpt lat="4.873545" lon="-74.078191">
        <ele>2605.6</ele>
        <time>2019-07-29T17:08:08.472Z</time>
      </trkpt>
      <trkpt lat="4.873624" lon="-74.07802">
        <ele>2604.6</ele>
        <time>2019-07-29T17:08:09.472Z</time>
      </trkpt>
      <trkpt lat="4.873705" lon="-74.077847">
        <ele>2603.8</ele>
        <time>2019-07-29T17:08:10.472Z</time>
      </trkpt>
      <trkpt lat="4.873749" lon="-74.077764">
        <ele>2603.4</ele>
        <time>2019-07-29T17:08:11.472Z</time>
      </trkpt>
      <trkpt lat="4.873793" lon="-74.077681">
        <ele>2602.8</ele>
        <time>2019-07-29T17:08:12.472Z</time>
      </trkpt>
      <trkpt lat="4.873825" lon="-74.077594">
        <ele>2602.2</ele>
        <time>2019-07-29T17:08:13.472Z</time>
      </trkpt>
      <trkpt lat="4.873843" lon="-74.077407">
        <ele>2601.6</ele>
        <time>2019-07-29T17:08:14.472Z</time>
      </trkpt>
      <trkpt lat="4.873831" lon="-74.077316">
        <ele>2601.2</ele>
        <time>2019-07-29T17:08:15.472Z</time>
      </trkpt>
      <trkpt lat="4.873794" lon="-74.077227">
        <ele>2600.4</ele>
        <time>2019-07-29T17:08:16.472Z</time>
      </trkpt>
      <trkpt lat="4.873741" lon="-74.077146">
        <ele>2599.4</ele>
        <time>2019-07-29T17:08:17.472Z</time>
      </trkpt>
      <trkpt lat="4.873677" lon="-74.077076">
        <ele>2598.2</ele>
        <time>2019-07-29T17:08:18.472Z</time>
      </trkpt>
      <trkpt lat="4.873607" lon="-74.077004">
        <ele>2597.2</ele>
        <time>2019-07-29T17:08:19.472Z</time>
      </trkpt>
      <trkpt lat="4.873457" lon="-74.076863">
        <ele>2595.6</ele>
        <time>2019-07-29T17:08:20.472Z</time>
      </trkpt>
      <trkpt lat="4.873398" lon="-74.076779">
        <ele>2595.2</ele>
        <time>2019-07-29T17:08:21.472Z</time>
      </trkpt>
      <trkpt lat="4.873281" lon="-74.076616">
        <ele>2594.2</ele>
        <time>2019-07-29T17:08:22.472Z</time>
      </trkpt>
      <trkpt lat="4.873138" lon="-74.076513">
        <ele>2592.8</ele>
        <time>2019-07-29T17:08:23.472Z</time>
      </trkpt>
      <trkpt lat="4.873049" lon="-74.076495">
        <ele>2592.2</ele>
        <time>2019-07-29T17:08:24.472Z</time>
      </trkpt>
      <trkpt lat="4.872952" lon="-74.076488">
        <ele>2591.6</ele>
        <time>2019-07-29T17:08:25.472Z</time>
      </trkpt>
      <trkpt lat="4.872773" lon="-74.076552">
        <ele>2591</ele>
        <time>2019-07-29T17:08:26.472Z</time>
      </trkpt>
      <trkpt lat="4.872605" lon="-74.076659">
        <ele>2591</ele>
        <time>2019-07-29T17:08:27.472Z</time>
      </trkpt>
      <trkpt lat="4.872543" lon="-74.076722">
        <ele>2590.8</ele>
        <time>2019-07-29T17:08:28.472Z</time>
      </trkpt>
      <trkpt lat="4.872502" lon="-74.076789">
        <ele>2590.4</ele>
        <time>2019-07-29T17:08:29.472Z</time>
      </trkpt>
      <trkpt lat="4.872466" lon="-74.076926">
        <ele>2588.6</ele>
        <time>2019-07-29T17:08:30.472Z</time>
      </trkpt>
      <trkpt lat="4.872527" lon="-74.077042">
        <ele>2587.4</ele>
        <time>2019-07-29T17:08:31.472Z</time>
      </trkpt>
      <trkpt lat="4.872688" lon="-74.077205">
        <ele>2586.4</ele>
        <time>2019-07-29T17:08:32.472Z</time>
      </trkpt>
      <trkpt lat="4.87285" lon="-74.077381">
        <ele>2586</ele>
        <time>2019-07-29T17:08:33.472Z</time>
      </trkpt>
      <trkpt lat="4.872896" lon="-74.077447">
        <ele>2585.8</ele>
        <time>2019-07-29T17:08:34.472Z</time>
      </trkpt>
      <trkpt lat="4.872935" lon="-74.077515">
        <ele>2585.2</ele>
        <time>2019-07-29T17:08:35.472Z</time>
      </trkpt>
      <trkpt lat="4.872958" lon="-74.077581">
        <ele>2584.6</ele>
        <time>2019-07-29T17:08:36.472Z</time>
      </trkpt>
      <trkpt lat="4.872953" lon="-74.077637">
        <ele>2583.8</ele>
        <time>2019-07-29T17:08:37.472Z</time>
      </trkpt>
      <trkpt lat="4.872923" lon="-74.077678">
        <ele>2583.6</ele>
        <time>2019-07-29T17:08:38.472Z</time>
      </trkpt>
      <trkpt lat="4.872829" lon="-74.07769">
        <ele>2583</ele>
        <time>2019-07-29T17:08:39.472Z</time>
      </trkpt>
      <trkpt lat="4.872786" lon="-74.077662">
        <ele>2583</ele>
        <time>2019-07-29T17:08:40.472Z</time>
      </trkpt>
      <trkpt lat="4.872554" lon="-74.077517">
        <ele>2582.6</ele>
        <time>2019-07-29T17:08:41.472Z</time>
      </trkpt>
      <trkpt lat="4.872401" lon="-74.077441">
        <ele>2581</ele>
        <time>2019-07-29T17:08:42.472Z</time>
      </trkpt>
      <trkpt lat="4.872311" lon="-74.077411">
        <ele>2580</ele>
        <time>2019-07-29T17:08:43.472Z</time>
      </trkpt>
      <trkpt lat="4.872216" lon="-74.07739">
        <ele>2579</ele>
        <time>2019-07-29T17:08:44.472Z</time>
      </trkpt>
      <trkpt lat="4.872119" lon="-74.077385">
        <ele>2577.8</ele>
        <time>2019-07-29T17:08:45.472Z</time>
      </trkpt>
      <trkpt lat="4.871914" lon="-74.077427">
        <ele>2576.2</ele>
        <time>2019-07-29T17:08:46.472Z</time>
      </trkpt>
      <trkpt lat="4.871716" lon="-74.077498">
        <ele>2575.2</ele>
        <time>2019-07-29T17:08:47.472Z</time>
      </trkpt>
      <trkpt lat="4.871518" lon="-74.077587">
        <ele>2573.4</ele>
        <time>2019-07-29T17:08:48.472Z</time>
      </trkpt>
      <trkpt lat="4.871338" lon="-74.077688">
        <ele>2572</ele>
        <time>2019-07-29T17:08:49.472Z</time>
      </trkpt>
      <trkpt lat="4.871148" lon="-74.077758">
        <ele>2570.6</ele>
        <time>2019-07-29T17:08:50.472Z</time>
      </trkpt>
      <trkpt lat="4.870631" lon="-74.07787">
        <ele>2569.2</ele>
        <time>2019-07-29T17:08:51.472Z</time>
      </trkpt>
      <trkpt lat="4.870518" lon="-74.077889">
        <ele>2568</ele>
        <time>2019-07-29T17:08:52.472Z</time>
      </trkpt>
      <trkpt lat="4.870407" lon="-74.077908">
        <ele>2566.6</ele>
        <time>2019-07-29T17:08:53.472Z</time>
      </trkpt>
      <trkpt lat="4.870194" lon="-74.077939">
        <ele>2565.6</ele>
        <time>2019-07-29T17:08:54.472Z</time>
      </trkpt>
      <trkpt lat="4.870094" lon="-74.077944">
        <ele>2565.2</ele>
        <time>2019-07-29T17:08:55.472Z</time>
      </trkpt>
      <trkpt lat="4.869994" lon="-74.07794">
        <ele>2565</ele>
        <time>2019-07-29T17:08:56.472Z</time>
      </trkpt>
      <trkpt lat="4.869899" lon="-74.077926">
        <ele>2564.6</ele>
        <time>2019-07-29T17:08:57.472Z</time>
      </trkpt>
      <trkpt lat="4.869806" lon="-74.077908">
        <ele>2564.4</ele>
        <time>2019-07-29T17:08:58.472Z</time>
      </trkpt>
      <trkpt lat="4.869624" lon="-74.077861">
        <ele>2563.4</ele>
        <time>2019-07-29T17:08:59.472Z</time>
      </trkpt>
      <trkpt lat="4.869437" lon="-74.077815">
        <ele>2562.4</ele>
        <time>2019-07-29T17:09:00.472Z</time>
      </trkpt>
      <trkpt lat="4.869171" lon="-74.077771">
        <ele>2561.6</ele>
        <time>2019-07-29T17:09:01.472Z</time>
      </trkpt>
      <trkpt lat="4.869089" lon="-74.077758">
        <ele>2561.4</ele>
        <time>2019-07-29T17:09:02.472Z</time>
      </trkpt>
      <trkpt lat="4.868909" lon="-74.077713">
        <ele>2560.2</ele>
        <time>2019-07-29T17:09:03.472Z</time>
      </trkpt>
      <trkpt lat="4.868658" lon="-74.077617">
        <ele>2559.2</ele>
        <time>2019-07-29T17:09:04.472Z</time>
      </trkpt>
      <trkpt lat="4.868348" lon="-74.077504">
        <ele>2558</ele>
        <time>2019-07-29T17:09:05.472Z</time>
      </trkpt>
      <trkpt lat="4.868165" lon="-74.077416">
        <ele>2556.8</ele>
        <time>2019-07-29T17:09:06.472Z</time>
      </trkpt>
      <trkpt lat="4.867992" lon="-74.077297">
        <ele>2555.6</ele>
        <time>2019-07-29T17:09:07.472Z</time>
      </trkpt>
      <trkpt lat="4.867938" lon="-74.077226">
        <ele>2555.2</ele>
        <time>2019-07-29T17:09:08.472Z</time>
      </trkpt>
      <trkpt lat="4.86789" lon="-74.077149">
        <ele>2555</ele>
        <time>2019-07-29T17:09:09.472Z</time>
      </trkpt>
      <trkpt lat="4.867844" lon="-74.077063">
        <ele>2554.6</ele>
        <time>2019-07-29T17:09:10.472Z</time>
      </trkpt>
      <trkpt lat="4.867769" lon="-74.07689">
        <ele>2553.2</ele>
        <time>2019-07-29T17:09:11.472Z</time>
      </trkpt>
      <trkpt lat="4.867648" lon="-74.076551">
        <ele>2551.6</ele>
        <time>2019-07-29T17:09:12.472Z</time>
      </trkpt>
      <trkpt lat="4.867562" lon="-74.076308">
        <ele>2552</ele>
        <time>2019-07-29T17:09:13.472Z</time>
      </trkpt>
      <trkpt lat="4.867436" lon="-74.07594">
        <ele>2551</ele>
        <time>2019-07-29T17:09:14.472Z</time>
      </trkpt>
      <trkpt lat="4.867418" lon="-74.075884">
        <ele>2550</ele>
        <time>2019-07-29T17:09:15.472Z</time>
      </trkpt>
      <trkpt lat="4.867239" lon="-74.075286">
        <ele>2575.8</ele>
        <time>2019-07-29T16:59:33.472Z</time>
      </trkpt>
      <trkpt lat="4.867248" lon="-74.075295">
        <ele>2576.2</ele>
        <time>2019-07-29T16:59:34.472Z</time>
      </trkpt>
      <trkpt lat="4.867248" lon="-74.07531">
        <ele>2576.2</ele>
        <time>2019-07-29T16:59:35.472Z</time>
      </trkpt>
      <trkpt lat="4.867279" lon="-74.075463">
        <ele>2575.2</ele>
        <time>2019-07-29T16:59:36.472Z</time>
      </trkpt>
      <trkpt lat="4.867341" lon="-74.075627">
        <ele>2575.2</ele>
        <time>2019-07-29T16:59:37.472Z</time>
      </trkpt>
      <trkpt lat="4.867372" lon="-74.075715">
        <ele>2575.6</ele>
        <time>2019-07-29T16:59:38.472Z</time>
      </trkpt>
      <trkpt lat="4.867404" lon="-74.075791">
        <ele>2576</ele>
        <time>2019-07-29T16:59:39.472Z</time>
      </trkpt>
      <trkpt lat="4.867422" lon="-74.075851">
        <ele>2576.6</ele>
        <time>2019-07-29T16:59:40.472Z</time>
      </trkpt>
      <trkpt lat="4.867433" lon="-74.075884">
        <ele>2576.8</ele>
        <time>2019-07-29T16:59:41.472Z</time>
      </trkpt>
      <trkpt lat="4.867456" lon="-74.075948">
        <ele>2577</ele>
        <time>2019-07-29T16:59:42.472Z</time>
      </trkpt>
      <trkpt lat="4.867479" lon="-74.076009">
        <ele>2577</ele>
        <time>2019-07-29T16:59:43.472Z</time>
      </trkpt>
      <trkpt lat="4.867502" lon="-74.076069">
        <ele>2577</ele>
        <time>2019-07-29T16:59:44.472Z</time>
      </trkpt>
      <trkpt lat="4.867525" lon="-74.076135">
        <ele>2578</ele>
        <time>2019-07-29T16:59:45.472Z</time>
      </trkpt>
      <trkpt lat="4.867537" lon="-74.076168">
        <ele>2578.2</ele>
        <time>2019-07-29T16:59:46.472Z</time>
      </trkpt>
      <trkpt lat="4.867581" lon="-74.0763">
        <ele>2579</ele>
        <time>2019-07-29T16:59:47.472Z</time>
      </trkpt>
      <trkpt lat="4.867589" lon="-74.076336">
        <ele>2579.4</ele>
        <time>2019-07-29T16:59:48.472Z</time>
      </trkpt>
      <trkpt lat="4.867608" lon="-74.076403">
        <ele>2580</ele>
        <time>2019-07-29T16:59:49.472Z</time>
      </trkpt>
      <trkpt lat="4.867621" lon="-74.076435">
        <ele>2580.4</ele>
        <time>2019-07-29T16:59:50.472Z</time>
      </trkpt>
      <trkpt lat="4.867709" lon="-74.076667">
        <ele>2580.8</ele>
        <time>2019-07-29T16:59:51.472Z</time>
      </trkpt>
      <trkpt lat="4.867771" lon="-74.076901">
        <ele>2581.6</ele>
        <time>2019-07-29T16:59:52.472Z</time>
      </trkpt>
      <trkpt lat="4.867874" lon="-74.077124">
        <ele>2582.8</ele>
        <time>2019-07-29T16:59:53.472Z</time>
      </trkpt>
      <trkpt lat="4.867894" lon="-74.077155">
        <ele>2582.8</ele>
        <time>2019-07-29T16:59:54.472Z</time>
      </trkpt>
      <trkpt lat="4.868026" lon="-74.077323">
        <ele>2583.2</ele>
        <time>2019-07-29T16:59:55.472Z</time>
      </trkpt>
      <trkpt lat="4.86805" lon="-74.077346">
        <ele>2583.8</ele>
        <time>2019-07-29T16:59:56.472Z</time>
      </trkpt>
      <trkpt lat="4.868079" lon="-74.077364">
        <ele>2584.4</ele>
        <time>2019-07-29T16:59:57.472Z</time>
      </trkpt>
      <trkpt lat="4.868133" lon="-74.0774">
        <ele>2585.6</ele>
        <time>2019-07-29T16:59:58.472Z</time>
      </trkpt>
      <trkpt lat="4.868211" lon="-74.077442">
        <ele>2586.4</ele>
        <time>2019-07-29T16:59:59.472Z</time>
      </trkpt>
      <trkpt lat="4.868236" lon="-74.07746">
        <ele>2586.6</ele>
        <time>2019-07-29T17:00:00.472Z</time>
      </trkpt>
      <trkpt lat="4.868385" lon="-74.077553">
        <ele>2587.2</ele>
        <time>2019-07-29T17:00:01.472Z</time>
      </trkpt>
      <trkpt lat="4.868426" lon="-74.077583">
        <ele>2587.6</ele>
        <time>2019-07-29T17:00:02.472Z</time>
      </trkpt>
      <trkpt lat="4.868513" lon="-74.077615">
        <ele>2588.6</ele>
        <time>2019-07-29T17:00:03.472Z</time>
      </trkpt>
      <trkpt lat="4.868546" lon="-74.077625">
        <ele>2588.8</ele>
        <time>2019-07-29T17:00:04.472Z</time>
      </trkpt>
      <trkpt lat="4.868698" lon="-74.077678">
        <ele>2589.8</ele>
        <time>2019-07-29T17:00:05.472Z</time>
      </trkpt>
      <trkpt lat="4.86877" lon="-74.077711">
        <ele>2590.2</ele>
        <time>2019-07-29T17:00:06.472Z</time>
      </trkpt>
      <trkpt lat="4.868904" lon="-74.077748">
        <ele>2591</ele>
        <time>2019-07-29T17:00:07.472Z</time>
      </trkpt>
      <trkpt lat="4.868968" lon="-74.077764">
        <ele>2591.2</ele>
        <time>2019-07-29T17:00:08.472Z</time>
      </trkpt>
      <trkpt lat="4.869128" lon="-74.077791">
        <ele>2591.8</ele>
        <time>2019-07-29T17:00:09.472Z</time>
      </trkpt>
      <trkpt lat="4.869302" lon="-74.077832">
        <ele>2592</ele>
        <time>2019-07-29T17:00:10.472Z</time>
      </trkpt>
      <trkpt lat="4.869341" lon="-74.077839">
        <ele>2592</ele>
        <time>2019-07-29T17:00:11.472Z</time>
      </trkpt>
      <trkpt lat="4.86945" lon="-74.077859">
        <ele>2593.2</ele>
        <time>2019-07-29T17:00:12.472Z</time>
      </trkpt>
      <trkpt lat="4.869517" lon="-74.077875">
        <ele>2594</ele>
        <time>2019-07-29T17:00:13.472Z</time>
      </trkpt>
      <trkpt lat="4.869585" lon="-74.077884">
        <ele>2594.4</ele>
        <time>2019-07-29T17:00:14.472Z</time>
      </trkpt>
      <trkpt lat="4.869693" lon="-74.077902">
        <ele>2594</ele>
        <time>2019-07-29T17:00:15.472Z</time>
      </trkpt>
      <trkpt lat="4.869918" lon="-74.077939">
        <ele>2595.4</ele>
        <time>2019-07-29T17:00:16.472Z</time>
      </trkpt>
      <trkpt lat="4.869958" lon="-74.077943">
        <ele>2595.8</ele>
        <time>2019-07-29T17:00:17.472Z</time>
      </trkpt>
      <trkpt lat="4.870079" lon="-74.077934">
        <ele>2597</ele>
        <time>2019-07-29T17:00:18.472Z</time>
      </trkpt>
      <trkpt lat="4.87012" lon="-74.077928">
        <ele>2597.4</ele>
        <time>2019-07-29T17:00:19.472Z</time>
      </trkpt>
      <trkpt lat="4.870385" lon="-74.07793">
        <ele>2597.8</ele>
        <time>2019-07-29T17:00:20.472Z</time>
      </trkpt>
      <trkpt lat="4.870483" lon="-74.077902">
        <ele>2598.2</ele>
        <time>2019-07-29T17:00:21.472Z</time>
      </trkpt>
      <trkpt lat="4.870655" lon="-74.077874">
        <ele>2599</ele>
        <time>2019-07-29T17:00:22.472Z</time>
      </trkpt>
      <trkpt lat="4.870739" lon="-74.077858">
        <ele>2599.2</ele>
        <time>2019-07-29T17:00:23.472Z</time>
      </trkpt>
      <trkpt lat="4.870886" lon="-74.07783">
        <ele>2599.6</ele>
        <time>2019-07-29T17:00:24.472Z</time>
      </trkpt>
      <trkpt lat="4.870947" lon="-74.077812">
        <ele>2600.4</ele>
        <time>2019-07-29T17:00:25.472Z</time>
      </trkpt>
      <trkpt lat="4.871074" lon="-74.077779">
        <ele>2601.6</ele>
        <time>2019-07-29T17:00:26.472Z</time>
      </trkpt>
      <trkpt lat="4.871218" lon="-74.077744">
        <ele>2602.4</ele>
        <time>2019-07-29T17:00:27.472Z</time>
      </trkpt>
      <trkpt lat="4.871258" lon="-74.07773">
        <ele>2602.8</ele>
        <time>2019-07-29T17:00:28.472Z</time>
      </trkpt>
      <trkpt lat="4.871442" lon="-74.07763">
        <ele>2603.8</ele>
        <time>2019-07-29T17:00:29.472Z</time>
      </trkpt>
      <trkpt lat="4.87148" lon="-74.077611">
        <ele>2604</ele>
        <time>2019-07-29T17:00:30.472Z</time>
      </trkpt>
      <trkpt lat="4.871637" lon="-74.07753">
        <ele>2604.8</ele>
        <time>2019-07-29T17:00:31.472Z</time>
      </trkpt>
      <trkpt lat="4.871715" lon="-74.077497">
        <ele>2605.8</ele>
        <time>2019-07-29T17:00:32.472Z</time>
      </trkpt>
      <trkpt lat="4.871785" lon="-74.077468">
        <ele>2606.2</ele>
        <time>2019-07-29T17:00:33.472Z</time>
      </trkpt>
      <trkpt lat="4.872001" lon="-74.077396">
        <ele>2607</ele>
        <time>2019-07-29T17:00:34.472Z</time>
      </trkpt>
      <trkpt lat="4.872097" lon="-74.077365">
        <ele>2608.4</ele>
        <time>2019-07-29T17:00:35.472Z</time>
      </trkpt>
      <trkpt lat="4.872186" lon="-74.077358">
        <ele>2609.2</ele>
        <time>2019-07-29T17:00:36.472Z</time>
      </trkpt>
      <trkpt lat="4.87222" lon="-74.077368">
        <ele>2609.4</ele>
        <time>2019-07-29T17:00:37.472Z</time>
      </trkpt>
      <trkpt lat="4.872411" lon="-74.07745">
        <ele>2610.4</ele>
        <time>2019-07-29T17:00:38.472Z</time>
      </trkpt>
      <trkpt lat="4.87256" lon="-74.077546">
        <ele>2611.8</ele>
        <time>2019-07-29T17:00:39.472Z</time>
      </trkpt>
      <trkpt lat="4.872633" lon="-74.077598">
        <ele>2612.4</ele>
        <time>2019-07-29T17:00:40.472Z</time>
      </trkpt>
      <trkpt lat="4.872748" lon="-74.077662">
        <ele>2612.8</ele>
        <time>2019-07-29T17:00:41.472Z</time>
      </trkpt>
      <trkpt lat="4.872788" lon="-74.077668">
        <ele>2613</ele>
        <time>2019-07-29T17:00:42.472Z</time>
      </trkpt>
      <trkpt lat="4.872832" lon="-74.077664">
        <ele>2613.2</ele>
        <time>2019-07-29T17:00:43.472Z</time>
      </trkpt>
      <trkpt lat="4.872891" lon="-74.077592">
        <ele>2613.4</ele>
        <time>2019-07-29T17:00:44.472Z</time>
      </trkpt>
      <trkpt lat="4.872912" lon="-74.077462">
        <ele>2613.6</ele>
        <time>2019-07-29T17:00:45.472Z</time>
      </trkpt>
      <trkpt lat="4.872858" lon="-74.077367">
        <ele>2614</ele>
        <time>2019-07-29T17:00:46.472Z</time>
      </trkpt>
      <trkpt lat="4.872814" lon="-74.077317">
        <ele>2614.6</ele>
        <time>2019-07-29T17:00:47.472Z</time>
      </trkpt>
      <trkpt lat="4.872665" lon="-74.077171">
        <ele>2615</ele>
        <time>2019-07-29T17:00:48.472Z</time>
      </trkpt>
      <trkpt lat="4.872571" lon="-74.077073">
        <ele>2615.2</ele>
        <time>2019-07-29T17:00:49.472Z</time>
      </trkpt>
      <trkpt lat="4.872494" lon="-74.076992">
        <ele>2616</ele>
        <time>2019-07-29T17:00:50.472Z</time>
      </trkpt>
      <trkpt lat="4.87248" lon="-74.076965">
        <ele>2616.2</ele>
        <time>2019-07-29T17:00:51.472Z</time>
      </trkpt>
      <trkpt lat="4.872466" lon="-74.076843">
        <ele>2616.8</ele>
        <time>2019-07-29T17:00:52.472Z</time>
      </trkpt>
      <trkpt lat="4.872476" lon="-74.076778">
        <ele>2617.4</ele>
        <time>2019-07-29T17:00:53.472Z</time>
      </trkpt>
      <trkpt lat="4.87254" lon="-74.076692">
        <ele>2618.4</ele>
        <time>2019-07-29T17:00:54.472Z</time>
      </trkpt>
      <trkpt lat="4.872565" lon="-74.076668">
        <ele>2618.6</ele>
        <time>2019-07-29T17:00:55.472Z</time>
      </trkpt>
      <trkpt lat="4.872712" lon="-74.076557">
        <ele>2619.6</ele>
        <time>2019-07-29T17:00:56.472Z</time>
      </trkpt>
      <trkpt lat="4.87276" lon="-74.076536">
        <ele>2619.6</ele>
        <time>2019-07-29T17:00:57.472Z</time>
      </trkpt>
      <trkpt lat="4.872896" lon="-74.076499">
        <ele>2620</ele>
        <time>2019-07-29T17:00:58.472Z</time>
      </trkpt>
      <trkpt lat="4.872957" lon="-74.076499">
        <ele>2620.6</ele>
        <time>2019-07-29T17:00:59.472Z</time>
      </trkpt>
      <trkpt lat="4.873086" lon="-74.076524">
        <ele>2621.6</ele>
        <time>2019-07-29T17:01:00.472Z</time>
      </trkpt>
      <trkpt lat="4.873118" lon="-74.076535">
        <ele>2622</ele>
        <time>2019-07-29T17:01:01.472Z</time>
      </trkpt>
      <trkpt lat="4.873236" lon="-74.07661">
        <ele>2623</ele>
        <time>2019-07-29T17:01:02.472Z</time>
      </trkpt>
      <trkpt lat="4.873347" lon="-74.076715">
        <ele>2623.8</ele>
        <time>2019-07-29T17:01:03.472Z</time>
      </trkpt>
      <trkpt lat="4.873381" lon="-74.076781">
        <ele>2624.2</ele>
        <time>2019-07-29T17:01:04.472Z</time>
      </trkpt>
      <trkpt lat="4.873427" lon="-74.07687">
        <ele>2624.8</ele>
        <time>2019-07-29T17:01:05.472Z</time>
      </trkpt>
      <trkpt lat="4.87349" lon="-74.07696">
        <ele>2625.4</ele>
        <time>2019-07-29T17:01:06.472Z</time>
      </trkpt>
      <trkpt lat="4.873561" lon="-74.077044">
        <ele>2625.8</ele>
        <time>2019-07-29T17:01:07.472Z</time>
      </trkpt>
      <trkpt lat="4.873608" lon="-74.077094">
        <ele>2626.4</ele>
        <time>2019-07-29T17:01:08.472Z</time>
      </trkpt>
      <trkpt lat="4.87368" lon="-74.077157">
        <ele>2626.4</ele>
        <time>2019-07-29T17:01:09.472Z</time>
      </trkpt>
      <trkpt lat="4.873774" lon="-74.077316">
        <ele>2627.4</ele>
        <time>2019-07-29T17:01:10.472Z</time>
      </trkpt>
      <trkpt lat="4.873787" lon="-74.077492">
        <ele>2628.4</ele>
        <time>2019-07-29T17:01:11.472Z</time>
      </trkpt>
      <trkpt lat="4.873783" lon="-74.077521">
        <ele>2628.6</ele>
        <time>2019-07-29T17:01:12.472Z</time>
      </trkpt>
      <trkpt lat="4.87374" lon="-74.077656">
        <ele>2629.6</ele>
        <time>2019-07-29T17:01:13.472Z</time>
      </trkpt>
      <trkpt lat="4.873648" lon="-74.077837">
        <ele>2630.8</ele>
        <time>2019-07-29T17:01:14.472Z</time>
      </trkpt>
      <trkpt lat="4.873632" lon="-74.077865">
        <ele>2631.2</ele>
        <time>2019-07-29T17:01:15.472Z</time>
      </trkpt>
      <trkpt lat="4.873587" lon="-74.07798">
        <ele>2631.8</ele>
        <time>2019-07-29T17:01:16.472Z</time>
      </trkpt>
      <trkpt lat="4.873521" lon="-74.078133">
        <ele>2632.8</ele>
        <time>2019-07-29T17:01:17.472Z</time>
      </trkpt>
      <trkpt lat="4.873508" lon="-74.078161">
        <ele>2633</ele>
        <time>2019-07-29T17:01:18.472Z</time>
      </trkpt>
      <trkpt lat="4.873403" lon="-74.078346">
        <ele>2634</ele>
        <time>2019-07-29T17:01:19.472Z</time>
      </trkpt>
      <trkpt lat="4.873226" lon="-74.078467">
        <ele>2634.6</ele>
        <time>2019-07-29T17:01:20.472Z</time>
      </trkpt>
      <trkpt lat="4.87311" lon="-74.078502">
        <ele>2635.2</ele>
        <time>2019-07-29T17:01:21.472Z</time>
      </trkpt>
      <trkpt lat="4.873018" lon="-74.078515">
        <ele>2635.4</ele>
        <time>2019-07-29T17:01:22.472Z</time>
      </trkpt>
      <trkpt lat="4.872888" lon="-74.07853">
        <ele>2636.2</ele>
        <time>2019-07-29T17:01:23.472Z</time>
      </trkpt>
      <trkpt lat="4.872791" lon="-74.078517">
        <ele>2636.8</ele>
        <time>2019-07-29T17:01:24.472Z</time>
      </trkpt>
      <trkpt lat="4.872729" lon="-74.078498">
        <ele>2637.2</ele>
        <time>2019-07-29T17:01:25.472Z</time>
      </trkpt>
      <trkpt lat="4.872573" lon="-74.078422">
        <ele>2638.2</ele>
        <time>2019-07-29T17:01:26.472Z</time>
      </trkpt>
      <trkpt lat="4.872545" lon="-74.078399">
        <ele>2638.2</ele>
        <time>2019-07-29T17:01:27.472Z</time>
      </trkpt>
      <trkpt lat="4.872352" lon="-74.078196">
        <ele>2639</ele>
        <time>2019-07-29T17:01:28.472Z</time>
      </trkpt>
      <trkpt lat="4.872287" lon="-74.078112">
        <ele>2639.2</ele>
        <time>2019-07-29T17:01:29.472Z</time>
      </trkpt>
      <trkpt lat="4.872203" lon="-74.078055">
        <ele>2640</ele>
        <time>2019-07-29T17:01:30.472Z</time>
      </trkpt>
      <trkpt lat="4.872015" lon="-74.078011">
        <ele>2640</ele>
        <time>2019-07-29T17:01:31.472Z</time>
      </trkpt>
      <trkpt lat="4.871818" lon="-74.078061">
        <ele>2640</ele>
        <time>2019-07-29T17:01:32.472Z</time>
      </trkpt>
      <trkpt lat="4.871767" lon="-74.078103">
        <ele>2640.4</ele>
        <time>2019-07-29T17:01:33.472Z</time>
      </trkpt>
      <trkpt lat="4.871696" lon="-74.078171">
        <ele>2641.6</ele>
        <time>2019-07-29T17:01:34.472Z</time>
      </trkpt>
      <trkpt lat="4.871641" lon="-74.078209">
        <ele>2641.8</ele>
        <time>2019-07-29T17:01:35.472Z</time>
      </trkpt>
      <trkpt lat="4.871396" lon="-74.07834">
        <ele>2642.2</ele>
        <time>2019-07-29T17:01:36.472Z</time>
      </trkpt>
      <trkpt lat="4.871057" lon="-74.078387">
        <ele>2642.4</ele>
        <time>2019-07-29T17:01:37.472Z</time>
      </trkpt>
      <trkpt lat="4.870936" lon="-74.078407">
        <ele>2642.8</ele>
        <time>2019-07-29T17:01:38.472Z</time>
      </trkpt>
      <trkpt lat="4.870722" lon="-74.078491">
        <ele>2643.8</ele>
        <time>2019-07-29T17:01:39.472Z</time>
      </trkpt>
      <trkpt lat="4.870687" lon="-74.07851">
        <ele>2644</ele>
        <time>2019-07-29T17:01:40.472Z</time>
      </trkpt>
      <trkpt lat="4.870652" lon="-74.078532">
        <ele>2644.2</ele>
        <time>2019-07-29T17:01:41.472Z</time>
      </trkpt>
      <trkpt lat="4.870476" lon="-74.07865">
        <ele>2644.4</ele>
        <time>2019-07-29T17:01:42.472Z</time>
      </trkpt>
      <trkpt lat="4.870297" lon="-74.078779">
        <ele>2644</ele>
        <time>2019-07-29T17:01:43.472Z</time>
      </trkpt>
      <trkpt lat="4.870271" lon="-74.078813">
        <ele>2644</ele>
        <time>2019-07-29T17:01:44.472Z</time>
      </trkpt>
      <trkpt lat="4.870249" lon="-74.078849">
        <ele>2644</ele>
        <time>2019-07-29T17:01:45.472Z</time>
      </trkpt>
      <trkpt lat="4.870171" lon="-74.079">
        <ele>2645.4</ele>
        <time>2019-07-29T17:01:46.472Z</time>
      </trkpt>
      <trkpt lat="4.870142" lon="-74.079079">
        <ele>2645.6</ele>
        <time>2019-07-29T17:01:47.472Z</time>
      </trkpt>
      <trkpt lat="4.870099" lon="-74.079194">
        <ele>2645.6</ele>
        <time>2019-07-29T17:01:48.472Z</time>
      </trkpt>
      <trkpt lat="4.870051" lon="-74.079259">
        <ele>2645.4</ele>
        <time>2019-07-29T17:01:49.472Z</time>
      </trkpt>
      <trkpt lat="4.869895" lon="-74.079344">
        <ele>2645.4</ele>
        <time>2019-07-29T17:01:50.472Z</time>
      </trkpt>
      <trkpt lat="4.869737" lon="-74.079347">
        <ele>2646.6</ele>
        <time>2019-07-29T17:01:51.472Z</time>
      </trkpt>
      <trkpt lat="4.869695" lon="-74.07934">
        <ele>2647</ele>
        <time>2019-07-29T17:01:52.472Z</time>
      </trkpt>
      <trkpt lat="4.869615" lon="-74.079323">
        <ele>2647.8</ele>
        <time>2019-07-29T17:01:53.472Z</time>
      </trkpt>
      <trkpt lat="4.869411" lon="-74.079281">
        <ele>2649</ele>
        <time>2019-07-29T17:01:54.472Z</time>
      </trkpt>
      <trkpt lat="4.869369" lon="-74.079275">
        <ele>2649.2</ele>
        <time>2019-07-29T17:01:55.472Z</time>
      </trkpt>
      <trkpt lat="4.869221" lon="-74.079277">
        <ele>2650</ele>
        <time>2019-07-29T17:01:56.472Z</time>
      </trkpt>
      <trkpt lat="4.869046" lon="-74.079284">
        <ele>2650.6</ele>
        <time>2019-07-29T17:01:57.472Z</time>
      </trkpt>
      <trkpt lat="4.868912" lon="-74.079303">
        <ele>2651.2</ele>
        <time>2019-07-29T17:01:58.472Z</time>
      </trkpt>
      <trkpt lat="4.868853" lon="-74.079324">
        <ele>2651.6</ele>
        <time>2019-07-29T17:01:59.472Z</time>
      </trkpt>
      <trkpt lat="4.868773" lon="-74.079355">
        <ele>2652.2</ele>
        <time>2019-07-29T17:02:00.472Z</time>
      </trkpt>
      <trkpt lat="4.868703" lon="-74.079419">
        <ele>2652.8</ele>
        <time>2019-07-29T17:02:01.472Z</time>
      </trkpt>
      <trkpt lat="4.868664" lon="-74.079461">
        <ele>2653.4</ele>
        <time>2019-07-29T17:02:02.472Z</time>
      </trkpt>
      <trkpt lat="4.868564" lon="-74.079558">
        <ele>2654</ele>
        <time>2019-07-29T17:02:03.472Z</time>
      </trkpt>
      <trkpt lat="4.868495" lon="-74.07961">
        <ele>2654.6</ele>
        <time>2019-07-29T17:02:04.472Z</time>
      </trkpt>
      <trkpt lat="4.868423" lon="-74.079671">
        <ele>2655.2</ele>
        <time>2019-07-29T17:02:05.472Z</time>
      </trkpt>
      <trkpt lat="4.868323" lon="-74.079736">
        <ele>2655.6</ele>
        <time>2019-07-29T17:02:06.472Z</time>
      </trkpt>
      <trkpt lat="4.868256" lon="-74.07978">
        <ele>2656.2</ele>
        <time>2019-07-29T17:02:07.472Z</time>
      </trkpt>
      <trkpt lat="4.868182" lon="-74.07982">
        <ele>2656.8</ele>
        <time>2019-07-29T17:02:08.472Z</time>
      </trkpt>
      <trkpt lat="4.868136" lon="-74.079835">
        <ele>2657</ele>
        <time>2019-07-29T17:02:09.472Z</time>
      </trkpt>
      <trkpt lat="4.867995" lon="-74.079877">
        <ele>2657.8</ele>
        <time>2019-07-29T17:02:10.472Z</time>
      </trkpt>
      <trkpt lat="4.867965" lon="-74.079884">
        <ele>2658.2</ele>
        <time>2019-07-29T17:02:11.472Z</time>
      </trkpt>
      <trkpt lat="4.867841" lon="-74.079895">
        <ele>2659</ele>
        <time>2019-07-29T17:02:12.472Z</time>
      </trkpt>
      <trkpt lat="4.867781" lon="-74.079904">
        <ele>2659.2</ele>
        <time>2019-07-29T17:02:13.472Z</time>
      </trkpt>
      <trkpt lat="4.867537" lon="-74.079923">
        <ele>2660</ele>
        <time>2019-07-29T17:02:14.472Z</time>
      </trkpt>
      <trkpt lat="4.867398" lon="-74.079952">
        <ele>2660.4</ele>
        <time>2019-07-29T17:02:15.472Z</time>
      </trkpt>
      <trkpt lat="4.86729" lon="-74.079976">
        <ele>2661</ele>
        <time>2019-07-29T17:02:16.472Z</time>
      </trkpt>
      <trkpt lat="4.867168" lon="-74.079984">
        <ele>2661.8</ele>
        <time>2019-07-29T17:02:17.472Z</time>
      </trkpt>
      <trkpt lat="4.866933" lon="-74.080024">
        <ele>2662.2</ele>
        <time>2019-07-29T17:02:18.472Z</time>
      </trkpt>
      <trkpt lat="4.866695" lon="-74.080063">
        <ele>2663.2</ele>
        <time>2019-07-29T17:02:19.472Z</time>
      </trkpt>
      <trkpt lat="4.86663" lon="-74.080079">
        <ele>2663.8</ele>
        <time>2019-07-29T17:02:20.472Z</time>
      </trkpt>
      <trkpt lat="4.866372" lon="-74.080159">
        <ele>2664.6</ele>
        <time>2019-07-29T17:02:21.472Z</time>
      </trkpt>
      <trkpt lat="4.86625" lon="-74.080201">
        <ele>2665.6</ele>
        <time>2019-07-29T17:02:22.472Z</time>
      </trkpt>
      <trkpt lat="4.866065" lon="-74.080261">
        <ele>2666.2</ele>
        <time>2019-07-29T17:02:23.472Z</time>
      </trkpt>
      <trkpt lat="4.866" lon="-74.080279">
        <ele>2666.6</ele>
        <time>2019-07-29T17:02:24.472Z</time>
      </trkpt>
      <trkpt lat="4.865771" lon="-74.080346">
        <ele>2667</ele>
        <time>2019-07-29T17:02:25.472Z</time>
      </trkpt>
      <trkpt lat="4.86562" lon="-74.080402">
        <ele>2667.8</ele>
        <time>2019-07-29T17:02:26.472Z</time>
      </trkpt>
      <trkpt lat="4.865504" lon="-74.080433">
        <ele>2668.6</ele>
        <time>2019-07-29T17:02:27.472Z</time>
      </trkpt>
      <trkpt lat="4.865479" lon="-74.080447">
        <ele>2669</ele>
        <time>2019-07-29T17:02:28.472Z</time>
      </trkpt>
      <trkpt lat="4.865383" lon="-74.080512">
        <ele>2670</ele>
        <time>2019-07-29T17:02:29.472Z</time>
      </trkpt>
      <trkpt lat="4.865358" lon="-74.080523">
        <ele>2670</ele>
        <time>2019-07-29T17:02:30.472Z</time>
      </trkpt>
      <trkpt lat="4.865217" lon="-74.080542">
        <ele>2671.4</ele>
        <time>2019-07-29T17:02:31.472Z</time>
      </trkpt>
      <trkpt lat="4.865013" lon="-74.080591">
        <ele>2672.4</ele>
        <time>2019-07-29T17:02:32.472Z</time>
      </trkpt>
      <trkpt lat="4.864984" lon="-74.080602">
        <ele>2672.6</ele>
        <time>2019-07-29T17:02:33.472Z</time>
      </trkpt>
      <trkpt lat="4.864868" lon="-74.080693">
        <ele>2673.4</ele>
        <time>2019-07-29T17:02:34.472Z</time>
      </trkpt>
      <trkpt lat="4.864705" lon="-74.080829">
        <ele>2674.2</ele>
        <time>2019-07-29T17:02:35.472Z</time>
      </trkpt>
      <trkpt lat="4.864481" lon="-74.08093">
        <ele>2674.4</ele>
        <time>2019-07-29T17:02:36.472Z</time>
      </trkpt>
      <trkpt lat="4.864448" lon="-74.080943">
        <ele>2674.6</ele>
        <time>2019-07-29T17:02:37.472Z</time>
      </trkpt>
      <trkpt lat="4.864225" lon="-74.081025">
        <ele>2675.4</ele>
        <time>2019-07-29T17:02:38.472Z</time>
      </trkpt>
      <trkpt lat="4.864134" lon="-74.081071">
        <ele>2675.8</ele>
        <time>2019-07-29T17:02:39.472Z</time>
      </trkpt>
      <trkpt lat="4.864057" lon="-74.081131">
        <ele>2676.2</ele>
        <time>2019-07-29T17:02:40.472Z</time>
      </trkpt>
      <trkpt lat="4.863972" lon="-74.081186">
        <ele>2677</ele>
        <time>2019-07-29T17:02:41.472Z</time>
      </trkpt>
      <trkpt lat="4.863898" lon="-74.081279">
        <ele>2676.8</ele>
        <time>2019-07-29T17:02:42.472Z</time>
      </trkpt>
      <trkpt lat="4.86381" lon="-74.081434">
        <ele>2678.2</ele>
        <time>2019-07-29T17:02:43.472Z</time>
      </trkpt>
      <trkpt lat="4.863797" lon="-74.08146">
        <ele>2678.4</ele>
        <time>2019-07-29T17:02:44.472Z</time>
      </trkpt>
      <trkpt lat="4.863762" lon="-74.081542">
        <ele>2679.2</ele>
        <time>2019-07-29T17:02:45.472Z</time>
      </trkpt>
      <trkpt lat="4.863744" lon="-74.081648">
        <ele>2679.6</ele>
        <time>2019-07-29T17:02:46.472Z</time>
      </trkpt>
      <trkpt lat="4.863747" lon="-74.081793">
        <ele>2680.2</ele>
        <time>2019-07-29T17:02:47.472Z</time>
      </trkpt>
      <trkpt lat="4.863746" lon="-74.081851">
        <ele>2681</ele>
        <time>2019-07-29T17:02:48.472Z</time>
      </trkpt>
      <trkpt lat="4.863748" lon="-74.081908">
        <ele>2681.4</ele>
        <time>2019-07-29T17:02:49.472Z</time>
      </trkpt>
      <trkpt lat="4.86374" lon="-74.082044">
        <ele>2682.2</ele>
        <time>2019-07-29T17:02:50.472Z</time>
      </trkpt>
      <trkpt lat="4.863738" lon="-74.082071">
        <ele>2682.4</ele>
        <time>2019-07-29T17:02:51.472Z</time>
      </trkpt>
      <trkpt lat="4.863679" lon="-74.082261">
        <ele>2683</ele>
        <time>2019-07-29T17:02:52.472Z</time>
      </trkpt>
      <trkpt lat="4.863607" lon="-74.082424">
        <ele>2683.2</ele>
        <time>2019-07-29T17:02:53.472Z</time>
      </trkpt>
      <trkpt lat="4.863591" lon="-74.082451">
        <ele>2683.4</ele>
        <time>2019-07-29T17:02:54.472Z</time>
      </trkpt>
      <trkpt lat="4.863481" lon="-74.082608">
        <ele>2684</ele>
        <time>2019-07-29T17:02:55.472Z</time>
      </trkpt>
      <trkpt lat="4.863419" lon="-74.082687">
        <ele>2684.2</ele>
        <time>2019-07-29T17:02:56.472Z</time>
      </trkpt>
      <trkpt lat="4.863339" lon="-74.082857">
        <ele>2684.6</ele>
        <time>2019-07-29T17:02:57.472Z</time>
      </trkpt>
      <trkpt lat="4.863326" lon="-74.082919">
        <ele>2685.8</ele>
        <time>2019-07-29T17:02:58.472Z</time>
      </trkpt>
      <trkpt lat="4.863305" lon="-74.083128">
        <ele>2685.6</ele>
        <time>2019-07-29T17:02:59.472Z</time>
      </trkpt>
      <trkpt lat="4.863326" lon="-74.083292">
        <ele>2687</ele>
        <time>2019-07-29T17:03:00.472Z</time>
      </trkpt>
      <trkpt lat="4.863331" lon="-74.083318">
        <ele>2687.2</ele>
        <time>2019-07-29T17:03:01.472Z</time>
      </trkpt>
      <trkpt lat="4.863334" lon="-74.083421">
        <ele>2688.4</ele>
        <time>2019-07-29T17:03:02.472Z</time>
      </trkpt>
      <trkpt lat="4.863329" lon="-74.083473">
        <ele>2688.8</ele>
        <time>2019-07-29T17:03:03.472Z</time>
      </trkpt>
      <trkpt lat="4.86325" lon="-74.0836">
        <ele>2689.2</ele>
        <time>2019-07-29T17:03:04.472Z</time>
      </trkpt>
      <trkpt lat="4.86322" lon="-74.083609">
        <ele>2689.4</ele>
        <time>2019-07-29T17:03:05.472Z</time>
      </trkpt>
      <trkpt lat="4.863096" lon="-74.083618">
        <ele>2690</ele>
        <time>2019-07-29T17:03:06.472Z</time>
      </trkpt>
      <trkpt lat="4.862864" lon="-74.083603">
        <ele>2690.6</ele>
        <time>2019-07-29T17:03:07.472Z</time>
      </trkpt>
      <trkpt lat="4.862726" lon="-74.083648">
        <ele>2691.6</ele>
        <time>2019-07-29T17:03:08.472Z</time>
      </trkpt>
      <trkpt lat="4.862703" lon="-74.083658">
        <ele>2692</ele>
        <time>2019-07-29T17:03:09.472Z</time>
      </trkpt>
      <trkpt lat="4.862659" lon="-74.083686">
        <ele>2692.8</ele>
        <time>2019-07-29T17:03:10.472Z</time>
      </trkpt>
      <trkpt lat="4.862586" lon="-74.083728">
        <ele>2693</ele>
        <time>2019-07-29T17:03:11.472Z</time>
      </trkpt>
      <trkpt lat="4.862426" lon="-74.083842">
        <ele>2693.2</ele>
        <time>2019-07-29T17:03:12.472Z</time>
      </trkpt>
      <trkpt lat="4.862229" lon="-74.083871">
        <ele>2693</ele>
        <time>2019-07-29T17:03:13.472Z</time>
      </trkpt>
      <trkpt lat="4.862093" lon="-74.083891">
        <ele>2693.8</ele>
        <time>2019-07-29T17:03:14.472Z</time>
      </trkpt>
      <trkpt lat="4.862065" lon="-74.083889">
        <ele>2694</ele>
        <time>2019-07-29T17:03:15.472Z</time>
      </trkpt>
      <trkpt lat="4.861915" lon="-74.083869">
        <ele>2695</ele>
        <time>2019-07-29T17:03:16.472Z</time>
      </trkpt>
      <trkpt lat="4.861887" lon="-74.083861">
        <ele>2695</ele>
        <time>2019-07-29T17:03:17.472Z</time>
      </trkpt>
      <trkpt lat="4.861705" lon="-74.083849">
        <ele>2695.4</ele>
        <time>2019-07-29T17:03:18.472Z</time>
      </trkpt>
      <trkpt lat="4.861471" lon="-74.083879">
        <ele>2695.8</ele>
        <time>2019-07-29T17:03:19.472Z</time>
      </trkpt>
      <trkpt lat="4.861446" lon="-74.083892">
        <ele>2696.2</ele>
        <time>2019-07-29T17:03:20.472Z</time>
      </trkpt>
      <trkpt lat="4.861286" lon="-74.083987">
        <ele>2696.8</ele>
        <time>2019-07-29T17:03:21.472Z</time>
      </trkpt>
      <trkpt lat="4.861202" lon="-74.084031">
        <ele>2697.6</ele>
        <time>2019-07-29T17:03:22.472Z</time>
      </trkpt>
      <trkpt lat="4.861083" lon="-74.08409">
        <ele>2698.6</ele>
        <time>2019-07-29T17:03:23.472Z</time>
      </trkpt>
      <trkpt lat="4.860997" lon="-74.084134">
        <ele>2699</ele>
        <time>2019-07-29T17:03:24.472Z</time>
      </trkpt>
      <trkpt lat="4.860886" lon="-74.084191">
        <ele>2699.6</ele>
        <time>2019-07-29T17:03:25.472Z</time>
      </trkpt>
      <trkpt lat="4.860784" lon="-74.084255">
        <ele>2699.8</ele>
        <time>2019-07-29T17:03:26.472Z</time>
      </trkpt>
      <trkpt lat="4.860688" lon="-74.084333">
        <ele>2700.6</ele>
        <time>2019-07-29T17:03:27.472Z</time>
      </trkpt>
      <trkpt lat="4.860619" lon="-74.084381">
        <ele>2701.8</ele>
        <time>2019-07-29T17:03:28.472Z</time>
      </trkpt>
      <trkpt lat="4.860596" lon="-74.084392">
        <ele>2702.2</ele>
        <time>2019-07-29T17:03:29.472Z</time>
      </trkpt>
      <trkpt lat="4.860515" lon="-74.084403">
        <ele>2703.2</ele>
        <time>2019-07-29T17:03:30.472Z</time>
      </trkpt>
      <trkpt lat="4.86046" lon="-74.084395">
        <ele>2703.4</ele>
        <time>2019-07-29T17:03:31.472Z</time>
      </trkpt>
      <trkpt lat="4.860322" lon="-74.084326">
        <ele>2704</ele>
        <time>2019-07-29T17:03:32.472Z</time>
      </trkpt>
      <trkpt lat="4.860264" lon="-74.084294">
        <ele>2704.2</ele>
        <time>2019-07-29T17:03:33.472Z</time>
      </trkpt>
      <trkpt lat="4.860115" lon="-74.084197">
        <ele>2704.8</ele>
        <time>2019-07-29T17:03:34.472Z</time>
      </trkpt>
      <trkpt lat="4.859939" lon="-74.084063">
        <ele>2704.6</ele>
        <time>2019-07-29T17:03:35.472Z</time>
      </trkpt>
      <trkpt lat="4.859815" lon="-74.083966">
        <ele>2705.2</ele>
        <time>2019-07-29T17:03:36.472Z</time>
      </trkpt>
      <trkpt lat="4.859769" lon="-74.083925">
        <ele>2706</ele>
        <time>2019-07-29T17:03:37.472Z</time>
      </trkpt>
      <trkpt lat="4.859735" lon="-74.08388">
        <ele>2706.4</ele>
        <time>2019-07-29T17:03:38.472Z</time>
      </trkpt>
      <trkpt lat="4.859711" lon="-74.08378">
        <ele>2706.4</ele>
        <time>2019-07-29T17:03:39.472Z</time>
      </trkpt>
      <trkpt lat="4.859753" lon="-74.083597">
        <ele>2707.2</ele>
        <time>2019-07-29T17:03:40.472Z</time>
      </trkpt>
      <trkpt lat="4.85976" lon="-74.083572">
        <ele>2707.8</ele>
        <time>2019-07-29T17:03:41.472Z</time>
      </trkpt>
      <trkpt lat="4.85978" lon="-74.083496">
        <ele>2708.8</ele>
        <time>2019-07-29T17:03:42.472Z</time>
      </trkpt>
      <trkpt lat="4.859771" lon="-74.083396">
        <ele>2709</ele>
        <time>2019-07-29T17:03:43.472Z</time>
      </trkpt>
      <trkpt lat="4.859734" lon="-74.083296">
        <ele>2710</ele>
        <time>2019-07-29T17:03:44.472Z</time>
      </trkpt>
      <trkpt lat="4.859669" lon="-74.083253">
        <ele>2711.2</ele>
        <time>2019-07-29T17:03:45.472Z</time>
      </trkpt>
      <trkpt lat="4.859561" lon="-74.08324">
        <ele>2712.2</ele>
        <time>2019-07-29T17:03:46.472Z</time>
      </trkpt>
      <trkpt lat="4.85948" lon="-74.083239">
        <ele>2712.8</ele>
        <time>2019-07-29T17:03:47.472Z</time>
      </trkpt>
      <trkpt lat="4.859352" lon="-74.083256">
        <ele>2713.2</ele>
        <time>2019-07-29T17:03:48.472Z</time>
      </trkpt>
      <trkpt lat="4.859328" lon="-74.083263">
        <ele>2713.6</ele>
        <time>2019-07-29T17:03:49.472Z</time>
      </trkpt>
      <trkpt lat="4.859259" lon="-74.083292">
        <ele>2714.4</ele>
        <time>2019-07-29T17:03:50.472Z</time>
      </trkpt>
      <trkpt lat="4.859206" lon="-74.083348">
        <ele>2715.2</ele>
        <time>2019-07-29T17:03:51.472Z</time>
      </trkpt>
      <trkpt lat="4.859175" lon="-74.083391">
        <ele>2715.6</ele>
        <time>2019-07-29T17:03:52.472Z</time>
      </trkpt>
      <trkpt lat="4.859135" lon="-74.083541">
        <ele>2716.2</ele>
        <time>2019-07-29T17:03:53.472Z</time>
      </trkpt>
      <trkpt lat="4.859158" lon="-74.083644">
        <ele>2716.6</ele>
        <time>2019-07-29T17:03:54.472Z</time>
      </trkpt>
      <trkpt lat="4.859186" lon="-74.083696">
        <ele>2716.6</ele>
        <time>2019-07-29T17:03:55.472Z</time>
      </trkpt>
      <trkpt lat="4.859337" lon="-74.083822">
        <ele>2717</ele>
        <time>2019-07-29T17:03:56.472Z</time>
      </trkpt>
      <trkpt lat="4.859465" lon="-74.083908">
        <ele>2717.8</ele>
        <time>2019-07-29T17:03:57.472Z</time>
      </trkpt>
      <trkpt lat="4.859507" lon="-74.083939">
        <ele>2718</ele>
        <time>2019-07-29T17:03:58.472Z</time>
      </trkpt>
      <trkpt lat="4.85963" lon="-74.084057">
        <ele>2718.4</ele>
        <time>2019-07-29T17:03:59.472Z</time>
      </trkpt>
      <trkpt lat="4.859703" lon="-74.084147">
        <ele>2719</ele>
        <time>2019-07-29T17:04:00.472Z</time>
      </trkpt>
      <trkpt lat="4.859818" lon="-74.084282">
        <ele>2719.6</ele>
        <time>2019-07-29T17:04:01.472Z</time>
      </trkpt>
      <trkpt lat="4.859893" lon="-74.084327">
        <ele>2720</ele>
        <time>2019-07-29T17:04:02.472Z</time>
      </trkpt>
      <trkpt lat="4.859947" lon="-74.084348">
        <ele>2720.6</ele>
        <time>2019-07-29T17:04:03.472Z</time>
      </trkpt>
      <trkpt lat="4.86007" lon="-74.084409">
        <ele>2721.2</ele>
        <time>2019-07-29T17:04:04.472Z</time>
      </trkpt>
      <trkpt lat="4.86013" lon="-74.08446">
        <ele>2722.4</ele>
        <time>2019-07-29T17:04:05.472Z</time>
      </trkpt>
      <trkpt lat="4.860144" lon="-74.08448">
        <ele>2722.8</ele>
        <time>2019-07-29T17:04:06.472Z</time>
      </trkpt>
      <trkpt lat="4.860185" lon="-74.08454">
        <ele>2723.4</ele>
        <time>2019-07-29T17:04:07.472Z</time>
      </trkpt>
      <trkpt lat="4.860225" lon="-74.084625">
        <ele>2724.2</ele>
        <time>2019-07-29T17:04:08.472Z</time>
      </trkpt>
      <trkpt lat="4.860265" lon="-74.084692">
        <ele>2724.6</ele>
        <time>2019-07-29T17:04:09.472Z</time>
      </trkpt>
      <trkpt lat="4.860295" lon="-74.084732">
        <ele>2725.6</ele>
        <time>2019-07-29T17:04:10.472Z</time>
      </trkpt>
      <trkpt lat="4.860326" lon="-74.084773">
        <ele>2726</ele>
        <time>2019-07-29T17:04:11.472Z</time>
      </trkpt>
      <trkpt lat="4.860441" lon="-74.084822">
        <ele>2725.8</ele>
        <time>2019-07-29T17:04:12.472Z</time>
      </trkpt>
      <trkpt lat="4.860515" lon="-74.084825">
        <ele>2727</ele>
        <time>2019-07-29T17:04:13.472Z</time>
      </trkpt>
      <trkpt lat="4.860589" lon="-74.084819">
        <ele>2727.4</ele>
        <time>2019-07-29T17:04:14.472Z</time>
      </trkpt>
      <trkpt lat="4.860674" lon="-74.084792">
        <ele>2728</ele>
        <time>2019-07-29T17:04:15.472Z</time>
      </trkpt>
      <trkpt lat="4.860744" lon="-74.084765">
        <ele>2728.6</ele>
        <time>2019-07-29T17:04:16.472Z</time>
      </trkpt>
      <trkpt lat="4.860808" lon="-74.08473">
        <ele>2729</ele>
        <time>2019-07-29T17:04:17.472Z</time>
      </trkpt>
      <trkpt lat="4.860871" lon="-74.084687">
        <ele>2729.2</ele>
        <time>2019-07-29T17:04:18.472Z</time>
      </trkpt>
      <trkpt lat="4.861058" lon="-74.084592">
        <ele>2730</ele>
        <time>2019-07-29T17:04:19.472Z</time>
      </trkpt>
      <trkpt lat="4.86109" lon="-74.084588">
        <ele>2730.2</ele>
        <time>2019-07-29T17:04:20.472Z</time>
      </trkpt>
      <trkpt lat="4.861263" lon="-74.084582">
        <ele>2730.6</ele>
        <time>2019-07-29T17:04:21.472Z</time>
      </trkpt>
      <trkpt lat="4.861385" lon="-74.084585">
        <ele>2729</ele>
        <time>2019-07-29T17:04:22.472Z</time>
      </trkpt>
      <trkpt lat="4.861703" lon="-74.084593">
        <ele>2730.4</ele>
        <time>2019-07-29T17:04:23.472Z</time>
      </trkpt>
      <trkpt lat="4.861741" lon="-74.084594">
        <ele>2731</ele>
        <time>2019-07-29T17:04:24.472Z</time>
      </trkpt>
      <trkpt lat="4.861856" lon="-74.084596">
        <ele>2731.4</ele>
        <time>2019-07-29T17:04:25.472Z</time>
      </trkpt>
      <trkpt lat="4.862087" lon="-74.084604">
        <ele>2731.4</ele>
        <time>2019-07-29T17:04:26.472Z</time>
      </trkpt>
      <trkpt lat="4.862196" lon="-74.084611">
        <ele>2732.6</ele>
        <time>2019-07-29T17:04:27.472Z</time>
      </trkpt>
      <trkpt lat="4.862419" lon="-74.084589">
        <ele>2733.6</ele>
        <time>2019-07-29T17:04:28.472Z</time>
      </trkpt>
      <trkpt lat="4.862628" lon="-74.084531">
        <ele>2735</ele>
        <time>2019-07-29T17:04:29.472Z</time>
      </trkpt>
      <trkpt lat="4.862662" lon="-74.084523">
        <ele>2735.4</ele>
        <time>2019-07-29T17:04:30.472Z</time>
      </trkpt>
      <trkpt lat="4.862731" lon="-74.084509">
        <ele>2736</ele>
        <time>2019-07-29T17:04:31.472Z</time>
      </trkpt>
      <trkpt lat="4.862935" lon="-74.084479">
        <ele>2737.4</ele>
        <time>2019-07-29T17:04:32.472Z</time>
      </trkpt>
      <trkpt lat="4.863004" lon="-74.08447">
        <ele>2738.2</ele>
        <time>2019-07-29T17:04:33.472Z</time>
      </trkpt>
      <trkpt lat="4.863039" lon="-74.084466">
        <ele>2738.6</ele>
        <time>2019-07-29T17:04:34.472Z</time>
      </trkpt>
      <trkpt lat="4.863212" lon="-74.084445">
        <ele>2739.8</ele>
        <time>2019-07-29T17:04:35.472Z</time>
      </trkpt>
      <trkpt lat="4.86328" lon="-74.084438">
        <ele>2740.6</ele>
        <time>2019-07-29T17:04:36.472Z</time>
      </trkpt>
      <trkpt lat="4.863315" lon="-74.084434">
        <ele>2741</ele>
        <time>2019-07-29T17:04:37.472Z</time>
      </trkpt>
      <trkpt lat="4.863485" lon="-74.084416">
        <ele>2742</ele>
        <time>2019-07-29T17:04:38.472Z</time>
      </trkpt>
      <trkpt lat="4.863618" lon="-74.084398">
        <ele>2742.4</ele>
        <time>2019-07-29T17:04:39.472Z</time>
      </trkpt>
      <trkpt lat="4.863808" lon="-74.084383">
        <ele>2743.2</ele>
        <time>2019-07-29T17:04:40.472Z</time>
      </trkpt>
      <trkpt lat="4.863892" lon="-74.084376">
        <ele>2744</ele>
        <time>2019-07-29T17:04:41.472Z</time>
      </trkpt>
      <trkpt lat="4.863921" lon="-74.084377">
        <ele>2744.2</ele>
        <time>2019-07-29T17:04:42.472Z</time>
      </trkpt>
      <trkpt lat="4.864045" lon="-74.08442">
        <ele>2745.2</ele>
        <time>2019-07-29T17:04:43.472Z</time>
      </trkpt>
      <trkpt lat="4.864068" lon="-74.084425">
        <ele>2745.6</ele>
        <time>2019-07-29T17:04:44.472Z</time>
      </trkpt>
      <trkpt lat="4.864158" lon="-74.084447">
        <ele>2746.2</ele>
        <time>2019-07-29T17:04:45.472Z</time>
      </trkpt>
      <trkpt lat="4.864174" lon="-74.084448">
        <ele>2746.4</ele>
        <time>2019-07-29T17:04:46.472Z</time>
      </trkpt>
      <trkpt lat="4.864174" lon="-74.084435">
        <ele>2746.4</ele>
        <time>2019-07-29T17:04:47.472Z</time>
      </trkpt>
      <trkpt lat="4.864163" lon="-74.084437">
        <ele>2746.6</ele>
        <time>2019-07-29T17:04:48.472Z</time>
      </trkpt>
      <trkpt lat="4.864091" lon="-74.084441">
        <ele>2745.8</ele>
        <time>2019-07-29T17:04:49.472Z</time>
      </trkpt>
      <trkpt lat="4.86406" lon="-74.084434">
        <ele>2745.4</ele>
        <time>2019-07-29T17:04:50.472Z</time>
      </trkpt>
      <trkpt lat="4.86394" lon="-74.084408">
        <ele>2744.8</ele>
        <time>2019-07-29T17:04:51.472Z</time>
      </trkpt>
      <trkpt lat="4.863894" lon="-74.084405">
        <ele>2744.2</ele>
        <time>2019-07-29T17:04:52.472Z</time>
      </trkpt>
      <trkpt lat="4.863847" lon="-74.084406">
        <ele>2743.8</ele>
        <time>2019-07-29T17:04:53.472Z</time>
      </trkpt>
      <trkpt lat="4.863798" lon="-74.084411">
        <ele>2743.2</ele>
        <time>2019-07-29T17:04:54.472Z</time>
      </trkpt>
      <trkpt lat="4.863695" lon="-74.084421">
        <ele>2742.2</ele>
        <time>2019-07-29T17:04:55.472Z</time>
      </trkpt>
      <trkpt lat="4.863582" lon="-74.084427">
        <ele>2741.4</ele>
        <time>2019-07-29T17:04:56.472Z</time>
      </trkpt>
      <trkpt lat="4.863524" lon="-74.084434">
        <ele>2741</ele>
        <time>2019-07-29T17:04:57.472Z</time>
      </trkpt>
      <trkpt lat="4.863338" lon="-74.084449">
        <ele>2740</ele>
        <time>2019-07-29T17:04:58.472Z</time>
      </trkpt>
      <trkpt lat="4.863205" lon="-74.084464">
        <ele>2739.4</ele>
        <time>2019-07-29T17:04:59.472Z</time>
      </trkpt>
      <trkpt lat="4.863134" lon="-74.084474">
        <ele>2738.8</ele>
        <time>2019-07-29T17:05:00.472Z</time>
      </trkpt>
      <trkpt lat="4.863064" lon="-74.084485">
        <ele>2737.6</ele>
        <time>2019-07-29T17:05:01.472Z</time>
      </trkpt>
      <trkpt lat="4.862751" lon="-74.084511">
        <ele>2736</ele>
        <time>2019-07-29T17:05:02.472Z</time>
      </trkpt>
      <trkpt lat="4.862439" lon="-74.084592">
        <ele>2734.6</ele>
        <time>2019-07-29T17:05:03.472Z</time>
      </trkpt>
      <trkpt lat="4.862353" lon="-74.084613">
        <ele>2733.6</ele>
        <time>2019-07-29T17:05:04.472Z</time>
      </trkpt>
      <trkpt lat="4.862268" lon="-74.084624">
        <ele>2732.6</ele>
        <time>2019-07-29T17:05:05.472Z</time>
      </trkpt>
      <trkpt lat="4.86218" lon="-74.084625">
        <ele>2731.8</ele>
        <time>2019-07-29T17:05:06.472Z</time>
      </trkpt>
      <trkpt lat="4.862089" lon="-74.084621">
        <ele>2731</ele>
        <time>2019-07-29T17:05:07.472Z</time>
      </trkpt>
      <trkpt lat="4.861995" lon="-74.084618">
        <ele>2730</ele>
        <time>2019-07-29T17:05:08.472Z</time>
      </trkpt>
      <trkpt lat="4.861899" lon="-74.084615">
        <ele>2729.4</ele>
        <time>2019-07-29T17:05:09.472Z</time>
      </trkpt>
      <trkpt lat="4.861802" lon="-74.084611">
        <ele>2729</ele>
        <time>2019-07-29T17:05:10.472Z</time>
      </trkpt>
      <trkpt lat="4.861504" lon="-74.084603">
        <ele>2727.8</ele>
        <time>2019-07-29T17:05:11.472Z</time>
      </trkpt>
      <trkpt lat="4.861306" lon="-74.084597">
        <ele>2726</ele>
        <time>2019-07-29T17:05:12.472Z</time>
      </trkpt>
      <trkpt lat="4.861121" lon="-74.084587">
        <ele>2724</ele>
        <time>2019-07-29T17:05:13.472Z</time>
      </trkpt>
      <trkpt lat="4.861034" lon="-74.084594">
        <ele>2723.2</ele>
        <time>2019-07-29T17:05:14.472Z</time>
      </trkpt>
      <trkpt lat="4.860953" lon="-74.084617">
        <ele>2722.8</ele>
        <time>2019-07-29T17:05:15.472Z</time>
      </trkpt>
      <trkpt lat="4.860731" lon="-74.084733">
        <ele>2722.2</ele>
        <time>2019-07-29T17:05:16.472Z</time>
      </trkpt>
      <trkpt lat="4.860654" lon="-74.084767">
        <ele>2722.2</ele>
        <time>2019-07-29T17:05:17.472Z</time>
      </trkpt>
      <trkpt lat="4.860499" lon="-74.084808">
        <ele>2722.6</ele>
        <time>2019-07-29T17:05:18.472Z</time>
      </trkpt>
      <trkpt lat="4.860362" lon="-74.084808">
        <ele>2722.2</ele>
        <time>2019-07-29T17:05:19.472Z</time>
      </trkpt>
      <trkpt lat="4.860253" lon="-74.084727">
        <ele>2721.2</ele>
        <time>2019-07-29T17:05:20.472Z</time>
      </trkpt>
      <trkpt lat="4.860208" lon="-74.084663">
        <ele>2720.2</ele>
        <time>2019-07-29T17:05:21.472Z</time>
      </trkpt>
      <trkpt lat="4.860163" lon="-74.084599">
        <ele>2719.6</ele>
        <time>2019-07-29T17:05:22.472Z</time>
      </trkpt>
      <trkpt lat="4.860081" lon="-74.084467">
        <ele>2717.2</ele>
        <time>2019-07-29T17:05:23.472Z</time>
      </trkpt>
      <trkpt lat="4.860031" lon="-74.084411">
        <ele>2716.2</ele>
        <time>2019-07-29T17:05:24.472Z</time>
      </trkpt>
      <trkpt lat="4.859969" lon="-74.084368">
        <ele>2715.4</ele>
        <time>2019-07-29T17:05:25.472Z</time>
      </trkpt>
      <trkpt lat="4.859896" lon="-74.084337">
        <ele>2715</ele>
        <time>2019-07-29T17:05:26.472Z</time>
      </trkpt>
      <trkpt lat="4.859754" lon="-74.084245">
        <ele>2714.2</ele>
        <time>2019-07-29T17:05:27.472Z</time>
      </trkpt>
      <trkpt lat="4.859695" lon="-74.08418">
        <ele>2713.8</ele>
        <time>2019-07-29T17:05:28.472Z</time>
      </trkpt>
      <trkpt lat="4.859513" lon="-74.083979">
        <ele>2712.6</ele>
        <time>2019-07-29T17:05:29.472Z</time>
      </trkpt>
      <trkpt lat="4.859369" lon="-74.083862">
        <ele>2711.6</ele>
        <time>2019-07-29T17:05:30.472Z</time>
      </trkpt>
      <trkpt lat="4.859298" lon="-74.083817">
        <ele>2711.4</ele>
        <time>2019-07-29T17:05:31.472Z</time>
      </trkpt>
      <trkpt lat="4.859237" lon="-74.083773">
        <ele>2711.2</ele>
        <time>2019-07-29T17:05:32.472Z</time>
      </trkpt>
      <trkpt lat="4.859147" lon="-74.083668">
        <ele>2710.4</ele>
        <time>2019-07-29T17:05:33.472Z</time>
      </trkpt>
      <trkpt lat="4.859122" lon="-74.083605">
        <ele>2710</ele>
        <time>2019-07-29T17:05:34.472Z</time>
      </trkpt>
      <trkpt lat="4.859112" lon="-74.083537">
        <ele>2710</ele>
        <time>2019-07-29T17:05:35.472Z</time>
      </trkpt>
      <trkpt lat="4.859145" lon="-74.083407">
        <ele>2709.4</ele>
        <time>2019-07-29T17:05:36.472Z</time>
      </trkpt>
      <trkpt lat="4.859229" lon="-74.08331">
        <ele>2707.6</ele>
        <time>2019-07-29T17:05:37.472Z</time>
      </trkpt>
      <trkpt lat="4.859273" lon="-74.08328">
        <ele>2707</ele>
        <time>2019-07-29T17:05:38.472Z</time>
      </trkpt>
      <trkpt lat="4.859322" lon="-74.083256">
        <ele>2706.2</ele>
        <time>2019-07-29T17:05:39.472Z</time>
      </trkpt>
      <trkpt lat="4.85942" lon="-74.083218">
        <ele>2705.6</ele>
        <time>2019-07-29T17:05:40.472Z</time>
      </trkpt>
      <trkpt lat="4.859478" lon="-74.083213">
        <ele>2704.8</ele>
        <time>2019-07-29T17:05:41.472Z</time>
      </trkpt>
      <trkpt lat="4.859612" lon="-74.083222">
        <ele>2703.4</ele>
        <time>2019-07-29T17:05:42.472Z</time>
      </trkpt>
      <trkpt lat="4.859672" lon="-74.083238">
        <ele>2702.8</ele>
        <time>2019-07-29T17:05:43.472Z</time>
      </trkpt>
      <trkpt lat="4.859726" lon="-74.083275">
        <ele>2702.4</ele>
        <time>2019-07-29T17:05:44.472Z</time>
      </trkpt>
      <trkpt lat="4.859764" lon="-74.083327">
        <ele>2702.2</ele>
        <time>2019-07-29T17:05:45.472Z</time>
      </trkpt>
      <trkpt lat="4.85979" lon="-74.083461">
        <ele>2701.6</ele>
        <time>2019-07-29T17:05:46.472Z</time>
      </trkpt>
      <trkpt lat="4.859782" lon="-74.083534">
        <ele>2701</ele>
        <time>2019-07-29T17:05:47.472Z</time>
      </trkpt>
      <trkpt lat="4.85976" lon="-74.083607">
        <ele>2700.4</ele>
        <time>2019-07-29T17:05:48.472Z</time>
      </trkpt>
      <trkpt lat="4.859738" lon="-74.083683">
        <ele>2699.4</ele>
        <time>2019-07-29T17:05:49.472Z</time>
      </trkpt>
      <trkpt lat="4.859734" lon="-74.083757">
        <ele>2698.8</ele>
        <time>2019-07-29T17:05:50.472Z</time>
      </trkpt>
      <trkpt lat="4.859752" lon="-74.083821">
        <ele>2697.8</ele>
        <time>2019-07-29T17:05:51.472Z</time>
      </trkpt>
      <trkpt lat="4.859793" lon="-74.083878">
        <ele>2696.8</ele>
        <time>2019-07-29T17:05:52.472Z</time>
      </trkpt>
      <trkpt lat="4.859848" lon="-74.083926">
        <ele>2695.6</ele>
        <time>2019-07-29T17:05:53.472Z</time>
      </trkpt>
      <trkpt lat="4.859907" lon="-74.083972">
        <ele>2695</ele>
        <time>2019-07-29T17:05:54.472Z</time>
      </trkpt>
      <trkpt lat="4.85997" lon="-74.084016">
        <ele>2694.6</ele>
        <time>2019-07-29T17:05:55.472Z</time>
      </trkpt>
      <trkpt lat="4.86016" lon="-74.08413">
        <ele>2692.6</ele>
        <time>2019-07-29T17:05:56.472Z</time>
      </trkpt>
      <trkpt lat="4.860222" lon="-74.084168">
        <ele>2691.8</ele>
        <time>2019-07-29T17:05:57.472Z</time>
      </trkpt>
      <trkpt lat="4.860283" lon="-74.084213">
        <ele>2691.6</ele>
        <time>2019-07-29T17:05:58.472Z</time>
      </trkpt>
      <trkpt lat="4.860405" lon="-74.08431">
        <ele>2691.6</ele>
        <time>2019-07-29T17:05:59.472Z</time>
      </trkpt>
      <trkpt lat="4.860481" lon="-74.084341">
        <ele>2691.4</ele>
        <time>2019-07-29T17:06:00.472Z</time>
      </trkpt>
      <trkpt lat="4.860571" lon="-74.084357">
        <ele>2691.4</ele>
        <time>2019-07-29T17:06:01.472Z</time>
      </trkpt>
      <trkpt lat="4.860731" lon="-74.084306">
        <ele>2691</ele>
        <time>2019-07-29T17:06:02.472Z</time>
      </trkpt>
      <trkpt lat="4.86079" lon="-74.084247">
        <ele>2690.2</ele>
        <time>2019-07-29T17:06:03.472Z</time>
      </trkpt>
      <trkpt lat="4.86093" lon="-74.084135">
        <ele>2688.8</ele>
        <time>2019-07-29T17:06:04.472Z</time>
      </trkpt>
      <trkpt lat="4.861017" lon="-74.084085">
        <ele>2688</ele>
        <time>2019-07-29T17:06:05.472Z</time>
      </trkpt>
      <trkpt lat="4.861108" lon="-74.084039">
        <ele>2686.8</ele>
        <time>2019-07-29T17:06:06.472Z</time>
      </trkpt>
      <trkpt lat="4.861202" lon="-74.083997">
        <ele>2685.4</ele>
        <time>2019-07-29T17:06:07.472Z</time>
      </trkpt>
      <trkpt lat="4.861385" lon="-74.083918">
        <ele>2684</ele>
        <time>2019-07-29T17:06:08.472Z</time>
      </trkpt>
      <trkpt lat="4.861469" lon="-74.083879">
        <ele>2683.8</ele>
        <time>2019-07-29T17:06:09.472Z</time>
      </trkpt>
      <trkpt lat="4.861557" lon="-74.083851">
        <ele>2683.6</ele>
        <time>2019-07-29T17:06:10.472Z</time>
      </trkpt>
      <trkpt lat="4.861739" lon="-74.083816">
        <ele>2683.4</ele>
        <time>2019-07-29T17:06:11.472Z</time>
      </trkpt>
      <trkpt lat="4.861923" lon="-74.083824">
        <ele>2683.2</ele>
        <time>2019-07-29T17:06:12.472Z</time>
      </trkpt>
      <trkpt lat="4.862009" lon="-74.08384">
        <ele>2682.4</ele>
        <time>2019-07-29T17:06:13.472Z</time>
      </trkpt>
      <trkpt lat="4.862172" lon="-74.08386">
        <ele>2680.6</ele>
        <time>2019-07-29T17:06:14.472Z</time>
      </trkpt>
      <trkpt lat="4.862328" lon="-74.083844">
        <ele>2680</ele>
        <time>2019-07-29T17:06:15.472Z</time>
      </trkpt>
      <trkpt lat="4.862403" lon="-74.08382">
        <ele>2679.8</ele>
        <time>2019-07-29T17:06:16.472Z</time>
      </trkpt>
      <trkpt lat="4.862461" lon="-74.083777">
        <ele>2679.4</ele>
        <time>2019-07-29T17:06:17.472Z</time>
      </trkpt>
      <trkpt lat="4.86252" lon="-74.083731">
        <ele>2679.6</ele>
        <time>2019-07-29T17:06:18.472Z</time>
      </trkpt>
      <trkpt lat="4.862719" lon="-74.083602">
        <ele>2679.2</ele>
        <time>2019-07-29T17:06:19.472Z</time>
      </trkpt>
      <trkpt lat="4.862795" lon="-74.083579">
        <ele>2678.8</ele>
        <time>2019-07-29T17:06:20.472Z</time>
      </trkpt>
      <trkpt lat="4.862875" lon="-74.083572">
        <ele>2678.6</ele>
        <time>2019-07-29T17:06:21.472Z</time>
      </trkpt>
      <trkpt lat="4.862956" lon="-74.083578">
        <ele>2678</ele>
        <time>2019-07-29T17:06:22.472Z</time>
      </trkpt>
      <trkpt lat="4.863042" lon="-74.083588">
        <ele>2677.4</ele>
        <time>2019-07-29T17:06:23.472Z</time>
      </trkpt>
      <trkpt lat="4.863128" lon="-74.083586">
        <ele>2677</ele>
        <time>2019-07-29T17:06:24.472Z</time>
      </trkpt>
      <trkpt lat="4.863194" lon="-74.083556">
        <ele>2676</ele>
        <time>2019-07-29T17:06:25.472Z</time>
      </trkpt>
      <trkpt lat="4.863242" lon="-74.083499">
        <ele>2675</ele>
        <time>2019-07-29T17:06:26.472Z</time>
      </trkpt>
      <trkpt lat="4.863272" lon="-74.083428">
        <ele>2674.2</ele>
        <time>2019-07-29T17:06:27.472Z</time>
      </trkpt>
      <trkpt lat="4.863287" lon="-74.08335">
        <ele>2673.6</ele>
        <time>2019-07-29T17:06:28.472Z</time>
      </trkpt>
      <trkpt lat="4.863254" lon="-74.083194">
        <ele>2673.4</ele>
        <time>2019-07-29T17:06:29.472Z</time>
      </trkpt>
      <trkpt lat="4.863246" lon="-74.083111">
        <ele>2673</ele>
        <time>2019-07-29T17:06:30.472Z</time>
      </trkpt>
      <trkpt lat="4.863262" lon="-74.082939">
        <ele>2672.4</ele>
        <time>2019-07-29T17:06:31.472Z</time>
      </trkpt>
      <trkpt lat="4.863279" lon="-74.082855">
        <ele>2670.8</ele>
        <time>2019-07-29T17:06:32.472Z</time>
      </trkpt>
      <trkpt lat="4.863302" lon="-74.082783">
        <ele>2669.8</ele>
        <time>2019-07-29T17:06:33.472Z</time>
      </trkpt>
      <trkpt lat="4.863331" lon="-74.082719">
        <ele>2668.8</ele>
        <time>2019-07-29T17:06:34.472Z</time>
      </trkpt>
      <trkpt lat="4.863365" lon="-74.082659">
        <ele>2668.2</ele>
        <time>2019-07-29T17:06:35.472Z</time>
      </trkpt>
      <trkpt lat="4.863504" lon="-74.082484">
        <ele>2667.4</ele>
        <time>2019-07-29T17:06:36.472Z</time>
      </trkpt>
      <trkpt lat="4.86355" lon="-74.082417">
        <ele>2667.4</ele>
        <time>2019-07-29T17:06:37.472Z</time>
      </trkpt>
      <trkpt lat="4.863633" lon="-74.082278">
        <ele>2666.2</ele>
        <time>2019-07-29T17:06:38.472Z</time>
      </trkpt>
      <trkpt lat="4.863664" lon="-74.082208">
        <ele>2665.2</ele>
        <time>2019-07-29T17:06:39.472Z</time>
      </trkpt>
      <trkpt lat="4.86369" lon="-74.082133">
        <ele>2664.2</ele>
        <time>2019-07-29T17:06:40.472Z</time>
      </trkpt>
      <trkpt lat="4.863706" lon="-74.082057">
        <ele>2663.6</ele>
        <time>2019-07-29T17:06:41.472Z</time>
      </trkpt>
      <trkpt lat="4.863716" lon="-74.08198">
        <ele>2662.8</ele>
        <time>2019-07-29T17:06:42.472Z</time>
      </trkpt>
      <trkpt lat="4.863716" lon="-74.081804">
        <ele>2661.6</ele>
        <time>2019-07-29T17:06:43.472Z</time>
      </trkpt>
      <trkpt lat="4.863716" lon="-74.081711">
        <ele>2661.4</ele>
        <time>2019-07-29T17:06:44.472Z</time>
      </trkpt>
      <trkpt lat="4.863723" lon="-74.081614">
        <ele>2661.4</ele>
        <time>2019-07-29T17:06:45.472Z</time>
      </trkpt>
      <trkpt lat="4.863777" lon="-74.081424">
        <ele>2660.6</ele>
        <time>2019-07-29T17:06:46.472Z</time>
      </trkpt>
      <trkpt lat="4.863825" lon="-74.081336">
        <ele>2659.6</ele>
        <time>2019-07-29T17:06:47.472Z</time>
      </trkpt>
      <trkpt lat="4.863943" lon="-74.081177">
        <ele>2658</ele>
        <time>2019-07-29T17:06:48.472Z</time>
      </trkpt>
      <trkpt lat="4.864091" lon="-74.081058">
        <ele>2657</ele>
        <time>2019-07-29T17:06:49.472Z</time>
      </trkpt>
      <trkpt lat="4.864172" lon="-74.081011">
        <ele>2656</ele>
        <time>2019-07-29T17:06:50.472Z</time>
      </trkpt>
      <trkpt lat="4.864253" lon="-74.080972">
        <ele>2655.2</ele>
        <time>2019-07-29T17:06:51.472Z</time>
      </trkpt>
      <trkpt lat="4.864422" lon="-74.080908">
        <ele>2654</ele>
        <time>2019-07-29T17:06:52.472Z</time>
      </trkpt>
      <trkpt lat="4.86459" lon="-74.080845">
        <ele>2653.4</ele>
        <time>2019-07-29T17:06:53.472Z</time>
      </trkpt>
      <trkpt lat="4.864864" lon="-74.080631">
        <ele>2653.4</ele>
        <time>2019-07-29T17:06:54.472Z</time>
      </trkpt>
      <trkpt lat="4.86492" lon="-74.08058">
        <ele>2653</ele>
        <time>2019-07-29T17:06:55.472Z</time>
      </trkpt>
      <trkpt lat="4.864976" lon="-74.080546">
        <ele>2652.8</ele>
        <time>2019-07-29T17:06:56.472Z</time>
      </trkpt>
      <trkpt lat="4.86504" lon="-74.080522">
        <ele>2652.4</ele>
        <time>2019-07-29T17:06:57.472Z</time>
      </trkpt>
      <trkpt lat="4.865233" lon="-74.080484">
        <ele>2651.8</ele>
        <time>2019-07-29T17:06:58.472Z</time>
      </trkpt>
      <trkpt lat="4.865284" lon="-74.080484">
        <ele>2651.6</ele>
        <time>2019-07-29T17:06:59.472Z</time>
      </trkpt>
      <trkpt lat="4.865374" lon="-74.08048">
        <ele>2651.4</ele>
        <time>2019-07-29T17:07:00.472Z</time>
      </trkpt>
      <trkpt lat="4.865468" lon="-74.08044">
        <ele>2651.2</ele>
        <time>2019-07-29T17:07:01.472Z</time>
      </trkpt>
      <trkpt lat="4.865523" lon="-74.080416">
        <ele>2651</ele>
        <time>2019-07-29T17:07:02.472Z</time>
      </trkpt>
      <trkpt lat="4.865586" lon="-74.080386">
        <ele>2650.2</ele>
        <time>2019-07-29T17:07:03.472Z</time>
      </trkpt>
      <trkpt lat="4.865731" lon="-74.080331">
        <ele>2648.6</ele>
        <time>2019-07-29T17:07:04.472Z</time>
      </trkpt>
      <trkpt lat="4.865894" lon="-74.080275">
        <ele>2646.8</ele>
        <time>2019-07-29T17:07:05.472Z</time>
      </trkpt>
      <trkpt lat="4.86598" lon="-74.080248">
        <ele>2645.4</ele>
        <time>2019-07-29T17:07:06.472Z</time>
      </trkpt>
      <trkpt lat="4.866155" lon="-74.080193">
        <ele>2643.8</ele>
        <time>2019-07-29T17:07:07.472Z</time>
      </trkpt>
      <trkpt lat="4.866243" lon="-74.080164">
        <ele>2643.2</ele>
        <time>2019-07-29T17:07:08.472Z</time>
      </trkpt>
      <trkpt lat="4.866333" lon="-74.080132">
        <ele>2642.8</ele>
        <time>2019-07-29T17:07:09.472Z</time>
      </trkpt>
      <trkpt lat="4.866611" lon="-74.080041">
        <ele>2641.6</ele>
        <time>2019-07-29T17:07:10.472Z</time>
      </trkpt>
      <trkpt lat="4.866901" lon="-74.079975">
        <ele>2640.2</ele>
        <time>2019-07-29T17:07:11.472Z</time>
      </trkpt>
      <trkpt lat="4.867094" lon="-74.079937">
        <ele>2639.2</ele>
        <time>2019-07-29T17:07:12.472Z</time>
      </trkpt>
      <trkpt lat="4.86737" lon="-74.079903">
        <ele>2638.4</ele>
        <time>2019-07-29T17:07:13.472Z</time>
      </trkpt>
      <trkpt lat="4.867462" lon="-74.079894">
        <ele>2638</ele>
        <time>2019-07-29T17:07:14.472Z</time>
      </trkpt>
      <trkpt lat="4.867646" lon="-74.079874">
        <ele>2636.8</ele>
        <time>2019-07-29T17:07:15.472Z</time>
      </trkpt>
      <trkpt lat="4.868018" lon="-74.079828">
        <ele>2636.2</ele>
        <time>2019-07-29T17:07:16.472Z</time>
      </trkpt>
      <trkpt lat="4.868198" lon="-74.079757">
        <ele>2635.2</ele>
        <time>2019-07-29T17:07:17.472Z</time>
      </trkpt>
      <trkpt lat="4.868285" lon="-74.079707">
        <ele>2633.8</ele>
        <time>2019-07-29T17:07:18.472Z</time>
      </trkpt>
      <trkpt lat="4.868355" lon="-74.079648">
        <ele>2632.8</ele>
        <time>2019-07-29T17:07:19.472Z</time>
      </trkpt>
      <trkpt lat="4.868437" lon="-74.079583">
        <ele>2631.2</ele>
        <time>2019-07-29T17:07:20.472Z</time>
      </trkpt>
      <trkpt lat="4.86852" lon="-74.079521">
        <ele>2630</ele>
        <time>2019-07-29T17:07:21.472Z</time>
      </trkpt>
      <trkpt lat="4.868604" lon="-74.079464">
        <ele>2629.2</ele>
        <time>2019-07-29T17:07:22.472Z</time>
      </trkpt>
      <trkpt lat="4.868687" lon="-74.079406">
        <ele>2628.8</ele>
        <time>2019-07-29T17:07:23.472Z</time>
      </trkpt>
      <trkpt lat="4.868766" lon="-74.079356">
        <ele>2627.8</ele>
        <time>2019-07-29T17:07:24.472Z</time>
      </trkpt>
      <trkpt lat="4.868851" lon="-74.079315">
        <ele>2627</ele>
        <time>2019-07-29T17:07:25.472Z</time>
      </trkpt>
      <trkpt lat="4.868944" lon="-74.079284">
        <ele>2626.2</ele>
        <time>2019-07-29T17:07:26.472Z</time>
      </trkpt>
      <trkpt lat="4.869351" lon="-74.079231">
        <ele>2626.4</ele>
        <time>2019-07-29T17:07:27.472Z</time>
      </trkpt>
      <trkpt lat="4.869561" lon="-74.079265">
        <ele>2625.8</ele>
        <time>2019-07-29T17:07:28.472Z</time>
      </trkpt>
      <trkpt lat="4.869667" lon="-74.079293">
        <ele>2625</ele>
        <time>2019-07-29T17:07:29.472Z</time>
      </trkpt>
      <trkpt lat="4.869767" lon="-74.079317">
        <ele>2623.6</ele>
        <time>2019-07-29T17:07:30.472Z</time>
      </trkpt>
      <trkpt lat="4.869861" lon="-74.07933">
        <ele>2622.2</ele>
        <time>2019-07-29T17:07:31.472Z</time>
      </trkpt>
      <trkpt lat="4.869953" lon="-74.079317">
        <ele>2621.2</ele>
        <time>2019-07-29T17:07:32.472Z</time>
      </trkpt>
      <trkpt lat="4.870021" lon="-74.079268">
        <ele>2620.4</ele>
        <time>2019-07-29T17:07:33.472Z</time>
      </trkpt>
      <trkpt lat="4.870082" lon="-74.079204">
        <ele>2619.8</ele>
        <time>2019-07-29T17:07:34.472Z</time>
      </trkpt>
      <trkpt lat="4.870128" lon="-74.079127">
        <ele>2619.2</ele>
        <time>2019-07-29T17:07:35.472Z</time>
      </trkpt>
      <trkpt lat="4.870181" lon="-74.078953">
        <ele>2618.6</ele>
        <time>2019-07-29T17:07:36.472Z</time>
      </trkpt>
      <trkpt lat="4.870211" lon="-74.078873">
        <ele>2618.4</ele>
        <time>2019-07-29T17:07:37.472Z</time>
      </trkpt>
      <trkpt lat="4.870248" lon="-74.0788">
        <ele>2618.2</ele>
        <time>2019-07-29T17:07:38.472Z</time>
      </trkpt>
      <trkpt lat="4.870294" lon="-74.078739">
        <ele>2618</ele>
        <time>2019-07-29T17:07:39.472Z</time>
      </trkpt>
      <trkpt lat="4.870352" lon="-74.078689">
        <ele>2618</ele>
        <time>2019-07-29T17:07:40.472Z</time>
      </trkpt>
      <trkpt lat="4.870695" lon="-74.078473">
        <ele>2616.8</ele>
        <time>2019-07-29T17:07:41.472Z</time>
      </trkpt>
      <trkpt lat="4.870768" lon="-74.078435">
        <ele>2616.4</ele>
        <time>2019-07-29T17:07:42.472Z</time>
      </trkpt>
      <trkpt lat="4.870921" lon="-74.078376">
        <ele>2615.6</ele>
        <time>2019-07-29T17:07:43.472Z</time>
      </trkpt>
      <trkpt lat="4.871001" lon="-74.078354">
        <ele>2615.8</ele>
        <time>2019-07-29T17:07:44.472Z</time>
      </trkpt>
      <trkpt lat="4.871082" lon="-74.07834">
        <ele>2615.6</ele>
        <time>2019-07-29T17:07:45.472Z</time>
      </trkpt>
      <trkpt lat="4.871327" lon="-74.078322">
        <ele>2615.2</ele>
        <time>2019-07-29T17:07:46.472Z</time>
      </trkpt>
      <trkpt lat="4.871561" lon="-74.078231">
        <ele>2614.8</ele>
        <time>2019-07-29T17:07:47.472Z</time>
      </trkpt>
      <trkpt lat="4.871632" lon="-74.078184">
        <ele>2614.8</ele>
        <time>2019-07-29T17:07:48.472Z</time>
      </trkpt>
      <trkpt lat="4.871699" lon="-74.078133">
        <ele>2614.6</ele>
        <time>2019-07-29T17:07:49.472Z</time>
      </trkpt>
      <trkpt lat="4.871835" lon="-74.078036">
        <ele>2614.4</ele>
        <time>2019-07-29T17:07:50.472Z</time>
      </trkpt>
      <trkpt lat="4.871912" lon="-74.078007">
        <ele>2614</ele>
        <time>2019-07-29T17:07:51.472Z</time>
      </trkpt>
      <trkpt lat="4.871992" lon="-74.07799">
        <ele>2613.2</ele>
        <time>2019-07-29T17:07:52.472Z</time>
      </trkpt>
      <trkpt lat="4.872072" lon="-74.077986">
        <ele>2612.6</ele>
        <time>2019-07-29T17:07:53.472Z</time>
      </trkpt>
      <trkpt lat="4.87215" lon="-74.078002">
        <ele>2612.4</ele>
        <time>2019-07-29T17:07:54.472Z</time>
      </trkpt>
      <trkpt lat="4.872223" lon="-74.078034">
        <ele>2612.2</ele>
        <time>2019-07-29T17:07:55.472Z</time>
      </trkpt>
      <trkpt lat="4.872343" lon="-74.078139">
        <ele>2611.6</ele>
        <time>2019-07-29T17:07:56.472Z</time>
      </trkpt>
      <trkpt lat="4.872456" lon="-74.078277">
        <ele>2610.8</ele>
        <time>2019-07-29T17:07:57.472Z</time>
      </trkpt>
      <trkpt lat="4.87252" lon="-74.078343">
        <ele>2610.6</ele>
        <time>2019-07-29T17:07:58.472Z</time>
      </trkpt>
      <trkpt lat="4.872592" lon="-74.0784">
        <ele>2610.4</ele>
        <time>2019-07-29T17:07:59.472Z</time>
      </trkpt>
      <trkpt lat="4.872673" lon="-74.078446">
        <ele>2610</ele>
        <time>2019-07-29T17:08:00.472Z</time>
      </trkpt>
      <trkpt lat="4.87276" lon="-74.078481">
        <ele>2609.6</ele>
        <time>2019-07-29T17:08:01.472Z</time>
      </trkpt>
      <trkpt lat="4.87285" lon="-74.078504">
        <ele>2609.2</ele>
        <time>2019-07-29T17:08:02.472Z</time>
      </trkpt>
      <trkpt lat="4.873038" lon="-74.078508">
        <ele>2608.4</ele>
        <time>2019-07-29T17:08:03.472Z</time>
      </trkpt>
      <trkpt lat="4.873132" lon="-74.0785">
        <ele>2607.8</ele>
        <time>2019-07-29T17:08:04.472Z</time>
      </trkpt>
      <trkpt lat="4.873223" lon="-74.078484">
        <ele>2607</ele>
        <time>2019-07-29T17:08:05.472Z</time>
      </trkpt>
      <trkpt lat="4.873386" lon="-74.078409">
        <ele>2606.4</ele>
        <time>2019-07-29T17:08:06.472Z</time>
      </trkpt>
      <trkpt lat="4.873502" lon="-74.078273">
        <ele>2606</ele>
        <time>2019-07-29T17:08:07.472Z</time>
      </trkpt>
      <trkpt lat="4.873545" lon="-74.078191">
        <ele>2605.6</ele>
        <time>2019-07-29T17:08:08.472Z</time>
      </trkpt>
      <trkpt lat="4.873624" lon="-74.07802">
        <ele>2604.6</ele>
        <time>2019-07-29T17:08:09.472Z</time>
      </trkpt>
      <trkpt lat="4.873705" lon="-74.077847">
        <ele>2603.8</ele>
        <time>2019-07-29T17:08:10.472Z</time>
      </trkpt>
      <trkpt lat="4.873749" lon="-74.077764">
        <ele>2603.4</ele>
        <time>2019-07-29T17:08:11.472Z</time>
      </trkpt>
      <trkpt lat="4.873793" lon="-74.077681">
        <ele>2602.8</ele>
        <time>2019-07-29T17:08:12.472Z</time>
      </trkpt>
      <trkpt lat="4.873825" lon="-74.077594">
        <ele>2602.2</ele>
        <time>2019-07-29T17:08:13.472Z</time>
      </trkpt>
      <trkpt lat="4.873843" lon="-74.077407">
        <ele>2601.6</ele>
        <time>2019-07-29T17:08:14.472Z</time>
      </trkpt>
      <trkpt lat="4.873831" lon="-74.077316">
        <ele>2601.2</ele>
        <time>2019-07-29T17:08:15.472Z</time>
      </trkpt>
      <trkpt lat="4.873794" lon="-74.077227">
        <ele>2600.4</ele>
        <time>2019-07-29T17:08:16.472Z</time>
      </trkpt>
      <trkpt lat="4.873741" lon="-74.077146">
        <ele>2599.4</ele>
        <time>2019-07-29T17:08:17.472Z</time>
      </trkpt>
      <trkpt lat="4.873677" lon="-74.077076">
        <ele>2598.2</ele>
        <time>2019-07-29T17:08:18.472Z</time>
      </trkpt>
      <trkpt lat="4.873607" lon="-74.077004">
        <ele>2597.2</ele>
        <time>2019-07-29T17:08:19.472Z</time>
      </trkpt>
      <trkpt lat="4.873457" lon="-74.076863">
        <ele>2595.6</ele>
        <time>2019-07-29T17:08:20.472Z</time>
      </trkpt>
      <trkpt lat="4.873398" lon="-74.076779">
        <ele>2595.2</ele>
        <time>2019-07-29T17:08:21.472Z</time>
      </trkpt>
      <trkpt lat="4.873281" lon="-74.076616">
        <ele>2594.2</ele>
        <time>2019-07-29T17:08:22.472Z</time>
      </trkpt>
      <trkpt lat="4.873138" lon="-74.076513">
        <ele>2592.8</ele>
        <time>2019-07-29T17:08:23.472Z</time>
      </trkpt>
      <trkpt lat="4.873049" lon="-74.076495">
        <ele>2592.2</ele>
        <time>2019-07-29T17:08:24.472Z</time>
      </trkpt>
      <trkpt lat="4.872952" lon="-74.076488">
        <ele>2591.6</ele>
        <time>2019-07-29T17:08:25.472Z</time>
      </trkpt>
      <trkpt lat="4.872773" lon="-74.076552">
        <ele>2591</ele>
        <time>2019-07-29T17:08:26.472Z</time>
      </trkpt>
      <trkpt lat="4.872605" lon="-74.076659">
        <ele>2591</ele>
        <time>2019-07-29T17:08:27.472Z</time>
      </trkpt>
      <trkpt lat="4.872543" lon="-74.076722">
        <ele>2590.8</ele>
        <time>2019-07-29T17:08:28.472Z</time>
      </trkpt>
      <trkpt lat="4.872502" lon="-74.076789">
        <ele>2590.4</ele>
        <time>2019-07-29T17:08:29.472Z</time>
      </trkpt>
      <trkpt lat="4.872466" lon="-74.076926">
        <ele>2588.6</ele>
        <time>2019-07-29T17:08:30.472Z</time>
      </trkpt>
      <trkpt lat="4.872527" lon="-74.077042">
        <ele>2587.4</ele>
        <time>2019-07-29T17:08:31.472Z</time>
      </trkpt>
      <trkpt lat="4.872688" lon="-74.077205">
        <ele>2586.4</ele>
        <time>2019-07-29T17:08:32.472Z</time>
      </trkpt>
      <trkpt lat="4.87285" lon="-74.077381">
        <ele>2586</ele>
        <time>2019-07-29T17:08:33.472Z</time>
      </trkpt>
      <trkpt lat="4.872896" lon="-74.077447">
        <ele>2585.8</ele>
        <time>2019-07-29T17:08:34.472Z</time>
      </trkpt>
      <trkpt lat="4.872935" lon="-74.077515">
        <ele>2585.2</ele>
        <time>2019-07-29T17:08:35.472Z</time>
      </trkpt>
      <trkpt lat="4.872958" lon="-74.077581">
        <ele>2584.6</ele>
        <time>2019-07-29T17:08:36.472Z</time>
      </trkpt>
      <trkpt lat="4.872953" lon="-74.077637">
        <ele>2583.8</ele>
        <time>2019-07-29T17:08:37.472Z</time>
      </trkpt>
      <trkpt lat="4.872923" lon="-74.077678">
        <ele>2583.6</ele>
        <time>2019-07-29T17:08:38.472Z</time>
      </trkpt>
      <trkpt lat="4.872829" lon="-74.07769">
        <ele>2583</ele>
        <time>2019-07-29T17:08:39.472Z</time>
      </trkpt>
      <trkpt lat="4.872786" lon="-74.077662">
        <ele>2583</ele>
        <time>2019-07-29T17:08:40.472Z</time>
      </trkpt>
      <trkpt lat="4.872554" lon="-74.077517">
        <ele>2582.6</ele>
        <time>2019-07-29T17:08:41.472Z</time>
      </trkpt>
      <trkpt lat="4.872401" lon="-74.077441">
        <ele>2581</ele>
        <time>2019-07-29T17:08:42.472Z</time>
      </trkpt>
      <trkpt lat="4.872311" lon="-74.077411">
        <ele>2580</ele>
        <time>2019-07-29T17:08:43.472Z</time>
      </trkpt>
      <trkpt lat="4.872216" lon="-74.07739">
        <ele>2579</ele>
        <time>2019-07-29T17:08:44.472Z</time>
      </trkpt>
      <trkpt lat="4.872119" lon="-74.077385">
        <ele>2577.8</ele>
        <time>2019-07-29T17:08:45.472Z</time>
      </trkpt>
      <trkpt lat="4.871914" lon="-74.077427">
        <ele>2576.2</ele>
        <time>2019-07-29T17:08:46.472Z</time>
      </trkpt>
      <trkpt lat="4.871716" lon="-74.077498">
        <ele>2575.2</ele>
        <time>2019-07-29T17:08:47.472Z</time>
      </trkpt>
      <trkpt lat="4.871518" lon="-74.077587">
        <ele>2573.4</ele>
        <time>2019-07-29T17:08:48.472Z</time>
      </trkpt>
      <trkpt lat="4.871338" lon="-74.077688">
        <ele>2572</ele>
        <time>2019-07-29T17:08:49.472Z</time>
      </trkpt>
      <trkpt lat="4.871148" lon="-74.077758">
        <ele>2570.6</ele>
        <time>2019-07-29T17:08:50.472Z</time>
      </trkpt>
      <trkpt lat="4.870631" lon="-74.07787">
        <ele>2569.2</ele>
        <time>2019-07-29T17:08:51.472Z</time>
      </trkpt>
      <trkpt lat="4.870518" lon="-74.077889">
        <ele>2568</ele>
        <time>2019-07-29T17:08:52.472Z</time>
      </trkpt>
      <trkpt lat="4.870407" lon="-74.077908">
        <ele>2566.6</ele>
        <time>2019-07-29T17:08:53.472Z</time>
      </trkpt>
      <trkpt lat="4.870194" lon="-74.077939">
        <ele>2565.6</ele>
        <time>2019-07-29T17:08:54.472Z</time>
      </trkpt>
      <trkpt lat="4.870094" lon="-74.077944">
        <ele>2565.2</ele>
        <time>2019-07-29T17:08:55.472Z</time>
      </trkpt>
      <trkpt lat="4.869994" lon="-74.07794">
        <ele>2565</ele>
        <time>2019-07-29T17:08:56.472Z</time>
      </trkpt>
      <trkpt lat="4.869899" lon="-74.077926">
        <ele>2564.6</ele>
        <time>2019-07-29T17:08:57.472Z</time>
      </trkpt>
      <trkpt lat="4.869806" lon="-74.077908">
        <ele>2564.4</ele>
        <time>2019-07-29T17:08:58.472Z</time>
      </trkpt>
      <trkpt lat="4.869624" lon="-74.077861">
        <ele>2563.4</ele>
        <time>2019-07-29T17:08:59.472Z</time>
      </trkpt>
      <trkpt lat="4.869437" lon="-74.077815">
        <ele>2562.4</ele>
        <time>2019-07-29T17:09:00.472Z</time>
      </trkpt>
      <trkpt lat="4.869171" lon="-74.077771">
        <ele>2561.6</ele>
        <time>2019-07-29T17:09:01.472Z</time>
      </trkpt>
      <trkpt lat="4.869089" lon="-74.077758">
        <ele>2561.4</ele>
        <time>2019-07-29T17:09:02.472Z</time>
      </trkpt>
      <trkpt lat="4.868909" lon="-74.077713">
        <ele>2560.2</ele>
        <time>2019-07-29T17:09:03.472Z</time>
      </trkpt>
      <trkpt lat="4.868658" lon="-74.077617">
        <ele>2559.2</ele>
        <time>2019-07-29T17:09:04.472Z</time>
      </trkpt>
      <trkpt lat="4.868348" lon="-74.077504">
        <ele>2558</ele>
        <time>2019-07-29T17:09:05.472Z</time>
      </trkpt>
      <trkpt lat="4.868165" lon="-74.077416">
        <ele>2556.8</ele>
        <time>2019-07-29T17:09:06.472Z</time>
      </trkpt>
      <trkpt lat="4.867992" lon="-74.077297">
        <ele>2555.6</ele>
        <time>2019-07-29T17:09:07.472Z</time>
      </trkpt>
      <trkpt lat="4.867938" lon="-74.077226">
        <ele>2555.2</ele>
        <time>2019-07-29T17:09:08.472Z</time>
      </trkpt>
      <trkpt lat="4.86789" lon="-74.077149">
        <ele>2555</ele>
        <time>2019-07-29T17:09:09.472Z</time>
      </trkpt>
      <trkpt lat="4.867844" lon="-74.077063">
        <ele>2554.6</ele>
        <time>2019-07-29T17:09:10.472Z</time>
      </trkpt>
      <trkpt lat="4.867769" lon="-74.07689">
        <ele>2553.2</ele>
        <time>2019-07-29T17:09:11.472Z</time>
      </trkpt>
      <trkpt lat="4.867648" lon="-74.076551">
        <ele>2551.6</ele>
        <time>2019-07-29T17:09:12.472Z</time>
      </trkpt>
      <trkpt lat="4.867562" lon="-74.076308">
        <ele>2552</ele>
        <time>2019-07-29T17:09:13.472Z</time>
      </trkpt>
      <trkpt lat="4.867436" lon="-74.07594">
        <ele>2551</ele>
        <time>2019-07-29T17:09:14.472Z</time>
      </trkpt>
      <trkpt lat="4.867418" lon="-74.075884">
        <ele>2550</ele>
        <time>2019-07-29T17:09:15.472Z</time>
      </trkpt>
    </trkseg>
  </trk>
</gpx>
